<?xml version="1.0" encoding="UTF-8" standalone="no" ?>
<gpx xmlns="http://www.topografix.com/GPX/1/1" xmlns:xsi="http://www.w3.org/2001/XMLSchema-instance" xsi:schemaLocation="http://www.topografix.com/GPX/1/1 http://www.topografix.com/GPX/1/1/gpx.xsd" version="1.1" creator="VisuGPX - https://www.visugpx.com">
  <metadata>
    <name>Tour en Thur 2023-05 17-21</name>
  </metadata>
  <trk>
    <name><![CDATA[18 mai 2023 à 08:21:17]]></name>
    <extensions>
      <line xmlns="http://www.topografix.com/GPX/gpx_style/0/2">
        <color>00ff00</color>
        <width>9</width>
      </line>
    </extensions>
    <trkseg>
      <trkpt lat="47.80263" lon="7.08114">
        <ele>645.7</ele>
        <time>2023-05-18T06:21:17Z</time>
      </trkpt>
      <trkpt lat="47.80263" lon="7.08114">
        <ele>645.7</ele>
        <time>2023-05-18T06:21:18Z</time>
      </trkpt>
      <trkpt lat="47.80266" lon="7.08109">
        <ele>645.9</ele>
        <time>2023-05-18T06:21:39Z</time>
      </trkpt>
      <trkpt lat="47.80261" lon="7.08098">
        <ele>643.7</ele>
        <time>2023-05-18T06:21:48Z</time>
      </trkpt>
      <trkpt lat="47.80261" lon="7.08079">
        <ele>641.5</ele>
        <time>2023-05-18T06:22:02Z</time>
      </trkpt>
      <trkpt lat="47.80258" lon="7.08074">
        <ele>642.1</ele>
        <time>2023-05-18T06:22:06Z</time>
      </trkpt>
      <trkpt lat="47.80258" lon="7.08057">
        <ele>641.9</ele>
        <time>2023-05-18T06:22:17Z</time>
      </trkpt>
      <trkpt lat="47.80261" lon="7.08051">
        <ele>640.7</ele>
        <time>2023-05-18T06:22:21Z</time>
      </trkpt>
      <trkpt lat="47.80264" lon="7.08047">
        <ele>639.6</ele>
        <time>2023-05-18T06:22:31Z</time>
      </trkpt>
      <trkpt lat="47.80275" lon="7.08004">
        <ele>635.5</ele>
        <time>2023-05-18T06:26:08Z</time>
      </trkpt>
      <trkpt lat="47.80275" lon="7.08003">
        <ele>635.5</ele>
        <time>2023-05-18T06:26:09Z</time>
      </trkpt>
      <trkpt lat="47.80275" lon="7.0799">
        <ele>634.5</ele>
        <time>2023-05-18T06:26:16Z</time>
      </trkpt>
      <trkpt lat="47.80274" lon="7.07981">
        <ele>634.2</ele>
        <time>2023-05-18T06:26:20Z</time>
      </trkpt>
      <trkpt lat="47.80272" lon="7.07974">
        <ele>634.7</ele>
        <time>2023-05-18T06:26:25Z</time>
      </trkpt>
      <trkpt lat="47.80271" lon="7.07964">
        <ele>634.8</ele>
        <time>2023-05-18T06:26:31Z</time>
      </trkpt>
      <trkpt lat="47.80276" lon="7.07943">
        <ele>631</ele>
        <time>2023-05-18T06:26:43Z</time>
      </trkpt>
      <trkpt lat="47.80274" lon="7.07937">
        <ele>632.1</ele>
        <time>2023-05-18T06:26:47Z</time>
      </trkpt>
      <trkpt lat="47.80275" lon="7.0793">
        <ele>631.5</ele>
        <time>2023-05-18T06:26:51Z</time>
      </trkpt>
      <trkpt lat="47.80275" lon="7.07923">
        <ele>631.5</ele>
        <time>2023-05-18T06:26:55Z</time>
      </trkpt>
      <trkpt lat="47.80274" lon="7.07915">
        <ele>632</ele>
        <time>2023-05-18T06:27:00Z</time>
      </trkpt>
      <trkpt lat="47.80275" lon="7.07907">
        <ele>631.2</ele>
        <time>2023-05-18T06:27:04Z</time>
      </trkpt>
      <trkpt lat="47.8028" lon="7.07891">
        <ele>627.5</ele>
        <time>2023-05-18T06:27:15Z</time>
      </trkpt>
      <trkpt lat="47.80281" lon="7.07882">
        <ele>626.5</ele>
        <time>2023-05-18T06:27:19Z</time>
      </trkpt>
      <trkpt lat="47.80284" lon="7.07875">
        <ele>624.2</ele>
        <time>2023-05-18T06:27:22Z</time>
      </trkpt>
      <trkpt lat="47.80284" lon="7.07868">
        <ele>624</ele>
        <time>2023-05-18T06:27:26Z</time>
      </trkpt>
      <trkpt lat="47.80286" lon="7.07862">
        <ele>622.4</ele>
        <time>2023-05-18T06:27:30Z</time>
      </trkpt>
      <trkpt lat="47.80285" lon="7.07845">
        <ele>621.9</ele>
        <time>2023-05-18T06:27:42Z</time>
      </trkpt>
      <trkpt lat="47.80285" lon="7.07838">
        <ele>621.4</ele>
        <time>2023-05-18T06:27:46Z</time>
      </trkpt>
      <trkpt lat="47.80284" lon="7.07818">
        <ele>619.5</ele>
        <time>2023-05-18T06:28:00Z</time>
      </trkpt>
      <trkpt lat="47.80282" lon="7.0781">
        <ele>619.4</ele>
        <time>2023-05-18T06:28:04Z</time>
      </trkpt>
      <trkpt lat="47.80281" lon="7.078">
        <ele>618.5</ele>
        <time>2023-05-18T06:28:10Z</time>
      </trkpt>
      <trkpt lat="47.80283" lon="7.07794">
        <ele>616.8</ele>
        <time>2023-05-18T06:28:14Z</time>
      </trkpt>
      <trkpt lat="47.80281" lon="7.07773">
        <ele>615.1</ele>
        <time>2023-05-18T06:28:25Z</time>
      </trkpt>
      <trkpt lat="47.80279" lon="7.07765">
        <ele>615.1</ele>
        <time>2023-05-18T06:28:29Z</time>
      </trkpt>
      <trkpt lat="47.8028" lon="7.07759">
        <ele>614.1</ele>
        <time>2023-05-18T06:28:32Z</time>
      </trkpt>
      <trkpt lat="47.80281" lon="7.07738">
        <ele>612.1</ele>
        <time>2023-05-18T06:28:46Z</time>
      </trkpt>
      <trkpt lat="47.80284" lon="7.07731">
        <ele>610.8</ele>
        <time>2023-05-18T06:28:50Z</time>
      </trkpt>
      <trkpt lat="47.80295" lon="7.07713">
        <ele>608.2</ele>
        <time>2023-05-18T06:29:01Z</time>
      </trkpt>
      <trkpt lat="47.80301" lon="7.07715">
        <ele>606.8</ele>
        <time>2023-05-18T06:29:05Z</time>
      </trkpt>
      <trkpt lat="47.80306" lon="7.0772">
        <ele>605.2</ele>
        <time>2023-05-18T06:29:07Z</time>
      </trkpt>
      <trkpt lat="47.80308" lon="7.07727">
        <ele>604.2</ele>
        <time>2023-05-18T06:29:10Z</time>
      </trkpt>
      <trkpt lat="47.80309" lon="7.07734">
        <ele>603.4</ele>
        <time>2023-05-18T06:29:13Z</time>
      </trkpt>
      <trkpt lat="47.80308" lon="7.07742">
        <ele>603</ele>
        <time>2023-05-18T06:29:16Z</time>
      </trkpt>
      <trkpt lat="47.80311" lon="7.07748">
        <ele>601.6</ele>
        <time>2023-05-18T06:29:20Z</time>
      </trkpt>
      <trkpt lat="47.80322" lon="7.07766">
        <ele>597.7</ele>
        <time>2023-05-18T06:29:32Z</time>
      </trkpt>
      <trkpt lat="47.80324" lon="7.07771">
        <ele>596.7</ele>
        <time>2023-05-18T06:29:36Z</time>
      </trkpt>
      <trkpt lat="47.80324" lon="7.07796">
        <ele>596.2</ele>
        <time>2023-05-18T06:29:52Z</time>
      </trkpt>
      <trkpt lat="47.80328" lon="7.07805">
        <ele>593.9</ele>
        <time>2023-05-18T06:29:57Z</time>
      </trkpt>
      <trkpt lat="47.8033" lon="7.07819">
        <ele>592</ele>
        <time>2023-05-18T06:30:05Z</time>
      </trkpt>
      <trkpt lat="47.8033" lon="7.07835">
        <ele>591.1</ele>
        <time>2023-05-18T06:30:13Z</time>
      </trkpt>
      <trkpt lat="47.80333" lon="7.0784">
        <ele>589</ele>
        <time>2023-05-18T06:30:17Z</time>
      </trkpt>
      <trkpt lat="47.80334" lon="7.07848">
        <ele>588</ele>
        <time>2023-05-18T06:30:20Z</time>
      </trkpt>
      <trkpt lat="47.80334" lon="7.07857">
        <ele>587.7</ele>
        <time>2023-05-18T06:30:24Z</time>
      </trkpt>
      <trkpt lat="47.80335" lon="7.07863">
        <ele>586.8</ele>
        <time>2023-05-18T06:30:28Z</time>
      </trkpt>
      <trkpt lat="47.80334" lon="7.07873">
        <ele>587.5</ele>
        <time>2023-05-18T06:30:34Z</time>
      </trkpt>
      <trkpt lat="47.80337" lon="7.07887">
        <ele>585.2</ele>
        <time>2023-05-18T06:30:40Z</time>
      </trkpt>
      <trkpt lat="47.80339" lon="7.07895">
        <ele>583.8</ele>
        <time>2023-05-18T06:30:46Z</time>
      </trkpt>
      <trkpt lat="47.80339" lon="7.07904">
        <ele>583.9</ele>
        <time>2023-05-18T06:30:54Z</time>
      </trkpt>
      <trkpt lat="47.8034" lon="7.07913">
        <ele>583.4</ele>
        <time>2023-05-18T06:30:59Z</time>
      </trkpt>
      <trkpt lat="47.80341" lon="7.0792">
        <ele>582.7</ele>
        <time>2023-05-18T06:31:04Z</time>
      </trkpt>
      <trkpt lat="47.80344" lon="7.07935">
        <ele>580.8</ele>
        <time>2023-05-18T06:31:11Z</time>
      </trkpt>
      <trkpt lat="47.80343" lon="7.07942">
        <ele>581.4</ele>
        <time>2023-05-18T06:31:13Z</time>
      </trkpt>
      <trkpt lat="47.80343" lon="7.07948">
        <ele>581.7</ele>
        <time>2023-05-18T06:31:17Z</time>
      </trkpt>
      <trkpt lat="47.80345" lon="7.07955">
        <ele>580.9</ele>
        <time>2023-05-18T06:31:20Z</time>
      </trkpt>
      <trkpt lat="47.80348" lon="7.0796">
        <ele>579.3</ele>
        <time>2023-05-18T06:31:23Z</time>
      </trkpt>
      <trkpt lat="47.8035" lon="7.07968">
        <ele>578.4</ele>
        <time>2023-05-18T06:31:29Z</time>
      </trkpt>
      <trkpt lat="47.80351" lon="7.07976">
        <ele>578.2</ele>
        <time>2023-05-18T06:31:34Z</time>
      </trkpt>
      <trkpt lat="47.80353" lon="7.07989">
        <ele>577.5</ele>
        <time>2023-05-18T06:31:42Z</time>
      </trkpt>
      <trkpt lat="47.80356" lon="7.08005">
        <ele>576.2</ele>
        <time>2023-05-18T06:31:50Z</time>
      </trkpt>
      <trkpt lat="47.80365" lon="7.08032">
        <ele>571.6</ele>
        <time>2023-05-18T06:32:07Z</time>
      </trkpt>
      <trkpt lat="47.80364" lon="7.0804">
        <ele>572.9</ele>
        <time>2023-05-18T06:32:11Z</time>
      </trkpt>
      <trkpt lat="47.80368" lon="7.08054">
        <ele>571.2</ele>
        <time>2023-05-18T06:32:19Z</time>
      </trkpt>
      <trkpt lat="47.80371" lon="7.08059">
        <ele>569.6</ele>
        <time>2023-05-18T06:32:24Z</time>
      </trkpt>
      <trkpt lat="47.80374" lon="7.0807">
        <ele>568.5</ele>
        <time>2023-05-18T06:32:31Z</time>
      </trkpt>
      <trkpt lat="47.80377" lon="7.08078">
        <ele>567.1</ele>
        <time>2023-05-18T06:32:36Z</time>
      </trkpt>
      <trkpt lat="47.80382" lon="7.08108">
        <ele>566.8</ele>
        <time>2023-05-18T06:32:53Z</time>
      </trkpt>
      <trkpt lat="47.80387" lon="7.08118">
        <ele>564.4</ele>
        <time>2023-05-18T06:32:59Z</time>
      </trkpt>
      <trkpt lat="47.80391" lon="7.08121">
        <ele>562.2</ele>
        <time>2023-05-18T06:33:02Z</time>
      </trkpt>
      <trkpt lat="47.80399" lon="7.0814">
        <ele>559.9</ele>
        <time>2023-05-18T06:33:17Z</time>
      </trkpt>
      <trkpt lat="47.80408" lon="7.08179">
        <ele>557.6</ele>
        <time>2023-05-18T06:33:40Z</time>
      </trkpt>
      <trkpt lat="47.80417" lon="7.08199">
        <ele>553.1</ele>
        <time>2023-05-18T06:33:53Z</time>
      </trkpt>
      <trkpt lat="47.80426" lon="7.08242">
        <ele>549.1</ele>
        <time>2023-05-18T06:34:20Z</time>
      </trkpt>
      <trkpt lat="47.80428" lon="7.08232">
        <ele>548.2</ele>
        <time>2023-05-18T06:34:26Z</time>
      </trkpt>
      <trkpt lat="47.8043" lon="7.08236">
        <ele>546.8</ele>
        <time>2023-05-18T06:34:40Z</time>
      </trkpt>
      <trkpt lat="47.80433" lon="7.0825">
        <ele>544.4</ele>
        <time>2023-05-18T06:34:46Z</time>
      </trkpt>
      <trkpt lat="47.80432" lon="7.08257">
        <ele>544.4</ele>
        <time>2023-05-18T06:34:50Z</time>
      </trkpt>
      <trkpt lat="47.80436" lon="7.08265">
        <ele>541</ele>
        <time>2023-05-18T06:34:54Z</time>
      </trkpt>
      <trkpt lat="47.80436" lon="7.08285">
        <ele>539.1</ele>
        <time>2023-05-18T06:35:07Z</time>
      </trkpt>
      <trkpt lat="47.80438" lon="7.08303">
        <ele>536.2</ele>
        <time>2023-05-18T06:35:19Z</time>
      </trkpt>
      <trkpt lat="47.80437" lon="7.08311">
        <ele>536.2</ele>
        <time>2023-05-18T06:35:22Z</time>
      </trkpt>
      <trkpt lat="47.80438" lon="7.08318">
        <ele>535</ele>
        <time>2023-05-18T06:35:25Z</time>
      </trkpt>
      <trkpt lat="47.80437" lon="7.08325">
        <ele>535.2</ele>
        <time>2023-05-18T06:35:31Z</time>
      </trkpt>
      <trkpt lat="47.80437" lon="7.08357">
        <ele>532</ele>
        <time>2023-05-18T06:35:48Z</time>
      </trkpt>
      <trkpt lat="47.80435" lon="7.08364">
        <ele>532.4</ele>
        <time>2023-05-18T06:35:51Z</time>
      </trkpt>
      <trkpt lat="47.80435" lon="7.08385">
        <ele>529.3</ele>
        <time>2023-05-18T06:36:10Z</time>
      </trkpt>
      <trkpt lat="47.80438" lon="7.0841">
        <ele>524.5</ele>
        <time>2023-05-18T06:36:24Z</time>
      </trkpt>
      <trkpt lat="47.80436" lon="7.08423">
        <ele>524.4</ele>
        <time>2023-05-18T06:36:32Z</time>
      </trkpt>
      <trkpt lat="47.80437" lon="7.08429">
        <ele>523.4</ele>
        <time>2023-05-18T06:36:36Z</time>
      </trkpt>
      <trkpt lat="47.80438" lon="7.08466">
        <ele>519.2</ele>
        <time>2023-05-18T06:36:56Z</time>
      </trkpt>
      <trkpt lat="47.80434" lon="7.0849">
        <ele>517</ele>
        <time>2023-05-18T06:37:07Z</time>
      </trkpt>
      <trkpt lat="47.80434" lon="7.08499">
        <ele>515.1</ele>
        <time>2023-05-18T06:37:15Z</time>
      </trkpt>
      <trkpt lat="47.80432" lon="7.08507">
        <ele>513.6</ele>
        <time>2023-05-18T06:37:19Z</time>
      </trkpt>
      <trkpt lat="47.8043" lon="7.08512">
        <ele>512.8</ele>
        <time>2023-05-18T06:37:23Z</time>
      </trkpt>
      <trkpt lat="47.80407" lon="7.08533">
        <ele>511.8</ele>
        <time>2023-05-18T06:37:45Z</time>
      </trkpt>
      <trkpt lat="47.80391" lon="7.08562">
        <ele>506.2</ele>
        <time>2023-05-18T06:38:08Z</time>
      </trkpt>
      <trkpt lat="47.80388" lon="7.0857">
        <ele>504.7</ele>
        <time>2023-05-18T06:38:14Z</time>
      </trkpt>
      <trkpt lat="47.80383" lon="7.08575">
        <ele>505.3</ele>
        <time>2023-05-18T06:38:17Z</time>
      </trkpt>
      <trkpt lat="47.80382" lon="7.08582">
        <ele>503.6</ele>
        <time>2023-05-18T06:38:21Z</time>
      </trkpt>
      <trkpt lat="47.80383" lon="7.08605">
        <ele>501.1</ele>
        <time>2023-05-18T06:38:31Z</time>
      </trkpt>
      <trkpt lat="47.80388" lon="7.08615">
        <ele>497.8</ele>
        <time>2023-05-18T06:38:40Z</time>
      </trkpt>
      <trkpt lat="47.8039" lon="7.08621">
        <ele>497.1</ele>
        <time>2023-05-18T06:38:45Z</time>
      </trkpt>
      <trkpt lat="47.80394" lon="7.08634">
        <ele>495.8</ele>
        <time>2023-05-18T06:38:57Z</time>
      </trkpt>
      <trkpt lat="47.80402" lon="7.08647">
        <ele>492.3</ele>
        <time>2023-05-18T06:39:06Z</time>
      </trkpt>
      <trkpt lat="47.80406" lon="7.08651">
        <ele>490.5</ele>
        <time>2023-05-18T06:39:09Z</time>
      </trkpt>
      <trkpt lat="47.80408" lon="7.08658">
        <ele>490.1</ele>
        <time>2023-05-18T06:39:13Z</time>
      </trkpt>
      <trkpt lat="47.80407" lon="7.08666">
        <ele>491.5</ele>
        <time>2023-05-18T06:39:17Z</time>
      </trkpt>
      <trkpt lat="47.80414" lon="7.08682">
        <ele>489.1</ele>
        <time>2023-05-18T06:39:28Z</time>
      </trkpt>
      <trkpt lat="47.80416" lon="7.08689">
        <ele>488.8</ele>
        <time>2023-05-18T06:39:33Z</time>
      </trkpt>
      <trkpt lat="47.80422" lon="7.08702">
        <ele>486.8</ele>
        <time>2023-05-18T06:39:41Z</time>
      </trkpt>
      <trkpt lat="47.80421" lon="7.08709">
        <ele>487.8</ele>
        <time>2023-05-18T06:39:46Z</time>
      </trkpt>
      <trkpt lat="47.80426" lon="7.08714">
        <ele>485.5</ele>
        <time>2023-05-18T06:39:50Z</time>
      </trkpt>
      <trkpt lat="47.80426" lon="7.08725">
        <ele>486</ele>
        <time>2023-05-18T06:39:56Z</time>
      </trkpt>
      <trkpt lat="47.80432" lon="7.08737">
        <ele>482.7</ele>
        <time>2023-05-18T06:40:02Z</time>
      </trkpt>
      <trkpt lat="47.80439" lon="7.08788">
        <ele>477.2</ele>
        <time>2023-05-18T06:40:33Z</time>
      </trkpt>
      <trkpt lat="47.8044" lon="7.08797">
        <ele>476</ele>
        <time>2023-05-18T06:40:37Z</time>
      </trkpt>
      <trkpt lat="47.8044" lon="7.08805">
        <ele>475.4</ele>
        <time>2023-05-18T06:40:42Z</time>
      </trkpt>
      <trkpt lat="47.80438" lon="7.08813">
        <ele>475.4</ele>
        <time>2023-05-18T06:40:46Z</time>
      </trkpt>
      <trkpt lat="47.80438" lon="7.0882">
        <ele>474.4</ele>
        <time>2023-05-18T06:40:49Z</time>
      </trkpt>
      <trkpt lat="47.80436" lon="7.08838">
        <ele>472.8</ele>
        <time>2023-05-18T06:40:59Z</time>
      </trkpt>
      <trkpt lat="47.80437" lon="7.08845">
        <ele>471.2</ele>
        <time>2023-05-18T06:41:03Z</time>
      </trkpt>
      <trkpt lat="47.80435" lon="7.08853">
        <ele>471</ele>
        <time>2023-05-18T06:41:08Z</time>
      </trkpt>
      <trkpt lat="47.80435" lon="7.0886">
        <ele>469.9</ele>
        <time>2023-05-18T06:41:12Z</time>
      </trkpt>
      <trkpt lat="47.80434" lon="7.08866">
        <ele>469</ele>
        <time>2023-05-18T06:41:15Z</time>
      </trkpt>
      <trkpt lat="47.80427" lon="7.0889">
        <ele>466.5</ele>
        <time>2023-05-18T06:41:31Z</time>
      </trkpt>
      <trkpt lat="47.80426" lon="7.08897">
        <ele>465.4</ele>
        <time>2023-05-18T06:41:35Z</time>
      </trkpt>
      <trkpt lat="47.80423" lon="7.08907">
        <ele>464.5</ele>
        <time>2023-05-18T06:41:41Z</time>
      </trkpt>
      <trkpt lat="47.8042" lon="7.08915">
        <ele>464</ele>
        <time>2023-05-18T06:41:47Z</time>
      </trkpt>
      <trkpt lat="47.80418" lon="7.0893">
        <ele>461.1</ele>
        <time>2023-05-18T06:41:55Z</time>
      </trkpt>
      <trkpt lat="47.80413" lon="7.0894">
        <ele>460.9</ele>
        <time>2023-05-18T06:42:02Z</time>
      </trkpt>
      <trkpt lat="47.8041" lon="7.08966">
        <ele>458.7</ele>
        <time>2023-05-18T06:42:19Z</time>
      </trkpt>
      <trkpt lat="47.80411" lon="7.08972">
        <ele>457.5</ele>
        <time>2023-05-18T06:42:24Z</time>
      </trkpt>
      <trkpt lat="47.80412" lon="7.08988">
        <ele>455.3</ele>
        <time>2023-05-18T06:42:32Z</time>
      </trkpt>
      <trkpt lat="47.8041" lon="7.09">
        <ele>454.9</ele>
        <time>2023-05-18T06:42:42Z</time>
      </trkpt>
      <trkpt lat="47.80407" lon="7.09006">
        <ele>455.3</ele>
        <time>2023-05-18T06:42:46Z</time>
      </trkpt>
      <trkpt lat="47.80405" lon="7.09013">
        <ele>455.2</ele>
        <time>2023-05-18T06:42:49Z</time>
      </trkpt>
      <trkpt lat="47.80401" lon="7.09027">
        <ele>454.9</ele>
        <time>2023-05-18T06:42:56Z</time>
      </trkpt>
      <trkpt lat="47.80398" lon="7.09032">
        <ele>455.3</ele>
        <time>2023-05-18T06:43:00Z</time>
      </trkpt>
      <trkpt lat="47.80395" lon="7.09048">
        <ele>453.7</ele>
        <time>2023-05-18T06:43:08Z</time>
      </trkpt>
      <trkpt lat="47.80392" lon="7.09056">
        <ele>453.6</ele>
        <time>2023-05-18T06:43:13Z</time>
      </trkpt>
      <trkpt lat="47.8039" lon="7.09062">
        <ele>453.6</ele>
        <time>2023-05-18T06:43:16Z</time>
      </trkpt>
      <trkpt lat="47.80387" lon="7.09068">
        <ele>454</ele>
        <time>2023-05-18T06:43:20Z</time>
      </trkpt>
      <trkpt lat="47.80386" lon="7.09074">
        <ele>453.5</ele>
        <time>2023-05-18T06:43:25Z</time>
      </trkpt>
      <trkpt lat="47.80383" lon="7.09081">
        <ele>453.7</ele>
        <time>2023-05-18T06:43:29Z</time>
      </trkpt>
      <trkpt lat="47.80379" lon="7.09084">
        <ele>454.8</ele>
        <time>2023-05-18T06:43:33Z</time>
      </trkpt>
      <trkpt lat="47.80376" lon="7.0909">
        <ele>454.9</ele>
        <time>2023-05-18T06:43:36Z</time>
      </trkpt>
      <trkpt lat="47.8037" lon="7.09103">
        <ele>454.9</ele>
        <time>2023-05-18T06:43:45Z</time>
      </trkpt>
      <trkpt lat="47.80365" lon="7.0911">
        <ele>455.7</ele>
        <time>2023-05-18T06:43:51Z</time>
      </trkpt>
      <trkpt lat="47.80356" lon="7.09114">
        <ele>456</ele>
        <time>2023-05-18T06:43:58Z</time>
      </trkpt>
      <trkpt lat="47.80352" lon="7.09119">
        <ele>454.6</ele>
        <time>2023-05-18T06:44:02Z</time>
      </trkpt>
      <trkpt lat="47.80349" lon="7.09125">
        <ele>453.1</ele>
        <time>2023-05-18T06:44:05Z</time>
      </trkpt>
      <trkpt lat="47.80343" lon="7.09126">
        <ele>452.5</ele>
        <time>2023-05-18T06:44:12Z</time>
      </trkpt>
      <trkpt lat="47.80339" lon="7.09123">
        <ele>452.8</ele>
        <time>2023-05-18T06:44:15Z</time>
      </trkpt>
      <trkpt lat="47.80331" lon="7.09114">
        <ele>453.4</ele>
        <time>2023-05-18T06:44:24Z</time>
      </trkpt>
      <trkpt lat="47.80326" lon="7.09109">
        <ele>452.2</ele>
        <time>2023-05-18T06:44:30Z</time>
      </trkpt>
      <trkpt lat="47.80319" lon="7.09097">
        <ele>451.1</ele>
        <time>2023-05-18T06:44:38Z</time>
      </trkpt>
      <trkpt lat="47.80318" lon="7.0909">
        <ele>451.8</ele>
        <time>2023-05-18T06:44:42Z</time>
      </trkpt>
      <trkpt lat="47.80313" lon="7.09086">
        <ele>450.1</ele>
        <time>2023-05-18T06:44:48Z</time>
      </trkpt>
      <trkpt lat="47.80306" lon="7.0906">
        <ele>448.9</ele>
        <time>2023-05-18T06:45:01Z</time>
      </trkpt>
      <trkpt lat="47.80305" lon="7.09054">
        <ele>449.1</ele>
        <time>2023-05-18T06:45:05Z</time>
      </trkpt>
      <trkpt lat="47.80299" lon="7.09048">
        <ele>448.7</ele>
        <time>2023-05-18T06:45:10Z</time>
      </trkpt>
      <trkpt lat="47.80294" lon="7.09048">
        <ele>447.2</ele>
        <time>2023-05-18T06:45:13Z</time>
      </trkpt>
      <trkpt lat="47.80289" lon="7.09044">
        <ele>447</ele>
        <time>2023-05-18T06:45:15Z</time>
      </trkpt>
      <trkpt lat="47.80284" lon="7.09042">
        <ele>446.4</ele>
        <time>2023-05-18T06:45:23Z</time>
      </trkpt>
      <trkpt lat="47.80292" lon="7.09021">
        <ele>455.5</ele>
        <time>2023-05-18T06:45:36Z</time>
      </trkpt>
      <trkpt lat="47.80284" lon="7.09035">
        <ele>449.1</ele>
        <time>2023-05-18T06:45:45Z</time>
      </trkpt>
      <trkpt lat="47.8028" lon="7.09041">
        <ele>445.8</ele>
        <time>2023-05-18T06:45:49Z</time>
      </trkpt>
      <trkpt lat="47.80276" lon="7.0904">
        <ele>445.4</ele>
        <time>2023-05-18T06:45:53Z</time>
      </trkpt>
      <trkpt lat="47.8027" lon="7.09042">
        <ele>443.3</ele>
        <time>2023-05-18T06:45:59Z</time>
      </trkpt>
      <trkpt lat="47.80265" lon="7.09045">
        <ele>441.2</ele>
        <time>2023-05-18T06:46:02Z</time>
      </trkpt>
      <trkpt lat="47.8026" lon="7.09046">
        <ele>439.9</ele>
        <time>2023-05-18T06:46:05Z</time>
      </trkpt>
      <trkpt lat="47.80253" lon="7.09043">
        <ele>439.6</ele>
        <time>2023-05-18T06:46:11Z</time>
      </trkpt>
      <trkpt lat="47.80249" lon="7.09046">
        <ele>438.3</ele>
        <time>2023-05-18T06:46:14Z</time>
      </trkpt>
      <trkpt lat="47.80244" lon="7.09046">
        <ele>439.2</ele>
        <time>2023-05-18T06:46:18Z</time>
      </trkpt>
      <trkpt lat="47.80241" lon="7.09056">
        <ele>436.8</ele>
        <time>2023-05-18T06:46:24Z</time>
      </trkpt>
      <trkpt lat="47.80239" lon="7.09074">
        <ele>432.7</ele>
        <time>2023-05-18T06:46:36Z</time>
      </trkpt>
      <trkpt lat="47.80236" lon="7.0908">
        <ele>431.9</ele>
        <time>2023-05-18T06:46:39Z</time>
      </trkpt>
      <trkpt lat="47.80229" lon="7.09088">
        <ele>431.1</ele>
        <time>2023-05-18T06:46:46Z</time>
      </trkpt>
      <trkpt lat="47.80219" lon="7.09091">
        <ele>431.3</ele>
        <time>2023-05-18T06:46:53Z</time>
      </trkpt>
      <trkpt lat="47.80208" lon="7.09092">
        <ele>430.1</ele>
        <time>2023-05-18T06:47:00Z</time>
      </trkpt>
      <trkpt lat="47.80203" lon="7.09088">
        <ele>430.8</ele>
        <time>2023-05-18T06:47:03Z</time>
      </trkpt>
      <trkpt lat="47.80198" lon="7.09089">
        <ele>430.1</ele>
        <time>2023-05-18T06:47:07Z</time>
      </trkpt>
      <trkpt lat="47.80184" lon="7.09092">
        <ele>430.5</ele>
        <time>2023-05-18T06:47:17Z</time>
      </trkpt>
      <trkpt lat="47.80174" lon="7.09103">
        <ele>430</ele>
        <time>2023-05-18T06:47:28Z</time>
      </trkpt>
      <trkpt lat="47.80174" lon="7.09113">
        <ele>428.5</ele>
        <time>2023-05-18T06:47:34Z</time>
      </trkpt>
      <trkpt lat="47.80176" lon="7.09122">
        <ele>427.3</ele>
        <time>2023-05-18T06:47:42Z</time>
      </trkpt>
      <trkpt lat="47.80179" lon="7.09135">
        <ele>425.3</ele>
        <time>2023-05-18T06:47:49Z</time>
      </trkpt>
      <trkpt lat="47.80176" lon="7.09195">
        <ele>421.2</ele>
        <time>2023-05-18T06:48:22Z</time>
      </trkpt>
      <trkpt lat="47.80175" lon="7.09202">
        <ele>420.7</ele>
        <time>2023-05-18T06:48:26Z</time>
      </trkpt>
      <trkpt lat="47.80176" lon="7.09199">
        <ele>420.8</ele>
        <time>2023-05-18T06:48:49Z</time>
      </trkpt>
      <trkpt lat="47.80176" lon="7.09192">
        <ele>421.5</ele>
        <time>2023-05-18T06:48:53Z</time>
      </trkpt>
      <trkpt lat="47.80177" lon="7.09185">
        <ele>421.6</ele>
        <time>2023-05-18T06:48:57Z</time>
      </trkpt>
      <trkpt lat="47.80183" lon="7.09173">
        <ele>420.4</ele>
        <time>2023-05-18T06:49:04Z</time>
      </trkpt>
      <trkpt lat="47.80187" lon="7.09166">
        <ele>419.5</ele>
        <time>2023-05-18T06:49:09Z</time>
      </trkpt>
      <trkpt lat="47.80192" lon="7.09164">
        <ele>418.2</ele>
        <time>2023-05-18T06:49:12Z</time>
      </trkpt>
      <trkpt lat="47.80198" lon="7.09167">
        <ele>416.5</ele>
        <time>2023-05-18T06:49:14Z</time>
      </trkpt>
      <trkpt lat="47.80206" lon="7.09174">
        <ele>414.9</ele>
        <time>2023-05-18T06:49:18Z</time>
      </trkpt>
      <trkpt lat="47.80205" lon="7.09189">
        <ele>414.1</ele>
        <time>2023-05-18T06:49:25Z</time>
      </trkpt>
      <trkpt lat="47.80195" lon="7.09203">
        <ele>414.7</ele>
        <time>2023-05-18T06:49:34Z</time>
      </trkpt>
      <trkpt lat="47.80192" lon="7.0921">
        <ele>414.5</ele>
        <time>2023-05-18T06:49:38Z</time>
      </trkpt>
      <trkpt lat="47.8019" lon="7.09223">
        <ele>413.4</ele>
        <time>2023-05-18T06:49:44Z</time>
      </trkpt>
      <trkpt lat="47.80188" lon="7.09252">
        <ele>413.2</ele>
        <time>2023-05-18T06:49:59Z</time>
      </trkpt>
      <trkpt lat="47.8019" lon="7.09259">
        <ele>412.1</ele>
        <time>2023-05-18T06:50:03Z</time>
      </trkpt>
      <trkpt lat="47.80188" lon="7.09266">
        <ele>412.1</ele>
        <time>2023-05-18T06:50:16Z</time>
      </trkpt>
      <trkpt lat="47.80187" lon="7.09275">
        <ele>411.6</ele>
        <time>2023-05-18T06:50:22Z</time>
      </trkpt>
      <trkpt lat="47.80183" lon="7.09296">
        <ele>411.3</ele>
        <time>2023-05-18T06:50:34Z</time>
      </trkpt>
      <trkpt lat="47.80176" lon="7.09341">
        <ele>409</ele>
        <time>2023-05-18T06:51:00Z</time>
      </trkpt>
      <trkpt lat="47.80176" lon="7.09349">
        <ele>408.7</ele>
        <time>2023-05-18T06:51:04Z</time>
      </trkpt>
      <trkpt lat="47.80175" lon="7.09363">
        <ele>408.5</ele>
        <time>2023-05-18T06:51:11Z</time>
      </trkpt>
      <trkpt lat="47.80176" lon="7.0937">
        <ele>407.6</ele>
        <time>2023-05-18T06:51:15Z</time>
      </trkpt>
      <trkpt lat="47.80174" lon="7.09378">
        <ele>407.6</ele>
        <time>2023-05-18T06:51:19Z</time>
      </trkpt>
      <trkpt lat="47.80175" lon="7.09386">
        <ele>406.5</ele>
        <time>2023-05-18T06:51:24Z</time>
      </trkpt>
      <trkpt lat="47.80175" lon="7.09395">
        <ele>405.8</ele>
        <time>2023-05-18T06:51:29Z</time>
      </trkpt>
      <trkpt lat="47.80176" lon="7.09416">
        <ele>403.7</ele>
        <time>2023-05-18T06:51:40Z</time>
      </trkpt>
      <trkpt lat="47.80187" lon="7.09474">
        <ele>400.3</ele>
        <time>2023-05-18T06:52:13Z</time>
      </trkpt>
      <trkpt lat="47.80189" lon="7.09481">
        <ele>399.7</ele>
        <time>2023-05-18T06:52:17Z</time>
      </trkpt>
      <trkpt lat="47.80191" lon="7.09487">
        <ele>399.2</ele>
        <time>2023-05-18T06:52:20Z</time>
      </trkpt>
      <trkpt lat="47.80191" lon="7.09495">
        <ele>398.9</ele>
        <time>2023-05-18T06:52:24Z</time>
      </trkpt>
      <trkpt lat="47.80193" lon="7.09512">
        <ele>397.5</ele>
        <time>2023-05-18T06:52:32Z</time>
      </trkpt>
      <trkpt lat="47.80192" lon="7.09533">
        <ele>396.7</ele>
        <time>2023-05-18T06:52:44Z</time>
      </trkpt>
      <trkpt lat="47.80193" lon="7.0954">
        <ele>396.4</ele>
        <time>2023-05-18T06:52:48Z</time>
      </trkpt>
      <trkpt lat="47.80197" lon="7.09545">
        <ele>395.6</ele>
        <time>2023-05-18T06:52:53Z</time>
      </trkpt>
      <trkpt lat="47.80202" lon="7.09541">
        <ele>394.8</ele>
        <time>2023-05-18T06:53:03Z</time>
      </trkpt>
      <trkpt lat="47.80204" lon="7.09534">
        <ele>394.5</ele>
        <time>2023-05-18T06:53:07Z</time>
      </trkpt>
      <trkpt lat="47.80205" lon="7.09528">
        <ele>394.5</ele>
        <time>2023-05-18T06:53:11Z</time>
      </trkpt>
      <trkpt lat="47.80211" lon="7.09509">
        <ele>394.6</ele>
        <time>2023-05-18T06:53:23Z</time>
      </trkpt>
      <trkpt lat="47.80215" lon="7.09504">
        <ele>394.1</ele>
        <time>2023-05-18T06:53:27Z</time>
      </trkpt>
      <trkpt lat="47.8022" lon="7.095">
        <ele>393.4</ele>
        <time>2023-05-18T06:53:31Z</time>
      </trkpt>
      <trkpt lat="47.80224" lon="7.09503">
        <ele>392.6</ele>
        <time>2023-05-18T06:53:34Z</time>
      </trkpt>
      <trkpt lat="47.8026" lon="7.09534">
        <ele>385.8</ele>
        <time>2023-05-18T06:54:08Z</time>
      </trkpt>
      <trkpt lat="47.80275" lon="7.09543">
        <ele>383.8</ele>
        <time>2023-05-18T06:54:20Z</time>
      </trkpt>
      <trkpt lat="47.80283" lon="7.09545">
        <ele>382.6</ele>
        <time>2023-05-18T06:54:28Z</time>
      </trkpt>
      <trkpt lat="47.80304" lon="7.09542">
        <ele>379.7</ele>
        <time>2023-05-18T06:54:44Z</time>
      </trkpt>
      <trkpt lat="47.80337" lon="7.09549">
        <ele>374.7</ele>
        <time>2023-05-18T06:55:15Z</time>
      </trkpt>
      <trkpt lat="47.8038" lon="7.09575">
        <ele>368.9</ele>
        <time>2023-05-18T06:55:48Z</time>
      </trkpt>
      <trkpt lat="47.80389" lon="7.09583">
        <ele>367</ele>
        <time>2023-05-18T06:55:56Z</time>
      </trkpt>
      <trkpt lat="47.80404" lon="7.09586">
        <ele>366</ele>
        <time>2023-05-18T06:56:09Z</time>
      </trkpt>
      <trkpt lat="47.80439" lon="7.09608">
        <ele>362.7</ele>
        <time>2023-05-18T06:56:42Z</time>
      </trkpt>
      <trkpt lat="47.80446" lon="7.09608">
        <ele>362</ele>
        <time>2023-05-18T06:56:49Z</time>
      </trkpt>
      <trkpt lat="47.80452" lon="7.0961">
        <ele>361.5</ele>
        <time>2023-05-18T06:56:52Z</time>
      </trkpt>
      <trkpt lat="47.80492" lon="7.09631">
        <ele>357.9</ele>
        <time>2023-05-18T06:57:26Z</time>
      </trkpt>
      <trkpt lat="47.80505" lon="7.09636">
        <ele>356.9</ele>
        <time>2023-05-18T06:57:35Z</time>
      </trkpt>
      <trkpt lat="47.80513" lon="7.09644">
        <ele>356.5</ele>
        <time>2023-05-18T06:57:42Z</time>
      </trkpt>
      <trkpt lat="47.8052" lon="7.09644">
        <ele>356.3</ele>
        <time>2023-05-18T06:57:49Z</time>
      </trkpt>
      <trkpt lat="47.80528" lon="7.09637">
        <ele>356.1</ele>
        <time>2023-05-18T06:57:56Z</time>
      </trkpt>
      <trkpt lat="47.80533" lon="7.09635">
        <ele>355.9</ele>
        <time>2023-05-18T06:58:01Z</time>
      </trkpt>
      <trkpt lat="47.80544" lon="7.09635">
        <ele>355.5</ele>
        <time>2023-05-18T06:58:10Z</time>
      </trkpt>
      <trkpt lat="47.80551" lon="7.09637">
        <ele>355.2</ele>
        <time>2023-05-18T06:58:18Z</time>
      </trkpt>
      <trkpt lat="47.80563" lon="7.09634">
        <ele>355.9</ele>
        <time>2023-05-18T06:58:25Z</time>
      </trkpt>
      <trkpt lat="47.8057" lon="7.09635">
        <ele>356.6</ele>
        <time>2023-05-18T06:58:34Z</time>
      </trkpt>
      <trkpt lat="47.80579" lon="7.09662">
        <ele>356.8</ele>
        <time>2023-05-18T06:58:46Z</time>
      </trkpt>
      <trkpt lat="47.80579" lon="7.09669">
        <ele>356.5</ele>
        <time>2023-05-18T06:58:50Z</time>
      </trkpt>
      <trkpt lat="47.80588" lon="7.09728">
        <ele>354.6</ele>
        <time>2023-05-18T06:59:22Z</time>
      </trkpt>
      <trkpt lat="47.80589" lon="7.09744">
        <ele>353.9</ele>
        <time>2023-05-18T06:59:30Z</time>
      </trkpt>
      <trkpt lat="47.80592" lon="7.0975">
        <ele>353.9</ele>
        <time>2023-05-18T06:59:34Z</time>
      </trkpt>
      <trkpt lat="47.80594" lon="7.09757">
        <ele>354</ele>
        <time>2023-05-18T06:59:39Z</time>
      </trkpt>
      <trkpt lat="47.80594" lon="7.09765">
        <ele>353.7</ele>
        <time>2023-05-18T06:59:44Z</time>
      </trkpt>
      <trkpt lat="47.80597" lon="7.09777">
        <ele>353.5</ele>
        <time>2023-05-18T06:59:51Z</time>
      </trkpt>
      <trkpt lat="47.80597" lon="7.09812">
        <ele>352.4</ele>
        <time>2023-05-18T07:00:08Z</time>
      </trkpt>
      <trkpt lat="47.80599" lon="7.09825">
        <ele>352.2</ele>
        <time>2023-05-18T07:00:15Z</time>
      </trkpt>
      <trkpt lat="47.80602" lon="7.09862">
        <ele>351.3</ele>
        <time>2023-05-18T07:00:32Z</time>
      </trkpt>
      <trkpt lat="47.80606" lon="7.09876">
        <ele>350.6</ele>
        <time>2023-05-18T07:00:41Z</time>
      </trkpt>
      <trkpt lat="47.8061" lon="7.09881">
        <ele>350.3</ele>
        <time>2023-05-18T07:00:44Z</time>
      </trkpt>
      <trkpt lat="47.80612" lon="7.09886">
        <ele>350.1</ele>
        <time>2023-05-18T07:00:48Z</time>
      </trkpt>
      <trkpt lat="47.80612" lon="7.09893">
        <ele>349.9</ele>
        <time>2023-05-18T07:00:52Z</time>
      </trkpt>
      <trkpt lat="47.80616" lon="7.09906">
        <ele>349.6</ele>
        <time>2023-05-18T07:01:00Z</time>
      </trkpt>
      <trkpt lat="47.80634" lon="7.09951">
        <ele>348.8</ele>
        <time>2023-05-18T07:01:29Z</time>
      </trkpt>
      <trkpt lat="47.80637" lon="7.09956">
        <ele>348.6</ele>
        <time>2023-05-18T07:01:32Z</time>
      </trkpt>
      <trkpt lat="47.80659" lon="7.10007">
        <ele>347.8</ele>
        <time>2023-05-18T07:02:04Z</time>
      </trkpt>
      <trkpt lat="47.80663" lon="7.10013">
        <ele>347.6</ele>
        <time>2023-05-18T07:02:07Z</time>
      </trkpt>
      <trkpt lat="47.80667" lon="7.10027">
        <ele>347</ele>
        <time>2023-05-18T07:02:15Z</time>
      </trkpt>
      <trkpt lat="47.8067" lon="7.1004">
        <ele>346.6</ele>
        <time>2023-05-18T07:02:22Z</time>
      </trkpt>
      <trkpt lat="47.80672" lon="7.10047">
        <ele>346.4</ele>
        <time>2023-05-18T07:02:26Z</time>
      </trkpt>
      <trkpt lat="47.80674" lon="7.10062">
        <ele>346.2</ele>
        <time>2023-05-18T07:02:34Z</time>
      </trkpt>
      <trkpt lat="47.80682" lon="7.10092">
        <ele>346</ele>
        <time>2023-05-18T07:02:50Z</time>
      </trkpt>
      <trkpt lat="47.80682" lon="7.101">
        <ele>346</ele>
        <time>2023-05-18T07:02:54Z</time>
      </trkpt>
      <trkpt lat="47.80685" lon="7.10107">
        <ele>346</ele>
        <time>2023-05-18T07:02:58Z</time>
      </trkpt>
      <trkpt lat="47.80685" lon="7.10121">
        <ele>345.6</ele>
        <time>2023-05-18T07:03:06Z</time>
      </trkpt>
      <trkpt lat="47.80686" lon="7.10128">
        <ele>345.4</ele>
        <time>2023-05-18T07:03:10Z</time>
      </trkpt>
      <trkpt lat="47.80691" lon="7.10133">
        <ele>345.2</ele>
        <time>2023-05-18T07:03:15Z</time>
      </trkpt>
      <trkpt lat="47.80728" lon="7.10148">
        <ele>343.9</ele>
        <time>2023-05-18T07:03:47Z</time>
      </trkpt>
      <trkpt lat="47.80744" lon="7.10149">
        <ele>343.7</ele>
        <time>2023-05-18T07:03:58Z</time>
      </trkpt>
      <trkpt lat="47.80749" lon="7.10149">
        <ele>343.6</ele>
        <time>2023-05-18T07:04:05Z</time>
      </trkpt>
      <trkpt lat="47.80763" lon="7.10152">
        <ele>343.3</ele>
        <time>2023-05-18T07:04:14Z</time>
      </trkpt>
      <trkpt lat="47.80773" lon="7.10151">
        <ele>343.1</ele>
        <time>2023-05-18T07:04:20Z</time>
      </trkpt>
      <trkpt lat="47.80787" lon="7.1016">
        <ele>343</ele>
        <time>2023-05-18T07:04:31Z</time>
      </trkpt>
      <trkpt lat="47.80792" lon="7.10161">
        <ele>343</ele>
        <time>2023-05-18T07:04:35Z</time>
      </trkpt>
      <trkpt lat="47.80797" lon="7.10163">
        <ele>343</ele>
        <time>2023-05-18T07:04:38Z</time>
      </trkpt>
      <trkpt lat="47.80816" lon="7.10165">
        <ele>343</ele>
        <time>2023-05-18T07:04:54Z</time>
      </trkpt>
      <trkpt lat="47.8082" lon="7.10167">
        <ele>343</ele>
        <time>2023-05-18T07:04:57Z</time>
      </trkpt>
      <trkpt lat="47.80841" lon="7.10171">
        <ele>342.6</ele>
        <time>2023-05-18T07:05:15Z</time>
      </trkpt>
      <trkpt lat="47.80846" lon="7.10173">
        <ele>342.4</ele>
        <time>2023-05-18T07:05:20Z</time>
      </trkpt>
      <trkpt lat="47.80863" lon="7.10177">
        <ele>342</ele>
        <time>2023-05-18T07:05:34Z</time>
      </trkpt>
      <trkpt lat="47.80868" lon="7.10176">
        <ele>342</ele>
        <time>2023-05-18T07:05:38Z</time>
      </trkpt>
      <trkpt lat="47.80873" lon="7.10178">
        <ele>342</ele>
        <time>2023-05-18T07:05:42Z</time>
      </trkpt>
      <trkpt lat="47.80888" lon="7.10182">
        <ele>342</ele>
        <time>2023-05-18T07:05:55Z</time>
      </trkpt>
      <trkpt lat="47.80893" lon="7.10184">
        <ele>341.9</ele>
        <time>2023-05-18T07:06:00Z</time>
      </trkpt>
      <trkpt lat="47.80904" lon="7.10188">
        <ele>341.6</ele>
        <time>2023-05-18T07:06:10Z</time>
      </trkpt>
      <trkpt lat="47.80928" lon="7.10191">
        <ele>341.1</ele>
        <time>2023-05-18T07:06:30Z</time>
      </trkpt>
      <trkpt lat="47.80933" lon="7.10192">
        <ele>341</ele>
        <time>2023-05-18T07:06:35Z</time>
      </trkpt>
      <trkpt lat="47.80949" lon="7.10197">
        <ele>340.8</ele>
        <time>2023-05-18T07:06:48Z</time>
      </trkpt>
      <trkpt lat="47.80955" lon="7.10194">
        <ele>340.6</ele>
        <time>2023-05-18T07:06:56Z</time>
      </trkpt>
      <trkpt lat="47.80959" lon="7.10199">
        <ele>340.5</ele>
        <time>2023-05-18T07:06:59Z</time>
      </trkpt>
      <trkpt lat="47.80965" lon="7.102">
        <ele>340.3</ele>
        <time>2023-05-18T07:07:03Z</time>
      </trkpt>
      <trkpt lat="47.80969" lon="7.10199">
        <ele>340.1</ele>
        <time>2023-05-18T07:07:07Z</time>
      </trkpt>
      <trkpt lat="47.80973" lon="7.10194">
        <ele>340</ele>
        <time>2023-05-18T07:07:11Z</time>
      </trkpt>
      <trkpt lat="47.80981" lon="7.10195">
        <ele>340</ele>
        <time>2023-05-18T07:07:21Z</time>
      </trkpt>
      <trkpt lat="47.80984" lon="7.102">
        <ele>340</ele>
        <time>2023-05-18T07:07:27Z</time>
      </trkpt>
      <trkpt lat="47.80987" lon="7.10208">
        <ele>340</ele>
        <time>2023-05-18T07:07:31Z</time>
      </trkpt>
      <trkpt lat="47.80989" lon="7.10213">
        <ele>340</ele>
        <time>2023-05-18T07:07:34Z</time>
      </trkpt>
      <trkpt lat="47.81015" lon="7.10235">
        <ele>339.8</ele>
        <time>2023-05-18T07:07:58Z</time>
      </trkpt>
      <trkpt lat="47.81019" lon="7.10241">
        <ele>339.5</ele>
        <time>2023-05-18T07:08:04Z</time>
      </trkpt>
      <trkpt lat="47.81024" lon="7.10245">
        <ele>339.3</ele>
        <time>2023-05-18T07:08:08Z</time>
      </trkpt>
      <trkpt lat="47.81043" lon="7.10255">
        <ele>339.1</ele>
        <time>2023-05-18T07:08:22Z</time>
      </trkpt>
      <trkpt lat="47.81053" lon="7.10261">
        <ele>339</ele>
        <time>2023-05-18T07:08:32Z</time>
      </trkpt>
      <trkpt lat="47.81062" lon="7.10266">
        <ele>338.9</ele>
        <time>2023-05-18T07:08:38Z</time>
      </trkpt>
      <trkpt lat="47.81066" lon="7.10269">
        <ele>338.7</ele>
        <time>2023-05-18T07:08:41Z</time>
      </trkpt>
      <trkpt lat="47.81063" lon="7.10277">
        <ele>338.7</ele>
        <time>2023-05-18T07:08:52Z</time>
      </trkpt>
      <trkpt lat="47.81062" lon="7.1028">
        <ele>338.8</ele>
        <time>2023-05-18T07:10:02Z</time>
      </trkpt>
      <trkpt lat="47.8106" lon="7.10293">
        <ele>338.8</ele>
        <time>2023-05-18T07:10:06Z</time>
      </trkpt>
      <trkpt lat="47.81058" lon="7.10298">
        <ele>338.9</ele>
        <time>2023-05-18T07:10:09Z</time>
      </trkpt>
      <trkpt lat="47.81056" lon="7.10305">
        <ele>339</ele>
        <time>2023-05-18T07:10:13Z</time>
      </trkpt>
      <trkpt lat="47.81052" lon="7.10312">
        <ele>338.8</ele>
        <time>2023-05-18T07:10:20Z</time>
      </trkpt>
      <trkpt lat="47.81046" lon="7.10318">
        <ele>338.7</ele>
        <time>2023-05-18T07:10:27Z</time>
      </trkpt>
      <trkpt lat="47.81062" lon="7.10299">
        <ele>338.8</ele>
        <time>2023-05-18T08:01:06Z</time>
      </trkpt>
      <trkpt lat="47.81068" lon="7.10297">
        <ele>338.6</ele>
        <time>2023-05-18T08:01:15Z</time>
      </trkpt>
      <trkpt lat="47.81073" lon="7.10301">
        <ele>338.4</ele>
        <time>2023-05-18T08:01:18Z</time>
      </trkpt>
      <trkpt lat="47.81077" lon="7.10305">
        <ele>338.2</ele>
        <time>2023-05-18T08:01:24Z</time>
      </trkpt>
      <trkpt lat="47.81081" lon="7.10308">
        <ele>338.1</ele>
        <time>2023-05-18T08:01:29Z</time>
      </trkpt>
      <trkpt lat="47.81087" lon="7.10311">
        <ele>337.9</ele>
        <time>2023-05-18T08:01:32Z</time>
      </trkpt>
      <trkpt lat="47.81092" lon="7.10315">
        <ele>337.7</ele>
        <time>2023-05-18T08:01:37Z</time>
      </trkpt>
      <trkpt lat="47.811" lon="7.10325">
        <ele>337.4</ele>
        <time>2023-05-18T08:01:48Z</time>
      </trkpt>
      <trkpt lat="47.8111" lon="7.10333">
        <ele>337</ele>
        <time>2023-05-18T08:02:00Z</time>
      </trkpt>
      <trkpt lat="47.81116" lon="7.10331">
        <ele>337</ele>
        <time>2023-05-18T08:02:09Z</time>
      </trkpt>
      <trkpt lat="47.81121" lon="7.10334">
        <ele>337</ele>
        <time>2023-05-18T08:02:12Z</time>
      </trkpt>
      <trkpt lat="47.81125" lon="7.10336">
        <ele>337</ele>
        <time>2023-05-18T08:02:15Z</time>
      </trkpt>
      <trkpt lat="47.81131" lon="7.10339">
        <ele>337.1</ele>
        <time>2023-05-18T08:02:19Z</time>
      </trkpt>
      <trkpt lat="47.81135" lon="7.10342">
        <ele>337</ele>
        <time>2023-05-18T08:02:21Z</time>
      </trkpt>
      <trkpt lat="47.8114" lon="7.10347">
        <ele>337</ele>
        <time>2023-05-18T08:02:23Z</time>
      </trkpt>
      <trkpt lat="47.8114" lon="7.10355">
        <ele>337</ele>
        <time>2023-05-18T08:02:26Z</time>
      </trkpt>
      <trkpt lat="47.81139" lon="7.10362">
        <ele>337</ele>
        <time>2023-05-18T08:02:29Z</time>
      </trkpt>
      <trkpt lat="47.81138" lon="7.10369">
        <ele>337</ele>
        <time>2023-05-18T08:02:32Z</time>
      </trkpt>
      <trkpt lat="47.81138" lon="7.10376">
        <ele>337</ele>
        <time>2023-05-18T08:02:36Z</time>
      </trkpt>
      <trkpt lat="47.81138" lon="7.10384">
        <ele>337</ele>
        <time>2023-05-18T08:02:40Z</time>
      </trkpt>
      <trkpt lat="47.8114" lon="7.10392">
        <ele>337</ele>
        <time>2023-05-18T08:02:44Z</time>
      </trkpt>
      <trkpt lat="47.81141" lon="7.104">
        <ele>337.1</ele>
        <time>2023-05-18T08:02:48Z</time>
      </trkpt>
      <trkpt lat="47.81147" lon="7.10406">
        <ele>337.3</ele>
        <time>2023-05-18T08:02:56Z</time>
      </trkpt>
      <trkpt lat="47.81152" lon="7.10411">
        <ele>337.5</ele>
        <time>2023-05-18T08:03:00Z</time>
      </trkpt>
      <trkpt lat="47.81155" lon="7.10415">
        <ele>337.6</ele>
        <time>2023-05-18T08:03:03Z</time>
      </trkpt>
      <trkpt lat="47.81159" lon="7.10434">
        <ele>337.1</ele>
        <time>2023-05-18T08:03:19Z</time>
      </trkpt>
      <trkpt lat="47.81162" lon="7.1044">
        <ele>337</ele>
        <time>2023-05-18T08:03:23Z</time>
      </trkpt>
      <trkpt lat="47.81166" lon="7.10452">
        <ele>337</ele>
        <time>2023-05-18T08:03:30Z</time>
      </trkpt>
      <trkpt lat="47.8117" lon="7.10459">
        <ele>336.6</ele>
        <time>2023-05-18T08:03:35Z</time>
      </trkpt>
      <trkpt lat="47.81175" lon="7.10462">
        <ele>336.1</ele>
        <time>2023-05-18T08:03:38Z</time>
      </trkpt>
      <trkpt lat="47.81179" lon="7.10464">
        <ele>335.7</ele>
        <time>2023-05-18T08:03:43Z</time>
      </trkpt>
      <trkpt lat="47.81186" lon="7.10463">
        <ele>334.9</ele>
        <time>2023-05-18T08:03:51Z</time>
      </trkpt>
      <trkpt lat="47.81197" lon="7.10465">
        <ele>334.3</ele>
        <time>2023-05-18T08:04:00Z</time>
      </trkpt>
      <trkpt lat="47.81235" lon="7.10474">
        <ele>337.5</ele>
        <time>2023-05-18T08:04:28Z</time>
      </trkpt>
      <trkpt lat="47.81259" lon="7.10488">
        <ele>337.2</ele>
        <time>2023-05-18T08:04:47Z</time>
      </trkpt>
      <trkpt lat="47.81278" lon="7.1049">
        <ele>337.7</ele>
        <time>2023-05-18T08:05:04Z</time>
      </trkpt>
      <trkpt lat="47.81283" lon="7.1049">
        <ele>337.9</ele>
        <time>2023-05-18T08:05:09Z</time>
      </trkpt>
      <trkpt lat="47.8129" lon="7.10486">
        <ele>338.2</ele>
        <time>2023-05-18T08:05:17Z</time>
      </trkpt>
      <trkpt lat="47.81301" lon="7.10486">
        <ele>338.8</ele>
        <time>2023-05-18T08:05:25Z</time>
      </trkpt>
      <trkpt lat="47.81305" lon="7.10483">
        <ele>339</ele>
        <time>2023-05-18T08:05:29Z</time>
      </trkpt>
      <trkpt lat="47.81312" lon="7.10473">
        <ele>339</ele>
        <time>2023-05-18T08:05:38Z</time>
      </trkpt>
      <trkpt lat="47.81317" lon="7.10471">
        <ele>339.1</ele>
        <time>2023-05-18T08:05:42Z</time>
      </trkpt>
      <trkpt lat="47.81333" lon="7.10455">
        <ele>340.9</ele>
        <time>2023-05-18T08:05:56Z</time>
      </trkpt>
      <trkpt lat="47.81337" lon="7.1045">
        <ele>341.6</ele>
        <time>2023-05-18T08:06:00Z</time>
      </trkpt>
      <trkpt lat="47.81339" lon="7.10444">
        <ele>342.2</ele>
        <time>2023-05-18T08:06:04Z</time>
      </trkpt>
      <trkpt lat="47.81342" lon="7.10438">
        <ele>342.5</ele>
        <time>2023-05-18T08:06:08Z</time>
      </trkpt>
      <trkpt lat="47.81355" lon="7.10427">
        <ele>343.4</ele>
        <time>2023-05-18T08:06:19Z</time>
      </trkpt>
      <trkpt lat="47.81358" lon="7.10421">
        <ele>343.7</ele>
        <time>2023-05-18T08:06:23Z</time>
      </trkpt>
      <trkpt lat="47.8136" lon="7.10415">
        <ele>344</ele>
        <time>2023-05-18T08:06:27Z</time>
      </trkpt>
      <trkpt lat="47.81367" lon="7.10404">
        <ele>345</ele>
        <time>2023-05-18T08:06:35Z</time>
      </trkpt>
      <trkpt lat="47.8137" lon="7.10396">
        <ele>345.6</ele>
        <time>2023-05-18T08:06:41Z</time>
      </trkpt>
      <trkpt lat="47.81374" lon="7.10383">
        <ele>346.8</ele>
        <time>2023-05-18T08:06:50Z</time>
      </trkpt>
      <trkpt lat="47.81375" lon="7.10376">
        <ele>347.4</ele>
        <time>2023-05-18T08:06:54Z</time>
      </trkpt>
      <trkpt lat="47.81382" lon="7.10374">
        <ele>348.3</ele>
        <time>2023-05-18T08:07:00Z</time>
      </trkpt>
      <trkpt lat="47.81391" lon="7.10376">
        <ele>349.1</ele>
        <time>2023-05-18T08:07:08Z</time>
      </trkpt>
      <trkpt lat="47.81398" lon="7.10379">
        <ele>349.5</ele>
        <time>2023-05-18T08:07:15Z</time>
      </trkpt>
      <trkpt lat="47.81404" lon="7.10376">
        <ele>350.3</ele>
        <time>2023-05-18T08:07:19Z</time>
      </trkpt>
      <trkpt lat="47.81407" lon="7.10372">
        <ele>350.9</ele>
        <time>2023-05-18T08:07:23Z</time>
      </trkpt>
      <trkpt lat="47.81412" lon="7.10361">
        <ele>352.5</ele>
        <time>2023-05-18T08:07:32Z</time>
      </trkpt>
      <trkpt lat="47.8142" lon="7.10353">
        <ele>354.7</ele>
        <time>2023-05-18T08:07:42Z</time>
      </trkpt>
      <trkpt lat="47.81426" lon="7.10351">
        <ele>355.4</ele>
        <time>2023-05-18T08:07:47Z</time>
      </trkpt>
      <trkpt lat="47.81429" lon="7.10344">
        <ele>357.1</ele>
        <time>2023-05-18T08:07:56Z</time>
      </trkpt>
      <trkpt lat="47.81434" lon="7.1034">
        <ele>358.4</ele>
        <time>2023-05-18T08:08:01Z</time>
      </trkpt>
      <trkpt lat="47.81442" lon="7.10336">
        <ele>360.1</ele>
        <time>2023-05-18T08:08:10Z</time>
      </trkpt>
      <trkpt lat="47.81448" lon="7.10331">
        <ele>362.1</ele>
        <time>2023-05-18T08:08:18Z</time>
      </trkpt>
      <trkpt lat="47.81458" lon="7.10329">
        <ele>363.8</ele>
        <time>2023-05-18T08:08:26Z</time>
      </trkpt>
      <trkpt lat="47.81479" lon="7.10326">
        <ele>367.3</ele>
        <time>2023-05-18T08:08:48Z</time>
      </trkpt>
      <trkpt lat="47.81484" lon="7.10322">
        <ele>369.2</ele>
        <time>2023-05-18T08:08:58Z</time>
      </trkpt>
      <trkpt lat="47.81496" lon="7.10321">
        <ele>371</ele>
        <time>2023-05-18T08:09:08Z</time>
      </trkpt>
      <trkpt lat="47.81506" lon="7.1032">
        <ele>372.8</ele>
        <time>2023-05-18T08:09:24Z</time>
      </trkpt>
      <trkpt lat="47.81518" lon="7.1032">
        <ele>374.8</ele>
        <time>2023-05-18T08:09:36Z</time>
      </trkpt>
      <trkpt lat="47.81523" lon="7.10316">
        <ele>376.6</ele>
        <time>2023-05-18T08:09:41Z</time>
      </trkpt>
      <trkpt lat="47.81527" lon="7.10315">
        <ele>377.5</ele>
        <time>2023-05-18T08:09:44Z</time>
      </trkpt>
      <trkpt lat="47.81532" lon="7.10316">
        <ele>378.3</ele>
        <time>2023-05-18T08:09:47Z</time>
      </trkpt>
      <trkpt lat="47.8154" lon="7.10321">
        <ele>378.7</ele>
        <time>2023-05-18T08:10:00Z</time>
      </trkpt>
      <trkpt lat="47.81547" lon="7.10317">
        <ele>381.3</ele>
        <time>2023-05-18T08:10:08Z</time>
      </trkpt>
      <trkpt lat="47.81553" lon="7.10317">
        <ele>382.6</ele>
        <time>2023-05-18T08:10:16Z</time>
      </trkpt>
      <trkpt lat="47.81559" lon="7.10319">
        <ele>383.4</ele>
        <time>2023-05-18T08:10:21Z</time>
      </trkpt>
      <trkpt lat="47.81568" lon="7.10327">
        <ele>383.4</ele>
        <time>2023-05-18T08:10:35Z</time>
      </trkpt>
      <trkpt lat="47.81584" lon="7.10325">
        <ele>387.6</ele>
        <time>2023-05-18T08:10:54Z</time>
      </trkpt>
      <trkpt lat="47.81589" lon="7.10331">
        <ele>387.2</ele>
        <time>2023-05-18T08:10:59Z</time>
      </trkpt>
      <trkpt lat="47.816" lon="7.1034">
        <ele>389.1</ele>
        <time>2023-05-18T08:11:11Z</time>
      </trkpt>
      <trkpt lat="47.81611" lon="7.10342">
        <ele>392</ele>
        <time>2023-05-18T08:11:24Z</time>
      </trkpt>
      <trkpt lat="47.81615" lon="7.10346">
        <ele>393.1</ele>
        <time>2023-05-18T08:11:32Z</time>
      </trkpt>
      <trkpt lat="47.81612" lon="7.10317">
        <ele>395.7</ele>
        <time>2023-05-18T08:12:01Z</time>
      </trkpt>
      <trkpt lat="47.81608" lon="7.10309">
        <ele>396</ele>
        <time>2023-05-18T08:12:08Z</time>
      </trkpt>
      <trkpt lat="47.81601" lon="7.10283">
        <ele>402.3</ele>
        <time>2023-05-18T08:12:26Z</time>
      </trkpt>
      <trkpt lat="47.81583" lon="7.10267">
        <ele>403.4</ele>
        <time>2023-05-18T08:12:47Z</time>
      </trkpt>
      <trkpt lat="47.8158" lon="7.10259">
        <ele>405.1</ele>
        <time>2023-05-18T08:12:54Z</time>
      </trkpt>
      <trkpt lat="47.81572" lon="7.1025">
        <ele>405.3</ele>
        <time>2023-05-18T08:13:05Z</time>
      </trkpt>
      <trkpt lat="47.81567" lon="7.10234">
        <ele>408.3</ele>
        <time>2023-05-18T08:13:16Z</time>
      </trkpt>
      <trkpt lat="47.81562" lon="7.10237">
        <ele>405.8</ele>
        <time>2023-05-18T08:13:20Z</time>
      </trkpt>
      <trkpt lat="47.81556" lon="7.1023">
        <ele>405.9</ele>
        <time>2023-05-18T08:13:28Z</time>
      </trkpt>
      <trkpt lat="47.81545" lon="7.10209">
        <ele>410.3</ele>
        <time>2023-05-18T08:13:46Z</time>
      </trkpt>
      <trkpt lat="47.81541" lon="7.10206">
        <ele>410.4</ele>
        <time>2023-05-18T08:13:50Z</time>
      </trkpt>
      <trkpt lat="47.81533" lon="7.10192">
        <ele>412.8</ele>
        <time>2023-05-18T08:14:01Z</time>
      </trkpt>
      <trkpt lat="47.81528" lon="7.10188">
        <ele>412.4</ele>
        <time>2023-05-18T08:14:08Z</time>
      </trkpt>
      <trkpt lat="47.81524" lon="7.10183">
        <ele>414.3</ele>
        <time>2023-05-18T08:14:14Z</time>
      </trkpt>
      <trkpt lat="47.8152" lon="7.10181">
        <ele>415.6</ele>
        <time>2023-05-18T08:14:18Z</time>
      </trkpt>
      <trkpt lat="47.8151" lon="7.10185">
        <ele>416.7</ele>
        <time>2023-05-18T08:14:30Z</time>
      </trkpt>
      <trkpt lat="47.81512" lon="7.10173">
        <ele>419.3</ele>
        <time>2023-05-18T08:14:39Z</time>
      </trkpt>
      <trkpt lat="47.81521" lon="7.10163">
        <ele>419.6</ele>
        <time>2023-05-18T08:14:46Z</time>
      </trkpt>
      <trkpt lat="47.81526" lon="7.10151">
        <ele>420.9</ele>
        <time>2023-05-18T08:14:54Z</time>
      </trkpt>
      <trkpt lat="47.81531" lon="7.10143">
        <ele>422.5</ele>
        <time>2023-05-18T08:15:01Z</time>
      </trkpt>
      <trkpt lat="47.81523" lon="7.10145">
        <ele>423.3</ele>
        <time>2023-05-18T08:15:23Z</time>
      </trkpt>
      <trkpt lat="47.81519" lon="7.10138">
        <ele>426.3</ele>
        <time>2023-05-18T08:15:28Z</time>
      </trkpt>
      <trkpt lat="47.81518" lon="7.10128">
        <ele>428.2</ele>
        <time>2023-05-18T08:15:35Z</time>
      </trkpt>
      <trkpt lat="47.81519" lon="7.10121">
        <ele>428.9</ele>
        <time>2023-05-18T08:15:38Z</time>
      </trkpt>
      <trkpt lat="47.81521" lon="7.10114">
        <ele>429</ele>
        <time>2023-05-18T08:15:41Z</time>
      </trkpt>
      <trkpt lat="47.81514" lon="7.10111">
        <ele>432.9</ele>
        <time>2023-05-18T08:15:54Z</time>
      </trkpt>
      <trkpt lat="47.8151" lon="7.101">
        <ele>433.6</ele>
        <time>2023-05-18T08:16:05Z</time>
      </trkpt>
      <trkpt lat="47.81506" lon="7.1009">
        <ele>434.3</ele>
        <time>2023-05-18T08:16:19Z</time>
      </trkpt>
      <trkpt lat="47.81501" lon="7.10086">
        <ele>435.9</ele>
        <time>2023-05-18T08:16:24Z</time>
      </trkpt>
      <trkpt lat="47.81494" lon="7.10088">
        <ele>436</ele>
        <time>2023-05-18T08:16:32Z</time>
      </trkpt>
      <trkpt lat="47.81489" lon="7.10088">
        <ele>435.5</ele>
        <time>2023-05-18T08:16:35Z</time>
      </trkpt>
      <trkpt lat="47.81483" lon="7.10092">
        <ele>435.4</ele>
        <time>2023-05-18T08:16:45Z</time>
      </trkpt>
      <trkpt lat="47.81479" lon="7.10094">
        <ele>435.3</ele>
        <time>2023-05-18T08:16:56Z</time>
      </trkpt>
      <trkpt lat="47.81481" lon="7.10104">
        <ele>436.9</ele>
        <time>2023-05-18T08:17:14Z</time>
      </trkpt>
      <trkpt lat="47.81487" lon="7.10107">
        <ele>438</ele>
        <time>2023-05-18T08:17:26Z</time>
      </trkpt>
      <trkpt lat="47.81488" lon="7.10117">
        <ele>437.9</ele>
        <time>2023-05-18T08:17:41Z</time>
      </trkpt>
      <trkpt lat="47.81492" lon="7.10118">
        <ele>437.9</ele>
        <time>2023-05-18T08:18:30Z</time>
      </trkpt>
      <trkpt lat="47.81482" lon="7.10127">
        <ele>436.6</ele>
        <time>2023-05-18T08:18:48Z</time>
      </trkpt>
      <trkpt lat="47.81478" lon="7.10133">
        <ele>436.5</ele>
        <time>2023-05-18T08:18:54Z</time>
      </trkpt>
      <trkpt lat="47.81478" lon="7.10125">
        <ele>436.9</ele>
        <time>2023-05-18T08:20:42Z</time>
      </trkpt>
      <trkpt lat="47.8148" lon="7.10119">
        <ele>437.3</ele>
        <time>2023-05-18T08:20:48Z</time>
      </trkpt>
      <trkpt lat="47.81484" lon="7.10117">
        <ele>437.6</ele>
        <time>2023-05-18T08:20:53Z</time>
      </trkpt>
      <trkpt lat="47.81487" lon="7.10113">
        <ele>438.3</ele>
        <time>2023-05-18T08:20:58Z</time>
      </trkpt>
      <trkpt lat="47.81483" lon="7.10104">
        <ele>437.1</ele>
        <time>2023-05-18T08:21:10Z</time>
      </trkpt>
      <trkpt lat="47.81483" lon="7.10091">
        <ele>435.3</ele>
        <time>2023-05-18T08:21:22Z</time>
      </trkpt>
      <trkpt lat="47.81487" lon="7.10087">
        <ele>435.1</ele>
        <time>2023-05-18T08:21:27Z</time>
      </trkpt>
      <trkpt lat="47.81491" lon="7.10086">
        <ele>435.4</ele>
        <time>2023-05-18T08:21:31Z</time>
      </trkpt>
      <trkpt lat="47.81495" lon="7.10088">
        <ele>436.1</ele>
        <time>2023-05-18T08:21:36Z</time>
      </trkpt>
      <trkpt lat="47.815" lon="7.10085">
        <ele>436.2</ele>
        <time>2023-05-18T08:21:41Z</time>
      </trkpt>
      <trkpt lat="47.81505" lon="7.10081">
        <ele>433.4</ele>
        <time>2023-05-18T08:21:48Z</time>
      </trkpt>
      <trkpt lat="47.8151" lon="7.10091">
        <ele>432.6</ele>
        <time>2023-05-18T08:21:57Z</time>
      </trkpt>
      <trkpt lat="47.81514" lon="7.10096">
        <ele>431.3</ele>
        <time>2023-05-18T08:22:00Z</time>
      </trkpt>
      <trkpt lat="47.81515" lon="7.10102">
        <ele>431.5</ele>
        <time>2023-05-18T08:22:05Z</time>
      </trkpt>
      <trkpt lat="47.81518" lon="7.10107">
        <ele>430.5</ele>
        <time>2023-05-18T08:22:09Z</time>
      </trkpt>
      <trkpt lat="47.81525" lon="7.10113">
        <ele>427.2</ele>
        <time>2023-05-18T08:22:17Z</time>
      </trkpt>
      <trkpt lat="47.81527" lon="7.10106">
        <ele>426</ele>
        <time>2023-05-18T08:22:22Z</time>
      </trkpt>
      <trkpt lat="47.81526" lon="7.10078">
        <ele>423.8</ele>
        <time>2023-05-18T08:22:39Z</time>
      </trkpt>
      <trkpt lat="47.81533" lon="7.10085">
        <ele>423</ele>
        <time>2023-05-18T08:22:45Z</time>
      </trkpt>
      <trkpt lat="47.81538" lon="7.10081">
        <ele>421.4</ele>
        <time>2023-05-18T08:22:55Z</time>
      </trkpt>
      <trkpt lat="47.81542" lon="7.10076">
        <ele>419.6</ele>
        <time>2023-05-18T08:22:59Z</time>
      </trkpt>
      <trkpt lat="47.81547" lon="7.10077">
        <ele>418.7</ele>
        <time>2023-05-18T08:23:03Z</time>
      </trkpt>
      <trkpt lat="47.81562" lon="7.10085">
        <ele>417.2</ele>
        <time>2023-05-18T08:23:11Z</time>
      </trkpt>
      <trkpt lat="47.81572" lon="7.10093">
        <ele>417.3</ele>
        <time>2023-05-18T08:23:17Z</time>
      </trkpt>
      <trkpt lat="47.81579" lon="7.10096">
        <ele>416.9</ele>
        <time>2023-05-18T08:23:24Z</time>
      </trkpt>
      <trkpt lat="47.81584" lon="7.101">
        <ele>417</ele>
        <time>2023-05-18T08:23:27Z</time>
      </trkpt>
      <trkpt lat="47.81589" lon="7.10106">
        <ele>417.3</ele>
        <time>2023-05-18T08:23:34Z</time>
      </trkpt>
      <trkpt lat="47.81595" lon="7.10114">
        <ele>417.6</ele>
        <time>2023-05-18T08:23:40Z</time>
      </trkpt>
      <trkpt lat="47.81604" lon="7.1012">
        <ele>416.6</ele>
        <time>2023-05-18T08:23:47Z</time>
      </trkpt>
      <trkpt lat="47.81604" lon="7.10128">
        <ele>418.3</ele>
        <time>2023-05-18T08:23:51Z</time>
      </trkpt>
      <trkpt lat="47.81603" lon="7.10135">
        <ele>420</ele>
        <time>2023-05-18T08:23:56Z</time>
      </trkpt>
      <trkpt lat="47.81601" lon="7.10145">
        <ele>421.7</ele>
        <time>2023-05-18T08:24:01Z</time>
      </trkpt>
      <trkpt lat="47.81602" lon="7.10151">
        <ele>422</ele>
        <time>2023-05-18T08:24:04Z</time>
      </trkpt>
      <trkpt lat="47.81608" lon="7.10169">
        <ele>422.6</ele>
        <time>2023-05-18T08:24:18Z</time>
      </trkpt>
      <trkpt lat="47.81615" lon="7.10179">
        <ele>423.2</ele>
        <time>2023-05-18T08:24:27Z</time>
      </trkpt>
      <trkpt lat="47.81617" lon="7.10185">
        <ele>423.9</ele>
        <time>2023-05-18T08:24:32Z</time>
      </trkpt>
      <trkpt lat="47.81629" lon="7.10205">
        <ele>425.4</ele>
        <time>2023-05-18T08:24:47Z</time>
      </trkpt>
      <trkpt lat="47.81633" lon="7.1021">
        <ele>425.7</ele>
        <time>2023-05-18T08:24:55Z</time>
      </trkpt>
      <trkpt lat="47.81643" lon="7.10212">
        <ele>427.5</ele>
        <time>2023-05-18T08:25:03Z</time>
      </trkpt>
      <trkpt lat="47.81648" lon="7.10206">
        <ele>429</ele>
        <time>2023-05-18T08:25:09Z</time>
      </trkpt>
      <trkpt lat="47.81653" lon="7.10198">
        <ele>430.5</ele>
        <time>2023-05-18T08:25:19Z</time>
      </trkpt>
      <trkpt lat="47.81659" lon="7.10198">
        <ele>432</ele>
        <time>2023-05-18T08:25:24Z</time>
      </trkpt>
      <trkpt lat="47.81663" lon="7.10192">
        <ele>432.8</ele>
        <time>2023-05-18T08:25:32Z</time>
      </trkpt>
      <trkpt lat="47.81669" lon="7.10189">
        <ele>434.1</ele>
        <time>2023-05-18T08:25:38Z</time>
      </trkpt>
      <trkpt lat="47.81674" lon="7.10177">
        <ele>434.6</ele>
        <time>2023-05-18T08:25:50Z</time>
      </trkpt>
      <trkpt lat="47.81681" lon="7.1017">
        <ele>436.4</ele>
        <time>2023-05-18T08:25:56Z</time>
      </trkpt>
      <trkpt lat="47.81687" lon="7.10172">
        <ele>438.6</ele>
        <time>2023-05-18T08:26:03Z</time>
      </trkpt>
      <trkpt lat="47.81694" lon="7.10178">
        <ele>441.3</ele>
        <time>2023-05-18T08:26:13Z</time>
      </trkpt>
      <trkpt lat="47.81699" lon="7.1018">
        <ele>442.8</ele>
        <time>2023-05-18T08:26:21Z</time>
      </trkpt>
      <trkpt lat="47.81701" lon="7.10188">
        <ele>443.5</ele>
        <time>2023-05-18T08:26:27Z</time>
      </trkpt>
      <trkpt lat="47.81707" lon="7.10184">
        <ele>445.1</ele>
        <time>2023-05-18T08:26:32Z</time>
      </trkpt>
      <trkpt lat="47.8171" lon="7.10186">
        <ele>446</ele>
        <time>2023-05-18T08:26:40Z</time>
      </trkpt>
      <trkpt lat="47.81717" lon="7.10183">
        <ele>447.9</ele>
        <time>2023-05-18T08:26:47Z</time>
      </trkpt>
      <trkpt lat="47.81721" lon="7.10189">
        <ele>448.9</ele>
        <time>2023-05-18T08:26:51Z</time>
      </trkpt>
      <trkpt lat="47.81735" lon="7.10182">
        <ele>453.6</ele>
        <time>2023-05-18T08:27:17Z</time>
      </trkpt>
      <trkpt lat="47.81738" lon="7.10172">
        <ele>454.9</ele>
        <time>2023-05-18T08:27:26Z</time>
      </trkpt>
      <trkpt lat="47.81741" lon="7.10181">
        <ele>455.6</ele>
        <time>2023-05-18T08:27:31Z</time>
      </trkpt>
      <trkpt lat="47.81743" lon="7.10188">
        <ele>456</ele>
        <time>2023-05-18T08:27:33Z</time>
      </trkpt>
      <trkpt lat="47.81749" lon="7.10184">
        <ele>458.1</ele>
        <time>2023-05-18T08:27:43Z</time>
      </trkpt>
      <trkpt lat="47.81748" lon="7.10176">
        <ele>458</ele>
        <time>2023-05-18T08:27:47Z</time>
      </trkpt>
      <trkpt lat="47.81752" lon="7.10172">
        <ele>459.4</ele>
        <time>2023-05-18T08:27:52Z</time>
      </trkpt>
      <trkpt lat="47.81756" lon="7.10161">
        <ele>460.8</ele>
        <time>2023-05-18T08:28:06Z</time>
      </trkpt>
      <trkpt lat="47.81761" lon="7.10168">
        <ele>462.4</ele>
        <time>2023-05-18T08:28:09Z</time>
      </trkpt>
      <trkpt lat="47.81763" lon="7.10175">
        <ele>462.4</ele>
        <time>2023-05-18T08:28:12Z</time>
      </trkpt>
      <trkpt lat="47.81763" lon="7.10181">
        <ele>461.7</ele>
        <time>2023-05-18T08:28:16Z</time>
      </trkpt>
      <trkpt lat="47.81767" lon="7.1017">
        <ele>464.1</ele>
        <time>2023-05-18T08:28:28Z</time>
      </trkpt>
      <trkpt lat="47.81773" lon="7.10135">
        <ele>466.8</ele>
        <time>2023-05-18T08:28:54Z</time>
      </trkpt>
      <trkpt lat="47.81782" lon="7.10104">
        <ele>468.5</ele>
        <time>2023-05-18T08:29:16Z</time>
      </trkpt>
      <trkpt lat="47.8179" lon="7.10086">
        <ele>471.7</ele>
        <time>2023-05-18T08:29:31Z</time>
      </trkpt>
      <trkpt lat="47.81792" lon="7.10079">
        <ele>472.4</ele>
        <time>2023-05-18T08:29:35Z</time>
      </trkpt>
      <trkpt lat="47.81794" lon="7.1006">
        <ele>472.1</ele>
        <time>2023-05-18T08:29:46Z</time>
      </trkpt>
      <trkpt lat="47.81804" lon="7.10034">
        <ele>475.6</ele>
        <time>2023-05-18T08:30:05Z</time>
      </trkpt>
      <trkpt lat="47.8181" lon="7.10029">
        <ele>478.5</ele>
        <time>2023-05-18T08:30:11Z</time>
      </trkpt>
      <trkpt lat="47.81814" lon="7.10022">
        <ele>480.1</ele>
        <time>2023-05-18T08:30:19Z</time>
      </trkpt>
      <trkpt lat="47.81818" lon="7.1002">
        <ele>482.2</ele>
        <time>2023-05-18T08:30:23Z</time>
      </trkpt>
      <trkpt lat="47.81817" lon="7.10009">
        <ele>480.8</ele>
        <time>2023-05-18T08:30:32Z</time>
      </trkpt>
      <trkpt lat="47.81828" lon="7.09973">
        <ele>484</ele>
        <time>2023-05-18T08:30:58Z</time>
      </trkpt>
      <trkpt lat="47.81833" lon="7.09977">
        <ele>487.2</ele>
        <time>2023-05-18T08:31:07Z</time>
      </trkpt>
      <trkpt lat="47.81836" lon="7.09991">
        <ele>489.9</ele>
        <time>2023-05-18T08:31:14Z</time>
      </trkpt>
      <trkpt lat="47.81836" lon="7.10024">
        <ele>492.2</ele>
        <time>2023-05-18T08:31:35Z</time>
      </trkpt>
      <trkpt lat="47.81834" lon="7.10039">
        <ele>492.2</ele>
        <time>2023-05-18T08:31:43Z</time>
      </trkpt>
      <trkpt lat="47.81839" lon="7.10054">
        <ele>495.8</ele>
        <time>2023-05-18T08:31:53Z</time>
      </trkpt>
      <trkpt lat="47.81839" lon="7.10067">
        <ele>496.2</ele>
        <time>2023-05-18T08:32:03Z</time>
      </trkpt>
      <trkpt lat="47.81841" lon="7.10074">
        <ele>497.3</ele>
        <time>2023-05-18T08:32:06Z</time>
      </trkpt>
      <trkpt lat="47.81839" lon="7.10096">
        <ele>496.6</ele>
        <time>2023-05-18T08:32:18Z</time>
      </trkpt>
      <trkpt lat="47.81841" lon="7.10106">
        <ele>497.4</ele>
        <time>2023-05-18T08:32:27Z</time>
      </trkpt>
      <trkpt lat="47.81849" lon="7.10115">
        <ele>500.3</ele>
        <time>2023-05-18T08:32:36Z</time>
      </trkpt>
      <trkpt lat="47.8185" lon="7.10114">
        <ele>500.8</ele>
        <time>2023-05-18T08:32:55Z</time>
      </trkpt>
      <trkpt lat="47.81849" lon="7.10107">
        <ele>500.9</ele>
        <time>2023-05-18T08:32:58Z</time>
      </trkpt>
      <trkpt lat="47.81851" lon="7.10098">
        <ele>501.9</ele>
        <time>2023-05-18T08:33:06Z</time>
      </trkpt>
      <trkpt lat="47.81852" lon="7.10087">
        <ele>502.6</ele>
        <time>2023-05-18T08:33:14Z</time>
      </trkpt>
      <trkpt lat="47.81854" lon="7.10066">
        <ele>503.5</ele>
        <time>2023-05-18T08:33:31Z</time>
      </trkpt>
      <trkpt lat="47.81859" lon="7.10051">
        <ele>505.8</ele>
        <time>2023-05-18T08:33:42Z</time>
      </trkpt>
      <trkpt lat="47.81861" lon="7.10034">
        <ele>506.2</ele>
        <time>2023-05-18T08:33:53Z</time>
      </trkpt>
      <trkpt lat="47.81862" lon="7.10028">
        <ele>506.5</ele>
        <time>2023-05-18T08:33:58Z</time>
      </trkpt>
      <trkpt lat="47.81863" lon="7.1002">
        <ele>506.7</ele>
        <time>2023-05-18T08:34:02Z</time>
      </trkpt>
      <trkpt lat="47.81866" lon="7.10014">
        <ele>508.1</ele>
        <time>2023-05-18T08:34:09Z</time>
      </trkpt>
      <trkpt lat="47.81873" lon="7.09985">
        <ele>509.9</ele>
        <time>2023-05-18T08:34:26Z</time>
      </trkpt>
      <trkpt lat="47.81876" lon="7.0998">
        <ele>511.1</ele>
        <time>2023-05-18T08:34:31Z</time>
      </trkpt>
      <trkpt lat="47.81879" lon="7.09965">
        <ele>511.3</ele>
        <time>2023-05-18T08:34:43Z</time>
      </trkpt>
      <trkpt lat="47.81895" lon="7.09942">
        <ele>518.4</ele>
        <time>2023-05-18T08:35:08Z</time>
      </trkpt>
      <trkpt lat="47.81899" lon="7.09915">
        <ele>519.4</ele>
        <time>2023-05-18T08:35:28Z</time>
      </trkpt>
      <trkpt lat="47.81899" lon="7.09908">
        <ele>518.9</ele>
        <time>2023-05-18T08:35:33Z</time>
      </trkpt>
      <trkpt lat="47.81903" lon="7.09901">
        <ele>520.8</ele>
        <time>2023-05-18T08:35:41Z</time>
      </trkpt>
      <trkpt lat="47.81905" lon="7.09887">
        <ele>521.2</ele>
        <time>2023-05-18T08:35:48Z</time>
      </trkpt>
      <trkpt lat="47.81905" lon="7.09881">
        <ele>521.1</ele>
        <time>2023-05-18T08:35:52Z</time>
      </trkpt>
      <trkpt lat="47.81915" lon="7.09849">
        <ele>525.7</ele>
        <time>2023-05-18T08:36:16Z</time>
      </trkpt>
      <trkpt lat="47.81915" lon="7.09842">
        <ele>525.4</ele>
        <time>2023-05-18T08:36:20Z</time>
      </trkpt>
      <trkpt lat="47.81915" lon="7.09835">
        <ele>525.2</ele>
        <time>2023-05-18T08:36:26Z</time>
      </trkpt>
      <trkpt lat="47.81915" lon="7.09828">
        <ele>525.3</ele>
        <time>2023-05-18T08:36:30Z</time>
      </trkpt>
      <trkpt lat="47.81919" lon="7.09804">
        <ele>528.1</ele>
        <time>2023-05-18T08:36:46Z</time>
      </trkpt>
      <trkpt lat="47.81919" lon="7.09797">
        <ele>528.3</ele>
        <time>2023-05-18T08:36:50Z</time>
      </trkpt>
      <trkpt lat="47.81918" lon="7.09788">
        <ele>528.1</ele>
        <time>2023-05-18T08:36:55Z</time>
      </trkpt>
      <trkpt lat="47.81919" lon="7.09782">
        <ele>528.6</ele>
        <time>2023-05-18T08:37:00Z</time>
      </trkpt>
      <trkpt lat="47.8192" lon="7.09774">
        <ele>529.1</ele>
        <time>2023-05-18T08:37:04Z</time>
      </trkpt>
      <trkpt lat="47.8192" lon="7.09767">
        <ele>529.4</ele>
        <time>2023-05-18T08:37:08Z</time>
      </trkpt>
      <trkpt lat="47.81923" lon="7.09761">
        <ele>530.1</ele>
        <time>2023-05-18T08:37:12Z</time>
      </trkpt>
      <trkpt lat="47.81924" lon="7.09755">
        <ele>530.2</ele>
        <time>2023-05-18T08:37:16Z</time>
      </trkpt>
      <trkpt lat="47.8193" lon="7.09745">
        <ele>530.1</ele>
        <time>2023-05-18T08:37:23Z</time>
      </trkpt>
      <trkpt lat="47.81934" lon="7.09744">
        <ele>530</ele>
        <time>2023-05-18T08:37:27Z</time>
      </trkpt>
      <trkpt lat="47.81942" lon="7.09753">
        <ele>531.4</ele>
        <time>2023-05-18T08:37:34Z</time>
      </trkpt>
      <trkpt lat="47.81945" lon="7.09759">
        <ele>532.5</ele>
        <time>2023-05-18T08:37:38Z</time>
      </trkpt>
      <trkpt lat="47.81953" lon="7.09767">
        <ele>532.5</ele>
        <time>2023-05-18T08:37:45Z</time>
      </trkpt>
      <trkpt lat="47.81988" lon="7.09792">
        <ele>534.5</ele>
        <time>2023-05-18T08:38:17Z</time>
      </trkpt>
      <trkpt lat="47.81996" lon="7.09796">
        <ele>534.5</ele>
        <time>2023-05-18T08:38:24Z</time>
      </trkpt>
      <trkpt lat="47.82007" lon="7.09813">
        <ele>535.7</ele>
        <time>2023-05-18T08:38:36Z</time>
      </trkpt>
      <trkpt lat="47.82009" lon="7.0982">
        <ele>536.4</ele>
        <time>2023-05-18T08:38:41Z</time>
      </trkpt>
      <trkpt lat="47.82019" lon="7.09835">
        <ele>535.9</ele>
        <time>2023-05-18T08:38:53Z</time>
      </trkpt>
      <trkpt lat="47.8202" lon="7.09842">
        <ele>537.2</ele>
        <time>2023-05-18T08:38:57Z</time>
      </trkpt>
      <trkpt lat="47.82024" lon="7.09846">
        <ele>536.6</ele>
        <time>2023-05-18T08:39:00Z</time>
      </trkpt>
      <trkpt lat="47.82025" lon="7.09853">
        <ele>538</ele>
        <time>2023-05-18T08:39:04Z</time>
      </trkpt>
      <trkpt lat="47.82033" lon="7.09861">
        <ele>536.3</ele>
        <time>2023-05-18T08:39:12Z</time>
      </trkpt>
      <trkpt lat="47.82035" lon="7.09868">
        <ele>537</ele>
        <time>2023-05-18T08:39:16Z</time>
      </trkpt>
      <trkpt lat="47.82043" lon="7.09884">
        <ele>537.2</ele>
        <time>2023-05-18T08:39:28Z</time>
      </trkpt>
      <trkpt lat="47.8205" lon="7.09906">
        <ele>540.1</ele>
        <time>2023-05-18T08:39:43Z</time>
      </trkpt>
      <trkpt lat="47.82063" lon="7.09932">
        <ele>542.8</ele>
        <time>2023-05-18T08:40:00Z</time>
      </trkpt>
      <trkpt lat="47.82076" lon="7.09945">
        <ele>542.6</ele>
        <time>2023-05-18T08:40:12Z</time>
      </trkpt>
      <trkpt lat="47.82088" lon="7.09951">
        <ele>541.9</ele>
        <time>2023-05-18T08:40:21Z</time>
      </trkpt>
      <trkpt lat="47.82095" lon="7.09958">
        <ele>543.8</ele>
        <time>2023-05-18T08:40:25Z</time>
      </trkpt>
      <trkpt lat="47.8211" lon="7.09961">
        <ele>543.7</ele>
        <time>2023-05-18T08:40:39Z</time>
      </trkpt>
      <trkpt lat="47.82121" lon="7.09966">
        <ele>547</ele>
        <time>2023-05-18T08:40:49Z</time>
      </trkpt>
      <trkpt lat="47.82129" lon="7.0996">
        <ele>545.7</ele>
        <time>2023-05-18T08:41:03Z</time>
      </trkpt>
      <trkpt lat="47.82134" lon="7.0996">
        <ele>546.5</ele>
        <time>2023-05-18T08:41:07Z</time>
      </trkpt>
      <trkpt lat="47.8214" lon="7.09959">
        <ele>547.1</ele>
        <time>2023-05-18T08:41:10Z</time>
      </trkpt>
      <trkpt lat="47.82144" lon="7.09954">
        <ele>546.4</ele>
        <time>2023-05-18T08:41:15Z</time>
      </trkpt>
      <trkpt lat="47.82149" lon="7.09947">
        <ele>545.3</ele>
        <time>2023-05-18T08:41:22Z</time>
      </trkpt>
      <trkpt lat="47.82172" lon="7.0994">
        <ele>549.8</ele>
        <time>2023-05-18T08:41:41Z</time>
      </trkpt>
      <trkpt lat="47.82182" lon="7.09932">
        <ele>549.7</ele>
        <time>2023-05-18T08:41:51Z</time>
      </trkpt>
      <trkpt lat="47.82189" lon="7.09928">
        <ele>550.4</ele>
        <time>2023-05-18T08:41:57Z</time>
      </trkpt>
      <trkpt lat="47.82192" lon="7.09923">
        <ele>549.5</ele>
        <time>2023-05-18T08:42:01Z</time>
      </trkpt>
      <trkpt lat="47.82202" lon="7.09915">
        <ele>549</ele>
        <time>2023-05-18T08:42:11Z</time>
      </trkpt>
      <trkpt lat="47.82208" lon="7.09914">
        <ele>550</ele>
        <time>2023-05-18T08:42:15Z</time>
      </trkpt>
      <trkpt lat="47.82212" lon="7.09911">
        <ele>549.8</ele>
        <time>2023-05-18T08:42:20Z</time>
      </trkpt>
      <trkpt lat="47.82219" lon="7.09913">
        <ele>552</ele>
        <time>2023-05-18T08:42:25Z</time>
      </trkpt>
      <trkpt lat="47.82223" lon="7.09912">
        <ele>552.1</ele>
        <time>2023-05-18T08:42:30Z</time>
      </trkpt>
      <trkpt lat="47.82236" lon="7.0992">
        <ele>551.4</ele>
        <time>2023-05-18T08:42:40Z</time>
      </trkpt>
      <trkpt lat="47.8225" lon="7.09932">
        <ele>551.4</ele>
        <time>2023-05-18T08:42:50Z</time>
      </trkpt>
      <trkpt lat="47.82259" lon="7.09945">
        <ele>553.9</ele>
        <time>2023-05-18T08:43:04Z</time>
      </trkpt>
      <trkpt lat="47.82263" lon="7.09948">
        <ele>554.3</ele>
        <time>2023-05-18T08:43:08Z</time>
      </trkpt>
      <trkpt lat="47.82268" lon="7.09951">
        <ele>554.5</ele>
        <time>2023-05-18T08:43:11Z</time>
      </trkpt>
      <trkpt lat="47.82274" lon="7.09952">
        <ele>554</ele>
        <time>2023-05-18T08:43:18Z</time>
      </trkpt>
      <trkpt lat="47.82284" lon="7.09959">
        <ele>554.2</ele>
        <time>2023-05-18T08:43:27Z</time>
      </trkpt>
      <trkpt lat="47.8229" lon="7.09961">
        <ele>553.4</ele>
        <time>2023-05-18T08:43:36Z</time>
      </trkpt>
      <trkpt lat="47.82296" lon="7.09965">
        <ele>552.9</ele>
        <time>2023-05-18T08:43:43Z</time>
      </trkpt>
      <trkpt lat="47.82297" lon="7.09974">
        <ele>554.8</ele>
        <time>2023-05-18T08:43:48Z</time>
      </trkpt>
      <trkpt lat="47.82302" lon="7.09988">
        <ele>555.5</ele>
        <time>2023-05-18T08:43:55Z</time>
      </trkpt>
      <trkpt lat="47.82302" lon="7.09998">
        <ele>557.1</ele>
        <time>2023-05-18T08:43:59Z</time>
      </trkpt>
      <trkpt lat="47.82304" lon="7.10004">
        <ele>556.6</ele>
        <time>2023-05-18T08:44:02Z</time>
      </trkpt>
      <trkpt lat="47.82303" lon="7.1002">
        <ele>557.1</ele>
        <time>2023-05-18T08:44:10Z</time>
      </trkpt>
      <trkpt lat="47.82298" lon="7.10039">
        <ele>558.6</ele>
        <time>2023-05-18T08:44:20Z</time>
      </trkpt>
      <trkpt lat="47.8229" lon="7.10048">
        <ele>561.4</ele>
        <time>2023-05-18T08:44:26Z</time>
      </trkpt>
      <trkpt lat="47.82288" lon="7.10056">
        <ele>561.6</ele>
        <time>2023-05-18T08:44:29Z</time>
      </trkpt>
      <trkpt lat="47.82288" lon="7.10062">
        <ele>561.8</ele>
        <time>2023-05-18T08:44:33Z</time>
      </trkpt>
      <trkpt lat="47.82283" lon="7.10079">
        <ele>564.1</ele>
        <time>2023-05-18T08:44:46Z</time>
      </trkpt>
      <trkpt lat="47.82285" lon="7.10099">
        <ele>565.1</ele>
        <time>2023-05-18T08:45:02Z</time>
      </trkpt>
      <trkpt lat="47.82289" lon="7.10109">
        <ele>564.7</ele>
        <time>2023-05-18T08:45:10Z</time>
      </trkpt>
      <trkpt lat="47.82288" lon="7.10117">
        <ele>566.2</ele>
        <time>2023-05-18T08:45:13Z</time>
      </trkpt>
      <trkpt lat="47.8229" lon="7.10124">
        <ele>566.5</ele>
        <time>2023-05-18T08:45:16Z</time>
      </trkpt>
      <trkpt lat="47.82293" lon="7.10131">
        <ele>566.3</ele>
        <time>2023-05-18T08:45:20Z</time>
      </trkpt>
      <trkpt lat="47.82297" lon="7.10151">
        <ele>566.7</ele>
        <time>2023-05-18T08:45:36Z</time>
      </trkpt>
      <trkpt lat="47.82294" lon="7.10181">
        <ele>569.8</ele>
        <time>2023-05-18T08:45:57Z</time>
      </trkpt>
      <trkpt lat="47.82296" lon="7.10188">
        <ele>569</ele>
        <time>2023-05-18T08:46:02Z</time>
      </trkpt>
      <trkpt lat="47.82296" lon="7.10195">
        <ele>569.2</ele>
        <time>2023-05-18T08:46:06Z</time>
      </trkpt>
      <trkpt lat="47.82293" lon="7.10201">
        <ele>570.9</ele>
        <time>2023-05-18T08:46:10Z</time>
      </trkpt>
      <trkpt lat="47.82293" lon="7.10209">
        <ele>571</ele>
        <time>2023-05-18T08:46:13Z</time>
      </trkpt>
      <trkpt lat="47.82289" lon="7.10222">
        <ele>573.5</ele>
        <time>2023-05-18T08:46:20Z</time>
      </trkpt>
      <trkpt lat="47.82291" lon="7.10229">
        <ele>572.5</ele>
        <time>2023-05-18T08:46:24Z</time>
      </trkpt>
      <trkpt lat="47.82288" lon="7.10237">
        <ele>574.3</ele>
        <time>2023-05-18T08:46:29Z</time>
      </trkpt>
      <trkpt lat="47.82288" lon="7.10244">
        <ele>574.4</ele>
        <time>2023-05-18T08:46:33Z</time>
      </trkpt>
      <trkpt lat="47.82285" lon="7.10252">
        <ele>576.1</ele>
        <time>2023-05-18T08:46:36Z</time>
      </trkpt>
      <trkpt lat="47.82282" lon="7.10274">
        <ele>577.5</ele>
        <time>2023-05-18T08:46:49Z</time>
      </trkpt>
      <trkpt lat="47.82279" lon="7.1028">
        <ele>578.7</ele>
        <time>2023-05-18T08:46:53Z</time>
      </trkpt>
      <trkpt lat="47.82277" lon="7.10288">
        <ele>580</ele>
        <time>2023-05-18T08:46:57Z</time>
      </trkpt>
      <trkpt lat="47.82276" lon="7.10297">
        <ele>580.9</ele>
        <time>2023-05-18T08:47:04Z</time>
      </trkpt>
      <trkpt lat="47.82275" lon="7.10312">
        <ele>582.2</ele>
        <time>2023-05-18T08:47:14Z</time>
      </trkpt>
      <trkpt lat="47.82271" lon="7.10319">
        <ele>583.3</ele>
        <time>2023-05-18T08:47:19Z</time>
      </trkpt>
      <trkpt lat="47.82269" lon="7.10329">
        <ele>584.1</ele>
        <time>2023-05-18T08:47:26Z</time>
      </trkpt>
      <trkpt lat="47.82274" lon="7.10339">
        <ele>584.8</ele>
        <time>2023-05-18T08:47:35Z</time>
      </trkpt>
      <trkpt lat="47.8228" lon="7.10338">
        <ele>584.8</ele>
        <time>2023-05-18T08:47:40Z</time>
      </trkpt>
      <trkpt lat="47.82291" lon="7.10325">
        <ele>582.9</ele>
        <time>2023-05-18T08:47:52Z</time>
      </trkpt>
      <trkpt lat="47.82298" lon="7.10325">
        <ele>582.7</ele>
        <time>2023-05-18T08:48:00Z</time>
      </trkpt>
      <trkpt lat="47.82304" lon="7.10322">
        <ele>581.8</ele>
        <time>2023-05-18T08:48:05Z</time>
      </trkpt>
      <trkpt lat="47.8231" lon="7.10322">
        <ele>582</ele>
        <time>2023-05-18T08:48:09Z</time>
      </trkpt>
      <trkpt lat="47.82313" lon="7.10317">
        <ele>580.7</ele>
        <time>2023-05-18T08:48:12Z</time>
      </trkpt>
      <trkpt lat="47.8232" lon="7.10316">
        <ele>580.7</ele>
        <time>2023-05-18T08:48:17Z</time>
      </trkpt>
      <trkpt lat="47.82325" lon="7.10321">
        <ele>582.5</ele>
        <time>2023-05-18T08:48:20Z</time>
      </trkpt>
      <trkpt lat="47.82343" lon="7.10321">
        <ele>583.7</ele>
        <time>2023-05-18T08:48:37Z</time>
      </trkpt>
      <trkpt lat="47.82354" lon="7.10314">
        <ele>582.2</ele>
        <time>2023-05-18T08:48:49Z</time>
      </trkpt>
      <trkpt lat="47.8239" lon="7.10313">
        <ele>582.9</ele>
        <time>2023-05-18T08:49:19Z</time>
      </trkpt>
      <trkpt lat="47.82394" lon="7.10311">
        <ele>582.1</ele>
        <time>2023-05-18T08:49:25Z</time>
      </trkpt>
      <trkpt lat="47.82408" lon="7.10312">
        <ele>582.4</ele>
        <time>2023-05-18T08:49:38Z</time>
      </trkpt>
      <trkpt lat="47.82414" lon="7.10315">
        <ele>583.4</ele>
        <time>2023-05-18T08:49:42Z</time>
      </trkpt>
      <trkpt lat="47.82419" lon="7.10314">
        <ele>582.7</ele>
        <time>2023-05-18T08:49:46Z</time>
      </trkpt>
      <trkpt lat="47.82423" lon="7.10315">
        <ele>582.4</ele>
        <time>2023-05-18T08:49:50Z</time>
      </trkpt>
      <trkpt lat="47.82428" lon="7.1032">
        <ele>583.4</ele>
        <time>2023-05-18T08:49:53Z</time>
      </trkpt>
      <trkpt lat="47.8244" lon="7.10322">
        <ele>582.1</ele>
        <time>2023-05-18T08:50:03Z</time>
      </trkpt>
      <trkpt lat="47.82447" lon="7.10325">
        <ele>581.7</ele>
        <time>2023-05-18T08:50:10Z</time>
      </trkpt>
      <trkpt lat="47.8245" lon="7.10331">
        <ele>582.8</ele>
        <time>2023-05-18T08:50:15Z</time>
      </trkpt>
      <trkpt lat="47.82459" lon="7.10334">
        <ele>581.5</ele>
        <time>2023-05-18T08:50:25Z</time>
      </trkpt>
      <trkpt lat="47.82463" lon="7.10338">
        <ele>581.5</ele>
        <time>2023-05-18T08:50:28Z</time>
      </trkpt>
      <trkpt lat="47.82482" lon="7.10345">
        <ele>579.3</ele>
        <time>2023-05-18T08:50:48Z</time>
      </trkpt>
      <trkpt lat="47.82487" lon="7.10346">
        <ele>578.7</ele>
        <time>2023-05-18T08:50:52Z</time>
      </trkpt>
      <trkpt lat="47.82503" lon="7.10352">
        <ele>578.1</ele>
        <time>2023-05-18T08:51:04Z</time>
      </trkpt>
      <trkpt lat="47.82507" lon="7.10357">
        <ele>579</ele>
        <time>2023-05-18T08:51:07Z</time>
      </trkpt>
      <trkpt lat="47.82513" lon="7.10359">
        <ele>578.5</ele>
        <time>2023-05-18T08:51:15Z</time>
      </trkpt>
      <trkpt lat="47.82516" lon="7.10364">
        <ele>579.2</ele>
        <time>2023-05-18T08:51:19Z</time>
      </trkpt>
      <trkpt lat="47.82532" lon="7.10372">
        <ele>578.6</ele>
        <time>2023-05-18T08:51:31Z</time>
      </trkpt>
      <trkpt lat="47.82538" lon="7.10371">
        <ele>578.1</ele>
        <time>2023-05-18T08:51:39Z</time>
      </trkpt>
      <trkpt lat="47.82543" lon="7.10374">
        <ele>578.7</ele>
        <time>2023-05-18T08:51:44Z</time>
      </trkpt>
      <trkpt lat="47.82559" lon="7.10374">
        <ele>578.3</ele>
        <time>2023-05-18T08:51:56Z</time>
      </trkpt>
      <trkpt lat="47.82577" lon="7.10381">
        <ele>579.7</ele>
        <time>2023-05-18T08:52:12Z</time>
      </trkpt>
      <trkpt lat="47.82583" lon="7.10379">
        <ele>579.2</ele>
        <time>2023-05-18T08:52:19Z</time>
      </trkpt>
      <trkpt lat="47.82588" lon="7.10377">
        <ele>579.5</ele>
        <time>2023-05-18T08:52:26Z</time>
      </trkpt>
      <trkpt lat="47.82592" lon="7.10371">
        <ele>579.2</ele>
        <time>2023-05-18T08:52:30Z</time>
      </trkpt>
      <trkpt lat="47.82596" lon="7.10372">
        <ele>580</ele>
        <time>2023-05-18T08:52:32Z</time>
      </trkpt>
      <trkpt lat="47.82601" lon="7.10368">
        <ele>580.4</ele>
        <time>2023-05-18T08:52:36Z</time>
      </trkpt>
      <trkpt lat="47.82604" lon="7.10363">
        <ele>580.6</ele>
        <time>2023-05-18T08:52:40Z</time>
      </trkpt>
      <trkpt lat="47.82609" lon="7.10361">
        <ele>581.5</ele>
        <time>2023-05-18T08:52:44Z</time>
      </trkpt>
      <trkpt lat="47.82615" lon="7.10363">
        <ele>583.4</ele>
        <time>2023-05-18T08:52:47Z</time>
      </trkpt>
      <trkpt lat="47.82617" lon="7.10357">
        <ele>583.7</ele>
        <time>2023-05-18T08:52:52Z</time>
      </trkpt>
      <trkpt lat="47.82618" lon="7.1035">
        <ele>583.4</ele>
        <time>2023-05-18T08:53:00Z</time>
      </trkpt>
      <trkpt lat="47.82623" lon="7.10361">
        <ele>586.3</ele>
        <time>2023-05-18T08:53:03Z</time>
      </trkpt>
      <trkpt lat="47.82623" lon="7.10367">
        <ele>585.8</ele>
        <time>2023-05-18T08:53:08Z</time>
      </trkpt>
      <trkpt lat="47.82628" lon="7.1036">
        <ele>588</ele>
        <time>2023-05-18T08:53:18Z</time>
      </trkpt>
      <trkpt lat="47.82633" lon="7.10355">
        <ele>589.4</ele>
        <time>2023-05-18T08:53:24Z</time>
      </trkpt>
      <trkpt lat="47.82632" lon="7.10344">
        <ele>588.1</ele>
        <time>2023-05-18T08:53:38Z</time>
      </trkpt>
      <trkpt lat="47.82636" lon="7.10335">
        <ele>589</ele>
        <time>2023-05-18T08:53:42Z</time>
      </trkpt>
      <trkpt lat="47.82641" lon="7.10332">
        <ele>590.6</ele>
        <time>2023-05-18T08:53:52Z</time>
      </trkpt>
      <trkpt lat="47.82643" lon="7.10355">
        <ele>593</ele>
        <time>2023-05-18T08:54:02Z</time>
      </trkpt>
      <trkpt lat="47.82647" lon="7.10356">
        <ele>594.4</ele>
        <time>2023-05-18T08:54:06Z</time>
      </trkpt>
      <trkpt lat="47.82651" lon="7.10364">
        <ele>595</ele>
        <time>2023-05-18T08:54:15Z</time>
      </trkpt>
      <trkpt lat="47.82658" lon="7.10364">
        <ele>597.2</ele>
        <time>2023-05-18T08:54:26Z</time>
      </trkpt>
      <trkpt lat="47.8266" lon="7.10359">
        <ele>598.8</ele>
        <time>2023-05-18T08:54:29Z</time>
      </trkpt>
      <trkpt lat="47.82659" lon="7.1035">
        <ele>598.3</ele>
        <time>2023-05-18T08:54:35Z</time>
      </trkpt>
      <trkpt lat="47.82667" lon="7.10324">
        <ele>600.1</ele>
        <time>2023-05-18T08:54:59Z</time>
      </trkpt>
      <trkpt lat="47.82672" lon="7.10325">
        <ele>601.5</ele>
        <time>2023-05-18T08:55:04Z</time>
      </trkpt>
      <trkpt lat="47.82676" lon="7.1032">
        <ele>602.4</ele>
        <time>2023-05-18T08:55:09Z</time>
      </trkpt>
      <trkpt lat="47.82683" lon="7.10324">
        <ele>604.5</ele>
        <time>2023-05-18T08:55:17Z</time>
      </trkpt>
      <trkpt lat="47.82688" lon="7.10318">
        <ele>606.1</ele>
        <time>2023-05-18T08:55:28Z</time>
      </trkpt>
      <trkpt lat="47.82703" lon="7.10299">
        <ele>609.2</ele>
        <time>2023-05-18T08:55:49Z</time>
      </trkpt>
      <trkpt lat="47.82708" lon="7.10291">
        <ele>610.5</ele>
        <time>2023-05-18T08:56:02Z</time>
      </trkpt>
      <trkpt lat="47.82714" lon="7.1029">
        <ele>612.1</ele>
        <time>2023-05-18T08:56:07Z</time>
      </trkpt>
      <trkpt lat="47.82724" lon="7.10283">
        <ele>616.1</ele>
        <time>2023-05-18T08:56:18Z</time>
      </trkpt>
      <trkpt lat="47.82729" lon="7.10284">
        <ele>615.2</ele>
        <time>2023-05-18T08:56:23Z</time>
      </trkpt>
      <trkpt lat="47.82742" lon="7.10278">
        <ele>616.5</ele>
        <time>2023-05-18T08:56:37Z</time>
      </trkpt>
      <trkpt lat="47.82746" lon="7.10273">
        <ele>618.2</ele>
        <time>2023-05-18T08:56:42Z</time>
      </trkpt>
      <trkpt lat="47.82751" lon="7.10266">
        <ele>621.3</ele>
        <time>2023-05-18T08:56:55Z</time>
      </trkpt>
      <trkpt lat="47.82759" lon="7.10263">
        <ele>620.6</ele>
        <time>2023-05-18T08:57:00Z</time>
      </trkpt>
      <trkpt lat="47.82768" lon="7.10255">
        <ele>622.1</ele>
        <time>2023-05-18T08:57:09Z</time>
      </trkpt>
      <trkpt lat="47.82773" lon="7.10248">
        <ele>624.1</ele>
        <time>2023-05-18T08:57:20Z</time>
      </trkpt>
      <trkpt lat="47.82789" lon="7.10239">
        <ele>626</ele>
        <time>2023-05-18T08:57:29Z</time>
      </trkpt>
      <trkpt lat="47.82797" lon="7.10235">
        <ele>626.7</ele>
        <time>2023-05-18T08:57:44Z</time>
      </trkpt>
      <trkpt lat="47.82803" lon="7.10226">
        <ele>629.8</ele>
        <time>2023-05-18T08:57:55Z</time>
      </trkpt>
      <trkpt lat="47.82807" lon="7.10222">
        <ele>630.9</ele>
        <time>2023-05-18T08:58:00Z</time>
      </trkpt>
      <trkpt lat="47.82813" lon="7.1022">
        <ele>630.9</ele>
        <time>2023-05-18T08:58:09Z</time>
      </trkpt>
      <trkpt lat="47.82823" lon="7.10207">
        <ele>635.3</ele>
        <time>2023-05-18T08:58:35Z</time>
      </trkpt>
      <trkpt lat="47.82833" lon="7.10206">
        <ele>634.1</ele>
        <time>2023-05-18T08:58:40Z</time>
      </trkpt>
      <trkpt lat="47.82841" lon="7.10198">
        <ele>635.6</ele>
        <time>2023-05-18T08:58:44Z</time>
      </trkpt>
      <trkpt lat="47.82846" lon="7.10186">
        <ele>639.1</ele>
        <time>2023-05-18T08:59:03Z</time>
      </trkpt>
      <trkpt lat="47.82855" lon="7.10178">
        <ele>640.4</ele>
        <time>2023-05-18T08:59:09Z</time>
      </trkpt>
      <trkpt lat="47.82861" lon="7.10171">
        <ele>642.1</ele>
        <time>2023-05-18T08:59:18Z</time>
      </trkpt>
      <trkpt lat="47.82868" lon="7.10165">
        <ele>643.7</ele>
        <time>2023-05-18T08:59:24Z</time>
      </trkpt>
      <trkpt lat="47.82882" lon="7.10161">
        <ele>643.2</ele>
        <time>2023-05-18T08:59:37Z</time>
      </trkpt>
      <trkpt lat="47.82893" lon="7.10162">
        <ele>642.9</ele>
        <time>2023-05-18T08:59:42Z</time>
      </trkpt>
      <trkpt lat="47.82903" lon="7.1015">
        <ele>648.1</ele>
        <time>2023-05-18T09:00:04Z</time>
      </trkpt>
      <trkpt lat="47.82914" lon="7.10153">
        <ele>649.1</ele>
        <time>2023-05-18T09:00:17Z</time>
      </trkpt>
      <trkpt lat="47.82923" lon="7.10148">
        <ele>649.6</ele>
        <time>2023-05-18T09:00:32Z</time>
      </trkpt>
      <trkpt lat="47.82942" lon="7.10142">
        <ele>649.8</ele>
        <time>2023-05-18T09:00:44Z</time>
      </trkpt>
      <trkpt lat="47.8295" lon="7.10136">
        <ele>651.2</ele>
        <time>2023-05-18T09:00:56Z</time>
      </trkpt>
      <trkpt lat="47.82968" lon="7.10132">
        <ele>655</ele>
        <time>2023-05-18T09:01:12Z</time>
      </trkpt>
      <trkpt lat="47.82969" lon="7.1012">
        <ele>653.6</ele>
        <time>2023-05-18T09:01:17Z</time>
      </trkpt>
      <trkpt lat="47.82974" lon="7.10123">
        <ele>655.2</ele>
        <time>2023-05-18T09:01:20Z</time>
      </trkpt>
      <trkpt lat="47.83005" lon="7.10105">
        <ele>659.7</ele>
        <time>2023-05-18T09:01:53Z</time>
      </trkpt>
      <trkpt lat="47.8301" lon="7.101">
        <ele>659.6</ele>
        <time>2023-05-18T09:02:01Z</time>
      </trkpt>
      <trkpt lat="47.8302" lon="7.10104">
        <ele>663.1</ele>
        <time>2023-05-18T09:02:08Z</time>
      </trkpt>
      <trkpt lat="47.83026" lon="7.10101">
        <ele>663.7</ele>
        <time>2023-05-18T09:02:17Z</time>
      </trkpt>
      <trkpt lat="47.83034" lon="7.10104">
        <ele>666.5</ele>
        <time>2023-05-18T09:02:24Z</time>
      </trkpt>
      <trkpt lat="47.83038" lon="7.10096">
        <ele>665.2</ele>
        <time>2023-05-18T09:02:30Z</time>
      </trkpt>
      <trkpt lat="47.83049" lon="7.10091">
        <ele>666.6</ele>
        <time>2023-05-18T09:02:41Z</time>
      </trkpt>
      <trkpt lat="47.83055" lon="7.10084">
        <ele>666.1</ele>
        <time>2023-05-18T09:02:51Z</time>
      </trkpt>
      <trkpt lat="47.83064" lon="7.10084">
        <ele>669.9</ele>
        <time>2023-05-18T09:02:54Z</time>
      </trkpt>
      <trkpt lat="47.83066" lon="7.10077">
        <ele>668.7</ele>
        <time>2023-05-18T09:02:59Z</time>
      </trkpt>
      <trkpt lat="47.8307" lon="7.10072">
        <ele>669</ele>
        <time>2023-05-18T09:03:04Z</time>
      </trkpt>
      <trkpt lat="47.83074" lon="7.1007">
        <ele>670.1</ele>
        <time>2023-05-18T09:03:09Z</time>
      </trkpt>
      <trkpt lat="47.83077" lon="7.10061">
        <ele>668.8</ele>
        <time>2023-05-18T09:03:16Z</time>
      </trkpt>
      <trkpt lat="47.83082" lon="7.10057">
        <ele>669.8</ele>
        <time>2023-05-18T09:03:22Z</time>
      </trkpt>
      <trkpt lat="47.83092" lon="7.10056">
        <ele>673.3</ele>
        <time>2023-05-18T09:03:33Z</time>
      </trkpt>
      <trkpt lat="47.83096" lon="7.10051">
        <ele>673.1</ele>
        <time>2023-05-18T09:03:36Z</time>
      </trkpt>
      <trkpt lat="47.83098" lon="7.10044">
        <ele>671.8</ele>
        <time>2023-05-18T09:03:42Z</time>
      </trkpt>
      <trkpt lat="47.83102" lon="7.10041">
        <ele>672.5</ele>
        <time>2023-05-18T09:03:47Z</time>
      </trkpt>
      <trkpt lat="47.83106" lon="7.10037">
        <ele>673.1</ele>
        <time>2023-05-18T09:03:52Z</time>
      </trkpt>
      <trkpt lat="47.83112" lon="7.1003">
        <ele>673.5</ele>
        <time>2023-05-18T09:04:01Z</time>
      </trkpt>
      <trkpt lat="47.83118" lon="7.10029">
        <ele>672.6</ele>
        <time>2023-05-18T09:04:09Z</time>
      </trkpt>
      <trkpt lat="47.83123" lon="7.1003">
        <ele>672.4</ele>
        <time>2023-05-18T09:04:12Z</time>
      </trkpt>
      <trkpt lat="47.83133" lon="7.10032">
        <ele>672.2</ele>
        <time>2023-05-18T09:04:19Z</time>
      </trkpt>
      <trkpt lat="47.83138" lon="7.10038">
        <ele>674.1</ele>
        <time>2023-05-18T09:04:22Z</time>
      </trkpt>
      <trkpt lat="47.83142" lon="7.10038">
        <ele>673.3</ele>
        <time>2023-05-18T09:04:26Z</time>
      </trkpt>
      <trkpt lat="47.83147" lon="7.10036">
        <ele>671.2</ele>
        <time>2023-05-18T09:04:29Z</time>
      </trkpt>
      <trkpt lat="47.83152" lon="7.10041">
        <ele>671.9</ele>
        <time>2023-05-18T09:04:36Z</time>
      </trkpt>
      <trkpt lat="47.83158" lon="7.10047">
        <ele>672.8</ele>
        <time>2023-05-18T09:04:43Z</time>
      </trkpt>
      <trkpt lat="47.83161" lon="7.10054">
        <ele>674.8</ele>
        <time>2023-05-18T09:04:48Z</time>
      </trkpt>
      <trkpt lat="47.83166" lon="7.10058">
        <ele>675.1</ele>
        <time>2023-05-18T09:04:51Z</time>
      </trkpt>
      <trkpt lat="47.83169" lon="7.10062">
        <ele>675.5</ele>
        <time>2023-05-18T09:04:55Z</time>
      </trkpt>
      <trkpt lat="47.83179" lon="7.10078">
        <ele>677.6</ele>
        <time>2023-05-18T09:05:13Z</time>
      </trkpt>
      <trkpt lat="47.83183" lon="7.10082">
        <ele>677.6</ele>
        <time>2023-05-18T09:05:17Z</time>
      </trkpt>
      <trkpt lat="47.83185" lon="7.10088">
        <ele>679.1</ele>
        <time>2023-05-18T09:05:21Z</time>
      </trkpt>
      <trkpt lat="47.83189" lon="7.10094">
        <ele>679.8</ele>
        <time>2023-05-18T09:05:26Z</time>
      </trkpt>
      <trkpt lat="47.83202" lon="7.10113">
        <ele>681.7</ele>
        <time>2023-05-18T09:05:45Z</time>
      </trkpt>
      <trkpt lat="47.83215" lon="7.10128">
        <ele>682.4</ele>
        <time>2023-05-18T09:06:05Z</time>
      </trkpt>
      <trkpt lat="47.8322" lon="7.10135">
        <ele>683.3</ele>
        <time>2023-05-18T09:06:11Z</time>
      </trkpt>
      <trkpt lat="47.83222" lon="7.10144">
        <ele>686.1</ele>
        <time>2023-05-18T09:06:17Z</time>
      </trkpt>
      <trkpt lat="47.83232" lon="7.10158">
        <ele>693</ele>
        <time>2023-05-18T09:06:31Z</time>
      </trkpt>
      <trkpt lat="47.83239" lon="7.10158">
        <ele>694</ele>
        <time>2023-05-18T09:06:42Z</time>
      </trkpt>
      <trkpt lat="47.83245" lon="7.10149">
        <ele>691.3</ele>
        <time>2023-05-18T09:06:53Z</time>
      </trkpt>
      <trkpt lat="47.83251" lon="7.10152">
        <ele>693.2</ele>
        <time>2023-05-18T09:06:58Z</time>
      </trkpt>
      <trkpt lat="47.83259" lon="7.10147">
        <ele>691.2</ele>
        <time>2023-05-18T09:07:08Z</time>
      </trkpt>
      <trkpt lat="47.83264" lon="7.10146">
        <ele>690.7</ele>
        <time>2023-05-18T09:07:12Z</time>
      </trkpt>
      <trkpt lat="47.83276" lon="7.10152">
        <ele>693.6</ele>
        <time>2023-05-18T09:07:21Z</time>
      </trkpt>
      <trkpt lat="47.83286" lon="7.10162">
        <ele>699.6</ele>
        <time>2023-05-18T09:07:27Z</time>
      </trkpt>
      <trkpt lat="47.83293" lon="7.10163">
        <ele>700.9</ele>
        <time>2023-05-18T09:07:32Z</time>
      </trkpt>
      <trkpt lat="47.83298" lon="7.10159">
        <ele>699.7</ele>
        <time>2023-05-18T09:07:42Z</time>
      </trkpt>
      <trkpt lat="47.83305" lon="7.1016">
        <ele>701.1</ele>
        <time>2023-05-18T09:07:47Z</time>
      </trkpt>
      <trkpt lat="47.83322" lon="7.10156">
        <ele>704.8</ele>
        <time>2023-05-18T09:08:05Z</time>
      </trkpt>
      <trkpt lat="47.83329" lon="7.10154">
        <ele>706.4</ele>
        <time>2023-05-18T09:08:20Z</time>
      </trkpt>
      <trkpt lat="47.83337" lon="7.10148">
        <ele>707.4</ele>
        <time>2023-05-18T09:08:33Z</time>
      </trkpt>
      <trkpt lat="47.8334" lon="7.10138">
        <ele>705.3</ele>
        <time>2023-05-18T09:08:37Z</time>
      </trkpt>
      <trkpt lat="47.83343" lon="7.10134">
        <ele>705.2</ele>
        <time>2023-05-18T09:08:42Z</time>
      </trkpt>
      <trkpt lat="47.83357" lon="7.10136">
        <ele>711.5</ele>
        <time>2023-05-18T09:08:58Z</time>
      </trkpt>
      <trkpt lat="47.83362" lon="7.10135">
        <ele>713.3</ele>
        <time>2023-05-18T09:09:01Z</time>
      </trkpt>
      <trkpt lat="47.83365" lon="7.10124">
        <ele>711.6</ele>
        <time>2023-05-18T09:09:10Z</time>
      </trkpt>
      <trkpt lat="47.83371" lon="7.10125">
        <ele>714.8</ele>
        <time>2023-05-18T09:09:13Z</time>
      </trkpt>
      <trkpt lat="47.83375" lon="7.10119">
        <ele>714.9</ele>
        <time>2023-05-18T09:09:23Z</time>
      </trkpt>
      <trkpt lat="47.83378" lon="7.10112">
        <ele>714.2</ele>
        <time>2023-05-18T09:09:26Z</time>
      </trkpt>
      <trkpt lat="47.83382" lon="7.10108">
        <ele>714.7</ele>
        <time>2023-05-18T09:09:34Z</time>
      </trkpt>
      <trkpt lat="47.83391" lon="7.10099">
        <ele>715.7</ele>
        <time>2023-05-18T09:09:44Z</time>
      </trkpt>
      <trkpt lat="47.83395" lon="7.10096">
        <ele>716.8</ele>
        <time>2023-05-18T09:09:48Z</time>
      </trkpt>
      <trkpt lat="47.83401" lon="7.10092">
        <ele>718.7</ele>
        <time>2023-05-18T09:09:58Z</time>
      </trkpt>
      <trkpt lat="47.83411" lon="7.10088">
        <ele>723</ele>
        <time>2023-05-18T09:10:08Z</time>
      </trkpt>
      <trkpt lat="47.83415" lon="7.10077">
        <ele>721.8</ele>
        <time>2023-05-18T09:10:19Z</time>
      </trkpt>
      <trkpt lat="47.83419" lon="7.10071">
        <ele>721.4</ele>
        <time>2023-05-18T09:10:24Z</time>
      </trkpt>
      <trkpt lat="47.83424" lon="7.10062">
        <ele>719.9</ele>
        <time>2023-05-18T09:10:37Z</time>
      </trkpt>
      <trkpt lat="47.83429" lon="7.10065">
        <ele>722.7</ele>
        <time>2023-05-18T09:10:44Z</time>
      </trkpt>
      <trkpt lat="47.83444" lon="7.10061">
        <ele>726.6</ele>
        <time>2023-05-18T09:10:58Z</time>
      </trkpt>
      <trkpt lat="47.83451" lon="7.10062">
        <ele>728.4</ele>
        <time>2023-05-18T09:11:05Z</time>
      </trkpt>
      <trkpt lat="47.83458" lon="7.10059">
        <ele>728.9</ele>
        <time>2023-05-18T09:11:15Z</time>
      </trkpt>
      <trkpt lat="47.83463" lon="7.10061">
        <ele>730.5</ele>
        <time>2023-05-18T09:11:20Z</time>
      </trkpt>
      <trkpt lat="47.83465" lon="7.10053">
        <ele>728.7</ele>
        <time>2023-05-18T09:11:27Z</time>
      </trkpt>
      <trkpt lat="47.83473" lon="7.10056">
        <ele>730.8</ele>
        <time>2023-05-18T09:11:37Z</time>
      </trkpt>
      <trkpt lat="47.83475" lon="7.10064">
        <ele>732.1</ele>
        <time>2023-05-18T09:11:40Z</time>
      </trkpt>
      <trkpt lat="47.83476" lon="7.1007">
        <ele>733.2</ele>
        <time>2023-05-18T09:11:44Z</time>
      </trkpt>
      <trkpt lat="47.83481" lon="7.10076">
        <ele>732.9</ele>
        <time>2023-05-18T09:11:51Z</time>
      </trkpt>
      <trkpt lat="47.83486" lon="7.10079">
        <ele>731.9</ele>
        <time>2023-05-18T09:11:55Z</time>
      </trkpt>
      <trkpt lat="47.83488" lon="7.10086">
        <ele>733.1</ele>
        <time>2023-05-18T09:11:59Z</time>
      </trkpt>
      <trkpt lat="47.83492" lon="7.10098">
        <ele>735.1</ele>
        <time>2023-05-18T09:12:09Z</time>
      </trkpt>
      <trkpt lat="47.83496" lon="7.10103">
        <ele>735.1</ele>
        <time>2023-05-18T09:12:13Z</time>
      </trkpt>
      <trkpt lat="47.83503" lon="7.10126">
        <ele>738.6</ele>
        <time>2023-05-18T09:12:41Z</time>
      </trkpt>
      <trkpt lat="47.83508" lon="7.10131">
        <ele>738.1</ele>
        <time>2023-05-18T09:12:44Z</time>
      </trkpt>
      <trkpt lat="47.83514" lon="7.10152">
        <ele>742</ele>
        <time>2023-05-18T09:12:59Z</time>
      </trkpt>
      <trkpt lat="47.83521" lon="7.10163">
        <ele>743</ele>
        <time>2023-05-18T09:13:09Z</time>
      </trkpt>
      <trkpt lat="47.83525" lon="7.10171">
        <ele>744.1</ele>
        <time>2023-05-18T09:13:16Z</time>
      </trkpt>
      <trkpt lat="47.83529" lon="7.10175">
        <ele>744.1</ele>
        <time>2023-05-18T09:13:23Z</time>
      </trkpt>
      <trkpt lat="47.8353" lon="7.10183">
        <ele>746.2</ele>
        <time>2023-05-18T09:13:29Z</time>
      </trkpt>
      <trkpt lat="47.83536" lon="7.1019">
        <ele>746.9</ele>
        <time>2023-05-18T09:13:40Z</time>
      </trkpt>
      <trkpt lat="47.83551" lon="7.10209">
        <ele>748.8</ele>
        <time>2023-05-18T09:13:57Z</time>
      </trkpt>
      <trkpt lat="47.83553" lon="7.10215">
        <ele>749.9</ele>
        <time>2023-05-18T09:14:01Z</time>
      </trkpt>
      <trkpt lat="47.83556" lon="7.1022">
        <ele>750.3</ele>
        <time>2023-05-18T09:14:06Z</time>
      </trkpt>
      <trkpt lat="47.83559" lon="7.10229">
        <ele>750.6</ele>
        <time>2023-05-18T09:14:16Z</time>
      </trkpt>
      <trkpt lat="47.83558" lon="7.10248">
        <ele>754.3</ele>
        <time>2023-05-18T09:14:29Z</time>
      </trkpt>
      <trkpt lat="47.83556" lon="7.10254">
        <ele>756</ele>
        <time>2023-05-18T09:14:34Z</time>
      </trkpt>
      <trkpt lat="47.83558" lon="7.10263">
        <ele>755.4</ele>
        <time>2023-05-18T09:14:42Z</time>
      </trkpt>
      <trkpt lat="47.83559" lon="7.103">
        <ele>757.2</ele>
        <time>2023-05-18T09:15:03Z</time>
      </trkpt>
      <trkpt lat="47.83561" lon="7.10308">
        <ele>756.6</ele>
        <time>2023-05-18T09:15:11Z</time>
      </trkpt>
      <trkpt lat="47.8356" lon="7.10315">
        <ele>758.2</ele>
        <time>2023-05-18T09:15:15Z</time>
      </trkpt>
      <trkpt lat="47.83561" lon="7.10324">
        <ele>758.8</ele>
        <time>2023-05-18T09:15:21Z</time>
      </trkpt>
      <trkpt lat="47.83555" lon="7.10339">
        <ele>764</ele>
        <time>2023-05-18T09:15:34Z</time>
      </trkpt>
      <trkpt lat="47.83557" lon="7.10345">
        <ele>764.1</ele>
        <time>2023-05-18T09:15:38Z</time>
      </trkpt>
      <trkpt lat="47.83558" lon="7.10355">
        <ele>765.3</ele>
        <time>2023-05-18T09:15:43Z</time>
      </trkpt>
      <trkpt lat="47.8356" lon="7.10363">
        <ele>765.6</ele>
        <time>2023-05-18T09:15:54Z</time>
      </trkpt>
      <trkpt lat="47.83562" lon="7.10371">
        <ele>764.9</ele>
        <time>2023-05-18T09:15:59Z</time>
      </trkpt>
      <trkpt lat="47.83569" lon="7.1037">
        <ele>763.7</ele>
        <time>2023-05-18T09:16:06Z</time>
      </trkpt>
      <trkpt lat="47.83578" lon="7.10379">
        <ele>763.8</ele>
        <time>2023-05-18T09:16:18Z</time>
      </trkpt>
      <trkpt lat="47.83581" lon="7.10385">
        <ele>765</ele>
        <time>2023-05-18T09:16:23Z</time>
      </trkpt>
      <trkpt lat="47.83585" lon="7.10392">
        <ele>765.8</ele>
        <time>2023-05-18T09:16:27Z</time>
      </trkpt>
      <trkpt lat="47.8359" lon="7.10395">
        <ele>764.9</ele>
        <time>2023-05-18T09:16:31Z</time>
      </trkpt>
      <trkpt lat="47.83593" lon="7.10401">
        <ele>765.4</ele>
        <time>2023-05-18T09:16:36Z</time>
      </trkpt>
      <trkpt lat="47.83597" lon="7.10407">
        <ele>766.1</ele>
        <time>2023-05-18T09:16:41Z</time>
      </trkpt>
      <trkpt lat="47.83604" lon="7.10413">
        <ele>767.1</ele>
        <time>2023-05-18T09:16:48Z</time>
      </trkpt>
      <trkpt lat="47.83616" lon="7.10415">
        <ele>766.8</ele>
        <time>2023-05-18T09:16:58Z</time>
      </trkpt>
      <trkpt lat="47.83621" lon="7.10414">
        <ele>765.8</ele>
        <time>2023-05-18T09:17:02Z</time>
      </trkpt>
      <trkpt lat="47.83638" lon="7.1042">
        <ele>766.5</ele>
        <time>2023-05-18T09:17:20Z</time>
      </trkpt>
      <trkpt lat="47.83646" lon="7.1042">
        <ele>765.4</ele>
        <time>2023-05-18T09:17:28Z</time>
      </trkpt>
      <trkpt lat="47.83661" lon="7.10426">
        <ele>765.6</ele>
        <time>2023-05-18T09:17:38Z</time>
      </trkpt>
      <trkpt lat="47.83667" lon="7.10431">
        <ele>766.6</ele>
        <time>2023-05-18T09:17:45Z</time>
      </trkpt>
      <trkpt lat="47.83671" lon="7.10439">
        <ele>768.4</ele>
        <time>2023-05-18T09:17:52Z</time>
      </trkpt>
      <trkpt lat="47.83674" lon="7.10442">
        <ele>768.6</ele>
        <time>2023-05-18T09:17:56Z</time>
      </trkpt>
      <trkpt lat="47.83682" lon="7.10444">
        <ele>766.8</ele>
        <time>2023-05-18T09:18:02Z</time>
      </trkpt>
      <trkpt lat="47.83687" lon="7.10451">
        <ele>768</ele>
        <time>2023-05-18T09:18:12Z</time>
      </trkpt>
      <trkpt lat="47.8369" lon="7.10457">
        <ele>769.4</ele>
        <time>2023-05-18T09:18:15Z</time>
      </trkpt>
      <trkpt lat="47.83695" lon="7.10464">
        <ele>770.5</ele>
        <time>2023-05-18T09:18:23Z</time>
      </trkpt>
      <trkpt lat="47.837" lon="7.10469">
        <ele>770.5</ele>
        <time>2023-05-18T09:18:27Z</time>
      </trkpt>
      <trkpt lat="47.83703" lon="7.10475">
        <ele>771.4</ele>
        <time>2023-05-18T09:18:30Z</time>
      </trkpt>
      <trkpt lat="47.83708" lon="7.10477">
        <ele>770.1</ele>
        <time>2023-05-18T09:18:35Z</time>
      </trkpt>
      <trkpt lat="47.83713" lon="7.10484">
        <ele>770.3</ele>
        <time>2023-05-18T09:18:41Z</time>
      </trkpt>
      <trkpt lat="47.83715" lon="7.1049">
        <ele>771.5</ele>
        <time>2023-05-18T09:18:46Z</time>
      </trkpt>
      <trkpt lat="47.83718" lon="7.10495">
        <ele>771.9</ele>
        <time>2023-05-18T09:18:51Z</time>
      </trkpt>
      <trkpt lat="47.83723" lon="7.10509">
        <ele>772.5</ele>
        <time>2023-05-18T09:18:59Z</time>
      </trkpt>
      <trkpt lat="47.83725" lon="7.10516">
        <ele>771.9</ele>
        <time>2023-05-18T09:19:04Z</time>
      </trkpt>
      <trkpt lat="47.83727" lon="7.10522">
        <ele>771.1</ele>
        <time>2023-05-18T09:19:08Z</time>
      </trkpt>
      <trkpt lat="47.8373" lon="7.10538">
        <ele>770.1</ele>
        <time>2023-05-18T09:19:16Z</time>
      </trkpt>
      <trkpt lat="47.83733" lon="7.10545">
        <ele>768.5</ele>
        <time>2023-05-18T09:19:20Z</time>
      </trkpt>
      <trkpt lat="47.83734" lon="7.10554">
        <ele>768.4</ele>
        <time>2023-05-18T09:19:27Z</time>
      </trkpt>
      <trkpt lat="47.83734" lon="7.10562">
        <ele>768.9</ele>
        <time>2023-05-18T09:19:31Z</time>
      </trkpt>
      <trkpt lat="47.83735" lon="7.10569">
        <ele>768.5</ele>
        <time>2023-05-18T09:19:36Z</time>
      </trkpt>
      <trkpt lat="47.83735" lon="7.10576">
        <ele>768.9</ele>
        <time>2023-05-18T09:19:39Z</time>
      </trkpt>
      <trkpt lat="47.83733" lon="7.10584">
        <ele>770.6</ele>
        <time>2023-05-18T09:19:43Z</time>
      </trkpt>
      <trkpt lat="47.83736" lon="7.10593">
        <ele>768.8</ele>
        <time>2023-05-18T09:19:49Z</time>
      </trkpt>
      <trkpt lat="47.83737" lon="7.10602">
        <ele>768.2</ele>
        <time>2023-05-18T09:19:52Z</time>
      </trkpt>
      <trkpt lat="47.83734" lon="7.10617">
        <ele>770.9</ele>
        <time>2023-05-18T09:20:01Z</time>
      </trkpt>
      <trkpt lat="47.83734" lon="7.10628">
        <ele>771.6</ele>
        <time>2023-05-18T09:20:09Z</time>
      </trkpt>
      <trkpt lat="47.83735" lon="7.10637">
        <ele>771.6</ele>
        <time>2023-05-18T09:20:13Z</time>
      </trkpt>
      <trkpt lat="47.83736" lon="7.10653">
        <ele>771.8</ele>
        <time>2023-05-18T09:20:23Z</time>
      </trkpt>
      <trkpt lat="47.83737" lon="7.10667">
        <ele>771.9</ele>
        <time>2023-05-18T09:20:30Z</time>
      </trkpt>
      <trkpt lat="47.83735" lon="7.10674">
        <ele>773.3</ele>
        <time>2023-05-18T09:20:33Z</time>
      </trkpt>
      <trkpt lat="47.83733" lon="7.10687">
        <ele>774.6</ele>
        <time>2023-05-18T09:20:43Z</time>
      </trkpt>
      <trkpt lat="47.83733" lon="7.10694">
        <ele>774.6</ele>
        <time>2023-05-18T09:20:47Z</time>
      </trkpt>
      <trkpt lat="47.83735" lon="7.107">
        <ele>773.6</ele>
        <time>2023-05-18T09:20:50Z</time>
      </trkpt>
      <trkpt lat="47.83734" lon="7.10708">
        <ele>774.6</ele>
        <time>2023-05-18T09:20:55Z</time>
      </trkpt>
      <trkpt lat="47.83736" lon="7.10714">
        <ele>773.6</ele>
        <time>2023-05-18T09:20:59Z</time>
      </trkpt>
      <trkpt lat="47.83735" lon="7.10721">
        <ele>774.7</ele>
        <time>2023-05-18T09:21:04Z</time>
      </trkpt>
      <trkpt lat="47.83739" lon="7.10731">
        <ele>773</ele>
        <time>2023-05-18T09:21:17Z</time>
      </trkpt>
      <trkpt lat="47.83741" lon="7.10739">
        <ele>772.7</ele>
        <time>2023-05-18T09:21:22Z</time>
      </trkpt>
      <trkpt lat="47.83743" lon="7.10747">
        <ele>772.4</ele>
        <time>2023-05-18T09:21:25Z</time>
      </trkpt>
      <trkpt lat="47.83742" lon="7.10753">
        <ele>773.4</ele>
        <time>2023-05-18T09:21:29Z</time>
      </trkpt>
      <trkpt lat="47.8374" lon="7.10785">
        <ele>775.4</ele>
        <time>2023-05-18T09:21:49Z</time>
      </trkpt>
      <trkpt lat="47.83739" lon="7.10794">
        <ele>776.2</ele>
        <time>2023-05-18T09:21:51Z</time>
      </trkpt>
      <trkpt lat="47.83741" lon="7.10801">
        <ele>776</ele>
        <time>2023-05-18T09:21:57Z</time>
      </trkpt>
      <trkpt lat="47.83746" lon="7.10811">
        <ele>776.6</ele>
        <time>2023-05-18T09:22:05Z</time>
      </trkpt>
      <trkpt lat="47.8375" lon="7.10815">
        <ele>777.4</ele>
        <time>2023-05-18T09:22:08Z</time>
      </trkpt>
      <trkpt lat="47.83752" lon="7.10821">
        <ele>778.6</ele>
        <time>2023-05-18T09:22:12Z</time>
      </trkpt>
      <trkpt lat="47.83754" lon="7.10831">
        <ele>781.1</ele>
        <time>2023-05-18T09:22:21Z</time>
      </trkpt>
      <trkpt lat="47.83762" lon="7.10845">
        <ele>782.7</ele>
        <time>2023-05-18T09:22:33Z</time>
      </trkpt>
      <trkpt lat="47.83763" lon="7.10853">
        <ele>784</ele>
        <time>2023-05-18T09:22:38Z</time>
      </trkpt>
      <trkpt lat="47.83772" lon="7.10854">
        <ele>786.2</ele>
        <time>2023-05-18T09:22:52Z</time>
      </trkpt>
      <trkpt lat="47.83779" lon="7.10849">
        <ele>785.4</ele>
        <time>2023-05-18T09:23:05Z</time>
      </trkpt>
      <trkpt lat="47.83784" lon="7.10849">
        <ele>784.2</ele>
        <time>2023-05-18T09:23:11Z</time>
      </trkpt>
      <trkpt lat="47.83788" lon="7.10854">
        <ele>785</ele>
        <time>2023-05-18T09:23:14Z</time>
      </trkpt>
      <trkpt lat="47.8379" lon="7.10861">
        <ele>786.9</ele>
        <time>2023-05-18T09:23:18Z</time>
      </trkpt>
      <trkpt lat="47.83794" lon="7.10865">
        <ele>787</ele>
        <time>2023-05-18T09:23:21Z</time>
      </trkpt>
      <trkpt lat="47.838" lon="7.10875">
        <ele>789.1</ele>
        <time>2023-05-18T09:23:30Z</time>
      </trkpt>
      <trkpt lat="47.83807" lon="7.10885">
        <ele>792</ele>
        <time>2023-05-18T09:23:40Z</time>
      </trkpt>
      <trkpt lat="47.8381" lon="7.10891">
        <ele>793.1</ele>
        <time>2023-05-18T09:23:44Z</time>
      </trkpt>
      <trkpt lat="47.83815" lon="7.10897">
        <ele>793.1</ele>
        <time>2023-05-18T09:23:49Z</time>
      </trkpt>
      <trkpt lat="47.83822" lon="7.10915">
        <ele>796.5</ele>
        <time>2023-05-18T09:24:06Z</time>
      </trkpt>
      <trkpt lat="47.83838" lon="7.10929">
        <ele>798.7</ele>
        <time>2023-05-18T09:24:28Z</time>
      </trkpt>
      <trkpt lat="47.83841" lon="7.10935">
        <ele>800.3</ele>
        <time>2023-05-18T09:24:35Z</time>
      </trkpt>
      <trkpt lat="47.83846" lon="7.10938">
        <ele>800.3</ele>
        <time>2023-05-18T09:24:40Z</time>
      </trkpt>
      <trkpt lat="47.83862" lon="7.10968">
        <ele>805.5</ele>
        <time>2023-05-18T09:25:13Z</time>
      </trkpt>
      <trkpt lat="47.83866" lon="7.10974">
        <ele>806.4</ele>
        <time>2023-05-18T09:25:18Z</time>
      </trkpt>
      <trkpt lat="47.83868" lon="7.1098">
        <ele>808.2</ele>
        <time>2023-05-18T09:25:28Z</time>
      </trkpt>
      <trkpt lat="47.83879" lon="7.10988">
        <ele>808.9</ele>
        <time>2023-05-18T09:25:36Z</time>
      </trkpt>
      <trkpt lat="47.83887" lon="7.10996">
        <ele>810.6</ele>
        <time>2023-05-18T09:25:52Z</time>
      </trkpt>
      <trkpt lat="47.83896" lon="7.10997">
        <ele>809.5</ele>
        <time>2023-05-18T09:25:59Z</time>
      </trkpt>
      <trkpt lat="47.83902" lon="7.11001">
        <ele>810</ele>
        <time>2023-05-18T09:26:06Z</time>
      </trkpt>
      <trkpt lat="47.83906" lon="7.11005">
        <ele>810.6</ele>
        <time>2023-05-18T09:26:11Z</time>
      </trkpt>
      <trkpt lat="47.83917" lon="7.11023">
        <ele>813.5</ele>
        <time>2023-05-18T09:26:27Z</time>
      </trkpt>
      <trkpt lat="47.83927" lon="7.1105">
        <ele>815.3</ele>
        <time>2023-05-18T09:26:49Z</time>
      </trkpt>
      <trkpt lat="47.83928" lon="7.1106">
        <ele>817.6</ele>
        <time>2023-05-18T09:26:56Z</time>
      </trkpt>
      <trkpt lat="47.83932" lon="7.11068">
        <ele>817.8</ele>
        <time>2023-05-18T09:27:02Z</time>
      </trkpt>
      <trkpt lat="47.83931" lon="7.11078">
        <ele>821.2</ele>
        <time>2023-05-18T09:27:10Z</time>
      </trkpt>
      <trkpt lat="47.83932" lon="7.11086">
        <ele>822.9</ele>
        <time>2023-05-18T09:27:14Z</time>
      </trkpt>
      <trkpt lat="47.83945" lon="7.11101">
        <ele>819.3</ele>
        <time>2023-05-18T09:27:30Z</time>
      </trkpt>
      <trkpt lat="47.83948" lon="7.11111">
        <ele>820.4</ele>
        <time>2023-05-18T09:27:38Z</time>
      </trkpt>
      <trkpt lat="47.83954" lon="7.11138">
        <ele>823.3</ele>
        <time>2023-05-18T09:27:59Z</time>
      </trkpt>
      <trkpt lat="47.83965" lon="7.11147">
        <ele>820.5</ele>
        <time>2023-05-18T09:28:10Z</time>
      </trkpt>
      <trkpt lat="47.83968" lon="7.11152">
        <ele>821</ele>
        <time>2023-05-18T09:28:17Z</time>
      </trkpt>
      <trkpt lat="47.83972" lon="7.11158">
        <ele>821.4</ele>
        <time>2023-05-18T09:28:22Z</time>
      </trkpt>
      <trkpt lat="47.83975" lon="7.11164">
        <ele>822</ele>
        <time>2023-05-18T09:28:27Z</time>
      </trkpt>
      <trkpt lat="47.8398" lon="7.11216">
        <ele>828.9</ele>
        <time>2023-05-18T09:29:02Z</time>
      </trkpt>
      <trkpt lat="47.83983" lon="7.1123">
        <ele>829.2</ele>
        <time>2023-05-18T09:29:11Z</time>
      </trkpt>
      <trkpt lat="47.83983" lon="7.11237">
        <ele>831.4</ele>
        <time>2023-05-18T09:29:14Z</time>
      </trkpt>
      <trkpt lat="47.83986" lon="7.11243">
        <ele>831.3</ele>
        <time>2023-05-18T09:29:20Z</time>
      </trkpt>
      <trkpt lat="47.83986" lon="7.11252">
        <ele>834.4</ele>
        <time>2023-05-18T09:29:27Z</time>
      </trkpt>
      <trkpt lat="47.83991" lon="7.11261">
        <ele>834.9</ele>
        <time>2023-05-18T09:29:35Z</time>
      </trkpt>
      <trkpt lat="47.84001" lon="7.1127">
        <ele>832.3</ele>
        <time>2023-05-18T09:29:48Z</time>
      </trkpt>
      <trkpt lat="47.84008" lon="7.11283">
        <ele>833.5</ele>
        <time>2023-05-18T09:29:59Z</time>
      </trkpt>
      <trkpt lat="47.84009" lon="7.11292">
        <ele>837</ele>
        <time>2023-05-18T09:30:06Z</time>
      </trkpt>
      <trkpt lat="47.84013" lon="7.11297">
        <ele>836.4</ele>
        <time>2023-05-18T09:30:09Z</time>
      </trkpt>
      <trkpt lat="47.8402" lon="7.11325">
        <ele>836.9</ele>
        <time>2023-05-18T09:30:28Z</time>
      </trkpt>
      <trkpt lat="47.84022" lon="7.11347">
        <ele>838.9</ele>
        <time>2023-05-18T09:30:46Z</time>
      </trkpt>
      <trkpt lat="47.8403" lon="7.11377">
        <ele>842.9</ele>
        <time>2023-05-18T09:31:07Z</time>
      </trkpt>
      <trkpt lat="47.84054" lon="7.11395">
        <ele>842.1</ele>
        <time>2023-05-18T09:31:34Z</time>
      </trkpt>
      <trkpt lat="47.84055" lon="7.11401">
        <ele>844.4</ele>
        <time>2023-05-18T09:31:38Z</time>
      </trkpt>
      <trkpt lat="47.84062" lon="7.11406">
        <ele>845.6</ele>
        <time>2023-05-18T09:31:45Z</time>
      </trkpt>
      <trkpt lat="47.84066" lon="7.11409">
        <ele>846.3</ele>
        <time>2023-05-18T09:31:49Z</time>
      </trkpt>
      <trkpt lat="47.84072" lon="7.11414">
        <ele>847.5</ele>
        <time>2023-05-18T09:31:57Z</time>
      </trkpt>
      <trkpt lat="47.84078" lon="7.11416">
        <ele>847.5</ele>
        <time>2023-05-18T09:32:05Z</time>
      </trkpt>
      <trkpt lat="47.84083" lon="7.11416">
        <ele>846.8</ele>
        <time>2023-05-18T09:32:11Z</time>
      </trkpt>
      <trkpt lat="47.84105" lon="7.11403">
        <ele>845.9</ele>
        <time>2023-05-18T09:32:33Z</time>
      </trkpt>
      <trkpt lat="47.84121" lon="7.11399">
        <ele>847.9</ele>
        <time>2023-05-18T09:32:45Z</time>
      </trkpt>
      <trkpt lat="47.84127" lon="7.11394">
        <ele>847.6</ele>
        <time>2023-05-18T09:32:52Z</time>
      </trkpt>
      <trkpt lat="47.84132" lon="7.11395">
        <ele>849.1</ele>
        <time>2023-05-18T09:32:56Z</time>
      </trkpt>
      <trkpt lat="47.84153" lon="7.1138">
        <ele>846.9</ele>
        <time>2023-05-18T09:33:19Z</time>
      </trkpt>
      <trkpt lat="47.84158" lon="7.11379">
        <ele>847.2</ele>
        <time>2023-05-18T09:33:24Z</time>
      </trkpt>
      <trkpt lat="47.84166" lon="7.11378">
        <ele>848</ele>
        <time>2023-05-18T09:33:33Z</time>
      </trkpt>
      <trkpt lat="47.84171" lon="7.11377">
        <ele>848.9</ele>
        <time>2023-05-18T09:33:37Z</time>
      </trkpt>
      <trkpt lat="47.84175" lon="7.11374">
        <ele>848.9</ele>
        <time>2023-05-18T09:33:41Z</time>
      </trkpt>
      <trkpt lat="47.84179" lon="7.11372">
        <ele>849.3</ele>
        <time>2023-05-18T09:33:45Z</time>
      </trkpt>
      <trkpt lat="47.84184" lon="7.11367">
        <ele>849</ele>
        <time>2023-05-18T09:33:49Z</time>
      </trkpt>
      <trkpt lat="47.84202" lon="7.11356">
        <ele>851.3</ele>
        <time>2023-05-18T09:34:04Z</time>
      </trkpt>
      <trkpt lat="47.84214" lon="7.11342">
        <ele>851.3</ele>
        <time>2023-05-18T09:34:18Z</time>
      </trkpt>
      <trkpt lat="47.84226" lon="7.11334">
        <ele>852.7</ele>
        <time>2023-05-18T09:34:28Z</time>
      </trkpt>
      <trkpt lat="47.8423" lon="7.11329">
        <ele>852.2</ele>
        <time>2023-05-18T09:34:33Z</time>
      </trkpt>
      <trkpt lat="47.8424" lon="7.11324">
        <ele>854</ele>
        <time>2023-05-18T09:34:39Z</time>
      </trkpt>
      <trkpt lat="47.84245" lon="7.11316">
        <ele>852.5</ele>
        <time>2023-05-18T09:34:45Z</time>
      </trkpt>
      <trkpt lat="47.8425" lon="7.11313">
        <ele>853.2</ele>
        <time>2023-05-18T09:34:51Z</time>
      </trkpt>
      <trkpt lat="47.84256" lon="7.11307">
        <ele>852.8</ele>
        <time>2023-05-18T09:34:57Z</time>
      </trkpt>
      <trkpt lat="47.84261" lon="7.11307">
        <ele>854.7</ele>
        <time>2023-05-18T09:35:00Z</time>
      </trkpt>
      <trkpt lat="47.84281" lon="7.11293">
        <ele>855.8</ele>
        <time>2023-05-18T09:35:20Z</time>
      </trkpt>
      <trkpt lat="47.84289" lon="7.11285">
        <ele>855.8</ele>
        <time>2023-05-18T09:35:30Z</time>
      </trkpt>
      <trkpt lat="47.84295" lon="7.11282">
        <ele>857.1</ele>
        <time>2023-05-18T09:35:39Z</time>
      </trkpt>
      <trkpt lat="47.84301" lon="7.1127">
        <ele>855.4</ele>
        <time>2023-05-18T09:35:53Z</time>
      </trkpt>
      <trkpt lat="47.84301" lon="7.11263">
        <ele>853.1</ele>
        <time>2023-05-18T09:36:05Z</time>
      </trkpt>
      <trkpt lat="47.84298" lon="7.11259">
        <ele>850.3</ele>
        <time>2023-05-18T09:36:34Z</time>
      </trkpt>
      <trkpt lat="47.84295" lon="7.11254">
        <ele>847.1</ele>
        <time>2023-05-18T09:37:22Z</time>
      </trkpt>
      <trkpt lat="47.84297" lon="7.11248">
        <ele>845.5</ele>
        <time>2023-05-18T09:37:34Z</time>
      </trkpt>
      <trkpt lat="47.84291" lon="7.11246">
        <ele>841.4</ele>
        <time>2023-05-18T09:37:46Z</time>
      </trkpt>
      <trkpt lat="47.84293" lon="7.11244">
        <ele>841.3</ele>
        <time>2023-05-18T09:38:13Z</time>
      </trkpt>
      <trkpt lat="47.84296" lon="7.11251">
        <ele>846.5</ele>
        <time>2023-05-18T09:38:26Z</time>
      </trkpt>
      <trkpt lat="47.8432" lon="7.1127">
        <ele>859</ele>
        <time>2023-05-18T09:41:54Z</time>
      </trkpt>
      <trkpt lat="47.84329" lon="7.11268">
        <ele>859</ele>
        <time>2023-05-18T09:42:02Z</time>
      </trkpt>
      <trkpt lat="47.84335" lon="7.11267">
        <ele>858.9</ele>
        <time>2023-05-18T09:42:06Z</time>
      </trkpt>
      <trkpt lat="47.84341" lon="7.11263">
        <ele>856.8</ele>
        <time>2023-05-18T09:42:12Z</time>
      </trkpt>
      <trkpt lat="47.84351" lon="7.11263">
        <ele>856.5</ele>
        <time>2023-05-18T09:42:20Z</time>
      </trkpt>
      <trkpt lat="47.84356" lon="7.11266">
        <ele>857.5</ele>
        <time>2023-05-18T09:42:24Z</time>
      </trkpt>
      <trkpt lat="47.84367" lon="7.11273">
        <ele>856.9</ele>
        <time>2023-05-18T09:42:36Z</time>
      </trkpt>
      <trkpt lat="47.8437" lon="7.1128">
        <ele>857.6</ele>
        <time>2023-05-18T09:42:40Z</time>
      </trkpt>
      <trkpt lat="47.84375" lon="7.11292">
        <ele>858.4</ele>
        <time>2023-05-18T09:42:47Z</time>
      </trkpt>
      <trkpt lat="47.8438" lon="7.11294">
        <ele>856</ele>
        <time>2023-05-18T09:42:50Z</time>
      </trkpt>
      <trkpt lat="47.84385" lon="7.11311">
        <ele>857.9</ele>
        <time>2023-05-18T09:43:01Z</time>
      </trkpt>
      <trkpt lat="47.84385" lon="7.11326">
        <ele>861.9</ele>
        <time>2023-05-18T09:43:08Z</time>
      </trkpt>
      <trkpt lat="47.84384" lon="7.11334">
        <ele>864.7</ele>
        <time>2023-05-18T09:43:12Z</time>
      </trkpt>
      <trkpt lat="47.84387" lon="7.11363">
        <ele>863.8</ele>
        <time>2023-05-18T09:43:28Z</time>
      </trkpt>
      <trkpt lat="47.84389" lon="7.11371">
        <ele>864.4</ele>
        <time>2023-05-18T09:43:31Z</time>
      </trkpt>
      <trkpt lat="47.84394" lon="7.11379">
        <ele>862.8</ele>
        <time>2023-05-18T09:43:35Z</time>
      </trkpt>
      <trkpt lat="47.84398" lon="7.11383">
        <ele>861</ele>
        <time>2023-05-18T09:43:39Z</time>
      </trkpt>
      <trkpt lat="47.84403" lon="7.11419">
        <ele>866.3</ele>
        <time>2023-05-18T09:44:02Z</time>
      </trkpt>
      <trkpt lat="47.84415" lon="7.1146">
        <ele>864.6</ele>
        <time>2023-05-18T09:44:27Z</time>
      </trkpt>
      <trkpt lat="47.84417" lon="7.11477">
        <ele>865</ele>
        <time>2023-05-18T09:44:36Z</time>
      </trkpt>
      <trkpt lat="47.8442" lon="7.11489">
        <ele>866.6</ele>
        <time>2023-05-18T09:44:42Z</time>
      </trkpt>
      <trkpt lat="47.84429" lon="7.1151">
        <ele>868.9</ele>
        <time>2023-05-18T09:44:56Z</time>
      </trkpt>
      <trkpt lat="47.84433" lon="7.11513">
        <ele>868.2</ele>
        <time>2023-05-18T09:45:00Z</time>
      </trkpt>
      <trkpt lat="47.84438" lon="7.11514">
        <ele>866.3</ele>
        <time>2023-05-18T09:45:03Z</time>
      </trkpt>
      <trkpt lat="47.84442" lon="7.11518">
        <ele>865.9</ele>
        <time>2023-05-18T09:45:06Z</time>
      </trkpt>
      <trkpt lat="47.84446" lon="7.11523">
        <ele>865.8</ele>
        <time>2023-05-18T09:45:10Z</time>
      </trkpt>
      <trkpt lat="47.84452" lon="7.11528">
        <ele>864.8</ele>
        <time>2023-05-18T09:45:16Z</time>
      </trkpt>
      <trkpt lat="47.84457" lon="7.11542">
        <ele>868.2</ele>
        <time>2023-05-18T09:45:25Z</time>
      </trkpt>
      <trkpt lat="47.84471" lon="7.11554">
        <ele>866.9</ele>
        <time>2023-05-18T09:45:36Z</time>
      </trkpt>
      <trkpt lat="47.84474" lon="7.11559">
        <ele>867.7</ele>
        <time>2023-05-18T09:45:41Z</time>
      </trkpt>
      <trkpt lat="47.8449" lon="7.1157">
        <ele>866.8</ele>
        <time>2023-05-18T09:45:54Z</time>
      </trkpt>
      <trkpt lat="47.84493" lon="7.11575">
        <ele>867.8</ele>
        <time>2023-05-18T09:45:58Z</time>
      </trkpt>
      <trkpt lat="47.84512" lon="7.11585">
        <ele>868.7</ele>
        <time>2023-05-18T09:46:19Z</time>
      </trkpt>
      <trkpt lat="47.84522" lon="7.11588">
        <ele>868.9</ele>
        <time>2023-05-18T09:46:27Z</time>
      </trkpt>
      <trkpt lat="47.84526" lon="7.11591">
        <ele>869.6</ele>
        <time>2023-05-18T09:46:30Z</time>
      </trkpt>
      <trkpt lat="47.84538" lon="7.11592">
        <ele>869.3</ele>
        <time>2023-05-18T09:46:38Z</time>
      </trkpt>
      <trkpt lat="47.84543" lon="7.11596">
        <ele>870.3</ele>
        <time>2023-05-18T09:46:41Z</time>
      </trkpt>
      <trkpt lat="47.84563" lon="7.11599">
        <ele>869.1</ele>
        <time>2023-05-18T09:46:59Z</time>
      </trkpt>
      <trkpt lat="47.84567" lon="7.11602">
        <ele>869.2</ele>
        <time>2023-05-18T09:47:02Z</time>
      </trkpt>
      <trkpt lat="47.84574" lon="7.11602">
        <ele>867.8</ele>
        <time>2023-05-18T09:47:06Z</time>
      </trkpt>
      <trkpt lat="47.84578" lon="7.11605">
        <ele>868</ele>
        <time>2023-05-18T09:47:11Z</time>
      </trkpt>
      <trkpt lat="47.84581" lon="7.11611">
        <ele>869.4</ele>
        <time>2023-05-18T09:47:14Z</time>
      </trkpt>
      <trkpt lat="47.84599" lon="7.11624">
        <ele>871.6</ele>
        <time>2023-05-18T09:47:27Z</time>
      </trkpt>
      <trkpt lat="47.84628" lon="7.11628">
        <ele>873.1</ele>
        <time>2023-05-18T09:47:55Z</time>
      </trkpt>
      <trkpt lat="47.84636" lon="7.11631">
        <ele>874.5</ele>
        <time>2023-05-18T09:48:03Z</time>
      </trkpt>
      <trkpt lat="47.8464" lon="7.1163">
        <ele>874.6</ele>
        <time>2023-05-18T09:48:07Z</time>
      </trkpt>
      <trkpt lat="47.84646" lon="7.11632">
        <ele>876.2</ele>
        <time>2023-05-18T09:48:11Z</time>
      </trkpt>
      <trkpt lat="47.84651" lon="7.11631">
        <ele>876.8</ele>
        <time>2023-05-18T09:48:16Z</time>
      </trkpt>
      <trkpt lat="47.84663" lon="7.11635">
        <ele>880.1</ele>
        <time>2023-05-18T09:48:28Z</time>
      </trkpt>
      <trkpt lat="47.84669" lon="7.11632">
        <ele>880.3</ele>
        <time>2023-05-18T09:48:33Z</time>
      </trkpt>
      <trkpt lat="47.84698" lon="7.11627">
        <ele>886.2</ele>
        <time>2023-05-18T09:48:58Z</time>
      </trkpt>
      <trkpt lat="47.84702" lon="7.11611">
        <ele>883.4</ele>
        <time>2023-05-18T09:49:05Z</time>
      </trkpt>
      <trkpt lat="47.84711" lon="7.11602">
        <ele>883.9</ele>
        <time>2023-05-18T09:49:15Z</time>
      </trkpt>
      <trkpt lat="47.84716" lon="7.11595">
        <ele>883.8</ele>
        <time>2023-05-18T09:49:23Z</time>
      </trkpt>
      <trkpt lat="47.84723" lon="7.1159">
        <ele>884.9</ele>
        <time>2023-05-18T09:49:27Z</time>
      </trkpt>
      <trkpt lat="47.84727" lon="7.11592">
        <ele>886.4</ele>
        <time>2023-05-18T09:49:30Z</time>
      </trkpt>
      <trkpt lat="47.84739" lon="7.11591">
        <ele>889.3</ele>
        <time>2023-05-18T09:49:41Z</time>
      </trkpt>
      <trkpt lat="47.84743" lon="7.11586">
        <ele>889</ele>
        <time>2023-05-18T09:49:50Z</time>
      </trkpt>
      <trkpt lat="47.84749" lon="7.11586">
        <ele>890.5</ele>
        <time>2023-05-18T09:49:53Z</time>
      </trkpt>
      <trkpt lat="47.84759" lon="7.11582">
        <ele>892.2</ele>
        <time>2023-05-18T09:50:00Z</time>
      </trkpt>
      <trkpt lat="47.84763" lon="7.11578">
        <ele>892.1</ele>
        <time>2023-05-18T09:50:05Z</time>
      </trkpt>
      <trkpt lat="47.84767" lon="7.11577">
        <ele>893</ele>
        <time>2023-05-18T09:50:09Z</time>
      </trkpt>
      <trkpt lat="47.84776" lon="7.11571">
        <ele>893.9</ele>
        <time>2023-05-18T09:50:19Z</time>
      </trkpt>
      <trkpt lat="47.84786" lon="7.11558">
        <ele>893.9</ele>
        <time>2023-05-18T09:50:31Z</time>
      </trkpt>
      <trkpt lat="47.84791" lon="7.11546">
        <ele>892.8</ele>
        <time>2023-05-18T09:50:39Z</time>
      </trkpt>
      <trkpt lat="47.84805" lon="7.11535">
        <ele>896.3</ele>
        <time>2023-05-18T09:50:56Z</time>
      </trkpt>
      <trkpt lat="47.84819" lon="7.11516">
        <ele>896.8</ele>
        <time>2023-05-18T09:51:10Z</time>
      </trkpt>
      <trkpt lat="47.84831" lon="7.11509">
        <ele>898.6</ele>
        <time>2023-05-18T09:51:22Z</time>
      </trkpt>
      <trkpt lat="47.84839" lon="7.11506">
        <ele>898.1</ele>
        <time>2023-05-18T09:51:31Z</time>
      </trkpt>
      <trkpt lat="47.84844" lon="7.11504">
        <ele>897.2</ele>
        <time>2023-05-18T09:51:39Z</time>
      </trkpt>
      <trkpt lat="47.84849" lon="7.11507">
        <ele>897.6</ele>
        <time>2023-05-18T09:51:42Z</time>
      </trkpt>
      <trkpt lat="47.84857" lon="7.11519">
        <ele>900.1</ele>
        <time>2023-05-18T09:51:50Z</time>
      </trkpt>
      <trkpt lat="47.84859" lon="7.11533">
        <ele>902</ele>
        <time>2023-05-18T09:51:58Z</time>
      </trkpt>
      <trkpt lat="47.84859" lon="7.11549">
        <ele>901.7</ele>
        <time>2023-05-18T09:52:07Z</time>
      </trkpt>
      <trkpt lat="47.84856" lon="7.11564">
        <ele>901.9</ele>
        <time>2023-05-18T09:52:15Z</time>
      </trkpt>
      <trkpt lat="47.84855" lon="7.11585">
        <ele>901.5</ele>
        <time>2023-05-18T09:52:27Z</time>
      </trkpt>
      <trkpt lat="47.84854" lon="7.11591">
        <ele>902.2</ele>
        <time>2023-05-18T09:52:31Z</time>
      </trkpt>
      <trkpt lat="47.84856" lon="7.11598">
        <ele>901.6</ele>
        <time>2023-05-18T09:52:35Z</time>
      </trkpt>
      <trkpt lat="47.84857" lon="7.11612">
        <ele>901.9</ele>
        <time>2023-05-18T09:52:42Z</time>
      </trkpt>
      <trkpt lat="47.84861" lon="7.11621">
        <ele>901.1</ele>
        <time>2023-05-18T09:52:51Z</time>
      </trkpt>
      <trkpt lat="47.8486" lon="7.11634">
        <ele>902.9</ele>
        <time>2023-05-18T09:52:59Z</time>
      </trkpt>
      <trkpt lat="47.84866" lon="7.11646">
        <ele>901.6</ele>
        <time>2023-05-18T09:53:07Z</time>
      </trkpt>
      <trkpt lat="47.84865" lon="7.11653">
        <ele>902.8</ele>
        <time>2023-05-18T09:53:11Z</time>
      </trkpt>
      <trkpt lat="47.84867" lon="7.11663">
        <ele>903.2</ele>
        <time>2023-05-18T09:53:16Z</time>
      </trkpt>
      <trkpt lat="47.84866" lon="7.1167">
        <ele>904.3</ele>
        <time>2023-05-18T09:53:20Z</time>
      </trkpt>
      <trkpt lat="47.84873" lon="7.11683">
        <ele>903</ele>
        <time>2023-05-18T09:53:26Z</time>
      </trkpt>
      <trkpt lat="47.84878" lon="7.11702">
        <ele>903.1</ele>
        <time>2023-05-18T09:53:38Z</time>
      </trkpt>
      <trkpt lat="47.84883" lon="7.11755">
        <ele>906.8</ele>
        <time>2023-05-18T09:54:09Z</time>
      </trkpt>
      <trkpt lat="47.84882" lon="7.11763">
        <ele>908.1</ele>
        <time>2023-05-18T09:54:13Z</time>
      </trkpt>
      <trkpt lat="47.84879" lon="7.1177">
        <ele>909</ele>
        <time>2023-05-18T09:54:16Z</time>
      </trkpt>
      <trkpt lat="47.84881" lon="7.11792">
        <ele>911.1</ele>
        <time>2023-05-18T09:54:31Z</time>
      </trkpt>
      <trkpt lat="47.84878" lon="7.11798">
        <ele>910.9</ele>
        <time>2023-05-18T09:54:39Z</time>
      </trkpt>
      <trkpt lat="47.84881" lon="7.11805">
        <ele>912</ele>
        <time>2023-05-18T09:54:51Z</time>
      </trkpt>
      <trkpt lat="47.84884" lon="7.11812">
        <ele>912.8</ele>
        <time>2023-05-18T09:54:57Z</time>
      </trkpt>
      <trkpt lat="47.84889" lon="7.11822">
        <ele>914.6</ele>
        <time>2023-05-18T09:55:03Z</time>
      </trkpt>
      <trkpt lat="47.84899" lon="7.11824">
        <ele>915.3</ele>
        <time>2023-05-18T09:55:11Z</time>
      </trkpt>
      <trkpt lat="47.84906" lon="7.11837">
        <ele>917.6</ele>
        <time>2023-05-18T09:55:24Z</time>
      </trkpt>
      <trkpt lat="47.84905" lon="7.11844">
        <ele>917.7</ele>
        <time>2023-05-18T09:55:28Z</time>
      </trkpt>
      <trkpt lat="47.84906" lon="7.11854">
        <ele>918.3</ele>
        <time>2023-05-18T09:55:35Z</time>
      </trkpt>
      <trkpt lat="47.84911" lon="7.11858">
        <ele>919.9</ele>
        <time>2023-05-18T09:55:39Z</time>
      </trkpt>
      <trkpt lat="47.84915" lon="7.11873">
        <ele>921.9</ele>
        <time>2023-05-18T09:55:48Z</time>
      </trkpt>
      <trkpt lat="47.84916" lon="7.11883">
        <ele>922.6</ele>
        <time>2023-05-18T09:55:56Z</time>
      </trkpt>
      <trkpt lat="47.84925" lon="7.11899">
        <ele>925.1</ele>
        <time>2023-05-18T09:56:07Z</time>
      </trkpt>
      <trkpt lat="47.84927" lon="7.1191">
        <ele>926.2</ele>
        <time>2023-05-18T09:56:15Z</time>
      </trkpt>
      <trkpt lat="47.84924" lon="7.11927">
        <ele>926.5</ele>
        <time>2023-05-18T09:56:23Z</time>
      </trkpt>
      <trkpt lat="47.84928" lon="7.11933">
        <ele>928.2</ele>
        <time>2023-05-18T09:56:31Z</time>
      </trkpt>
      <trkpt lat="47.84928" lon="7.1194">
        <ele>928.7</ele>
        <time>2023-05-18T09:56:38Z</time>
      </trkpt>
      <trkpt lat="47.84932" lon="7.11946">
        <ele>930.6</ele>
        <time>2023-05-18T09:56:43Z</time>
      </trkpt>
      <trkpt lat="47.84932" lon="7.11954">
        <ele>931.2</ele>
        <time>2023-05-18T09:56:47Z</time>
      </trkpt>
      <trkpt lat="47.84934" lon="7.11962">
        <ele>932.7</ele>
        <time>2023-05-18T09:56:52Z</time>
      </trkpt>
      <trkpt lat="47.84932" lon="7.1197">
        <ele>932.5</ele>
        <time>2023-05-18T09:57:00Z</time>
      </trkpt>
      <trkpt lat="47.84929" lon="7.11989">
        <ele>932.1</ele>
        <time>2023-05-18T09:57:10Z</time>
      </trkpt>
      <trkpt lat="47.84934" lon="7.11992">
        <ele>934.8</ele>
        <time>2023-05-18T09:57:13Z</time>
      </trkpt>
      <trkpt lat="47.84935" lon="7.12002">
        <ele>935.9</ele>
        <time>2023-05-18T09:57:19Z</time>
      </trkpt>
      <trkpt lat="47.8494" lon="7.12002">
        <ele>938.6</ele>
        <time>2023-05-18T09:57:26Z</time>
      </trkpt>
      <trkpt lat="47.84948" lon="7.1202">
        <ele>941.8</ele>
        <time>2023-05-18T09:57:45Z</time>
      </trkpt>
      <trkpt lat="47.84949" lon="7.12036">
        <ele>942.7</ele>
        <time>2023-05-18T09:57:52Z</time>
      </trkpt>
      <trkpt lat="47.84948" lon="7.12045">
        <ele>942.9</ele>
        <time>2023-05-18T09:57:55Z</time>
      </trkpt>
      <trkpt lat="47.84947" lon="7.12058">
        <ele>943.5</ele>
        <time>2023-05-18T09:58:04Z</time>
      </trkpt>
      <trkpt lat="47.84946" lon="7.12073">
        <ele>945.2</ele>
        <time>2023-05-18T09:58:16Z</time>
      </trkpt>
      <trkpt lat="47.84944" lon="7.12079">
        <ele>945.2</ele>
        <time>2023-05-18T09:58:20Z</time>
      </trkpt>
      <trkpt lat="47.84945" lon="7.12088">
        <ele>946.7</ele>
        <time>2023-05-18T09:58:25Z</time>
      </trkpt>
      <trkpt lat="47.84947" lon="7.12134">
        <ele>950.9</ele>
        <time>2023-05-18T09:59:05Z</time>
      </trkpt>
      <trkpt lat="47.84949" lon="7.12141">
        <ele>951.7</ele>
        <time>2023-05-18T09:59:10Z</time>
      </trkpt>
      <trkpt lat="47.84953" lon="7.1215">
        <ele>951.9</ele>
        <time>2023-05-18T09:59:17Z</time>
      </trkpt>
      <trkpt lat="47.84961" lon="7.12115">
        <ele>956.3</ele>
        <time>2023-05-18T09:59:44Z</time>
      </trkpt>
      <trkpt lat="47.84968" lon="7.12118">
        <ele>959.4</ele>
        <time>2023-05-18T09:59:51Z</time>
      </trkpt>
      <trkpt lat="47.84972" lon="7.12124">
        <ele>961.4</ele>
        <time>2023-05-18T09:59:53Z</time>
      </trkpt>
      <trkpt lat="47.84973" lon="7.1213">
        <ele>962</ele>
        <time>2023-05-18T09:59:57Z</time>
      </trkpt>
      <trkpt lat="47.84981" lon="7.12138">
        <ele>965.7</ele>
        <time>2023-05-18T10:00:05Z</time>
      </trkpt>
      <trkpt lat="47.84986" lon="7.12139">
        <ele>967.9</ele>
        <time>2023-05-18T10:00:11Z</time>
      </trkpt>
      <trkpt lat="47.8499" lon="7.1214">
        <ele>969.4</ele>
        <time>2023-05-18T10:00:17Z</time>
      </trkpt>
      <trkpt lat="47.84993" lon="7.12144">
        <ele>969.5</ele>
        <time>2023-05-18T10:00:21Z</time>
      </trkpt>
      <trkpt lat="47.84999" lon="7.12146">
        <ele>971.5</ele>
        <time>2023-05-18T10:00:29Z</time>
      </trkpt>
      <trkpt lat="47.85003" lon="7.12151">
        <ele>971.5</ele>
        <time>2023-05-18T10:00:35Z</time>
      </trkpt>
      <trkpt lat="47.85008" lon="7.12161">
        <ele>971.2</ele>
        <time>2023-05-18T10:00:42Z</time>
      </trkpt>
      <trkpt lat="47.85016" lon="7.1217">
        <ele>973.8</ele>
        <time>2023-05-18T10:00:57Z</time>
      </trkpt>
      <trkpt lat="47.85017" lon="7.12177">
        <ele>973.8</ele>
        <time>2023-05-18T10:01:00Z</time>
      </trkpt>
      <trkpt lat="47.85023" lon="7.1219">
        <ele>976.3</ele>
        <time>2023-05-18T10:01:11Z</time>
      </trkpt>
      <trkpt lat="47.85022" lon="7.12199">
        <ele>975.3</ele>
        <time>2023-05-18T10:01:14Z</time>
      </trkpt>
      <trkpt lat="47.85022" lon="7.12213">
        <ele>974.9</ele>
        <time>2023-05-18T10:01:28Z</time>
      </trkpt>
      <trkpt lat="47.85026" lon="7.12225">
        <ele>977.4</ele>
        <time>2023-05-18T10:01:37Z</time>
      </trkpt>
      <trkpt lat="47.85039" lon="7.1224">
        <ele>982.3</ele>
        <time>2023-05-18T10:02:07Z</time>
      </trkpt>
      <trkpt lat="47.85045" lon="7.12249">
        <ele>984.2</ele>
        <time>2023-05-18T10:02:16Z</time>
      </trkpt>
      <trkpt lat="47.85055" lon="7.12273">
        <ele>985.4</ele>
        <time>2023-05-18T10:02:35Z</time>
      </trkpt>
      <trkpt lat="47.85061" lon="7.12278">
        <ele>987.7</ele>
        <time>2023-05-18T10:02:37Z</time>
      </trkpt>
      <trkpt lat="47.85064" lon="7.12285">
        <ele>989.3</ele>
        <time>2023-05-18T10:02:43Z</time>
      </trkpt>
      <trkpt lat="47.85065" lon="7.12292">
        <ele>989.8</ele>
        <time>2023-05-18T10:02:48Z</time>
      </trkpt>
      <trkpt lat="47.85066" lon="7.12301">
        <ele>990.3</ele>
        <time>2023-05-18T10:02:57Z</time>
      </trkpt>
      <trkpt lat="47.85062" lon="7.12308">
        <ele>988.6</ele>
        <time>2023-05-18T10:03:00Z</time>
      </trkpt>
      <trkpt lat="47.85062" lon="7.12315">
        <ele>989.5</ele>
        <time>2023-05-18T10:03:05Z</time>
      </trkpt>
      <trkpt lat="47.85061" lon="7.12323">
        <ele>990</ele>
        <time>2023-05-18T10:03:09Z</time>
      </trkpt>
      <trkpt lat="47.85062" lon="7.12331">
        <ele>991.5</ele>
        <time>2023-05-18T10:03:13Z</time>
      </trkpt>
      <trkpt lat="47.85059" lon="7.12335">
        <ele>990.7</ele>
        <time>2023-05-18T10:03:17Z</time>
      </trkpt>
      <trkpt lat="47.85052" lon="7.12342">
        <ele>988.2</ele>
        <time>2023-05-18T10:03:22Z</time>
      </trkpt>
      <trkpt lat="47.85046" lon="7.12349">
        <ele>986</ele>
        <time>2023-05-18T10:03:32Z</time>
      </trkpt>
      <trkpt lat="47.85044" lon="7.12356">
        <ele>985.7</ele>
        <time>2023-05-18T10:03:36Z</time>
      </trkpt>
      <trkpt lat="47.85042" lon="7.12363">
        <ele>985.4</ele>
        <time>2023-05-18T10:03:43Z</time>
      </trkpt>
      <trkpt lat="47.85034" lon="7.12363">
        <ele>981.3</ele>
        <time>2023-05-18T10:04:20Z</time>
      </trkpt>
      <trkpt lat="47.85039" lon="7.12371">
        <ele>984.7</ele>
        <time>2023-05-18T10:05:06Z</time>
      </trkpt>
      <trkpt lat="47.85045" lon="7.12356">
        <ele>986.2</ele>
        <time>2023-05-18T10:05:23Z</time>
      </trkpt>
      <trkpt lat="47.85042" lon="7.12353">
        <ele>984.4</ele>
        <time>2023-05-18T10:06:16Z</time>
      </trkpt>
      <trkpt lat="47.85042" lon="7.12358">
        <ele>984.9</ele>
        <time>2023-05-18T10:50:43Z</time>
      </trkpt>
      <trkpt lat="47.85042" lon="7.12358">
        <ele>984.9</ele>
        <time>2023-05-18T10:50:44Z</time>
      </trkpt>
      <trkpt lat="47.85047" lon="7.12358">
        <ele>987.4</ele>
        <time>2023-05-18T10:50:53Z</time>
      </trkpt>
      <trkpt lat="47.85052" lon="7.12363">
        <ele>990.5</ele>
        <time>2023-05-18T10:51:03Z</time>
      </trkpt>
      <trkpt lat="47.85057" lon="7.12364">
        <ele>993</ele>
        <time>2023-05-18T10:51:07Z</time>
      </trkpt>
      <trkpt lat="47.85061" lon="7.12363">
        <ele>994.4</ele>
        <time>2023-05-18T10:51:09Z</time>
      </trkpt>
      <trkpt lat="47.85065" lon="7.12372">
        <ele>997.2</ele>
        <time>2023-05-18T10:51:16Z</time>
      </trkpt>
      <trkpt lat="47.85067" lon="7.12384">
        <ele>999.5</ele>
        <time>2023-05-18T10:51:28Z</time>
      </trkpt>
      <trkpt lat="47.85068" lon="7.12394">
        <ele>1000.9</ele>
        <time>2023-05-18T10:51:37Z</time>
      </trkpt>
      <trkpt lat="47.85066" lon="7.12404">
        <ele>1001.1</ele>
        <time>2023-05-18T10:51:47Z</time>
      </trkpt>
      <trkpt lat="47.85067" lon="7.12413">
        <ele>1002.2</ele>
        <time>2023-05-18T10:51:53Z</time>
      </trkpt>
      <trkpt lat="47.85067" lon="7.1242">
        <ele>1002.7</ele>
        <time>2023-05-18T10:51:58Z</time>
      </trkpt>
      <trkpt lat="47.85069" lon="7.12436">
        <ele>1004.4</ele>
        <time>2023-05-18T10:52:07Z</time>
      </trkpt>
      <trkpt lat="47.85074" lon="7.12445">
        <ele>1007</ele>
        <time>2023-05-18T10:52:19Z</time>
      </trkpt>
      <trkpt lat="47.85075" lon="7.12451">
        <ele>1007.8</ele>
        <time>2023-05-18T10:52:24Z</time>
      </trkpt>
      <trkpt lat="47.85075" lon="7.12458">
        <ele>1008.2</ele>
        <time>2023-05-18T10:52:32Z</time>
      </trkpt>
      <trkpt lat="47.85076" lon="7.12465">
        <ele>1009.1</ele>
        <time>2023-05-18T10:52:37Z</time>
      </trkpt>
      <trkpt lat="47.85078" lon="7.12488">
        <ele>1011</ele>
        <time>2023-05-18T10:52:50Z</time>
      </trkpt>
      <trkpt lat="47.85079" lon="7.125">
        <ele>1011.8</ele>
        <time>2023-05-18T10:52:59Z</time>
      </trkpt>
      <trkpt lat="47.85078" lon="7.12515">
        <ele>1011.7</ele>
        <time>2023-05-18T10:53:07Z</time>
      </trkpt>
      <trkpt lat="47.85078" lon="7.12522">
        <ele>1012</ele>
        <time>2023-05-18T10:53:11Z</time>
      </trkpt>
      <trkpt lat="47.85085" lon="7.12535">
        <ele>1016.1</ele>
        <time>2023-05-18T10:53:21Z</time>
      </trkpt>
      <trkpt lat="47.85089" lon="7.12547">
        <ele>1018.5</ele>
        <time>2023-05-18T10:53:30Z</time>
      </trkpt>
      <trkpt lat="47.85091" lon="7.12557">
        <ele>1019.9</ele>
        <time>2023-05-18T10:53:34Z</time>
      </trkpt>
      <trkpt lat="47.85088" lon="7.12567">
        <ele>1018.8</ele>
        <time>2023-05-18T10:53:38Z</time>
      </trkpt>
      <trkpt lat="47.85096" lon="7.12593">
        <ele>1023.9</ele>
        <time>2023-05-18T10:54:02Z</time>
      </trkpt>
      <trkpt lat="47.85091" lon="7.12608">
        <ele>1022.4</ele>
        <time>2023-05-18T10:54:12Z</time>
      </trkpt>
      <trkpt lat="47.85102" lon="7.1262">
        <ele>1028.1</ele>
        <time>2023-05-18T10:54:23Z</time>
      </trkpt>
      <trkpt lat="47.85099" lon="7.12628">
        <ele>1026.9</ele>
        <time>2023-05-18T10:54:28Z</time>
      </trkpt>
      <trkpt lat="47.85107" lon="7.12694">
        <ele>1032.8</ele>
        <time>2023-05-18T10:55:10Z</time>
      </trkpt>
      <trkpt lat="47.8511" lon="7.12699">
        <ele>1034.4</ele>
        <time>2023-05-18T10:55:15Z</time>
      </trkpt>
      <trkpt lat="47.85115" lon="7.12705">
        <ele>1037.1</ele>
        <time>2023-05-18T10:55:20Z</time>
      </trkpt>
      <trkpt lat="47.85112" lon="7.12715">
        <ele>1035.5</ele>
        <time>2023-05-18T10:55:27Z</time>
      </trkpt>
      <trkpt lat="47.85118" lon="7.12728">
        <ele>1038.7</ele>
        <time>2023-05-18T10:55:37Z</time>
      </trkpt>
      <trkpt lat="47.85123" lon="7.12735">
        <ele>1041.4</ele>
        <time>2023-05-18T10:55:48Z</time>
      </trkpt>
      <trkpt lat="47.85121" lon="7.12746">
        <ele>1040.3</ele>
        <time>2023-05-18T10:55:53Z</time>
      </trkpt>
      <trkpt lat="47.85128" lon="7.12778">
        <ele>1044.5</ele>
        <time>2023-05-18T10:56:10Z</time>
      </trkpt>
      <trkpt lat="47.85132" lon="7.12777">
        <ele>1046.5</ele>
        <time>2023-05-18T10:56:18Z</time>
      </trkpt>
      <trkpt lat="47.85134" lon="7.12789">
        <ele>1047.6</ele>
        <time>2023-05-18T10:56:23Z</time>
      </trkpt>
      <trkpt lat="47.85138" lon="7.12822">
        <ele>1049.6</ele>
        <time>2023-05-18T10:56:42Z</time>
      </trkpt>
      <trkpt lat="47.85138" lon="7.12845">
        <ele>1050.5</ele>
        <time>2023-05-18T10:56:58Z</time>
      </trkpt>
      <trkpt lat="47.8514" lon="7.12851">
        <ele>1051.8</ele>
        <time>2023-05-18T10:57:03Z</time>
      </trkpt>
      <trkpt lat="47.85138" lon="7.12858">
        <ele>1051.5</ele>
        <time>2023-05-18T10:57:06Z</time>
      </trkpt>
      <trkpt lat="47.85139" lon="7.12865">
        <ele>1052.5</ele>
        <time>2023-05-18T10:57:10Z</time>
      </trkpt>
      <trkpt lat="47.85137" lon="7.12872">
        <ele>1052.5</ele>
        <time>2023-05-18T10:57:18Z</time>
      </trkpt>
      <trkpt lat="47.85137" lon="7.1288">
        <ele>1053.4</ele>
        <time>2023-05-18T10:57:24Z</time>
      </trkpt>
      <trkpt lat="47.85136" lon="7.1289">
        <ele>1054</ele>
        <time>2023-05-18T10:57:29Z</time>
      </trkpt>
      <trkpt lat="47.85136" lon="7.12897">
        <ele>1054.5</ele>
        <time>2023-05-18T10:57:32Z</time>
      </trkpt>
      <trkpt lat="47.8514" lon="7.12903">
        <ele>1056.5</ele>
        <time>2023-05-18T10:57:40Z</time>
      </trkpt>
      <trkpt lat="47.85139" lon="7.12912">
        <ele>1056.7</ele>
        <time>2023-05-18T10:57:44Z</time>
      </trkpt>
      <trkpt lat="47.85142" lon="7.1292">
        <ele>1058.6</ele>
        <time>2023-05-18T10:57:53Z</time>
      </trkpt>
      <trkpt lat="47.85147" lon="7.12926">
        <ele>1061.2</ele>
        <time>2023-05-18T10:57:57Z</time>
      </trkpt>
      <trkpt lat="47.85149" lon="7.12933">
        <ele>1062.5</ele>
        <time>2023-05-18T10:58:01Z</time>
      </trkpt>
      <trkpt lat="47.85151" lon="7.12945">
        <ele>1064.3</ele>
        <time>2023-05-18T10:58:09Z</time>
      </trkpt>
      <trkpt lat="47.85148" lon="7.12955">
        <ele>1064</ele>
        <time>2023-05-18T10:58:14Z</time>
      </trkpt>
      <trkpt lat="47.85145" lon="7.12961">
        <ele>1063.3</ele>
        <time>2023-05-18T10:58:17Z</time>
      </trkpt>
      <trkpt lat="47.85141" lon="7.12986">
        <ele>1063.8</ele>
        <time>2023-05-18T10:58:35Z</time>
      </trkpt>
      <trkpt lat="47.85142" lon="7.12994">
        <ele>1064.8</ele>
        <time>2023-05-18T10:58:40Z</time>
      </trkpt>
      <trkpt lat="47.85148" lon="7.13004">
        <ele>1067.8</ele>
        <time>2023-05-18T10:58:51Z</time>
      </trkpt>
      <trkpt lat="47.85147" lon="7.13012">
        <ele>1067.9</ele>
        <time>2023-05-18T10:58:58Z</time>
      </trkpt>
      <trkpt lat="47.85149" lon="7.1302">
        <ele>1069.2</ele>
        <time>2023-05-18T10:59:01Z</time>
      </trkpt>
      <trkpt lat="47.85159" lon="7.13065">
        <ele>1074.6</ele>
        <time>2023-05-18T10:59:34Z</time>
      </trkpt>
      <trkpt lat="47.85161" lon="7.13074">
        <ele>1075.6</ele>
        <time>2023-05-18T10:59:42Z</time>
      </trkpt>
      <trkpt lat="47.85161" lon="7.13081">
        <ele>1075.9</ele>
        <time>2023-05-18T10:59:45Z</time>
      </trkpt>
      <trkpt lat="47.85163" lon="7.13087">
        <ele>1076.9</ele>
        <time>2023-05-18T10:59:50Z</time>
      </trkpt>
      <trkpt lat="47.85163" lon="7.13095">
        <ele>1077.5</ele>
        <time>2023-05-18T10:59:58Z</time>
      </trkpt>
      <trkpt lat="47.85162" lon="7.13107">
        <ele>1078</ele>
        <time>2023-05-18T11:00:08Z</time>
      </trkpt>
      <trkpt lat="47.85165" lon="7.13116">
        <ele>1079.6</ele>
        <time>2023-05-18T11:00:14Z</time>
      </trkpt>
      <trkpt lat="47.85164" lon="7.13131">
        <ele>1079.8</ele>
        <time>2023-05-18T11:00:20Z</time>
      </trkpt>
      <trkpt lat="47.85166" lon="7.13138">
        <ele>1080.8</ele>
        <time>2023-05-18T11:00:24Z</time>
      </trkpt>
      <trkpt lat="47.85165" lon="7.13153">
        <ele>1081</ele>
        <time>2023-05-18T11:00:32Z</time>
      </trkpt>
      <trkpt lat="47.85165" lon="7.13161">
        <ele>1081.4</ele>
        <time>2023-05-18T11:00:35Z</time>
      </trkpt>
      <trkpt lat="47.85172" lon="7.13184">
        <ele>1084.2</ele>
        <time>2023-05-18T11:00:55Z</time>
      </trkpt>
      <trkpt lat="47.8517" lon="7.13199">
        <ele>1084.2</ele>
        <time>2023-05-18T11:01:03Z</time>
      </trkpt>
      <trkpt lat="47.85172" lon="7.13206">
        <ele>1085.2</ele>
        <time>2023-05-18T11:01:07Z</time>
      </trkpt>
      <trkpt lat="47.8517" lon="7.13216">
        <ele>1085.3</ele>
        <time>2023-05-18T11:01:15Z</time>
      </trkpt>
      <trkpt lat="47.85165" lon="7.13222">
        <ele>1084.6</ele>
        <time>2023-05-18T11:01:20Z</time>
      </trkpt>
      <trkpt lat="47.85166" lon="7.13232">
        <ele>1085.6</ele>
        <time>2023-05-18T11:01:26Z</time>
      </trkpt>
      <trkpt lat="47.85165" lon="7.1325">
        <ele>1086.7</ele>
        <time>2023-05-18T11:01:39Z</time>
      </trkpt>
      <trkpt lat="47.85168" lon="7.13251">
        <ele>1087.3</ele>
        <time>2023-05-18T11:04:24Z</time>
      </trkpt>
      <trkpt lat="47.85169" lon="7.13256">
        <ele>1087.8</ele>
        <time>2023-05-18T11:04:29Z</time>
      </trkpt>
      <trkpt lat="47.85175" lon="7.13257">
        <ele>1088.9</ele>
        <time>2023-05-18T11:04:36Z</time>
      </trkpt>
      <trkpt lat="47.85182" lon="7.13261">
        <ele>1090.3</ele>
        <time>2023-05-18T11:04:45Z</time>
      </trkpt>
      <trkpt lat="47.85185" lon="7.13274">
        <ele>1091.5</ele>
        <time>2023-05-18T11:04:55Z</time>
      </trkpt>
      <trkpt lat="47.85188" lon="7.1328">
        <ele>1092.2</ele>
        <time>2023-05-18T11:04:59Z</time>
      </trkpt>
      <trkpt lat="47.85189" lon="7.13287">
        <ele>1092.7</ele>
        <time>2023-05-18T11:05:04Z</time>
      </trkpt>
      <trkpt lat="47.85195" lon="7.13302">
        <ele>1093.9</ele>
        <time>2023-05-18T11:05:15Z</time>
      </trkpt>
      <trkpt lat="47.85197" lon="7.13308">
        <ele>1094.1</ele>
        <time>2023-05-18T11:05:19Z</time>
      </trkpt>
      <trkpt lat="47.85201" lon="7.13313">
        <ele>1094.1</ele>
        <time>2023-05-18T11:05:24Z</time>
      </trkpt>
      <trkpt lat="47.85207" lon="7.13315">
        <ele>1094.1</ele>
        <time>2023-05-18T11:05:29Z</time>
      </trkpt>
      <trkpt lat="47.85209" lon="7.13321">
        <ele>1093.9</ele>
        <time>2023-05-18T11:05:37Z</time>
      </trkpt>
      <trkpt lat="47.85224" lon="7.13336">
        <ele>1092.7</ele>
        <time>2023-05-18T11:05:59Z</time>
      </trkpt>
      <trkpt lat="47.85241" lon="7.13365">
        <ele>1088.5</ele>
        <time>2023-05-18T11:06:25Z</time>
      </trkpt>
      <trkpt lat="47.85245" lon="7.13369">
        <ele>1087.6</ele>
        <time>2023-05-18T11:06:29Z</time>
      </trkpt>
      <trkpt lat="47.85248" lon="7.13375">
        <ele>1086.3</ele>
        <time>2023-05-18T11:06:37Z</time>
      </trkpt>
      <trkpt lat="47.85262" lon="7.13384">
        <ele>1083</ele>
        <time>2023-05-18T11:06:52Z</time>
      </trkpt>
      <trkpt lat="47.85266" lon="7.13387">
        <ele>1082</ele>
        <time>2023-05-18T11:07:06Z</time>
      </trkpt>
      <trkpt lat="47.85278" lon="7.13423">
        <ele>1074.8</ele>
        <time>2023-05-18T11:08:59Z</time>
      </trkpt>
      <trkpt lat="47.85279" lon="7.13425">
        <ele>1074.3</ele>
        <time>2023-05-18T11:09:00Z</time>
      </trkpt>
      <trkpt lat="47.85284" lon="7.13433">
        <ele>1072.1</ele>
        <time>2023-05-18T11:09:07Z</time>
      </trkpt>
      <trkpt lat="47.85285" lon="7.13439">
        <ele>1070.9</ele>
        <time>2023-05-18T11:09:11Z</time>
      </trkpt>
      <trkpt lat="47.85289" lon="7.13445">
        <ele>1069.3</ele>
        <time>2023-05-18T11:09:17Z</time>
      </trkpt>
      <trkpt lat="47.85293" lon="7.13457">
        <ele>1066.1</ele>
        <time>2023-05-18T11:09:26Z</time>
      </trkpt>
      <trkpt lat="47.85311" lon="7.13495">
        <ele>1056.1</ele>
        <time>2023-05-18T11:10:00Z</time>
      </trkpt>
      <trkpt lat="47.85318" lon="7.13513">
        <ele>1052.1</ele>
        <time>2023-05-18T11:10:16Z</time>
      </trkpt>
      <trkpt lat="47.85321" lon="7.13526">
        <ele>1049.5</ele>
        <time>2023-05-18T11:10:24Z</time>
      </trkpt>
      <trkpt lat="47.85325" lon="7.13531">
        <ele>1047.9</ele>
        <time>2023-05-18T11:10:29Z</time>
      </trkpt>
      <trkpt lat="47.85326" lon="7.13539">
        <ele>1046.1</ele>
        <time>2023-05-18T11:10:36Z</time>
      </trkpt>
      <trkpt lat="47.85326" lon="7.13547">
        <ele>1044.5</ele>
        <time>2023-05-18T11:10:40Z</time>
      </trkpt>
      <trkpt lat="47.8532" lon="7.13566">
        <ele>1043.2</ele>
        <time>2023-05-18T11:10:52Z</time>
      </trkpt>
      <trkpt lat="47.85323" lon="7.13575">
        <ele>1041.7</ele>
        <time>2023-05-18T11:11:00Z</time>
      </trkpt>
      <trkpt lat="47.85321" lon="7.13584">
        <ele>1041.1</ele>
        <time>2023-05-18T11:11:07Z</time>
      </trkpt>
      <trkpt lat="47.85327" lon="7.13585">
        <ele>1039.9</ele>
        <time>2023-05-18T11:11:14Z</time>
      </trkpt>
      <trkpt lat="47.85332" lon="7.13581">
        <ele>1039.4</ele>
        <time>2023-05-18T11:11:20Z</time>
      </trkpt>
      <trkpt lat="47.85344" lon="7.13568">
        <ele>1038.6</ele>
        <time>2023-05-18T11:11:32Z</time>
      </trkpt>
      <trkpt lat="47.85349" lon="7.13565">
        <ele>1038.4</ele>
        <time>2023-05-18T11:11:37Z</time>
      </trkpt>
      <trkpt lat="47.85357" lon="7.13556">
        <ele>1039.2</ele>
        <time>2023-05-18T11:11:46Z</time>
      </trkpt>
      <trkpt lat="47.85364" lon="7.1355">
        <ele>1039</ele>
        <time>2023-05-18T11:11:54Z</time>
      </trkpt>
      <trkpt lat="47.85369" lon="7.13548">
        <ele>1038.5</ele>
        <time>2023-05-18T11:11:58Z</time>
      </trkpt>
      <trkpt lat="47.85373" lon="7.13546">
        <ele>1038.1</ele>
        <time>2023-05-18T11:12:02Z</time>
      </trkpt>
      <trkpt lat="47.85386" lon="7.13539">
        <ele>1037.1</ele>
        <time>2023-05-18T11:12:15Z</time>
      </trkpt>
      <trkpt lat="47.85409" lon="7.13532">
        <ele>1033.7</ele>
        <time>2023-05-18T11:12:35Z</time>
      </trkpt>
      <trkpt lat="47.85413" lon="7.13528">
        <ele>1033.6</ele>
        <time>2023-05-18T11:12:39Z</time>
      </trkpt>
      <trkpt lat="47.85419" lon="7.1353">
        <ele>1032.2</ele>
        <time>2023-05-18T11:12:44Z</time>
      </trkpt>
      <trkpt lat="47.85423" lon="7.13528">
        <ele>1031.8</ele>
        <time>2023-05-18T11:12:49Z</time>
      </trkpt>
      <trkpt lat="47.85428" lon="7.13526">
        <ele>1031.3</ele>
        <time>2023-05-18T11:12:54Z</time>
      </trkpt>
      <trkpt lat="47.85442" lon="7.13523">
        <ele>1029.3</ele>
        <time>2023-05-18T11:13:06Z</time>
      </trkpt>
      <trkpt lat="47.85461" lon="7.13515">
        <ele>1027.3</ele>
        <time>2023-05-18T11:13:21Z</time>
      </trkpt>
      <trkpt lat="47.85471" lon="7.13516">
        <ele>1025.3</ele>
        <time>2023-05-18T11:13:28Z</time>
      </trkpt>
      <trkpt lat="47.85503" lon="7.13533">
        <ele>1021.1</ele>
        <time>2023-05-18T11:13:55Z</time>
      </trkpt>
      <trkpt lat="47.85537" lon="7.13565">
        <ele>1015.6</ele>
        <time>2023-05-18T11:14:28Z</time>
      </trkpt>
      <trkpt lat="47.85541" lon="7.13569">
        <ele>1015.1</ele>
        <time>2023-05-18T11:14:32Z</time>
      </trkpt>
      <trkpt lat="47.85545" lon="7.13574">
        <ele>1014.3</ele>
        <time>2023-05-18T11:14:36Z</time>
      </trkpt>
      <trkpt lat="47.85573" lon="7.13596">
        <ele>1010.7</ele>
        <time>2023-05-18T11:15:00Z</time>
      </trkpt>
      <trkpt lat="47.85578" lon="7.13598">
        <ele>1010.4</ele>
        <time>2023-05-18T11:15:03Z</time>
      </trkpt>
      <trkpt lat="47.85596" lon="7.1361">
        <ele>1008.2</ele>
        <time>2023-05-18T11:15:19Z</time>
      </trkpt>
      <trkpt lat="47.85611" lon="7.13616">
        <ele>1007.5</ele>
        <time>2023-05-18T11:15:29Z</time>
      </trkpt>
      <trkpt lat="47.85616" lon="7.13618">
        <ele>1007.4</ele>
        <time>2023-05-18T11:15:33Z</time>
      </trkpt>
      <trkpt lat="47.8562" lon="7.13622">
        <ele>1007.1</ele>
        <time>2023-05-18T11:15:38Z</time>
      </trkpt>
      <trkpt lat="47.85627" lon="7.13624">
        <ele>1007.2</ele>
        <time>2023-05-18T11:15:43Z</time>
      </trkpt>
      <trkpt lat="47.85631" lon="7.13627">
        <ele>1007</ele>
        <time>2023-05-18T11:15:46Z</time>
      </trkpt>
      <trkpt lat="47.85635" lon="7.13633">
        <ele>1006.5</ele>
        <time>2023-05-18T11:15:50Z</time>
      </trkpt>
      <trkpt lat="47.85637" lon="7.13639">
        <ele>1005.9</ele>
        <time>2023-05-18T11:15:54Z</time>
      </trkpt>
      <trkpt lat="47.85648" lon="7.13655">
        <ele>1004.7</ele>
        <time>2023-05-18T11:16:06Z</time>
      </trkpt>
      <trkpt lat="47.85651" lon="7.13662">
        <ele>1004</ele>
        <time>2023-05-18T11:16:10Z</time>
      </trkpt>
      <trkpt lat="47.85671" lon="7.13694">
        <ele>1001.4</ele>
        <time>2023-05-18T11:16:33Z</time>
      </trkpt>
      <trkpt lat="47.85674" lon="7.13699">
        <ele>1000.8</ele>
        <time>2023-05-18T11:16:38Z</time>
      </trkpt>
      <trkpt lat="47.85681" lon="7.1371">
        <ele>999.5</ele>
        <time>2023-05-18T11:16:50Z</time>
      </trkpt>
      <trkpt lat="47.85682" lon="7.13717">
        <ele>998.5</ele>
        <time>2023-05-18T11:16:55Z</time>
      </trkpt>
      <trkpt lat="47.85686" lon="7.13723">
        <ele>998</ele>
        <time>2023-05-18T11:16:59Z</time>
      </trkpt>
      <trkpt lat="47.85687" lon="7.13749">
        <ele>995</ele>
        <time>2023-05-18T11:17:10Z</time>
      </trkpt>
      <trkpt lat="47.85695" lon="7.13752">
        <ele>995.9</ele>
        <time>2023-05-18T11:17:14Z</time>
      </trkpt>
      <trkpt lat="47.85702" lon="7.13761">
        <ele>996.4</ele>
        <time>2023-05-18T11:17:22Z</time>
      </trkpt>
      <trkpt lat="47.85704" lon="7.13768">
        <ele>996.1</ele>
        <time>2023-05-18T11:17:24Z</time>
      </trkpt>
      <trkpt lat="47.85708" lon="7.13773">
        <ele>996.4</ele>
        <time>2023-05-18T11:17:28Z</time>
      </trkpt>
      <trkpt lat="47.85712" lon="7.13776">
        <ele>997</ele>
        <time>2023-05-18T11:17:31Z</time>
      </trkpt>
      <trkpt lat="47.85717" lon="7.1378">
        <ele>997.8</ele>
        <time>2023-05-18T11:17:35Z</time>
      </trkpt>
      <trkpt lat="47.85719" lon="7.13786">
        <ele>997.9</ele>
        <time>2023-05-18T11:17:38Z</time>
      </trkpt>
      <trkpt lat="47.85718" lon="7.13793">
        <ele>997.4</ele>
        <time>2023-05-18T11:17:41Z</time>
      </trkpt>
      <trkpt lat="47.85728" lon="7.13812">
        <ele>999.1</ele>
        <time>2023-05-18T11:17:57Z</time>
      </trkpt>
      <trkpt lat="47.85737" lon="7.1382">
        <ele>1000.9</ele>
        <time>2023-05-18T11:18:05Z</time>
      </trkpt>
      <trkpt lat="47.85741" lon="7.1382">
        <ele>1001.9</ele>
        <time>2023-05-18T11:18:08Z</time>
      </trkpt>
      <trkpt lat="47.85746" lon="7.13822">
        <ele>1003.1</ele>
        <time>2023-05-18T11:18:10Z</time>
      </trkpt>
      <trkpt lat="47.85751" lon="7.13822">
        <ele>1004</ele>
        <time>2023-05-18T11:18:13Z</time>
      </trkpt>
      <trkpt lat="47.85755" lon="7.13829">
        <ele>1003.7</ele>
        <time>2023-05-18T11:18:20Z</time>
      </trkpt>
      <trkpt lat="47.85757" lon="7.13834">
        <ele>1003.4</ele>
        <time>2023-05-18T11:18:23Z</time>
      </trkpt>
      <trkpt lat="47.85767" lon="7.13852">
        <ele>1001.2</ele>
        <time>2023-05-18T11:18:39Z</time>
      </trkpt>
      <trkpt lat="47.85771" lon="7.13866">
        <ele>999.9</ele>
        <time>2023-05-18T11:18:48Z</time>
      </trkpt>
      <trkpt lat="47.8577" lon="7.13875">
        <ele>999.3</ele>
        <time>2023-05-18T11:18:52Z</time>
      </trkpt>
      <trkpt lat="47.85763" lon="7.13887">
        <ele>998.7</ele>
        <time>2023-05-18T11:18:57Z</time>
      </trkpt>
      <trkpt lat="47.85758" lon="7.13899">
        <ele>998</ele>
        <time>2023-05-18T11:19:03Z</time>
      </trkpt>
      <trkpt lat="47.85755" lon="7.13905">
        <ele>997.7</ele>
        <time>2023-05-18T11:19:06Z</time>
      </trkpt>
      <trkpt lat="47.85748" lon="7.13926">
        <ele>996.1</ele>
        <time>2023-05-18T11:19:20Z</time>
      </trkpt>
      <trkpt lat="47.85748" lon="7.13949">
        <ele>994.9</ele>
        <time>2023-05-18T11:19:32Z</time>
      </trkpt>
      <trkpt lat="47.8575" lon="7.13957">
        <ele>994.6</ele>
        <time>2023-05-18T11:19:36Z</time>
      </trkpt>
      <trkpt lat="47.85751" lon="7.1397">
        <ele>993.4</ele>
        <time>2023-05-18T11:19:45Z</time>
      </trkpt>
      <trkpt lat="47.85748" lon="7.13976">
        <ele>992</ele>
        <time>2023-05-18T11:19:48Z</time>
      </trkpt>
      <trkpt lat="47.85749" lon="7.13984">
        <ele>991.5</ele>
        <time>2023-05-18T11:19:52Z</time>
      </trkpt>
      <trkpt lat="47.85753" lon="7.13994">
        <ele>991.3</ele>
        <time>2023-05-18T11:19:58Z</time>
      </trkpt>
      <trkpt lat="47.85755" lon="7.13999">
        <ele>991.3</ele>
        <time>2023-05-18T11:20:01Z</time>
      </trkpt>
      <trkpt lat="47.85757" lon="7.14007">
        <ele>991.3</ele>
        <time>2023-05-18T11:20:08Z</time>
      </trkpt>
      <trkpt lat="47.85748" lon="7.14052">
        <ele>987.5</ele>
        <time>2023-05-18T11:20:28Z</time>
      </trkpt>
      <trkpt lat="47.85744" lon="7.14058">
        <ele>986.4</ele>
        <time>2023-05-18T11:20:34Z</time>
      </trkpt>
      <trkpt lat="47.85739" lon="7.14071">
        <ele>984.5</ele>
        <time>2023-05-18T11:20:42Z</time>
      </trkpt>
      <trkpt lat="47.8574" lon="7.14078">
        <ele>984.4</ele>
        <time>2023-05-18T11:20:46Z</time>
      </trkpt>
      <trkpt lat="47.85735" lon="7.14112">
        <ele>983.2</ele>
        <time>2023-05-18T11:21:04Z</time>
      </trkpt>
      <trkpt lat="47.85733" lon="7.14119">
        <ele>982.7</ele>
        <time>2023-05-18T11:21:07Z</time>
      </trkpt>
      <trkpt lat="47.85713" lon="7.14152">
        <ele>977</ele>
        <time>2023-05-18T11:21:29Z</time>
      </trkpt>
      <trkpt lat="47.8571" lon="7.14172">
        <ele>975.7</ele>
        <time>2023-05-18T11:21:42Z</time>
      </trkpt>
      <trkpt lat="47.85711" lon="7.14178">
        <ele>975.5</ele>
        <time>2023-05-18T11:21:46Z</time>
      </trkpt>
      <trkpt lat="47.85709" lon="7.14185">
        <ele>974.4</ele>
        <time>2023-05-18T11:21:49Z</time>
      </trkpt>
      <trkpt lat="47.85709" lon="7.14208">
        <ele>972</ele>
        <time>2023-05-18T11:22:04Z</time>
      </trkpt>
      <trkpt lat="47.85708" lon="7.14214">
        <ele>970.9</ele>
        <time>2023-05-18T11:22:08Z</time>
      </trkpt>
      <trkpt lat="47.85712" lon="7.14257">
        <ele>966.3</ele>
        <time>2023-05-18T11:22:32Z</time>
      </trkpt>
      <trkpt lat="47.85711" lon="7.14265">
        <ele>964.8</ele>
        <time>2023-05-18T11:22:37Z</time>
      </trkpt>
      <trkpt lat="47.85717" lon="7.14305">
        <ele>961.2</ele>
        <time>2023-05-18T11:23:03Z</time>
      </trkpt>
      <trkpt lat="47.8572" lon="7.14323">
        <ele>960.3</ele>
        <time>2023-05-18T11:23:15Z</time>
      </trkpt>
      <trkpt lat="47.85718" lon="7.14332">
        <ele>958.6</ele>
        <time>2023-05-18T11:23:20Z</time>
      </trkpt>
      <trkpt lat="47.8572" lon="7.14338">
        <ele>958.7</ele>
        <time>2023-05-18T11:23:23Z</time>
      </trkpt>
      <trkpt lat="47.85725" lon="7.1439">
        <ele>956</ele>
        <time>2023-05-18T11:23:48Z</time>
      </trkpt>
      <trkpt lat="47.85724" lon="7.14396">
        <ele>955.4</ele>
        <time>2023-05-18T11:23:52Z</time>
      </trkpt>
      <trkpt lat="47.85725" lon="7.14403">
        <ele>955.5</ele>
        <time>2023-05-18T11:23:56Z</time>
      </trkpt>
      <trkpt lat="47.85725" lon="7.14409">
        <ele>955.3</ele>
        <time>2023-05-18T11:23:59Z</time>
      </trkpt>
      <trkpt lat="47.8572" lon="7.14424">
        <ele>951.7</ele>
        <time>2023-05-18T11:24:05Z</time>
      </trkpt>
      <trkpt lat="47.85725" lon="7.14442">
        <ele>950.6</ele>
        <time>2023-05-18T11:24:19Z</time>
      </trkpt>
      <trkpt lat="47.85726" lon="7.14455">
        <ele>949.8</ele>
        <time>2023-05-18T11:24:29Z</time>
      </trkpt>
      <trkpt lat="47.85723" lon="7.14461">
        <ele>948.1</ele>
        <time>2023-05-18T11:24:32Z</time>
      </trkpt>
      <trkpt lat="47.8572" lon="7.14474">
        <ele>946</ele>
        <time>2023-05-18T11:24:41Z</time>
      </trkpt>
      <trkpt lat="47.85723" lon="7.14489">
        <ele>945.5</ele>
        <time>2023-05-18T11:24:51Z</time>
      </trkpt>
      <trkpt lat="47.85723" lon="7.14498">
        <ele>944.5</ele>
        <time>2023-05-18T11:24:54Z</time>
      </trkpt>
      <trkpt lat="47.85729" lon="7.14523">
        <ele>942.7</ele>
        <time>2023-05-18T11:25:12Z</time>
      </trkpt>
      <trkpt lat="47.85732" lon="7.14537">
        <ele>941.6</ele>
        <time>2023-05-18T11:25:21Z</time>
      </trkpt>
      <trkpt lat="47.85732" lon="7.14544">
        <ele>940.7</ele>
        <time>2023-05-18T11:25:24Z</time>
      </trkpt>
      <trkpt lat="47.85732" lon="7.14551">
        <ele>939.8</ele>
        <time>2023-05-18T11:25:28Z</time>
      </trkpt>
      <trkpt lat="47.85734" lon="7.14557">
        <ele>939.5</ele>
        <time>2023-05-18T11:25:31Z</time>
      </trkpt>
      <trkpt lat="47.85738" lon="7.14566">
        <ele>938.8</ele>
        <time>2023-05-18T11:25:39Z</time>
      </trkpt>
      <trkpt lat="47.85737" lon="7.14573">
        <ele>937</ele>
        <time>2023-05-18T11:25:43Z</time>
      </trkpt>
      <trkpt lat="47.8574" lon="7.1458">
        <ele>936.2</ele>
        <time>2023-05-18T11:25:48Z</time>
      </trkpt>
      <trkpt lat="47.85743" lon="7.14585">
        <ele>935.8</ele>
        <time>2023-05-18T11:25:52Z</time>
      </trkpt>
      <trkpt lat="47.85747" lon="7.14597">
        <ele>933.9</ele>
        <time>2023-05-18T11:26:00Z</time>
      </trkpt>
      <trkpt lat="47.85755" lon="7.14605">
        <ele>933.5</ele>
        <time>2023-05-18T11:26:06Z</time>
      </trkpt>
      <trkpt lat="47.85763" lon="7.14622">
        <ele>931.6</ele>
        <time>2023-05-18T11:26:18Z</time>
      </trkpt>
      <trkpt lat="47.85766" lon="7.14635">
        <ele>929.9</ele>
        <time>2023-05-18T11:26:25Z</time>
      </trkpt>
      <trkpt lat="47.85775" lon="7.14649">
        <ele>928.8</ele>
        <time>2023-05-18T11:26:40Z</time>
      </trkpt>
      <trkpt lat="47.85778" lon="7.14656">
        <ele>927.9</ele>
        <time>2023-05-18T11:26:46Z</time>
      </trkpt>
      <trkpt lat="47.85782" lon="7.14661">
        <ele>927.3</ele>
        <time>2023-05-18T11:26:50Z</time>
      </trkpt>
      <trkpt lat="47.85787" lon="7.14663">
        <ele>927.3</ele>
        <time>2023-05-18T11:26:55Z</time>
      </trkpt>
      <trkpt lat="47.85788" lon="7.14669">
        <ele>926.3</ele>
        <time>2023-05-18T11:26:59Z</time>
      </trkpt>
      <trkpt lat="47.85789" lon="7.14685">
        <ele>923.8</ele>
        <time>2023-05-18T11:27:06Z</time>
      </trkpt>
      <trkpt lat="47.85787" lon="7.1469">
        <ele>922.7</ele>
        <time>2023-05-18T11:27:09Z</time>
      </trkpt>
      <trkpt lat="47.85782" lon="7.14694">
        <ele>921.5</ele>
        <time>2023-05-18T11:27:11Z</time>
      </trkpt>
      <trkpt lat="47.85772" lon="7.14694">
        <ele>920.2</ele>
        <time>2023-05-18T11:27:18Z</time>
      </trkpt>
      <trkpt lat="47.85768" lon="7.14696">
        <ele>919.4</ele>
        <time>2023-05-18T11:27:21Z</time>
      </trkpt>
      <trkpt lat="47.85764" lon="7.14696">
        <ele>918.8</ele>
        <time>2023-05-18T11:27:24Z</time>
      </trkpt>
      <trkpt lat="47.85745" lon="7.14702">
        <ele>915.3</ele>
        <time>2023-05-18T11:27:40Z</time>
      </trkpt>
      <trkpt lat="47.85736" lon="7.14709">
        <ele>913.1</ele>
        <time>2023-05-18T11:27:47Z</time>
      </trkpt>
      <trkpt lat="47.85726" lon="7.14711">
        <ele>911.5</ele>
        <time>2023-05-18T11:27:54Z</time>
      </trkpt>
      <trkpt lat="47.85721" lon="7.14714">
        <ele>910.3</ele>
        <time>2023-05-18T11:27:59Z</time>
      </trkpt>
      <trkpt lat="47.85722" lon="7.14722">
        <ele>909</ele>
        <time>2023-05-18T11:28:09Z</time>
      </trkpt>
      <trkpt lat="47.85731" lon="7.14729">
        <ele>909.3</ele>
        <time>2023-05-18T11:28:18Z</time>
      </trkpt>
      <trkpt lat="47.85742" lon="7.14744">
        <ele>908.7</ele>
        <time>2023-05-18T11:28:30Z</time>
      </trkpt>
      <trkpt lat="47.85746" lon="7.14749">
        <ele>908.6</ele>
        <time>2023-05-18T11:28:33Z</time>
      </trkpt>
      <trkpt lat="47.85749" lon="7.14754">
        <ele>908.3</ele>
        <time>2023-05-18T11:28:37Z</time>
      </trkpt>
      <trkpt lat="47.85755" lon="7.14774">
        <ele>906.4</ele>
        <time>2023-05-18T11:28:49Z</time>
      </trkpt>
      <trkpt lat="47.85782" lon="7.1481">
        <ele>905.3</ele>
        <time>2023-05-18T11:29:20Z</time>
      </trkpt>
      <trkpt lat="47.85789" lon="7.14821">
        <ele>905.4</ele>
        <time>2023-05-18T11:29:27Z</time>
      </trkpt>
      <trkpt lat="47.85791" lon="7.14827">
        <ele>905.1</ele>
        <time>2023-05-18T11:29:30Z</time>
      </trkpt>
      <trkpt lat="47.85791" lon="7.14834">
        <ele>904.3</ele>
        <time>2023-05-18T11:29:33Z</time>
      </trkpt>
      <trkpt lat="47.8579" lon="7.14841">
        <ele>903.6</ele>
        <time>2023-05-18T11:29:36Z</time>
      </trkpt>
      <trkpt lat="47.85782" lon="7.14857">
        <ele>901.5</ele>
        <time>2023-05-18T11:29:54Z</time>
      </trkpt>
      <trkpt lat="47.85777" lon="7.14858">
        <ele>900.9</ele>
        <time>2023-05-18T11:29:57Z</time>
      </trkpt>
      <trkpt lat="47.85772" lon="7.14857">
        <ele>900</ele>
        <time>2023-05-18T11:30:00Z</time>
      </trkpt>
      <trkpt lat="47.85772" lon="7.14865">
        <ele>899.8</ele>
        <time>2023-05-18T11:30:11Z</time>
      </trkpt>
      <trkpt lat="47.85782" lon="7.14873">
        <ele>901.1</ele>
        <time>2023-05-18T11:30:22Z</time>
      </trkpt>
      <trkpt lat="47.8579" lon="7.1489">
        <ele>901.7</ele>
        <time>2023-05-18T11:30:32Z</time>
      </trkpt>
      <trkpt lat="47.85798" lon="7.14905">
        <ele>901.8</ele>
        <time>2023-05-18T11:30:43Z</time>
      </trkpt>
      <trkpt lat="47.85801" lon="7.14908">
        <ele>902</ele>
        <time>2023-05-18T11:30:46Z</time>
      </trkpt>
      <trkpt lat="47.85804" lon="7.14932">
        <ele>901.1</ele>
        <time>2023-05-18T11:31:00Z</time>
      </trkpt>
      <trkpt lat="47.85805" lon="7.14939">
        <ele>901.1</ele>
        <time>2023-05-18T11:31:05Z</time>
      </trkpt>
      <trkpt lat="47.85808" lon="7.14943">
        <ele>901.5</ele>
        <time>2023-05-18T11:31:09Z</time>
      </trkpt>
      <trkpt lat="47.85813" lon="7.14957">
        <ele>901.9</ele>
        <time>2023-05-18T11:31:17Z</time>
      </trkpt>
      <trkpt lat="47.85813" lon="7.14964">
        <ele>901.6</ele>
        <time>2023-05-18T11:31:21Z</time>
      </trkpt>
      <trkpt lat="47.85815" lon="7.14971">
        <ele>901.7</ele>
        <time>2023-05-18T11:31:24Z</time>
      </trkpt>
      <trkpt lat="47.85815" lon="7.14978">
        <ele>901.4</ele>
        <time>2023-05-18T11:31:28Z</time>
      </trkpt>
      <trkpt lat="47.85817" lon="7.14988">
        <ele>901.2</ele>
        <time>2023-05-18T11:31:34Z</time>
      </trkpt>
      <trkpt lat="47.8582" lon="7.14995">
        <ele>901.4</ele>
        <time>2023-05-18T11:31:39Z</time>
      </trkpt>
      <trkpt lat="47.85821" lon="7.15001">
        <ele>901.2</ele>
        <time>2023-05-18T11:31:42Z</time>
      </trkpt>
      <trkpt lat="47.85822" lon="7.15007">
        <ele>900.9</ele>
        <time>2023-05-18T11:31:46Z</time>
      </trkpt>
      <trkpt lat="47.85825" lon="7.15015">
        <ele>901</ele>
        <time>2023-05-18T11:31:51Z</time>
      </trkpt>
      <trkpt lat="47.85829" lon="7.15021">
        <ele>901.4</ele>
        <time>2023-05-18T11:31:55Z</time>
      </trkpt>
      <trkpt lat="47.85833" lon="7.15026">
        <ele>902</ele>
        <time>2023-05-18T11:31:59Z</time>
      </trkpt>
      <trkpt lat="47.85837" lon="7.15039">
        <ele>902</ele>
        <time>2023-05-18T11:32:06Z</time>
      </trkpt>
      <trkpt lat="47.85839" lon="7.15045">
        <ele>902.1</ele>
        <time>2023-05-18T11:32:10Z</time>
      </trkpt>
      <trkpt lat="47.8584" lon="7.15054">
        <ele>901.8</ele>
        <time>2023-05-18T11:32:16Z</time>
      </trkpt>
      <trkpt lat="47.85843" lon="7.15061">
        <ele>902</ele>
        <time>2023-05-18T11:32:20Z</time>
      </trkpt>
      <trkpt lat="47.85847" lon="7.15064">
        <ele>902.8</ele>
        <time>2023-05-18T11:32:24Z</time>
      </trkpt>
      <trkpt lat="47.85856" lon="7.15071">
        <ele>904.6</ele>
        <time>2023-05-18T11:32:34Z</time>
      </trkpt>
      <trkpt lat="47.85861" lon="7.15073">
        <ele>905.7</ele>
        <time>2023-05-18T11:32:39Z</time>
      </trkpt>
      <trkpt lat="47.85868" lon="7.15071">
        <ele>906</ele>
        <time>2023-05-18T11:32:50Z</time>
      </trkpt>
      <trkpt lat="47.85873" lon="7.1507">
        <ele>906.2</ele>
        <time>2023-05-18T11:32:54Z</time>
      </trkpt>
      <trkpt lat="47.85876" lon="7.15067">
        <ele>906.5</ele>
        <time>2023-05-18T11:33:02Z</time>
      </trkpt>
      <trkpt lat="47.85894" lon="7.15105">
        <ele>901.7</ele>
        <time>2023-05-18T11:38:18Z</time>
      </trkpt>
      <trkpt lat="47.85893" lon="7.15107">
        <ele>901.4</ele>
        <time>2023-05-18T11:38:19Z</time>
      </trkpt>
      <trkpt lat="47.85899" lon="7.15125">
        <ele>899.1</ele>
        <time>2023-05-18T11:38:31Z</time>
      </trkpt>
      <trkpt lat="47.85901" lon="7.15131">
        <ele>898.4</ele>
        <time>2023-05-18T11:38:35Z</time>
      </trkpt>
      <trkpt lat="47.85907" lon="7.15153">
        <ele>895.6</ele>
        <time>2023-05-18T11:38:51Z</time>
      </trkpt>
      <trkpt lat="47.85908" lon="7.15171">
        <ele>893.5</ele>
        <time>2023-05-18T11:39:03Z</time>
      </trkpt>
      <trkpt lat="47.8591" lon="7.15177">
        <ele>892.9</ele>
        <time>2023-05-18T11:39:07Z</time>
      </trkpt>
      <trkpt lat="47.85914" lon="7.15213">
        <ele>888.3</ele>
        <time>2023-05-18T11:39:31Z</time>
      </trkpt>
      <trkpt lat="47.85917" lon="7.15219">
        <ele>887.5</ele>
        <time>2023-05-18T11:39:35Z</time>
      </trkpt>
      <trkpt lat="47.85919" lon="7.15235">
        <ele>885.1</ele>
        <time>2023-05-18T11:39:45Z</time>
      </trkpt>
      <trkpt lat="47.85921" lon="7.15242">
        <ele>884.1</ele>
        <time>2023-05-18T11:39:50Z</time>
      </trkpt>
      <trkpt lat="47.8592" lon="7.15248">
        <ele>883.3</ele>
        <time>2023-05-18T11:39:54Z</time>
      </trkpt>
      <trkpt lat="47.85923" lon="7.15255">
        <ele>882.3</ele>
        <time>2023-05-18T11:39:59Z</time>
      </trkpt>
      <trkpt lat="47.85928" lon="7.15254">
        <ele>882.5</ele>
        <time>2023-05-18T11:40:03Z</time>
      </trkpt>
      <trkpt lat="47.85931" lon="7.15261">
        <ele>881.6</ele>
        <time>2023-05-18T11:40:08Z</time>
      </trkpt>
      <trkpt lat="47.85941" lon="7.15263">
        <ele>881.5</ele>
        <time>2023-05-18T11:40:15Z</time>
      </trkpt>
      <trkpt lat="47.85945" lon="7.15267">
        <ele>881.2</ele>
        <time>2023-05-18T11:40:19Z</time>
      </trkpt>
      <trkpt lat="47.85958" lon="7.1528">
        <ele>881.4</ele>
        <time>2023-05-18T11:40:30Z</time>
      </trkpt>
      <trkpt lat="47.85963" lon="7.15282">
        <ele>881.9</ele>
        <time>2023-05-18T11:40:35Z</time>
      </trkpt>
      <trkpt lat="47.85972" lon="7.15274">
        <ele>883</ele>
        <time>2023-05-18T11:40:43Z</time>
      </trkpt>
      <trkpt lat="47.85976" lon="7.15271">
        <ele>883.2</ele>
        <time>2023-05-18T11:40:47Z</time>
      </trkpt>
      <trkpt lat="47.8598" lon="7.15268">
        <ele>883.5</ele>
        <time>2023-05-18T11:40:51Z</time>
      </trkpt>
      <trkpt lat="47.85988" lon="7.15265">
        <ele>883.9</ele>
        <time>2023-05-18T11:41:01Z</time>
      </trkpt>
      <trkpt lat="47.86004" lon="7.15295">
        <ele>886</ele>
        <time>2023-05-18T11:41:22Z</time>
      </trkpt>
      <trkpt lat="47.86005" lon="7.15302">
        <ele>886.4</ele>
        <time>2023-05-18T11:41:25Z</time>
      </trkpt>
      <trkpt lat="47.8601" lon="7.15307">
        <ele>887.2</ele>
        <time>2023-05-18T11:41:29Z</time>
      </trkpt>
      <trkpt lat="47.86023" lon="7.1534">
        <ele>890.5</ele>
        <time>2023-05-18T11:41:53Z</time>
      </trkpt>
      <trkpt lat="47.86027" lon="7.15349">
        <ele>891.4</ele>
        <time>2023-05-18T11:42:01Z</time>
      </trkpt>
      <trkpt lat="47.86032" lon="7.15355">
        <ele>892.4</ele>
        <time>2023-05-18T11:42:09Z</time>
      </trkpt>
      <trkpt lat="47.86036" lon="7.15351">
        <ele>892.8</ele>
        <time>2023-05-18T11:42:24Z</time>
      </trkpt>
      <trkpt lat="47.86039" lon="7.15357">
        <ele>893.7</ele>
        <time>2023-05-18T11:42:27Z</time>
      </trkpt>
      <trkpt lat="47.8604" lon="7.15365">
        <ele>894.3</ele>
        <time>2023-05-18T11:42:42Z</time>
      </trkpt>
      <trkpt lat="47.86031" lon="7.15367">
        <ele>892.8</ele>
        <time>2023-05-18T11:42:53Z</time>
      </trkpt>
      <trkpt lat="47.86032" lon="7.15372">
        <ele>893.2</ele>
        <time>2023-05-18T11:43:15Z</time>
      </trkpt>
      <trkpt lat="47.86038" lon="7.15374">
        <ele>894.3</ele>
        <time>2023-05-18T11:43:19Z</time>
      </trkpt>
      <trkpt lat="47.86042" lon="7.15383">
        <ele>895.3</ele>
        <time>2023-05-18T11:43:32Z</time>
      </trkpt>
      <trkpt lat="47.86043" lon="7.15389">
        <ele>895.7</ele>
        <time>2023-05-18T11:43:37Z</time>
      </trkpt>
      <trkpt lat="47.86048" lon="7.15398">
        <ele>896.6</ele>
        <time>2023-05-18T11:43:49Z</time>
      </trkpt>
      <trkpt lat="47.86046" lon="7.15406">
        <ele>896.3</ele>
        <time>2023-05-18T11:43:53Z</time>
      </trkpt>
      <trkpt lat="47.86045" lon="7.15413">
        <ele>896.1</ele>
        <time>2023-05-18T11:43:57Z</time>
      </trkpt>
      <trkpt lat="47.86045" lon="7.15421">
        <ele>896</ele>
        <time>2023-05-18T11:44:02Z</time>
      </trkpt>
      <trkpt lat="47.86049" lon="7.15425">
        <ele>896.6</ele>
        <time>2023-05-18T11:44:07Z</time>
      </trkpt>
      <trkpt lat="47.86056" lon="7.15439">
        <ele>897.2</ele>
        <time>2023-05-18T11:44:19Z</time>
      </trkpt>
      <trkpt lat="47.86061" lon="7.15446">
        <ele>897.5</ele>
        <time>2023-05-18T11:44:25Z</time>
      </trkpt>
      <trkpt lat="47.86061" lon="7.15454">
        <ele>897.8</ele>
        <time>2023-05-18T11:44:30Z</time>
      </trkpt>
      <trkpt lat="47.86067" lon="7.15465">
        <ele>898.9</ele>
        <time>2023-05-18T11:44:38Z</time>
      </trkpt>
      <trkpt lat="47.86068" lon="7.15471">
        <ele>899.3</ele>
        <time>2023-05-18T11:44:42Z</time>
      </trkpt>
      <trkpt lat="47.86069" lon="7.15478">
        <ele>899.5</ele>
        <time>2023-05-18T11:44:46Z</time>
      </trkpt>
      <trkpt lat="47.86065" lon="7.15498">
        <ele>899</ele>
        <time>2023-05-18T11:44:57Z</time>
      </trkpt>
      <trkpt lat="47.86066" lon="7.15504">
        <ele>899.1</ele>
        <time>2023-05-18T11:45:01Z</time>
      </trkpt>
      <trkpt lat="47.86066" lon="7.15515">
        <ele>899.1</ele>
        <time>2023-05-18T11:45:10Z</time>
      </trkpt>
      <trkpt lat="47.86067" lon="7.15522">
        <ele>899.2</ele>
        <time>2023-05-18T11:45:15Z</time>
      </trkpt>
      <trkpt lat="47.86069" lon="7.15531">
        <ele>899.5</ele>
        <time>2023-05-18T11:45:21Z</time>
      </trkpt>
      <trkpt lat="47.86068" lon="7.15538">
        <ele>899.3</ele>
        <time>2023-05-18T11:45:25Z</time>
      </trkpt>
      <trkpt lat="47.86065" lon="7.15545">
        <ele>899</ele>
        <time>2023-05-18T11:45:28Z</time>
      </trkpt>
      <trkpt lat="47.86066" lon="7.15551">
        <ele>899.1</ele>
        <time>2023-05-18T11:45:32Z</time>
      </trkpt>
      <trkpt lat="47.86064" lon="7.15557">
        <ele>899</ele>
        <time>2023-05-18T11:45:36Z</time>
      </trkpt>
      <trkpt lat="47.86078" lon="7.15577">
        <ele>901.3</ele>
        <time>2023-05-18T11:46:00Z</time>
      </trkpt>
      <trkpt lat="47.86081" lon="7.15583">
        <ele>901.8</ele>
        <time>2023-05-18T11:46:05Z</time>
      </trkpt>
      <trkpt lat="47.86087" lon="7.15604">
        <ele>902.3</ele>
        <time>2023-05-18T11:46:17Z</time>
      </trkpt>
      <trkpt lat="47.86088" lon="7.15612">
        <ele>902.6</ele>
        <time>2023-05-18T11:46:21Z</time>
      </trkpt>
      <trkpt lat="47.86086" lon="7.1562">
        <ele>903.4</ele>
        <time>2023-05-18T11:46:24Z</time>
      </trkpt>
      <trkpt lat="47.86086" lon="7.15627">
        <ele>903.9</ele>
        <time>2023-05-18T11:46:28Z</time>
      </trkpt>
      <trkpt lat="47.86089" lon="7.15632">
        <ele>904</ele>
        <time>2023-05-18T11:46:33Z</time>
      </trkpt>
      <trkpt lat="47.86098" lon="7.15634">
        <ele>903.5</ele>
        <time>2023-05-18T11:46:44Z</time>
      </trkpt>
      <trkpt lat="47.86103" lon="7.15638">
        <ele>903.5</ele>
        <time>2023-05-18T11:46:47Z</time>
      </trkpt>
      <trkpt lat="47.86109" lon="7.1565">
        <ele>904.7</ele>
        <time>2023-05-18T11:46:53Z</time>
      </trkpt>
      <trkpt lat="47.86107" lon="7.15658">
        <ele>905.9</ele>
        <time>2023-05-18T11:46:56Z</time>
      </trkpt>
      <trkpt lat="47.86125" lon="7.15675">
        <ele>906.3</ele>
        <time>2023-05-18T11:47:19Z</time>
      </trkpt>
      <trkpt lat="47.86131" lon="7.15679">
        <ele>906.1</ele>
        <time>2023-05-18T11:47:27Z</time>
      </trkpt>
      <trkpt lat="47.86132" lon="7.15686">
        <ele>907.4</ele>
        <time>2023-05-18T11:47:31Z</time>
      </trkpt>
      <trkpt lat="47.86146" lon="7.157">
        <ele>907.6</ele>
        <time>2023-05-18T11:47:52Z</time>
      </trkpt>
      <trkpt lat="47.86148" lon="7.15707">
        <ele>908</ele>
        <time>2023-05-18T11:48:11Z</time>
      </trkpt>
      <trkpt lat="47.86149" lon="7.15715">
        <ele>908.7</ele>
        <time>2023-05-18T11:48:29Z</time>
      </trkpt>
      <trkpt lat="47.8615" lon="7.15724">
        <ele>909.1</ele>
        <time>2023-05-18T11:48:41Z</time>
      </trkpt>
      <trkpt lat="47.86138" lon="7.15721">
        <ele>914.8</ele>
        <time>2023-05-18T11:48:54Z</time>
      </trkpt>
      <trkpt lat="47.86132" lon="7.15725">
        <ele>915.9</ele>
        <time>2023-05-18T11:49:01Z</time>
      </trkpt>
      <trkpt lat="47.86125" lon="7.15723">
        <ele>916.6</ele>
        <time>2023-05-18T11:49:11Z</time>
      </trkpt>
      <trkpt lat="47.86121" lon="7.1572">
        <ele>916.5</ele>
        <time>2023-05-18T11:49:16Z</time>
      </trkpt>
      <trkpt lat="47.86117" lon="7.15717">
        <ele>916.3</ele>
        <time>2023-05-18T11:49:20Z</time>
      </trkpt>
      <trkpt lat="47.86114" lon="7.15712">
        <ele>915.8</ele>
        <time>2023-05-18T11:49:25Z</time>
      </trkpt>
      <trkpt lat="47.86105" lon="7.15719">
        <ele>917</ele>
        <time>2023-05-18T11:49:37Z</time>
      </trkpt>
      <trkpt lat="47.86107" lon="7.15729">
        <ele>918.9</ele>
        <time>2023-05-18T11:49:48Z</time>
      </trkpt>
      <trkpt lat="47.86109" lon="7.15745">
        <ele>921.9</ele>
        <time>2023-05-18T11:50:02Z</time>
      </trkpt>
      <trkpt lat="47.86104" lon="7.15769">
        <ele>925.2</ele>
        <time>2023-05-18T11:50:25Z</time>
      </trkpt>
      <trkpt lat="47.86102" lon="7.1578">
        <ele>926.6</ele>
        <time>2023-05-18T11:50:33Z</time>
      </trkpt>
      <trkpt lat="47.86105" lon="7.15801">
        <ele>929.3</ele>
        <time>2023-05-18T11:50:55Z</time>
      </trkpt>
      <trkpt lat="47.86103" lon="7.15807">
        <ele>929.9</ele>
        <time>2023-05-18T11:51:00Z</time>
      </trkpt>
      <trkpt lat="47.86105" lon="7.15815">
        <ele>930.9</ele>
        <time>2023-05-18T11:51:07Z</time>
      </trkpt>
      <trkpt lat="47.86107" lon="7.15827">
        <ele>932.4</ele>
        <time>2023-05-18T11:51:19Z</time>
      </trkpt>
      <trkpt lat="47.86106" lon="7.15834">
        <ele>933.3</ele>
        <time>2023-05-18T11:51:25Z</time>
      </trkpt>
      <trkpt lat="47.86104" lon="7.15844">
        <ele>934.5</ele>
        <time>2023-05-18T11:51:35Z</time>
      </trkpt>
      <trkpt lat="47.86102" lon="7.15858">
        <ele>936.3</ele>
        <time>2023-05-18T11:51:45Z</time>
      </trkpt>
      <trkpt lat="47.86108" lon="7.15864">
        <ele>936.5</ele>
        <time>2023-05-18T11:51:52Z</time>
      </trkpt>
      <trkpt lat="47.86109" lon="7.1587">
        <ele>937.1</ele>
        <time>2023-05-18T11:51:56Z</time>
      </trkpt>
      <trkpt lat="47.86111" lon="7.15877">
        <ele>937.7</ele>
        <time>2023-05-18T11:52:04Z</time>
      </trkpt>
      <trkpt lat="47.86113" lon="7.15883">
        <ele>937.9</ele>
        <time>2023-05-18T11:52:09Z</time>
      </trkpt>
      <trkpt lat="47.86116" lon="7.159">
        <ele>939.1</ele>
        <time>2023-05-18T11:52:23Z</time>
      </trkpt>
      <trkpt lat="47.86119" lon="7.15912">
        <ele>939.8</ele>
        <time>2023-05-18T11:52:32Z</time>
      </trkpt>
      <trkpt lat="47.86124" lon="7.15912">
        <ele>938.7</ele>
        <time>2023-05-18T11:52:38Z</time>
      </trkpt>
      <trkpt lat="47.86129" lon="7.15896">
        <ele>935.9</ele>
        <time>2023-05-18T11:52:50Z</time>
      </trkpt>
      <trkpt lat="47.86133" lon="7.15893">
        <ele>934.7</ele>
        <time>2023-05-18T11:53:03Z</time>
      </trkpt>
      <trkpt lat="47.86138" lon="7.15901">
        <ele>934.5</ele>
        <time>2023-05-18T11:53:12Z</time>
      </trkpt>
      <trkpt lat="47.86144" lon="7.1591">
        <ele>933.6</ele>
        <time>2023-05-18T11:53:20Z</time>
      </trkpt>
      <trkpt lat="47.86142" lon="7.15916">
        <ele>934.9</ele>
        <time>2023-05-18T11:53:24Z</time>
      </trkpt>
      <trkpt lat="47.86144" lon="7.15924">
        <ele>935</ele>
        <time>2023-05-18T11:53:29Z</time>
      </trkpt>
      <trkpt lat="47.86148" lon="7.15927">
        <ele>934</ele>
        <time>2023-05-18T11:53:34Z</time>
      </trkpt>
      <trkpt lat="47.86148" lon="7.15935">
        <ele>934.8</ele>
        <time>2023-05-18T11:53:38Z</time>
      </trkpt>
      <trkpt lat="47.86149" lon="7.15944">
        <ele>935.4</ele>
        <time>2023-05-18T11:53:43Z</time>
      </trkpt>
      <trkpt lat="47.86155" lon="7.15957">
        <ele>935.3</ele>
        <time>2023-05-18T11:53:52Z</time>
      </trkpt>
      <trkpt lat="47.86156" lon="7.15963">
        <ele>935.7</ele>
        <time>2023-05-18T11:54:00Z</time>
      </trkpt>
      <trkpt lat="47.8616" lon="7.15969">
        <ele>935.3</ele>
        <time>2023-05-18T11:54:12Z</time>
      </trkpt>
      <trkpt lat="47.86164" lon="7.15973">
        <ele>934.8</ele>
        <time>2023-05-18T11:54:17Z</time>
      </trkpt>
      <trkpt lat="47.86166" lon="7.15981">
        <ele>935.1</ele>
        <time>2023-05-18T11:54:24Z</time>
      </trkpt>
      <trkpt lat="47.86165" lon="7.15994">
        <ele>936.8</ele>
        <time>2023-05-18T11:54:32Z</time>
      </trkpt>
      <trkpt lat="47.86167" lon="7.16001">
        <ele>937</ele>
        <time>2023-05-18T11:54:36Z</time>
      </trkpt>
      <trkpt lat="47.86167" lon="7.1601">
        <ele>937.9</ele>
        <time>2023-05-18T11:54:42Z</time>
      </trkpt>
      <trkpt lat="47.86172" lon="7.16013">
        <ele>936</ele>
        <time>2023-05-18T11:54:48Z</time>
      </trkpt>
      <trkpt lat="47.86172" lon="7.16019">
        <ele>936.6</ele>
        <time>2023-05-18T11:54:53Z</time>
      </trkpt>
      <trkpt lat="47.8617" lon="7.16027">
        <ele>938.4</ele>
        <time>2023-05-18T11:54:59Z</time>
      </trkpt>
      <trkpt lat="47.86171" lon="7.16035">
        <ele>938.5</ele>
        <time>2023-05-18T11:55:08Z</time>
      </trkpt>
      <trkpt lat="47.8617" lon="7.1605">
        <ele>940</ele>
        <time>2023-05-18T11:55:19Z</time>
      </trkpt>
      <trkpt lat="47.86175" lon="7.16055">
        <ele>938.1</ele>
        <time>2023-05-18T11:55:24Z</time>
      </trkpt>
      <trkpt lat="47.86177" lon="7.16059">
        <ele>937.5</ele>
        <time>2023-05-18T11:55:33Z</time>
      </trkpt>
      <trkpt lat="47.86176" lon="7.16066">
        <ele>938.6</ele>
        <time>2023-05-18T11:55:38Z</time>
      </trkpt>
      <trkpt lat="47.86179" lon="7.16077">
        <ele>938.5</ele>
        <time>2023-05-18T11:55:49Z</time>
      </trkpt>
      <trkpt lat="47.86172" lon="7.16086">
        <ele>942.1</ele>
        <time>2023-05-18T11:55:57Z</time>
      </trkpt>
      <trkpt lat="47.86172" lon="7.16096">
        <ele>943.1</ele>
        <time>2023-05-18T11:56:09Z</time>
      </trkpt>
      <trkpt lat="47.8617" lon="7.16103">
        <ele>944.6</ele>
        <time>2023-05-18T11:56:21Z</time>
      </trkpt>
      <trkpt lat="47.86169" lon="7.16113">
        <ele>946</ele>
        <time>2023-05-18T11:57:07Z</time>
      </trkpt>
      <trkpt lat="47.86166" lon="7.16119">
        <ele>947.4</ele>
        <time>2023-05-18T11:57:15Z</time>
      </trkpt>
      <trkpt lat="47.86157" lon="7.16123">
        <ele>948.8</ele>
        <time>2023-05-18T11:57:20Z</time>
      </trkpt>
      <trkpt lat="47.86155" lon="7.1613">
        <ele>949.4</ele>
        <time>2023-05-18T11:57:34Z</time>
      </trkpt>
      <trkpt lat="47.8615" lon="7.16132">
        <ele>950.2</ele>
        <time>2023-05-18T11:57:46Z</time>
      </trkpt>
      <trkpt lat="47.86146" lon="7.16139">
        <ele>951</ele>
        <time>2023-05-18T11:57:58Z</time>
      </trkpt>
      <trkpt lat="47.86144" lon="7.16146">
        <ele>950.8</ele>
        <time>2023-05-18T11:58:03Z</time>
      </trkpt>
      <trkpt lat="47.86138" lon="7.16144">
        <ele>951.6</ele>
        <time>2023-05-18T11:58:09Z</time>
      </trkpt>
      <trkpt lat="47.86135" lon="7.16133">
        <ele>951.9</ele>
        <time>2023-05-18T11:58:23Z</time>
      </trkpt>
      <trkpt lat="47.8613" lon="7.16138">
        <ele>952</ele>
        <time>2023-05-18T11:58:32Z</time>
      </trkpt>
      <trkpt lat="47.86131" lon="7.16146">
        <ele>951.5</ele>
        <time>2023-05-18T11:58:44Z</time>
      </trkpt>
      <trkpt lat="47.86128" lon="7.16152">
        <ele>951.1</ele>
        <time>2023-05-18T11:58:49Z</time>
      </trkpt>
      <trkpt lat="47.86126" lon="7.16158">
        <ele>950.6</ele>
        <time>2023-05-18T11:58:53Z</time>
      </trkpt>
      <trkpt lat="47.86122" lon="7.16167">
        <ele>950</ele>
        <time>2023-05-18T11:59:06Z</time>
      </trkpt>
      <trkpt lat="47.86124" lon="7.16174">
        <ele>949.1</ele>
        <time>2023-05-18T11:59:12Z</time>
      </trkpt>
      <trkpt lat="47.86128" lon="7.16183">
        <ele>947.9</ele>
        <time>2023-05-18T11:59:22Z</time>
      </trkpt>
      <trkpt lat="47.86127" lon="7.1619">
        <ele>947</ele>
        <time>2023-05-18T11:59:29Z</time>
      </trkpt>
      <trkpt lat="47.86122" lon="7.16192">
        <ele>946.9</ele>
        <time>2023-05-18T11:59:33Z</time>
      </trkpt>
      <trkpt lat="47.8612" lon="7.16198">
        <ele>946</ele>
        <time>2023-05-18T11:59:37Z</time>
      </trkpt>
      <trkpt lat="47.86112" lon="7.16201">
        <ele>945.8</ele>
        <time>2023-05-18T11:59:47Z</time>
      </trkpt>
      <trkpt lat="47.86108" lon="7.16205">
        <ele>945.3</ele>
        <time>2023-05-18T11:59:51Z</time>
      </trkpt>
      <trkpt lat="47.86103" lon="7.1621">
        <ele>944.8</ele>
        <time>2023-05-18T11:59:55Z</time>
      </trkpt>
      <trkpt lat="47.86096" lon="7.16211">
        <ele>945.2</ele>
        <time>2023-05-18T12:00:03Z</time>
      </trkpt>
      <trkpt lat="47.86091" lon="7.16216">
        <ele>945</ele>
        <time>2023-05-18T12:00:13Z</time>
      </trkpt>
      <trkpt lat="47.86087" lon="7.16214">
        <ele>945.6</ele>
        <time>2023-05-18T12:00:16Z</time>
      </trkpt>
      <trkpt lat="47.8608" lon="7.16208">
        <ele>946.5</ele>
        <time>2023-05-18T12:00:30Z</time>
      </trkpt>
      <trkpt lat="47.86077" lon="7.16203">
        <ele>947</ele>
        <time>2023-05-18T12:00:37Z</time>
      </trkpt>
      <trkpt lat="47.86078" lon="7.16196">
        <ele>947.7</ele>
        <time>2023-05-18T12:00:42Z</time>
      </trkpt>
      <trkpt lat="47.86073" lon="7.16192">
        <ele>947.9</ele>
        <time>2023-05-18T12:00:54Z</time>
      </trkpt>
      <trkpt lat="47.86071" lon="7.16198">
        <ele>947.3</ele>
        <time>2023-05-18T12:01:01Z</time>
      </trkpt>
      <trkpt lat="47.86064" lon="7.16205">
        <ele>946.7</ele>
        <time>2023-05-18T12:01:12Z</time>
      </trkpt>
      <trkpt lat="47.86066" lon="7.16214">
        <ele>946.1</ele>
        <time>2023-05-18T12:01:19Z</time>
      </trkpt>
      <trkpt lat="47.86069" lon="7.16221">
        <ele>945.6</ele>
        <time>2023-05-18T12:01:24Z</time>
      </trkpt>
      <trkpt lat="47.86069" lon="7.16229">
        <ele>944.7</ele>
        <time>2023-05-18T12:01:31Z</time>
      </trkpt>
      <trkpt lat="47.86064" lon="7.16234">
        <ele>944.5</ele>
        <time>2023-05-18T12:01:33Z</time>
      </trkpt>
      <trkpt lat="47.86061" lon="7.16239">
        <ele>944.2</ele>
        <time>2023-05-18T12:01:37Z</time>
      </trkpt>
      <trkpt lat="47.86056" lon="7.16244">
        <ele>944.4</ele>
        <time>2023-05-18T12:01:42Z</time>
      </trkpt>
      <trkpt lat="47.86052" lon="7.16243">
        <ele>944.3</ele>
        <time>2023-05-18T12:01:46Z</time>
      </trkpt>
      <trkpt lat="47.86045" lon="7.16245">
        <ele>943.9</ele>
        <time>2023-05-18T12:01:56Z</time>
      </trkpt>
      <trkpt lat="47.86041" lon="7.16245">
        <ele>943.7</ele>
        <time>2023-05-18T12:02:02Z</time>
      </trkpt>
      <trkpt lat="47.86033" lon="7.16247">
        <ele>943.3</ele>
        <time>2023-05-18T12:02:12Z</time>
      </trkpt>
      <trkpt lat="47.86029" lon="7.16249">
        <ele>943.1</ele>
        <time>2023-05-18T12:02:16Z</time>
      </trkpt>
      <trkpt lat="47.86027" lon="7.16255">
        <ele>942.4</ele>
        <time>2023-05-18T12:02:21Z</time>
      </trkpt>
      <trkpt lat="47.86017" lon="7.163">
        <ele>936.6</ele>
        <time>2023-05-18T12:02:57Z</time>
      </trkpt>
      <trkpt lat="47.86014" lon="7.16305">
        <ele>936.1</ele>
        <time>2023-05-18T12:03:01Z</time>
      </trkpt>
      <trkpt lat="47.86007" lon="7.16312">
        <ele>935.7</ele>
        <time>2023-05-18T12:03:11Z</time>
      </trkpt>
      <trkpt lat="47.86002" lon="7.16314">
        <ele>935.7</ele>
        <time>2023-05-18T12:03:16Z</time>
      </trkpt>
      <trkpt lat="47.85995" lon="7.16311">
        <ele>935.1</ele>
        <time>2023-05-18T12:03:23Z</time>
      </trkpt>
      <trkpt lat="47.8599" lon="7.16311">
        <ele>934.4</ele>
        <time>2023-05-18T12:03:28Z</time>
      </trkpt>
      <trkpt lat="47.85985" lon="7.16317">
        <ele>933.4</ele>
        <time>2023-05-18T12:03:35Z</time>
      </trkpt>
      <trkpt lat="47.85975" lon="7.16317">
        <ele>932</ele>
        <time>2023-05-18T12:03:45Z</time>
      </trkpt>
      <trkpt lat="47.8597" lon="7.16321">
        <ele>931</ele>
        <time>2023-05-18T12:03:53Z</time>
      </trkpt>
      <trkpt lat="47.85968" lon="7.16328">
        <ele>930.4</ele>
        <time>2023-05-18T12:04:02Z</time>
      </trkpt>
      <trkpt lat="47.85973" lon="7.16328">
        <ele>931.3</ele>
        <time>2023-05-18T12:04:08Z</time>
      </trkpt>
      <trkpt lat="47.85977" lon="7.16333">
        <ele>931.7</ele>
        <time>2023-05-18T12:04:32Z</time>
      </trkpt>
      <trkpt lat="47.85982" lon="7.16333">
        <ele>932.4</ele>
        <time>2023-05-18T12:04:38Z</time>
      </trkpt>
      <trkpt lat="47.85986" lon="7.16339">
        <ele>932.8</ele>
        <time>2023-05-18T12:04:44Z</time>
      </trkpt>
      <trkpt lat="47.85988" lon="7.16346">
        <ele>932.7</ele>
        <time>2023-05-18T12:04:49Z</time>
      </trkpt>
      <trkpt lat="47.85988" lon="7.16352">
        <ele>932.4</ele>
        <time>2023-05-18T12:04:53Z</time>
      </trkpt>
      <trkpt lat="47.8599" lon="7.16359">
        <ele>932.1</ele>
        <time>2023-05-18T12:04:58Z</time>
      </trkpt>
      <trkpt lat="47.85993" lon="7.16364">
        <ele>931.9</ele>
        <time>2023-05-18T12:05:02Z</time>
      </trkpt>
      <trkpt lat="47.85995" lon="7.16369">
        <ele>931.6</ele>
        <time>2023-05-18T12:05:06Z</time>
      </trkpt>
      <trkpt lat="47.85997" lon="7.1638">
        <ele>930.9</ele>
        <time>2023-05-18T12:05:16Z</time>
      </trkpt>
      <trkpt lat="47.85999" lon="7.16393">
        <ele>929.5</ele>
        <time>2023-05-18T12:05:30Z</time>
      </trkpt>
      <trkpt lat="47.86006" lon="7.16399">
        <ele>927.4</ele>
        <time>2023-05-18T12:05:40Z</time>
      </trkpt>
      <trkpt lat="47.86008" lon="7.16405">
        <ele>926.1</ele>
        <time>2023-05-18T12:05:45Z</time>
      </trkpt>
      <trkpt lat="47.86002" lon="7.16408">
        <ele>926.8</ele>
        <time>2023-05-18T12:05:48Z</time>
      </trkpt>
      <trkpt lat="47.85998" lon="7.16408">
        <ele>927.6</ele>
        <time>2023-05-18T12:05:52Z</time>
      </trkpt>
      <trkpt lat="47.85993" lon="7.1641">
        <ele>928.1</ele>
        <time>2023-05-18T12:06:00Z</time>
      </trkpt>
      <trkpt lat="47.85988" lon="7.16407">
        <ele>929.3</ele>
        <time>2023-05-18T12:06:06Z</time>
      </trkpt>
      <trkpt lat="47.85983" lon="7.16408">
        <ele>929.9</ele>
        <time>2023-05-18T12:06:14Z</time>
      </trkpt>
      <trkpt lat="47.85982" lon="7.16414">
        <ele>929.5</ele>
        <time>2023-05-18T12:06:20Z</time>
      </trkpt>
      <trkpt lat="47.85983" lon="7.16422">
        <ele>928.3</ele>
        <time>2023-05-18T12:06:38Z</time>
      </trkpt>
      <trkpt lat="47.85986" lon="7.16427">
        <ele>927</ele>
        <time>2023-05-18T12:06:43Z</time>
      </trkpt>
      <trkpt lat="47.85986" lon="7.16435">
        <ele>925.9</ele>
        <time>2023-05-18T12:06:51Z</time>
      </trkpt>
      <trkpt lat="47.85987" lon="7.16443">
        <ele>924.5</ele>
        <time>2023-05-18T12:06:55Z</time>
      </trkpt>
      <trkpt lat="47.85983" lon="7.16455">
        <ele>923.5</ele>
        <time>2023-05-18T12:07:03Z</time>
      </trkpt>
      <trkpt lat="47.85983" lon="7.16469">
        <ele>921.1</ele>
        <time>2023-05-18T12:07:17Z</time>
      </trkpt>
      <trkpt lat="47.85981" lon="7.16476">
        <ele>920.6</ele>
        <time>2023-05-18T12:07:20Z</time>
      </trkpt>
      <trkpt lat="47.85977" lon="7.16482">
        <ele>921.2</ele>
        <time>2023-05-18T12:07:26Z</time>
      </trkpt>
      <trkpt lat="47.85973" lon="7.16493">
        <ele>921.4</ele>
        <time>2023-05-18T12:07:37Z</time>
      </trkpt>
      <trkpt lat="47.8597" lon="7.16497">
        <ele>921.6</ele>
        <time>2023-05-18T12:07:43Z</time>
      </trkpt>
      <trkpt lat="47.85966" lon="7.165">
        <ele>921.9</ele>
        <time>2023-05-18T12:07:50Z</time>
      </trkpt>
      <trkpt lat="47.85963" lon="7.16506">
        <ele>922.1</ele>
        <time>2023-05-18T12:08:02Z</time>
      </trkpt>
      <trkpt lat="47.85964" lon="7.16521">
        <ele>921.4</ele>
        <time>2023-05-18T12:08:13Z</time>
      </trkpt>
      <trkpt lat="47.85963" lon="7.1653">
        <ele>921.3</ele>
        <time>2023-05-18T12:08:20Z</time>
      </trkpt>
      <trkpt lat="47.85962" lon="7.16536">
        <ele>921.3</ele>
        <time>2023-05-18T12:08:24Z</time>
      </trkpt>
      <trkpt lat="47.85964" lon="7.16542">
        <ele>921.1</ele>
        <time>2023-05-18T12:08:29Z</time>
      </trkpt>
      <trkpt lat="47.85959" lon="7.16547">
        <ele>921.3</ele>
        <time>2023-05-18T12:08:36Z</time>
      </trkpt>
      <trkpt lat="47.85965" lon="7.16553">
        <ele>921</ele>
        <time>2023-05-18T12:08:52Z</time>
      </trkpt>
      <trkpt lat="47.85968" lon="7.16557">
        <ele>920.5</ele>
        <time>2023-05-18T12:08:59Z</time>
      </trkpt>
      <trkpt lat="47.85957" lon="7.16516">
        <ele>922.6</ele>
        <time>2023-05-18T12:15:02Z</time>
      </trkpt>
      <trkpt lat="47.85957" lon="7.16514">
        <ele>922.7</ele>
        <time>2023-05-18T12:15:03Z</time>
      </trkpt>
      <trkpt lat="47.85959" lon="7.16503">
        <ele>922.8</ele>
        <time>2023-05-18T12:15:11Z</time>
      </trkpt>
      <trkpt lat="47.8596" lon="7.16492">
        <ele>923.4</ele>
        <time>2023-05-18T12:15:20Z</time>
      </trkpt>
      <trkpt lat="47.85963" lon="7.16481">
        <ele>923.9</ele>
        <time>2023-05-18T12:15:32Z</time>
      </trkpt>
      <trkpt lat="47.85965" lon="7.16474">
        <ele>924.4</ele>
        <time>2023-05-18T12:15:39Z</time>
      </trkpt>
      <trkpt lat="47.85963" lon="7.16468">
        <ele>924.9</ele>
        <time>2023-05-18T12:15:45Z</time>
      </trkpt>
      <trkpt lat="47.85962" lon="7.16459">
        <ele>925.4</ele>
        <time>2023-05-18T12:15:51Z</time>
      </trkpt>
      <trkpt lat="47.85965" lon="7.16451">
        <ele>926.2</ele>
        <time>2023-05-18T12:15:56Z</time>
      </trkpt>
      <trkpt lat="47.85963" lon="7.16443">
        <ele>926.5</ele>
        <time>2023-05-18T12:16:03Z</time>
      </trkpt>
      <trkpt lat="47.85966" lon="7.16438">
        <ele>927.5</ele>
        <time>2023-05-18T12:16:08Z</time>
      </trkpt>
      <trkpt lat="47.85969" lon="7.16426">
        <ele>929.3</ele>
        <time>2023-05-18T12:16:18Z</time>
      </trkpt>
      <trkpt lat="47.85968" lon="7.16418">
        <ele>929.8</ele>
        <time>2023-05-18T12:16:22Z</time>
      </trkpt>
      <trkpt lat="47.85973" lon="7.16403">
        <ele>931.9</ele>
        <time>2023-05-18T12:16:35Z</time>
      </trkpt>
      <trkpt lat="47.85976" lon="7.16396">
        <ele>932</ele>
        <time>2023-05-18T12:16:47Z</time>
      </trkpt>
      <trkpt lat="47.85982" lon="7.16394">
        <ele>931.4</ele>
        <time>2023-05-18T12:16:51Z</time>
      </trkpt>
      <trkpt lat="47.85985" lon="7.16387">
        <ele>931.6</ele>
        <time>2023-05-18T12:16:57Z</time>
      </trkpt>
      <trkpt lat="47.85985" lon="7.16373">
        <ele>931.8</ele>
        <time>2023-05-18T12:17:05Z</time>
      </trkpt>
      <trkpt lat="47.85983" lon="7.16363">
        <ele>932</ele>
        <time>2023-05-18T12:17:13Z</time>
      </trkpt>
      <trkpt lat="47.85983" lon="7.16355">
        <ele>932.1</ele>
        <time>2023-05-18T12:17:22Z</time>
      </trkpt>
      <trkpt lat="47.85972" lon="7.16351">
        <ele>931.6</ele>
        <time>2023-05-18T12:17:35Z</time>
      </trkpt>
      <trkpt lat="47.85965" lon="7.1633">
        <ele>929.8</ele>
        <time>2023-05-18T12:17:54Z</time>
      </trkpt>
      <trkpt lat="47.85965" lon="7.16323">
        <ele>930</ele>
        <time>2023-05-18T12:17:59Z</time>
      </trkpt>
      <trkpt lat="47.85965" lon="7.16317">
        <ele>930.1</ele>
        <time>2023-05-18T12:18:03Z</time>
      </trkpt>
      <trkpt lat="47.85968" lon="7.16312">
        <ele>930.9</ele>
        <time>2023-05-18T12:18:11Z</time>
      </trkpt>
      <trkpt lat="47.85973" lon="7.1631">
        <ele>932</ele>
        <time>2023-05-18T12:18:14Z</time>
      </trkpt>
      <trkpt lat="47.85974" lon="7.163">
        <ele>932.5</ele>
        <time>2023-05-18T12:18:23Z</time>
      </trkpt>
      <trkpt lat="47.85974" lon="7.1629">
        <ele>932.9</ele>
        <time>2023-05-18T12:18:30Z</time>
      </trkpt>
      <trkpt lat="47.85973" lon="7.16283">
        <ele>932.9</ele>
        <time>2023-05-18T12:18:35Z</time>
      </trkpt>
      <trkpt lat="47.85977" lon="7.16269">
        <ele>934.2</ele>
        <time>2023-05-18T12:18:47Z</time>
      </trkpt>
      <trkpt lat="47.85981" lon="7.16264">
        <ele>935.2</ele>
        <time>2023-05-18T12:18:52Z</time>
      </trkpt>
      <trkpt lat="47.85981" lon="7.16258">
        <ele>935.5</ele>
        <time>2023-05-18T12:18:57Z</time>
      </trkpt>
      <trkpt lat="47.85985" lon="7.16253">
        <ele>936.6</ele>
        <time>2023-05-18T12:19:01Z</time>
      </trkpt>
      <trkpt lat="47.85986" lon="7.16245">
        <ele>937.1</ele>
        <time>2023-05-18T12:19:09Z</time>
      </trkpt>
      <trkpt lat="47.85982" lon="7.16232">
        <ele>936.3</ele>
        <time>2023-05-18T12:19:20Z</time>
      </trkpt>
      <trkpt lat="47.85984" lon="7.16222">
        <ele>937</ele>
        <time>2023-05-18T12:19:29Z</time>
      </trkpt>
      <trkpt lat="47.85984" lon="7.1621">
        <ele>937</ele>
        <time>2023-05-18T12:19:38Z</time>
      </trkpt>
      <trkpt lat="47.85986" lon="7.16198">
        <ele>937.5</ele>
        <time>2023-05-18T12:19:46Z</time>
      </trkpt>
      <trkpt lat="47.85986" lon="7.1619">
        <ele>937.4</ele>
        <time>2023-05-18T12:19:55Z</time>
      </trkpt>
      <trkpt lat="47.8599" lon="7.16186">
        <ele>938.3</ele>
        <time>2023-05-18T12:20:01Z</time>
      </trkpt>
      <trkpt lat="47.85993" lon="7.1618">
        <ele>938.8</ele>
        <time>2023-05-18T12:20:04Z</time>
      </trkpt>
      <trkpt lat="47.85998" lon="7.16177">
        <ele>939.9</ele>
        <time>2023-05-18T12:20:09Z</time>
      </trkpt>
      <trkpt lat="47.86" lon="7.16171">
        <ele>940.2</ele>
        <time>2023-05-18T12:20:13Z</time>
      </trkpt>
      <trkpt lat="47.8601" lon="7.16165">
        <ele>942.1</ele>
        <time>2023-05-18T12:20:25Z</time>
      </trkpt>
      <trkpt lat="47.86028" lon="7.16171">
        <ele>945.9</ele>
        <time>2023-05-18T12:20:44Z</time>
      </trkpt>
      <trkpt lat="47.86031" lon="7.16164">
        <ele>946.4</ele>
        <time>2023-05-18T12:20:51Z</time>
      </trkpt>
      <trkpt lat="47.86032" lon="7.16156">
        <ele>946.3</ele>
        <time>2023-05-18T12:20:59Z</time>
      </trkpt>
      <trkpt lat="47.86042" lon="7.16148">
        <ele>947.7</ele>
        <time>2023-05-18T12:21:10Z</time>
      </trkpt>
      <trkpt lat="47.86061" lon="7.16122">
        <ele>950.8</ele>
        <time>2023-05-18T12:21:41Z</time>
      </trkpt>
      <trkpt lat="47.86072" lon="7.16108">
        <ele>953</ele>
        <time>2023-05-18T12:21:56Z</time>
      </trkpt>
      <trkpt lat="47.86073" lon="7.16102">
        <ele>953.3</ele>
        <time>2023-05-18T12:22:01Z</time>
      </trkpt>
      <trkpt lat="47.86074" lon="7.16091">
        <ele>953.8</ele>
        <time>2023-05-18T12:22:13Z</time>
      </trkpt>
      <trkpt lat="47.86075" lon="7.1608">
        <ele>954</ele>
        <time>2023-05-18T12:22:25Z</time>
      </trkpt>
      <trkpt lat="47.86076" lon="7.16066">
        <ele>953.2</ele>
        <time>2023-05-18T12:22:34Z</time>
      </trkpt>
      <trkpt lat="47.86075" lon="7.16059">
        <ele>952.4</ele>
        <time>2023-05-18T12:22:39Z</time>
      </trkpt>
      <trkpt lat="47.86072" lon="7.1605">
        <ele>951.1</ele>
        <time>2023-05-18T12:22:47Z</time>
      </trkpt>
      <trkpt lat="47.86062" lon="7.16022">
        <ele>947.3</ele>
        <time>2023-05-18T12:23:10Z</time>
      </trkpt>
      <trkpt lat="47.86042" lon="7.15991">
        <ele>940.9</ele>
        <time>2023-05-18T12:23:40Z</time>
      </trkpt>
      <trkpt lat="47.8604" lon="7.15984">
        <ele>940</ele>
        <time>2023-05-18T12:23:45Z</time>
      </trkpt>
      <trkpt lat="47.86033" lon="7.15964">
        <ele>937.3</ele>
        <time>2023-05-18T12:23:59Z</time>
      </trkpt>
      <trkpt lat="47.86033" lon="7.15944">
        <ele>935.9</ele>
        <time>2023-05-18T12:24:10Z</time>
      </trkpt>
      <trkpt lat="47.86033" lon="7.15934">
        <ele>935.3</ele>
        <time>2023-05-18T12:24:17Z</time>
      </trkpt>
      <trkpt lat="47.86034" lon="7.15914">
        <ele>934.1</ele>
        <time>2023-05-18T12:24:30Z</time>
      </trkpt>
      <trkpt lat="47.86037" lon="7.15891">
        <ele>932.2</ele>
        <time>2023-05-18T12:24:43Z</time>
      </trkpt>
      <trkpt lat="47.86037" lon="7.15883">
        <ele>931.3</ele>
        <time>2023-05-18T12:24:47Z</time>
      </trkpt>
      <trkpt lat="47.86038" lon="7.15877">
        <ele>930.8</ele>
        <time>2023-05-18T12:24:51Z</time>
      </trkpt>
      <trkpt lat="47.86041" lon="7.15863">
        <ele>930</ele>
        <time>2023-05-18T12:25:01Z</time>
      </trkpt>
      <trkpt lat="47.86041" lon="7.15855">
        <ele>928.8</ele>
        <time>2023-05-18T12:25:06Z</time>
      </trkpt>
      <trkpt lat="47.86045" lon="7.15847">
        <ele>928.6</ele>
        <time>2023-05-18T12:25:13Z</time>
      </trkpt>
      <trkpt lat="47.86052" lon="7.15817">
        <ele>925.8</ele>
        <time>2023-05-18T12:25:32Z</time>
      </trkpt>
      <trkpt lat="47.86059" lon="7.15804">
        <ele>925.2</ele>
        <time>2023-05-18T12:25:44Z</time>
      </trkpt>
      <trkpt lat="47.86059" lon="7.15785">
        <ele>921.9</ele>
        <time>2023-05-18T12:25:55Z</time>
      </trkpt>
      <trkpt lat="47.86052" lon="7.15782">
        <ele>920.1</ele>
        <time>2023-05-18T12:26:10Z</time>
      </trkpt>
      <trkpt lat="47.86034" lon="7.15784">
        <ele>916.9</ele>
        <time>2023-05-18T12:26:30Z</time>
      </trkpt>
      <trkpt lat="47.86019" lon="7.15771">
        <ele>912.6</ele>
        <time>2023-05-18T12:26:48Z</time>
      </trkpt>
      <trkpt lat="47.86017" lon="7.15763">
        <ele>911.6</ele>
        <time>2023-05-18T12:26:51Z</time>
      </trkpt>
      <trkpt lat="47.86014" lon="7.15739">
        <ele>908.8</ele>
        <time>2023-05-18T12:27:07Z</time>
      </trkpt>
      <trkpt lat="47.86016" lon="7.15724">
        <ele>907.6</ele>
        <time>2023-05-18T12:27:16Z</time>
      </trkpt>
      <trkpt lat="47.86018" lon="7.15718">
        <ele>907.3</ele>
        <time>2023-05-18T12:27:20Z</time>
      </trkpt>
      <trkpt lat="47.86018" lon="7.15694">
        <ele>903.8</ele>
        <time>2023-05-18T12:27:36Z</time>
      </trkpt>
      <trkpt lat="47.8602" lon="7.15687">
        <ele>903.5</ele>
        <time>2023-05-18T12:27:42Z</time>
      </trkpt>
      <trkpt lat="47.8602" lon="7.15679">
        <ele>902.7</ele>
        <time>2023-05-18T12:27:46Z</time>
      </trkpt>
      <trkpt lat="47.86021" lon="7.15658">
        <ele>900.6</ele>
        <time>2023-05-18T12:28:03Z</time>
      </trkpt>
      <trkpt lat="47.86019" lon="7.1565">
        <ele>899.3</ele>
        <time>2023-05-18T12:28:09Z</time>
      </trkpt>
      <trkpt lat="47.86018" lon="7.15643">
        <ele>898.3</ele>
        <time>2023-05-18T12:28:14Z</time>
      </trkpt>
      <trkpt lat="47.86015" lon="7.15636">
        <ele>897</ele>
        <time>2023-05-18T12:28:18Z</time>
      </trkpt>
      <trkpt lat="47.86015" lon="7.15629">
        <ele>896.3</ele>
        <time>2023-05-18T12:28:23Z</time>
      </trkpt>
      <trkpt lat="47.86015" lon="7.15622">
        <ele>895.7</ele>
        <time>2023-05-18T12:28:27Z</time>
      </trkpt>
      <trkpt lat="47.86012" lon="7.15593">
        <ele>892.9</ele>
        <time>2023-05-18T12:28:44Z</time>
      </trkpt>
      <trkpt lat="47.86014" lon="7.15587">
        <ele>892.8</ele>
        <time>2023-05-18T12:28:47Z</time>
      </trkpt>
      <trkpt lat="47.86015" lon="7.15565">
        <ele>891.7</ele>
        <time>2023-05-18T12:29:00Z</time>
      </trkpt>
      <trkpt lat="47.86012" lon="7.15544">
        <ele>890.2</ele>
        <time>2023-05-18T12:29:11Z</time>
      </trkpt>
      <trkpt lat="47.86013" lon="7.15525">
        <ele>889.8</ele>
        <time>2023-05-18T12:29:23Z</time>
      </trkpt>
      <trkpt lat="47.86009" lon="7.15505">
        <ele>888.9</ele>
        <time>2023-05-18T12:29:35Z</time>
      </trkpt>
      <trkpt lat="47.86006" lon="7.15498">
        <ele>888.3</ele>
        <time>2023-05-18T12:29:40Z</time>
      </trkpt>
      <trkpt lat="47.86001" lon="7.15472">
        <ele>887.2</ele>
        <time>2023-05-18T12:29:57Z</time>
      </trkpt>
      <trkpt lat="47.86002" lon="7.15466">
        <ele>887.4</ele>
        <time>2023-05-18T12:30:01Z</time>
      </trkpt>
      <trkpt lat="47.85998" lon="7.15461">
        <ele>886.5</ele>
        <time>2023-05-18T12:30:05Z</time>
      </trkpt>
      <trkpt lat="47.85999" lon="7.15446">
        <ele>886.8</ele>
        <time>2023-05-18T12:30:13Z</time>
      </trkpt>
      <trkpt lat="47.85993" lon="7.15413">
        <ele>885.5</ele>
        <time>2023-05-18T12:30:30Z</time>
      </trkpt>
      <trkpt lat="47.85993" lon="7.15405">
        <ele>885.5</ele>
        <time>2023-05-18T12:30:35Z</time>
      </trkpt>
      <trkpt lat="47.85988" lon="7.15382">
        <ele>884.5</ele>
        <time>2023-05-18T12:30:51Z</time>
      </trkpt>
      <trkpt lat="47.85982" lon="7.15367">
        <ele>883.6</ele>
        <time>2023-05-18T12:30:59Z</time>
      </trkpt>
      <trkpt lat="47.85981" lon="7.1536">
        <ele>883.6</ele>
        <time>2023-05-18T12:31:04Z</time>
      </trkpt>
      <trkpt lat="47.85975" lon="7.15339">
        <ele>882.5</ele>
        <time>2023-05-18T12:31:19Z</time>
      </trkpt>
      <trkpt lat="47.85975" lon="7.15332">
        <ele>882.5</ele>
        <time>2023-05-18T12:31:22Z</time>
      </trkpt>
      <trkpt lat="47.85971" lon="7.15328">
        <ele>882</ele>
        <time>2023-05-18T12:31:26Z</time>
      </trkpt>
      <trkpt lat="47.85966" lon="7.15317">
        <ele>881.5</ele>
        <time>2023-05-18T12:31:33Z</time>
      </trkpt>
      <trkpt lat="47.85961" lon="7.15311">
        <ele>880.8</ele>
        <time>2023-05-18T12:31:37Z</time>
      </trkpt>
      <trkpt lat="47.85954" lon="7.15295">
        <ele>880.2</ele>
        <time>2023-05-18T12:31:48Z</time>
      </trkpt>
      <trkpt lat="47.85953" lon="7.15289">
        <ele>880.4</ele>
        <time>2023-05-18T12:31:52Z</time>
      </trkpt>
      <trkpt lat="47.85944" lon="7.15284">
        <ele>879.5</ele>
        <time>2023-05-18T12:32:01Z</time>
      </trkpt>
      <trkpt lat="47.85938" lon="7.15285">
        <ele>879.1</ele>
        <time>2023-05-18T12:32:06Z</time>
      </trkpt>
      <trkpt lat="47.85918" lon="7.15285">
        <ele>877.8</ele>
        <time>2023-05-18T12:32:23Z</time>
      </trkpt>
      <trkpt lat="47.85897" lon="7.15278">
        <ele>878.2</ele>
        <time>2023-05-18T12:32:39Z</time>
      </trkpt>
      <trkpt lat="47.85887" lon="7.1528">
        <ele>877.4</ele>
        <time>2023-05-18T12:32:47Z</time>
      </trkpt>
      <trkpt lat="47.85883" lon="7.1528">
        <ele>877.1</ele>
        <time>2023-05-18T12:32:51Z</time>
      </trkpt>
      <trkpt lat="47.85872" lon="7.15268">
        <ele>878.5</ele>
        <time>2023-05-18T12:33:02Z</time>
      </trkpt>
      <trkpt lat="47.85862" lon="7.15251">
        <ele>880.9</ele>
        <time>2023-05-18T12:33:14Z</time>
      </trkpt>
      <trkpt lat="47.85856" lon="7.15229">
        <ele>883.5</ele>
        <time>2023-05-18T12:33:29Z</time>
      </trkpt>
      <trkpt lat="47.85855" lon="7.15219">
        <ele>884.8</ele>
        <time>2023-05-18T12:33:36Z</time>
      </trkpt>
      <trkpt lat="47.8585" lon="7.15208">
        <ele>885.8</ele>
        <time>2023-05-18T12:33:45Z</time>
      </trkpt>
      <trkpt lat="47.85851" lon="7.15201">
        <ele>887</ele>
        <time>2023-05-18T12:33:50Z</time>
      </trkpt>
      <trkpt lat="47.8584" lon="7.1517">
        <ele>890.5</ele>
        <time>2023-05-18T12:34:16Z</time>
      </trkpt>
      <trkpt lat="47.8584" lon="7.15158">
        <ele>892</ele>
        <time>2023-05-18T12:34:24Z</time>
      </trkpt>
      <trkpt lat="47.85837" lon="7.15153">
        <ele>892.1</ele>
        <time>2023-05-18T12:34:28Z</time>
      </trkpt>
      <trkpt lat="47.85834" lon="7.15128">
        <ele>893.9</ele>
        <time>2023-05-18T12:34:45Z</time>
      </trkpt>
      <trkpt lat="47.85833" lon="7.15119">
        <ele>894.4</ele>
        <time>2023-05-18T12:34:52Z</time>
      </trkpt>
      <trkpt lat="47.85829" lon="7.15112">
        <ele>894.2</ele>
        <time>2023-05-18T12:34:59Z</time>
      </trkpt>
      <trkpt lat="47.85828" lon="7.15105">
        <ele>894.7</ele>
        <time>2023-05-18T12:35:03Z</time>
      </trkpt>
      <trkpt lat="47.85825" lon="7.15081">
        <ele>896.3</ele>
        <time>2023-05-18T12:35:17Z</time>
      </trkpt>
      <trkpt lat="47.85826" lon="7.15068">
        <ele>897.4</ele>
        <time>2023-05-18T12:35:26Z</time>
      </trkpt>
      <trkpt lat="47.85828" lon="7.15053">
        <ele>898.8</ele>
        <time>2023-05-18T12:35:36Z</time>
      </trkpt>
      <trkpt lat="47.8583" lon="7.15045">
        <ele>899.9</ele>
        <time>2023-05-18T12:35:39Z</time>
      </trkpt>
      <trkpt lat="47.85828" lon="7.15037">
        <ele>900</ele>
        <time>2023-05-18T12:35:43Z</time>
      </trkpt>
      <trkpt lat="47.85828" lon="7.15029">
        <ele>900.6</ele>
        <time>2023-05-18T12:35:48Z</time>
      </trkpt>
      <trkpt lat="47.85825" lon="7.15021">
        <ele>900.5</ele>
        <time>2023-05-18T12:35:57Z</time>
      </trkpt>
      <trkpt lat="47.85824" lon="7.15014">
        <ele>900.8</ele>
        <time>2023-05-18T12:36:02Z</time>
      </trkpt>
      <trkpt lat="47.8582" lon="7.1501">
        <ele>900.2</ele>
        <time>2023-05-18T12:36:07Z</time>
      </trkpt>
      <trkpt lat="47.85817" lon="7.15004">
        <ele>900.1</ele>
        <time>2023-05-18T12:36:12Z</time>
      </trkpt>
      <trkpt lat="47.85807" lon="7.14966">
        <ele>900.5</ele>
        <time>2023-05-18T12:36:33Z</time>
      </trkpt>
      <trkpt lat="47.85805" lon="7.14955">
        <ele>900.4</ele>
        <time>2023-05-18T12:36:42Z</time>
      </trkpt>
      <trkpt lat="47.85802" lon="7.14936">
        <ele>900.4</ele>
        <time>2023-05-18T12:36:54Z</time>
      </trkpt>
      <trkpt lat="47.85799" lon="7.14929">
        <ele>900.2</ele>
        <time>2023-05-18T12:36:58Z</time>
      </trkpt>
      <trkpt lat="47.85795" lon="7.14916">
        <ele>900.5</ele>
        <time>2023-05-18T12:37:06Z</time>
      </trkpt>
      <trkpt lat="47.85787" lon="7.14897">
        <ele>900.7</ele>
        <time>2023-05-18T12:37:18Z</time>
      </trkpt>
      <trkpt lat="47.85786" lon="7.14888">
        <ele>901.2</ele>
        <time>2023-05-18T12:37:24Z</time>
      </trkpt>
      <trkpt lat="47.85783" lon="7.14882">
        <ele>901</ele>
        <time>2023-05-18T12:37:28Z</time>
      </trkpt>
      <trkpt lat="47.85782" lon="7.14875">
        <ele>901</ele>
        <time>2023-05-18T12:37:32Z</time>
      </trkpt>
      <trkpt lat="47.85778" lon="7.14871">
        <ele>900.7</ele>
        <time>2023-05-18T12:37:58Z</time>
      </trkpt>
      <trkpt lat="47.85773" lon="7.14873">
        <ele>899.6</ele>
        <time>2023-05-18T12:38:10Z</time>
      </trkpt>
      <trkpt lat="47.85769" lon="7.1487">
        <ele>899</ele>
        <time>2023-05-18T12:39:37Z</time>
      </trkpt>
      <trkpt lat="47.85772" lon="7.14865">
        <ele>899.8</ele>
        <time>2023-05-18T12:39:44Z</time>
      </trkpt>
      <trkpt lat="47.85771" lon="7.14859">
        <ele>899.8</ele>
        <time>2023-05-18T12:39:49Z</time>
      </trkpt>
      <trkpt lat="47.85768" lon="7.14852">
        <ele>899.5</ele>
        <time>2023-05-18T12:40:02Z</time>
      </trkpt>
      <trkpt lat="47.85767" lon="7.14851">
        <ele>899.3</ele>
      </trkpt>
      <trkpt lat="47.85766" lon="7.14842">
        <ele>899.5</ele>
      </trkpt>
      <trkpt lat="47.85801" lon="7.14873">
        <ele>903.4</ele>
      </trkpt>
      <trkpt lat="47.85825" lon="7.14878">
        <ele>905.8</ele>
      </trkpt>
      <trkpt lat="47.85852" lon="7.14866">
        <ele>906.1</ele>
      </trkpt>
      <trkpt lat="47.85862" lon="7.14855">
        <ele>905.7</ele>
      </trkpt>
      <trkpt lat="47.85877" lon="7.14826">
        <ele>904.7</ele>
      </trkpt>
      <trkpt lat="47.85886" lon="7.14792">
        <ele>904.9</ele>
      </trkpt>
      <trkpt lat="47.85892" lon="7.14751">
        <ele>903.3</ele>
      </trkpt>
      <trkpt lat="47.85895" lon="7.14726">
        <ele>901.5</ele>
      </trkpt>
      <trkpt lat="47.85899" lon="7.14726">
        <ele>899.2</ele>
      </trkpt>
      <trkpt lat="47.85901" lon="7.14732">
        <ele>898.2</ele>
      </trkpt>
      <trkpt lat="47.85903" lon="7.1472">
        <ele>896.9</ele>
      </trkpt>
      <trkpt lat="47.85908" lon="7.14675">
        <ele>895.2</ele>
      </trkpt>
      <trkpt lat="47.85917" lon="7.14632">
        <ele>896.3</ele>
      </trkpt>
      <trkpt lat="47.85921" lon="7.14618">
        <ele>897</ele>
      </trkpt>
      <trkpt lat="47.8595" lon="7.1457">
        <ele>891.4</ele>
      </trkpt>
      <trkpt lat="47.85969" lon="7.14518">
        <ele>888.5</ele>
      </trkpt>
      <trkpt lat="47.85989" lon="7.14481">
        <ele>883.2</ele>
      </trkpt>
      <trkpt lat="47.86001" lon="7.14442">
        <ele>879.4</ele>
      </trkpt>
      <trkpt lat="47.86007" lon="7.14416">
        <ele>876.2</ele>
      </trkpt>
      <trkpt lat="47.86014" lon="7.14373">
        <ele>869.5</ele>
      </trkpt>
      <trkpt lat="47.86015" lon="7.14352">
        <ele>866.4</ele>
      </trkpt>
      <trkpt lat="47.86013" lon="7.14279">
        <ele>858.2</ele>
      </trkpt>
      <trkpt lat="47.86013" lon="7.14194">
        <ele>848</ele>
      </trkpt>
      <trkpt lat="47.86015" lon="7.14126">
        <ele>844.5</ele>
      </trkpt>
      <trkpt lat="47.86006" lon="7.1407">
        <ele>843.5</ele>
      </trkpt>
      <trkpt lat="47.86004" lon="7.14042">
        <ele>843.8</ele>
      </trkpt>
      <trkpt lat="47.85999" lon="7.14013">
        <ele>844.4</ele>
      </trkpt>
      <trkpt lat="47.86" lon="7.13985">
        <ele>843</ele>
      </trkpt>
      <trkpt lat="47.86005" lon="7.13962">
        <ele>843.2</ele>
      </trkpt>
      <trkpt lat="47.86011" lon="7.13948">
        <ele>844</ele>
      </trkpt>
      <trkpt lat="47.86017" lon="7.13937">
        <ele>843.8</ele>
      </trkpt>
      <trkpt lat="47.86026" lon="7.13928">
        <ele>841.1</ele>
      </trkpt>
      <trkpt lat="47.8604" lon="7.13917">
        <ele>838.9</ele>
      </trkpt>
      <trkpt lat="47.86054" lon="7.13909">
        <ele>837.8</ele>
      </trkpt>
      <trkpt lat="47.86059" lon="7.1391">
        <ele>838.1</ele>
      </trkpt>
      <trkpt lat="47.8607" lon="7.13916">
        <ele>839.9</ele>
      </trkpt>
      <trkpt lat="47.86074" lon="7.13919">
        <ele>840.2</ele>
      </trkpt>
      <trkpt lat="47.86084" lon="7.1392">
        <ele>842.9</ele>
      </trkpt>
      <trkpt lat="47.86093" lon="7.13908">
        <ele>842.9</ele>
      </trkpt>
      <trkpt lat="47.86101" lon="7.13894">
        <ele>842.6</ele>
      </trkpt>
      <trkpt lat="47.86103" lon="7.13852">
        <ele>845.2</ele>
      </trkpt>
      <trkpt lat="47.86096" lon="7.13807">
        <ele>851.1</ele>
      </trkpt>
      <trkpt lat="47.86089" lon="7.13778">
        <ele>854.9</ele>
      </trkpt>
      <trkpt lat="47.8608" lon="7.13758">
        <ele>854.5</ele>
      </trkpt>
      <trkpt lat="47.86042" lon="7.13717">
        <ele>859.3</ele>
      </trkpt>
      <trkpt lat="47.86035" lon="7.13707">
        <ele>861</ele>
      </trkpt>
      <trkpt lat="47.86028" lon="7.13693">
        <ele>861.8</ele>
      </trkpt>
      <trkpt lat="47.86023" lon="7.13623">
        <ele>862</ele>
      </trkpt>
      <trkpt lat="47.86014" lon="7.13582">
        <ele>867.4</ele>
      </trkpt>
      <trkpt lat="47.8602" lon="7.13543">
        <ele>864.5</ele>
      </trkpt>
      <trkpt lat="47.86024" lon="7.13501">
        <ele>863.3</ele>
      </trkpt>
      <trkpt lat="47.86039" lon="7.13454">
        <ele>862.7</ele>
      </trkpt>
      <trkpt lat="47.86049" lon="7.13413">
        <ele>863</ele>
      </trkpt>
      <trkpt lat="47.86063" lon="7.13376">
        <ele>862.4</ele>
      </trkpt>
      <trkpt lat="47.86075" lon="7.13331">
        <ele>865.3</ele>
      </trkpt>
      <trkpt lat="47.86084" lon="7.13304">
        <ele>866.4</ele>
      </trkpt>
      <trkpt lat="47.86087" lon="7.13301">
        <ele>867.1</ele>
      </trkpt>
      <trkpt lat="47.8609" lon="7.13301">
        <ele>866.9</ele>
      </trkpt>
      <trkpt lat="47.86149" lon="7.1331">
        <ele>863.7</ele>
      </trkpt>
      <trkpt lat="47.86167" lon="7.13308">
        <ele>865.8</ele>
      </trkpt>
      <trkpt lat="47.86168" lon="7.13308">
        <ele>865.8</ele>
        <time>2023-05-18T13:14:53Z</time>
      </trkpt>
      <trkpt lat="47.86174" lon="7.13309">
        <ele>865.3</ele>
        <time>2023-05-18T13:14:59Z</time>
      </trkpt>
      <trkpt lat="47.86197" lon="7.13311">
        <ele>864.7</ele>
        <time>2023-05-18T13:15:15Z</time>
      </trkpt>
      <trkpt lat="47.86201" lon="7.13307">
        <ele>866.8</ele>
        <time>2023-05-18T13:15:29Z</time>
      </trkpt>
      <trkpt lat="47.86208" lon="7.13305">
        <ele>868.3</ele>
        <time>2023-05-18T13:15:33Z</time>
      </trkpt>
      <trkpt lat="47.86212" lon="7.13307">
        <ele>867.6</ele>
        <time>2023-05-18T13:15:36Z</time>
      </trkpt>
      <trkpt lat="47.86218" lon="7.13311">
        <ele>866.3</ele>
        <time>2023-05-18T13:15:45Z</time>
      </trkpt>
      <trkpt lat="47.86233" lon="7.13315">
        <ele>867.9</ele>
        <time>2023-05-18T13:16:03Z</time>
      </trkpt>
      <trkpt lat="47.86241" lon="7.13324">
        <ele>866</ele>
        <time>2023-05-18T13:16:11Z</time>
      </trkpt>
      <trkpt lat="47.86247" lon="7.13328">
        <ele>865.7</ele>
        <time>2023-05-18T13:16:17Z</time>
      </trkpt>
      <trkpt lat="47.86251" lon="7.13332">
        <ele>864.9</ele>
        <time>2023-05-18T13:16:22Z</time>
      </trkpt>
      <trkpt lat="47.86274" lon="7.13344">
        <ele>865.5</ele>
        <time>2023-05-18T13:16:43Z</time>
      </trkpt>
      <trkpt lat="47.86279" lon="7.13345">
        <ele>866.2</ele>
        <time>2023-05-18T13:16:48Z</time>
      </trkpt>
      <trkpt lat="47.86285" lon="7.13344">
        <ele>867.3</ele>
        <time>2023-05-18T13:16:58Z</time>
      </trkpt>
      <trkpt lat="47.86294" lon="7.13347">
        <ele>866.6</ele>
        <time>2023-05-18T13:17:10Z</time>
      </trkpt>
      <trkpt lat="47.86299" lon="7.13348">
        <ele>866.5</ele>
        <time>2023-05-18T13:17:15Z</time>
      </trkpt>
      <trkpt lat="47.86304" lon="7.13345">
        <ele>868.6</ele>
        <time>2023-05-18T13:17:20Z</time>
      </trkpt>
      <trkpt lat="47.86315" lon="7.1334">
        <ele>867.8</ele>
        <time>2023-05-18T13:17:29Z</time>
      </trkpt>
      <trkpt lat="47.86322" lon="7.13333">
        <ele>868</ele>
        <time>2023-05-18T13:17:35Z</time>
      </trkpt>
      <trkpt lat="47.86327" lon="7.13331">
        <ele>866.6</ele>
        <time>2023-05-18T13:17:40Z</time>
      </trkpt>
      <trkpt lat="47.8633" lon="7.13327">
        <ele>866.9</ele>
        <time>2023-05-18T13:17:45Z</time>
      </trkpt>
      <trkpt lat="47.86336" lon="7.13315">
        <ele>868.7</ele>
        <time>2023-05-18T13:17:54Z</time>
      </trkpt>
      <trkpt lat="47.8634" lon="7.1331">
        <ele>868.2</ele>
        <time>2023-05-18T13:17:57Z</time>
      </trkpt>
      <trkpt lat="47.86344" lon="7.13302">
        <ele>868.9</ele>
        <time>2023-05-18T13:18:04Z</time>
      </trkpt>
      <trkpt lat="47.86355" lon="7.13294">
        <ele>865.5</ele>
        <time>2023-05-18T13:18:13Z</time>
      </trkpt>
      <trkpt lat="47.86354" lon="7.13286">
        <ele>869.4</ele>
        <time>2023-05-18T13:18:16Z</time>
      </trkpt>
      <trkpt lat="47.86357" lon="7.13282">
        <ele>869.4</ele>
        <time>2023-05-18T13:18:20Z</time>
      </trkpt>
      <trkpt lat="47.86366" lon="7.13279">
        <ele>867.8</ele>
        <time>2023-05-18T13:18:26Z</time>
      </trkpt>
      <trkpt lat="47.86371" lon="7.13275">
        <ele>868.7</ele>
        <time>2023-05-18T13:18:31Z</time>
      </trkpt>
      <trkpt lat="47.86392" lon="7.13276">
        <ele>864.7</ele>
        <time>2023-05-18T13:18:46Z</time>
      </trkpt>
      <trkpt lat="47.86397" lon="7.13273">
        <ele>864.2</ele>
        <time>2023-05-18T13:18:53Z</time>
      </trkpt>
      <trkpt lat="47.86402" lon="7.13265">
        <ele>864.9</ele>
        <time>2023-05-18T13:19:02Z</time>
      </trkpt>
      <trkpt lat="47.86405" lon="7.13251">
        <ele>867.5</ele>
        <time>2023-05-18T13:19:11Z</time>
      </trkpt>
      <trkpt lat="47.86405" lon="7.13243">
        <ele>869</ele>
        <time>2023-05-18T13:19:15Z</time>
      </trkpt>
      <trkpt lat="47.86408" lon="7.13235">
        <ele>869.3</ele>
        <time>2023-05-18T13:19:19Z</time>
      </trkpt>
      <trkpt lat="47.86415" lon="7.13222">
        <ele>868.7</ele>
        <time>2023-05-18T13:19:30Z</time>
      </trkpt>
      <trkpt lat="47.86418" lon="7.13215">
        <ele>868.4</ele>
        <time>2023-05-18T13:19:34Z</time>
      </trkpt>
      <trkpt lat="47.86419" lon="7.13207">
        <ele>869.1</ele>
        <time>2023-05-18T13:19:39Z</time>
      </trkpt>
      <trkpt lat="47.8642" lon="7.13199">
        <ele>869.7</ele>
        <time>2023-05-18T13:19:43Z</time>
      </trkpt>
      <trkpt lat="47.86425" lon="7.13192">
        <ele>868.1</ele>
        <time>2023-05-18T13:19:50Z</time>
      </trkpt>
      <trkpt lat="47.86427" lon="7.13183">
        <ele>868</ele>
        <time>2023-05-18T13:19:59Z</time>
      </trkpt>
      <trkpt lat="47.86429" lon="7.13178">
        <ele>867.6</ele>
        <time>2023-05-18T13:20:02Z</time>
      </trkpt>
      <trkpt lat="47.86428" lon="7.13171">
        <ele>868.8</ele>
        <time>2023-05-18T13:20:06Z</time>
      </trkpt>
      <trkpt lat="47.8643" lon="7.13165">
        <ele>868.4</ele>
        <time>2023-05-18T13:20:10Z</time>
      </trkpt>
      <trkpt lat="47.86435" lon="7.13144">
        <ele>867.7</ele>
        <time>2023-05-18T13:20:21Z</time>
      </trkpt>
      <trkpt lat="47.86438" lon="7.13129">
        <ele>867.8</ele>
        <time>2023-05-18T13:20:28Z</time>
      </trkpt>
      <trkpt lat="47.86442" lon="7.13124">
        <ele>866.6</ele>
        <time>2023-05-18T13:20:30Z</time>
      </trkpt>
      <trkpt lat="47.86444" lon="7.13118">
        <ele>866.4</ele>
        <time>2023-05-18T13:20:33Z</time>
      </trkpt>
      <trkpt lat="47.86441" lon="7.13111">
        <ele>868.4</ele>
        <time>2023-05-18T13:20:37Z</time>
      </trkpt>
      <trkpt lat="47.86436" lon="7.13096">
        <ele>870.1</ele>
        <time>2023-05-18T13:20:47Z</time>
      </trkpt>
      <trkpt lat="47.86437" lon="7.13086">
        <ele>869.5</ele>
        <time>2023-05-18T13:20:55Z</time>
      </trkpt>
      <trkpt lat="47.86435" lon="7.13077">
        <ele>870.6</ele>
        <time>2023-05-18T13:21:07Z</time>
      </trkpt>
      <trkpt lat="47.86426" lon="7.13073">
        <ele>875</ele>
        <time>2023-05-18T13:21:15Z</time>
      </trkpt>
      <trkpt lat="47.86425" lon="7.13065">
        <ele>875.8</ele>
        <time>2023-05-18T13:21:19Z</time>
      </trkpt>
      <trkpt lat="47.86428" lon="7.1306">
        <ele>874.5</ele>
        <time>2023-05-18T13:21:21Z</time>
      </trkpt>
      <trkpt lat="47.86432" lon="7.13055">
        <ele>872.9</ele>
        <time>2023-05-18T13:21:23Z</time>
      </trkpt>
      <trkpt lat="47.86437" lon="7.13053">
        <ele>870.9</ele>
        <time>2023-05-18T13:21:25Z</time>
      </trkpt>
      <trkpt lat="47.86446" lon="7.13048">
        <ele>867.4</ele>
        <time>2023-05-18T13:21:33Z</time>
      </trkpt>
      <trkpt lat="47.86448" lon="7.13041">
        <ele>867.6</ele>
        <time>2023-05-18T13:21:38Z</time>
      </trkpt>
      <trkpt lat="47.8645" lon="7.1302">
        <ele>870.3</ele>
        <time>2023-05-18T13:21:50Z</time>
      </trkpt>
      <trkpt lat="47.8646" lon="7.13009">
        <ele>868.6</ele>
        <time>2023-05-18T13:21:56Z</time>
      </trkpt>
      <trkpt lat="47.86464" lon="7.13006">
        <ele>867.7</ele>
        <time>2023-05-18T13:21:59Z</time>
      </trkpt>
      <trkpt lat="47.86468" lon="7.13">
        <ele>867.5</ele>
        <time>2023-05-18T13:22:04Z</time>
      </trkpt>
      <trkpt lat="47.86474" lon="7.13003">
        <ele>864.9</ele>
        <time>2023-05-18T13:22:06Z</time>
      </trkpt>
      <trkpt lat="47.86478" lon="7.13004">
        <ele>863.6</ele>
        <time>2023-05-18T13:22:09Z</time>
      </trkpt>
      <trkpt lat="47.86485" lon="7.12999">
        <ele>863</ele>
        <time>2023-05-18T13:22:20Z</time>
      </trkpt>
      <trkpt lat="47.86488" lon="7.12992">
        <ele>864</ele>
        <time>2023-05-18T13:22:24Z</time>
      </trkpt>
      <trkpt lat="47.86487" lon="7.12984">
        <ele>866.3</ele>
        <time>2023-05-18T13:22:29Z</time>
      </trkpt>
      <trkpt lat="47.86493" lon="7.12983">
        <ele>865</ele>
        <time>2023-05-18T13:22:36Z</time>
      </trkpt>
      <trkpt lat="47.86498" lon="7.12982">
        <ele>864</ele>
        <time>2023-05-18T13:22:44Z</time>
      </trkpt>
      <trkpt lat="47.86498" lon="7.12974">
        <ele>866.1</ele>
        <time>2023-05-18T13:22:49Z</time>
      </trkpt>
      <trkpt lat="47.86497" lon="7.1296">
        <ele>869</ele>
        <time>2023-05-18T13:22:59Z</time>
      </trkpt>
      <trkpt lat="47.8651" lon="7.12948">
        <ele>867.1</ele>
        <time>2023-05-18T13:23:13Z</time>
      </trkpt>
      <trkpt lat="47.86513" lon="7.12946">
        <ele>866.5</ele>
        <time>2023-05-18T13:23:18Z</time>
      </trkpt>
      <trkpt lat="47.86519" lon="7.12947">
        <ele>864.4</ele>
        <time>2023-05-18T13:23:23Z</time>
      </trkpt>
      <trkpt lat="47.86521" lon="7.12935">
        <ele>865</ele>
        <time>2023-05-18T13:23:37Z</time>
      </trkpt>
      <trkpt lat="47.86526" lon="7.12929">
        <ele>863.7</ele>
        <time>2023-05-18T13:23:42Z</time>
      </trkpt>
      <trkpt lat="47.86525" lon="7.12921">
        <ele>864.7</ele>
        <time>2023-05-18T13:23:46Z</time>
      </trkpt>
      <trkpt lat="47.86523" lon="7.12915">
        <ele>865.5</ele>
        <time>2023-05-18T13:23:49Z</time>
      </trkpt>
      <trkpt lat="47.86522" lon="7.12908">
        <ele>865.1</ele>
        <time>2023-05-18T13:23:52Z</time>
      </trkpt>
      <trkpt lat="47.86518" lon="7.12902">
        <ele>865.9</ele>
        <time>2023-05-18T13:23:56Z</time>
      </trkpt>
      <trkpt lat="47.86517" lon="7.12895">
        <ele>865.5</ele>
        <time>2023-05-18T13:23:59Z</time>
      </trkpt>
      <trkpt lat="47.86513" lon="7.12889">
        <ele>866.3</ele>
        <time>2023-05-18T13:24:05Z</time>
      </trkpt>
      <trkpt lat="47.86508" lon="7.12886">
        <ele>867.8</ele>
        <time>2023-05-18T13:24:10Z</time>
      </trkpt>
      <trkpt lat="47.86507" lon="7.12879">
        <ele>867.5</ele>
        <time>2023-05-18T13:24:12Z</time>
      </trkpt>
      <trkpt lat="47.86505" lon="7.12873">
        <ele>867.9</ele>
        <time>2023-05-18T13:24:33Z</time>
      </trkpt>
      <trkpt lat="47.86502" lon="7.12878">
        <ele>869.7</ele>
        <time>2023-05-18T13:25:02Z</time>
      </trkpt>
      <trkpt lat="47.86496" lon="7.12861">
        <ele>872.3</ele>
        <time>2023-05-18T13:25:18Z</time>
      </trkpt>
      <trkpt lat="47.86499" lon="7.12858">
        <ele>870.6</ele>
        <time>2023-05-18T13:25:22Z</time>
      </trkpt>
      <trkpt lat="47.86502" lon="7.12852">
        <ele>868.7</ele>
        <time>2023-05-18T13:25:26Z</time>
      </trkpt>
      <trkpt lat="47.86504" lon="7.12845">
        <ele>867.4</ele>
        <time>2023-05-18T13:25:31Z</time>
      </trkpt>
      <trkpt lat="47.86503" lon="7.12836">
        <ele>868</ele>
        <time>2023-05-18T13:25:36Z</time>
      </trkpt>
      <trkpt lat="47.86503" lon="7.12822">
        <ele>866.4</ele>
        <time>2023-05-18T13:25:44Z</time>
      </trkpt>
      <trkpt lat="47.865" lon="7.12816">
        <ele>867.5</ele>
        <time>2023-05-18T13:25:48Z</time>
      </trkpt>
      <trkpt lat="47.865" lon="7.12805">
        <ele>866.1</ele>
        <time>2023-05-18T13:25:54Z</time>
      </trkpt>
      <trkpt lat="47.86502" lon="7.12796">
        <ele>866.1</ele>
        <time>2023-05-18T13:25:58Z</time>
      </trkpt>
      <trkpt lat="47.86501" lon="7.12787">
        <ele>867.6</ele>
        <time>2023-05-18T13:26:02Z</time>
      </trkpt>
      <trkpt lat="47.86504" lon="7.12779">
        <ele>867.8</ele>
        <time>2023-05-18T13:26:07Z</time>
      </trkpt>
      <trkpt lat="47.86507" lon="7.12774">
        <ele>868.6</ele>
        <time>2023-05-18T13:26:11Z</time>
      </trkpt>
      <trkpt lat="47.86512" lon="7.12776">
        <ele>866.6</ele>
        <time>2023-05-18T13:26:14Z</time>
      </trkpt>
      <trkpt lat="47.86517" lon="7.12774">
        <ele>866.2</ele>
        <time>2023-05-18T13:26:17Z</time>
      </trkpt>
      <trkpt lat="47.86527" lon="7.12775">
        <ele>863.3</ele>
        <time>2023-05-18T13:26:22Z</time>
      </trkpt>
      <trkpt lat="47.86516" lon="7.12789">
        <ele>861.7</ele>
        <time>2023-05-18T13:26:42Z</time>
      </trkpt>
      <trkpt lat="47.86526" lon="7.12786">
        <ele>859.1</ele>
        <time>2023-05-18T13:26:46Z</time>
      </trkpt>
      <trkpt lat="47.8653" lon="7.12782">
        <ele>859.2</ele>
        <time>2023-05-18T13:26:48Z</time>
      </trkpt>
      <trkpt lat="47.86532" lon="7.12776">
        <ele>860.9</ele>
        <time>2023-05-18T13:26:51Z</time>
      </trkpt>
      <trkpt lat="47.86536" lon="7.12771">
        <ele>861.6</ele>
        <time>2023-05-18T13:26:55Z</time>
      </trkpt>
      <trkpt lat="47.86541" lon="7.12764">
        <ele>863.2</ele>
        <time>2023-05-18T13:27:01Z</time>
      </trkpt>
      <trkpt lat="47.86551" lon="7.12754">
        <ele>865.7</ele>
        <time>2023-05-18T13:27:11Z</time>
      </trkpt>
      <trkpt lat="47.86563" lon="7.12753">
        <ele>862.2</ele>
        <time>2023-05-18T13:27:15Z</time>
      </trkpt>
      <trkpt lat="47.86566" lon="7.12748">
        <ele>864.2</ele>
        <time>2023-05-18T13:27:25Z</time>
      </trkpt>
      <trkpt lat="47.86575" lon="7.12746">
        <ele>862.1</ele>
        <time>2023-05-18T13:27:43Z</time>
      </trkpt>
      <trkpt lat="47.86584" lon="7.12742">
        <ele>861.7</ele>
        <time>2023-05-18T13:27:53Z</time>
      </trkpt>
      <trkpt lat="47.86588" lon="7.12741">
        <ele>860.6</ele>
        <time>2023-05-18T13:27:59Z</time>
      </trkpt>
      <trkpt lat="47.86598" lon="7.12735">
        <ele>859.8</ele>
        <time>2023-05-18T13:28:07Z</time>
      </trkpt>
      <trkpt lat="47.866" lon="7.12726">
        <ele>864.4</ele>
        <time>2023-05-18T13:28:20Z</time>
      </trkpt>
      <trkpt lat="47.86604" lon="7.12719">
        <ele>865.6</ele>
        <time>2023-05-18T13:28:25Z</time>
      </trkpt>
      <trkpt lat="47.86612" lon="7.12712">
        <ele>862.8</ele>
        <time>2023-05-18T13:28:30Z</time>
      </trkpt>
      <trkpt lat="47.86614" lon="7.12706">
        <ele>863.4</ele>
        <time>2023-05-18T13:28:34Z</time>
      </trkpt>
      <trkpt lat="47.86614" lon="7.12699">
        <ele>865.6</ele>
        <time>2023-05-18T13:28:39Z</time>
      </trkpt>
      <trkpt lat="47.86615" lon="7.1269">
        <ele>866.7</ele>
        <time>2023-05-18T13:28:42Z</time>
      </trkpt>
      <trkpt lat="47.86618" lon="7.12686">
        <ele>865.2</ele>
        <time>2023-05-18T13:28:47Z</time>
      </trkpt>
      <trkpt lat="47.86619" lon="7.12668">
        <ele>866.6</ele>
        <time>2023-05-18T13:28:56Z</time>
      </trkpt>
      <trkpt lat="47.86623" lon="7.1265">
        <ele>866</ele>
        <time>2023-05-18T13:29:05Z</time>
      </trkpt>
      <trkpt lat="47.86626" lon="7.12645">
        <ele>864.9</ele>
        <time>2023-05-18T13:29:07Z</time>
      </trkpt>
      <trkpt lat="47.86629" lon="7.1264">
        <ele>863.9</ele>
        <time>2023-05-18T13:29:11Z</time>
      </trkpt>
      <trkpt lat="47.86629" lon="7.12632">
        <ele>865.2</ele>
        <time>2023-05-18T13:29:14Z</time>
      </trkpt>
      <trkpt lat="47.86631" lon="7.12626">
        <ele>865.3</ele>
        <time>2023-05-18T13:29:21Z</time>
      </trkpt>
      <trkpt lat="47.86636" lon="7.12622">
        <ele>863.5</ele>
        <time>2023-05-18T13:29:24Z</time>
      </trkpt>
      <trkpt lat="47.8664" lon="7.12612">
        <ele>863.4</ele>
        <time>2023-05-18T13:29:33Z</time>
      </trkpt>
      <trkpt lat="47.86642" lon="7.12603">
        <ele>864.1</ele>
        <time>2023-05-18T13:29:38Z</time>
      </trkpt>
      <trkpt lat="47.86646" lon="7.12599">
        <ele>863.1</ele>
        <time>2023-05-18T13:29:41Z</time>
      </trkpt>
      <trkpt lat="47.86657" lon="7.1258">
        <ele>862</ele>
        <time>2023-05-18T13:29:52Z</time>
      </trkpt>
      <trkpt lat="47.86661" lon="7.12565">
        <ele>863.7</ele>
        <time>2023-05-18T13:29:59Z</time>
      </trkpt>
      <trkpt lat="47.86665" lon="7.12554">
        <ele>864.2</ele>
        <time>2023-05-18T13:30:08Z</time>
      </trkpt>
      <trkpt lat="47.86666" lon="7.12547">
        <ele>865.5</ele>
        <time>2023-05-18T13:30:13Z</time>
      </trkpt>
      <trkpt lat="47.8667" lon="7.12543">
        <ele>865.1</ele>
        <time>2023-05-18T13:30:17Z</time>
      </trkpt>
      <trkpt lat="47.86674" lon="7.12538">
        <ele>865</ele>
        <time>2023-05-18T13:30:21Z</time>
      </trkpt>
      <trkpt lat="47.86685" lon="7.1252">
        <ele>864.7</ele>
        <time>2023-05-18T13:30:32Z</time>
      </trkpt>
      <trkpt lat="47.8669" lon="7.12507">
        <ele>864.8</ele>
        <time>2023-05-18T13:30:41Z</time>
      </trkpt>
      <trkpt lat="47.86694" lon="7.12501">
        <ele>864</ele>
        <time>2023-05-18T13:30:45Z</time>
      </trkpt>
      <trkpt lat="47.86696" lon="7.12494">
        <ele>864.2</ele>
        <time>2023-05-18T13:30:49Z</time>
      </trkpt>
      <trkpt lat="47.867" lon="7.12487">
        <ele>863.8</ele>
        <time>2023-05-18T13:30:53Z</time>
      </trkpt>
      <trkpt lat="47.86707" lon="7.12478">
        <ele>862.8</ele>
        <time>2023-05-18T13:31:00Z</time>
      </trkpt>
      <trkpt lat="47.86713" lon="7.1245">
        <ele>864.9</ele>
        <time>2023-05-18T13:31:16Z</time>
      </trkpt>
      <trkpt lat="47.8672" lon="7.12445">
        <ele>864.3</ele>
        <time>2023-05-18T13:31:23Z</time>
      </trkpt>
      <trkpt lat="47.86725" lon="7.12448">
        <ele>862.8</ele>
        <time>2023-05-18T13:31:28Z</time>
      </trkpt>
      <trkpt lat="47.8673" lon="7.12447">
        <ele>862.1</ele>
        <time>2023-05-18T13:31:31Z</time>
      </trkpt>
      <trkpt lat="47.86736" lon="7.12443">
        <ele>861.8</ele>
        <time>2023-05-18T13:31:34Z</time>
      </trkpt>
      <trkpt lat="47.86739" lon="7.12439">
        <ele>862.2</ele>
        <time>2023-05-18T13:31:40Z</time>
      </trkpt>
      <trkpt lat="47.86748" lon="7.1243">
        <ele>862.5</ele>
        <time>2023-05-18T13:31:49Z</time>
      </trkpt>
      <trkpt lat="47.86759" lon="7.12425">
        <ele>860.6</ele>
        <time>2023-05-18T13:31:56Z</time>
      </trkpt>
      <trkpt lat="47.86765" lon="7.12415">
        <ele>860.3</ele>
        <time>2023-05-18T13:32:04Z</time>
      </trkpt>
      <trkpt lat="47.86768" lon="7.12402">
        <ele>860.9</ele>
        <time>2023-05-18T13:32:12Z</time>
      </trkpt>
      <trkpt lat="47.86771" lon="7.12396">
        <ele>860.8</ele>
        <time>2023-05-18T13:32:16Z</time>
      </trkpt>
      <trkpt lat="47.86774" lon="7.12391">
        <ele>860.7</ele>
        <time>2023-05-18T13:32:20Z</time>
      </trkpt>
      <trkpt lat="47.86778" lon="7.12382">
        <ele>860.9</ele>
        <time>2023-05-18T13:32:26Z</time>
      </trkpt>
      <trkpt lat="47.86781" lon="7.12377">
        <ele>861</ele>
        <time>2023-05-18T13:32:31Z</time>
      </trkpt>
      <trkpt lat="47.86785" lon="7.12372">
        <ele>860.9</ele>
        <time>2023-05-18T13:32:35Z</time>
      </trkpt>
      <trkpt lat="47.8679" lon="7.1235">
        <ele>862.4</ele>
        <time>2023-05-18T13:32:48Z</time>
      </trkpt>
      <trkpt lat="47.86794" lon="7.12345">
        <ele>861.8</ele>
        <time>2023-05-18T13:32:52Z</time>
      </trkpt>
      <trkpt lat="47.86797" lon="7.12339">
        <ele>861.4</ele>
        <time>2023-05-18T13:32:57Z</time>
      </trkpt>
      <trkpt lat="47.86802" lon="7.12337">
        <ele>860</ele>
        <time>2023-05-18T13:33:02Z</time>
      </trkpt>
      <trkpt lat="47.86804" lon="7.1233">
        <ele>859.6</ele>
        <time>2023-05-18T13:33:06Z</time>
      </trkpt>
      <trkpt lat="47.86809" lon="7.12329">
        <ele>859.2</ele>
        <time>2023-05-18T13:34:07Z</time>
      </trkpt>
      <trkpt lat="47.86826" lon="7.12297">
        <ele>859.8</ele>
        <time>2023-05-18T13:39:25Z</time>
      </trkpt>
      <trkpt lat="47.86827" lon="7.12296">
        <ele>859.7</ele>
        <time>2023-05-18T13:39:26Z</time>
      </trkpt>
      <trkpt lat="47.86833" lon="7.12285">
        <ele>859.3</ele>
        <time>2023-05-18T13:39:36Z</time>
      </trkpt>
      <trkpt lat="47.8684" lon="7.12285">
        <ele>860.6</ele>
        <time>2023-05-18T13:39:43Z</time>
      </trkpt>
      <trkpt lat="47.86851" lon="7.12284">
        <ele>862.7</ele>
        <time>2023-05-18T13:39:56Z</time>
      </trkpt>
      <trkpt lat="47.86879" lon="7.12268">
        <ele>867</ele>
        <time>2023-05-18T13:40:31Z</time>
      </trkpt>
      <trkpt lat="47.86884" lon="7.12266">
        <ele>868</ele>
        <time>2023-05-18T13:40:37Z</time>
      </trkpt>
      <trkpt lat="47.86893" lon="7.12267">
        <ele>870.5</ele>
        <time>2023-05-18T13:40:47Z</time>
      </trkpt>
      <trkpt lat="47.86899" lon="7.12266">
        <ele>871.5</ele>
        <time>2023-05-18T13:40:55Z</time>
      </trkpt>
      <trkpt lat="47.86921" lon="7.12273">
        <ele>877</ele>
        <time>2023-05-18T13:41:21Z</time>
      </trkpt>
      <trkpt lat="47.86926" lon="7.12276">
        <ele>877.9</ele>
        <time>2023-05-18T13:41:27Z</time>
      </trkpt>
      <trkpt lat="47.86939" lon="7.12291">
        <ele>882</ele>
        <time>2023-05-18T13:41:46Z</time>
      </trkpt>
      <trkpt lat="47.86944" lon="7.12295">
        <ele>883.3</ele>
        <time>2023-05-18T13:41:51Z</time>
      </trkpt>
      <trkpt lat="47.86948" lon="7.12301">
        <ele>884.7</ele>
        <time>2023-05-18T13:42:01Z</time>
      </trkpt>
      <trkpt lat="47.86959" lon="7.12311">
        <ele>887</ele>
        <time>2023-05-18T13:42:15Z</time>
      </trkpt>
      <trkpt lat="47.86962" lon="7.12316">
        <ele>888.2</ele>
        <time>2023-05-18T13:42:22Z</time>
      </trkpt>
      <trkpt lat="47.8697" lon="7.12322">
        <ele>889.8</ele>
        <time>2023-05-18T13:42:31Z</time>
      </trkpt>
      <trkpt lat="47.86971" lon="7.12328">
        <ele>891.5</ele>
        <time>2023-05-18T13:42:40Z</time>
      </trkpt>
      <trkpt lat="47.86975" lon="7.12333">
        <ele>892.7</ele>
        <time>2023-05-18T13:42:45Z</time>
      </trkpt>
      <trkpt lat="47.86986" lon="7.1234">
        <ele>893.8</ele>
        <time>2023-05-18T13:42:58Z</time>
      </trkpt>
      <trkpt lat="47.86993" lon="7.12344">
        <ele>894.5</ele>
        <time>2023-05-18T13:43:05Z</time>
      </trkpt>
      <trkpt lat="47.87013" lon="7.12376">
        <ele>899.9</ele>
        <time>2023-05-18T13:43:38Z</time>
      </trkpt>
      <trkpt lat="47.87017" lon="7.12383">
        <ele>900.7</ele>
        <time>2023-05-18T13:43:43Z</time>
      </trkpt>
      <trkpt lat="47.87024" lon="7.12393">
        <ele>901.2</ele>
        <time>2023-05-18T13:43:50Z</time>
      </trkpt>
      <trkpt lat="47.87028" lon="7.12404">
        <ele>901.5</ele>
        <time>2023-05-18T13:43:57Z</time>
      </trkpt>
      <trkpt lat="47.8703" lon="7.12416">
        <ele>901.6</ele>
        <time>2023-05-18T13:44:05Z</time>
      </trkpt>
      <trkpt lat="47.87029" lon="7.12423">
        <ele>903.2</ele>
        <time>2023-05-18T13:44:09Z</time>
      </trkpt>
      <trkpt lat="47.8703" lon="7.12433">
        <ele>904</ele>
        <time>2023-05-18T13:44:16Z</time>
      </trkpt>
      <trkpt lat="47.8703" lon="7.12448">
        <ele>906.5</ele>
        <time>2023-05-18T13:44:26Z</time>
      </trkpt>
      <trkpt lat="47.8703" lon="7.12456">
        <ele>908.2</ele>
        <time>2023-05-18T13:44:34Z</time>
      </trkpt>
      <trkpt lat="47.87017" lon="7.12485">
        <ele>914.6</ele>
        <time>2023-05-18T13:44:55Z</time>
      </trkpt>
      <trkpt lat="47.87017" lon="7.12491">
        <ele>915.2</ele>
        <time>2023-05-18T13:45:03Z</time>
      </trkpt>
      <trkpt lat="47.87017" lon="7.12505">
        <ele>914.4</ele>
        <time>2023-05-18T13:45:12Z</time>
      </trkpt>
      <trkpt lat="47.87022" lon="7.12508">
        <ele>915</ele>
        <time>2023-05-18T13:45:26Z</time>
      </trkpt>
      <trkpt lat="47.87027" lon="7.12507">
        <ele>917</ele>
        <time>2023-05-18T13:45:32Z</time>
      </trkpt>
      <trkpt lat="47.87032" lon="7.12508">
        <ele>915</ele>
        <time>2023-05-18T13:46:24Z</time>
      </trkpt>
      <trkpt lat="47.87031" lon="7.12502">
        <ele>917.5</ele>
        <time>2023-05-18T13:46:40Z</time>
      </trkpt>
      <trkpt lat="47.87034" lon="7.12495">
        <ele>915.1</ele>
        <time>2023-05-18T13:47:06Z</time>
      </trkpt>
      <trkpt lat="47.87038" lon="7.12497">
        <ele>913.3</ele>
        <time>2023-05-18T13:47:23Z</time>
      </trkpt>
      <trkpt lat="47.87042" lon="7.12495">
        <ele>910.5</ele>
        <time>2023-05-18T13:47:47Z</time>
      </trkpt>
      <trkpt lat="47.87017" lon="7.1247">
        <ele>913.2</ele>
        <time>2023-05-18T13:52:51Z</time>
      </trkpt>
      <trkpt lat="47.87021" lon="7.12457">
        <ele>911</ele>
        <time>2023-05-18T13:53:00Z</time>
      </trkpt>
      <trkpt lat="47.87026" lon="7.12456">
        <ele>909.9</ele>
        <time>2023-05-18T13:53:05Z</time>
      </trkpt>
      <trkpt lat="47.87028" lon="7.12464">
        <ele>911.1</ele>
        <time>2023-05-18T13:53:30Z</time>
      </trkpt>
      <trkpt lat="47.87036" lon="7.12461">
        <ele>905.7</ele>
        <time>2023-05-18T13:53:48Z</time>
      </trkpt>
      <trkpt lat="47.87048" lon="7.1248">
        <ele>902.8</ele>
        <time>2023-05-18T13:54:09Z</time>
      </trkpt>
      <trkpt lat="47.87054" lon="7.12497">
        <ele>904</ele>
        <time>2023-05-18T13:54:21Z</time>
      </trkpt>
      <trkpt lat="47.87072" lon="7.12515">
        <ele>893.6</ele>
        <time>2023-05-18T13:54:37Z</time>
      </trkpt>
      <trkpt lat="47.87077" lon="7.12521">
        <ele>890.7</ele>
        <time>2023-05-18T13:54:42Z</time>
      </trkpt>
      <trkpt lat="47.87082" lon="7.12539">
        <ele>888.5</ele>
        <time>2023-05-18T13:54:54Z</time>
      </trkpt>
      <trkpt lat="47.87087" lon="7.12544">
        <ele>886.3</ele>
        <time>2023-05-18T13:54:58Z</time>
      </trkpt>
      <trkpt lat="47.87091" lon="7.12545">
        <ele>884.4</ele>
        <time>2023-05-18T13:55:02Z</time>
      </trkpt>
      <trkpt lat="47.87094" lon="7.1255">
        <ele>883.5</ele>
        <time>2023-05-18T13:55:05Z</time>
      </trkpt>
      <trkpt lat="47.87106" lon="7.12566">
        <ele>880.1</ele>
        <time>2023-05-18T13:55:19Z</time>
      </trkpt>
      <trkpt lat="47.87115" lon="7.12574">
        <ele>878.1</ele>
        <time>2023-05-18T13:55:26Z</time>
      </trkpt>
      <trkpt lat="47.87121" lon="7.12587">
        <ele>877.8</ele>
        <time>2023-05-18T13:55:34Z</time>
      </trkpt>
      <trkpt lat="47.87128" lon="7.12593">
        <ele>875.6</ele>
        <time>2023-05-18T13:55:39Z</time>
      </trkpt>
      <trkpt lat="47.87131" lon="7.12597">
        <ele>875.1</ele>
        <time>2023-05-18T13:55:41Z</time>
      </trkpt>
      <trkpt lat="47.87143" lon="7.12622">
        <ele>875.4</ele>
        <time>2023-05-18T13:55:59Z</time>
      </trkpt>
      <trkpt lat="47.8715" lon="7.12633">
        <ele>874.5</ele>
        <time>2023-05-18T13:56:07Z</time>
      </trkpt>
      <trkpt lat="47.87156" lon="7.12649">
        <ele>873.3</ele>
        <time>2023-05-18T13:56:16Z</time>
      </trkpt>
      <trkpt lat="47.87156" lon="7.12656">
        <ele>873.6</ele>
        <time>2023-05-18T13:56:21Z</time>
      </trkpt>
      <trkpt lat="47.87161" lon="7.1266">
        <ele>872.5</ele>
        <time>2023-05-18T13:56:25Z</time>
      </trkpt>
      <trkpt lat="47.87164" lon="7.12665">
        <ele>872.3</ele>
        <time>2023-05-18T13:56:30Z</time>
      </trkpt>
      <trkpt lat="47.87164" lon="7.12672">
        <ele>872.3</ele>
        <time>2023-05-18T13:56:33Z</time>
      </trkpt>
      <trkpt lat="47.87176" lon="7.1269">
        <ele>869.4</ele>
        <time>2023-05-18T13:56:45Z</time>
      </trkpt>
      <trkpt lat="47.87181" lon="7.12696">
        <ele>868.6</ele>
        <time>2023-05-18T13:56:51Z</time>
      </trkpt>
      <trkpt lat="47.87184" lon="7.12701">
        <ele>868.7</ele>
        <time>2023-05-18T13:56:55Z</time>
      </trkpt>
      <trkpt lat="47.8719" lon="7.1271">
        <ele>868.8</ele>
        <time>2023-05-18T13:57:00Z</time>
      </trkpt>
      <trkpt lat="47.87195" lon="7.12713">
        <ele>868.1</ele>
        <time>2023-05-18T13:57:04Z</time>
      </trkpt>
      <trkpt lat="47.87199" lon="7.12716">
        <ele>867.2</ele>
        <time>2023-05-18T13:57:08Z</time>
      </trkpt>
      <trkpt lat="47.87224" lon="7.12737">
        <ele>863.4</ele>
        <time>2023-05-18T13:57:35Z</time>
      </trkpt>
      <trkpt lat="47.87238" lon="7.12741">
        <ele>861.9</ele>
        <time>2023-05-18T13:57:48Z</time>
      </trkpt>
      <trkpt lat="47.87256" lon="7.12734">
        <ele>857.2</ele>
        <time>2023-05-18T13:58:03Z</time>
      </trkpt>
      <trkpt lat="47.87261" lon="7.12733">
        <ele>856.4</ele>
        <time>2023-05-18T13:58:07Z</time>
      </trkpt>
      <trkpt lat="47.87266" lon="7.12734">
        <ele>856</ele>
        <time>2023-05-18T13:58:11Z</time>
      </trkpt>
      <trkpt lat="47.87274" lon="7.12741">
        <ele>856.6</ele>
        <time>2023-05-18T13:58:17Z</time>
      </trkpt>
      <trkpt lat="47.87278" lon="7.12745">
        <ele>856.9</ele>
        <time>2023-05-18T13:58:20Z</time>
      </trkpt>
      <trkpt lat="47.87304" lon="7.12771">
        <ele>856.8</ele>
        <time>2023-05-18T13:58:44Z</time>
      </trkpt>
      <trkpt lat="47.87308" lon="7.12772">
        <ele>856.8</ele>
        <time>2023-05-18T13:58:48Z</time>
      </trkpt>
      <trkpt lat="47.87312" lon="7.1277">
        <ele>857.2</ele>
        <time>2023-05-18T13:58:53Z</time>
      </trkpt>
      <trkpt lat="47.87316" lon="7.12764">
        <ele>857.5</ele>
        <time>2023-05-18T13:58:57Z</time>
      </trkpt>
      <trkpt lat="47.87316" lon="7.12741">
        <ele>856.4</ele>
        <time>2023-05-18T13:59:10Z</time>
      </trkpt>
      <trkpt lat="47.87315" lon="7.12734">
        <ele>855.5</ele>
        <time>2023-05-18T13:59:14Z</time>
      </trkpt>
      <trkpt lat="47.87314" lon="7.12719">
        <ele>853.7</ele>
        <time>2023-05-18T13:59:23Z</time>
      </trkpt>
      <trkpt lat="47.87315" lon="7.12697">
        <ele>852</ele>
        <time>2023-05-18T13:59:37Z</time>
      </trkpt>
      <trkpt lat="47.87316" lon="7.12683">
        <ele>850.3</ele>
        <time>2023-05-18T13:59:45Z</time>
      </trkpt>
      <trkpt lat="47.87317" lon="7.12676">
        <ele>849.6</ele>
        <time>2023-05-18T13:59:49Z</time>
      </trkpt>
      <trkpt lat="47.87319" lon="7.1267">
        <ele>849.4</ele>
        <time>2023-05-18T13:59:53Z</time>
      </trkpt>
      <trkpt lat="47.87321" lon="7.12663">
        <ele>848.3</ele>
        <time>2023-05-18T13:59:57Z</time>
      </trkpt>
      <trkpt lat="47.87325" lon="7.12658">
        <ele>847.8</ele>
        <time>2023-05-18T14:00:02Z</time>
      </trkpt>
      <trkpt lat="47.87328" lon="7.12653">
        <ele>847</ele>
        <time>2023-05-18T14:00:07Z</time>
      </trkpt>
      <trkpt lat="47.87333" lon="7.12649">
        <ele>846.9</ele>
        <time>2023-05-18T14:00:11Z</time>
      </trkpt>
      <trkpt lat="47.8735" lon="7.12638">
        <ele>842.8</ele>
        <time>2023-05-18T14:00:27Z</time>
      </trkpt>
      <trkpt lat="47.87361" lon="7.12638">
        <ele>842.8</ele>
        <time>2023-05-18T14:00:35Z</time>
      </trkpt>
      <trkpt lat="47.87365" lon="7.1264">
        <ele>842.8</ele>
        <time>2023-05-18T14:00:38Z</time>
      </trkpt>
      <trkpt lat="47.87371" lon="7.12642">
        <ele>842.6</ele>
        <time>2023-05-18T14:00:42Z</time>
      </trkpt>
      <trkpt lat="47.87375" lon="7.12645">
        <ele>842.6</ele>
        <time>2023-05-18T14:00:45Z</time>
      </trkpt>
      <trkpt lat="47.87388" lon="7.12654">
        <ele>841.8</ele>
        <time>2023-05-18T14:00:56Z</time>
      </trkpt>
      <trkpt lat="47.87393" lon="7.12658">
        <ele>841.4</ele>
        <time>2023-05-18T14:01:01Z</time>
      </trkpt>
      <trkpt lat="47.87397" lon="7.12661">
        <ele>841.2</ele>
        <time>2023-05-18T14:01:04Z</time>
      </trkpt>
      <trkpt lat="47.87407" lon="7.12667">
        <ele>840.4</ele>
        <time>2023-05-18T14:01:12Z</time>
      </trkpt>
      <trkpt lat="47.87445" lon="7.12681">
        <ele>835.4</ele>
        <time>2023-05-18T14:01:46Z</time>
      </trkpt>
      <trkpt lat="47.87486" lon="7.12699">
        <ele>829.4</ele>
        <time>2023-05-18T14:02:17Z</time>
      </trkpt>
      <trkpt lat="47.8752" lon="7.12718">
        <ele>826.4</ele>
        <time>2023-05-18T14:02:41Z</time>
      </trkpt>
      <trkpt lat="47.8753" lon="7.12719">
        <ele>826.1</ele>
        <time>2023-05-18T14:02:47Z</time>
      </trkpt>
      <trkpt lat="47.87534" lon="7.12724">
        <ele>826.8</ele>
        <time>2023-05-18T14:02:51Z</time>
      </trkpt>
      <trkpt lat="47.87538" lon="7.12734">
        <ele>827.5</ele>
        <time>2023-05-18T14:03:02Z</time>
      </trkpt>
      <trkpt lat="47.87543" lon="7.12739">
        <ele>827.9</ele>
        <time>2023-05-18T14:03:13Z</time>
      </trkpt>
      <trkpt lat="47.87549" lon="7.12741">
        <ele>828.1</ele>
        <time>2023-05-18T14:03:18Z</time>
      </trkpt>
      <trkpt lat="47.87554" lon="7.12741">
        <ele>828.3</ele>
        <time>2023-05-18T14:03:22Z</time>
      </trkpt>
      <trkpt lat="47.87563" lon="7.12734">
        <ele>829.6</ele>
        <time>2023-05-18T14:03:29Z</time>
      </trkpt>
      <trkpt lat="47.87567" lon="7.12728">
        <ele>830.4</ele>
        <time>2023-05-18T14:03:34Z</time>
      </trkpt>
      <trkpt lat="47.87569" lon="7.12721">
        <ele>830.9</ele>
        <time>2023-05-18T14:03:39Z</time>
      </trkpt>
      <trkpt lat="47.87566" lon="7.12716">
        <ele>830.3</ele>
        <time>2023-05-18T14:03:59Z</time>
      </trkpt>
      <trkpt lat="47.87569" lon="7.12711">
        <ele>830.5</ele>
        <time>2023-05-18T14:04:03Z</time>
      </trkpt>
      <trkpt lat="47.87582" lon="7.12708">
        <ele>832.3</ele>
        <time>2023-05-18T14:04:15Z</time>
      </trkpt>
      <trkpt lat="47.87611" lon="7.12711">
        <ele>838</ele>
        <time>2023-05-18T14:04:46Z</time>
      </trkpt>
      <trkpt lat="47.87617" lon="7.12713">
        <ele>839.2</ele>
        <time>2023-05-18T14:04:54Z</time>
      </trkpt>
      <trkpt lat="47.87618" lon="7.12719">
        <ele>839.5</ele>
        <time>2023-05-18T14:04:58Z</time>
      </trkpt>
      <trkpt lat="47.8762" lon="7.12727">
        <ele>839.3</ele>
        <time>2023-05-18T14:05:02Z</time>
      </trkpt>
      <trkpt lat="47.87622" lon="7.12732">
        <ele>839.2</ele>
        <time>2023-05-18T14:05:05Z</time>
      </trkpt>
      <trkpt lat="47.87625" lon="7.12736">
        <ele>839.3</ele>
        <time>2023-05-18T14:05:09Z</time>
      </trkpt>
      <trkpt lat="47.8763" lon="7.12737">
        <ele>840.1</ele>
        <time>2023-05-18T14:05:15Z</time>
      </trkpt>
      <trkpt lat="47.87635" lon="7.12737">
        <ele>841.1</ele>
        <time>2023-05-18T14:05:19Z</time>
      </trkpt>
      <trkpt lat="47.87662" lon="7.12749">
        <ele>845.9</ele>
        <time>2023-05-18T14:05:42Z</time>
      </trkpt>
      <trkpt lat="47.87668" lon="7.12755">
        <ele>846.2</ele>
        <time>2023-05-18T14:05:48Z</time>
      </trkpt>
      <trkpt lat="47.87675" lon="7.12757">
        <ele>847.1</ele>
        <time>2023-05-18T14:05:55Z</time>
      </trkpt>
      <trkpt lat="47.87678" lon="7.12754">
        <ele>848.4</ele>
        <time>2023-05-18T14:05:59Z</time>
      </trkpt>
      <trkpt lat="47.87683" lon="7.12755">
        <ele>849.1</ele>
        <time>2023-05-18T14:06:07Z</time>
      </trkpt>
      <trkpt lat="47.87695" lon="7.12752">
        <ele>852.2</ele>
        <time>2023-05-18T14:06:20Z</time>
      </trkpt>
      <trkpt lat="47.877" lon="7.12748">
        <ele>851.9</ele>
        <time>2023-05-18T14:06:28Z</time>
      </trkpt>
      <trkpt lat="47.87706" lon="7.12744">
        <ele>850.9</ele>
        <time>2023-05-18T14:06:35Z</time>
      </trkpt>
      <trkpt lat="47.87712" lon="7.12736">
        <ele>850.3</ele>
        <time>2023-05-18T14:06:44Z</time>
      </trkpt>
      <trkpt lat="47.87715" lon="7.1273">
        <ele>850.3</ele>
        <time>2023-05-18T14:06:48Z</time>
      </trkpt>
      <trkpt lat="47.8773" lon="7.12721">
        <ele>850.2</ele>
        <time>2023-05-18T14:06:59Z</time>
      </trkpt>
      <trkpt lat="47.8775" lon="7.12718">
        <ele>850.8</ele>
        <time>2023-05-18T14:07:12Z</time>
      </trkpt>
      <trkpt lat="47.87754" lon="7.12723">
        <ele>851.7</ele>
        <time>2023-05-18T14:07:21Z</time>
      </trkpt>
      <trkpt lat="47.87758" lon="7.12727">
        <ele>852</ele>
        <time>2023-05-18T14:07:24Z</time>
      </trkpt>
      <trkpt lat="47.87768" lon="7.12733">
        <ele>853.1</ele>
        <time>2023-05-18T14:07:31Z</time>
      </trkpt>
      <trkpt lat="47.87775" lon="7.12735">
        <ele>854.1</ele>
        <time>2023-05-18T14:07:34Z</time>
      </trkpt>
      <trkpt lat="47.8778" lon="7.12735">
        <ele>855.3</ele>
        <time>2023-05-18T14:07:37Z</time>
      </trkpt>
      <trkpt lat="47.87814" lon="7.12744">
        <ele>861.9</ele>
        <time>2023-05-18T14:08:10Z</time>
      </trkpt>
      <trkpt lat="47.87818" lon="7.12744">
        <ele>862.6</ele>
        <time>2023-05-18T14:08:14Z</time>
      </trkpt>
      <trkpt lat="47.87832" lon="7.12749">
        <ele>864.8</ele>
        <time>2023-05-18T14:08:29Z</time>
      </trkpt>
      <trkpt lat="47.87837" lon="7.12753">
        <ele>865.3</ele>
        <time>2023-05-18T14:08:33Z</time>
      </trkpt>
      <trkpt lat="47.87846" lon="7.12762">
        <ele>865.8</ele>
        <time>2023-05-18T14:08:38Z</time>
      </trkpt>
      <trkpt lat="47.8785" lon="7.12763">
        <ele>866.9</ele>
        <time>2023-05-18T14:08:43Z</time>
      </trkpt>
      <trkpt lat="47.87866" lon="7.12769">
        <ele>871.1</ele>
        <time>2023-05-18T14:09:06Z</time>
      </trkpt>
      <trkpt lat="47.8787" lon="7.12773">
        <ele>871.7</ele>
        <time>2023-05-18T14:09:16Z</time>
      </trkpt>
      <trkpt lat="47.87877" lon="7.12776">
        <ele>873.7</ele>
        <time>2023-05-18T14:09:21Z</time>
      </trkpt>
      <trkpt lat="47.87885" lon="7.12785">
        <ele>873.9</ele>
        <time>2023-05-18T14:09:27Z</time>
      </trkpt>
      <trkpt lat="47.8789" lon="7.12788">
        <ele>874.6</ele>
        <time>2023-05-18T14:09:32Z</time>
      </trkpt>
      <trkpt lat="47.87895" lon="7.12789">
        <ele>875.7</ele>
        <time>2023-05-18T14:09:38Z</time>
      </trkpt>
      <trkpt lat="47.87908" lon="7.12801">
        <ele>876.6</ele>
        <time>2023-05-18T14:09:56Z</time>
      </trkpt>
      <trkpt lat="47.87916" lon="7.12803">
        <ele>879.2</ele>
        <time>2023-05-18T14:10:09Z</time>
      </trkpt>
      <trkpt lat="47.87919" lon="7.12807">
        <ele>879.2</ele>
        <time>2023-05-18T14:10:17Z</time>
      </trkpt>
      <trkpt lat="47.8793" lon="7.12813">
        <ele>881.2</ele>
        <time>2023-05-18T14:10:23Z</time>
      </trkpt>
      <trkpt lat="47.8795" lon="7.12832">
        <ele>885.5</ele>
        <time>2023-05-18T14:10:46Z</time>
      </trkpt>
      <trkpt lat="47.87956" lon="7.12837">
        <ele>886.2</ele>
        <time>2023-05-18T14:10:54Z</time>
      </trkpt>
      <trkpt lat="47.8796" lon="7.12841">
        <ele>886.6</ele>
        <time>2023-05-18T14:10:58Z</time>
      </trkpt>
      <trkpt lat="47.87968" lon="7.12845">
        <ele>888.4</ele>
        <time>2023-05-18T14:11:08Z</time>
      </trkpt>
      <trkpt lat="47.8797" lon="7.12852">
        <ele>888.2</ele>
        <time>2023-05-18T14:11:13Z</time>
      </trkpt>
      <trkpt lat="47.87975" lon="7.12855">
        <ele>889.2</ele>
        <time>2023-05-18T14:11:17Z</time>
      </trkpt>
      <trkpt lat="47.87986" lon="7.12862">
        <ele>890.9</ele>
        <time>2023-05-18T14:11:29Z</time>
      </trkpt>
      <trkpt lat="47.8799" lon="7.12867">
        <ele>891.4</ele>
        <time>2023-05-18T14:11:32Z</time>
      </trkpt>
      <trkpt lat="47.87998" lon="7.12868">
        <ele>893.3</ele>
        <time>2023-05-18T14:11:42Z</time>
      </trkpt>
      <trkpt lat="47.88007" lon="7.12867">
        <ele>894</ele>
        <time>2023-05-18T14:11:55Z</time>
      </trkpt>
      <trkpt lat="47.88012" lon="7.12871">
        <ele>894.3</ele>
        <time>2023-05-18T14:11:58Z</time>
      </trkpt>
      <trkpt lat="47.88015" lon="7.12875">
        <ele>894.6</ele>
        <time>2023-05-18T14:12:02Z</time>
      </trkpt>
      <trkpt lat="47.8802" lon="7.12877">
        <ele>895.1</ele>
        <time>2023-05-18T14:12:06Z</time>
      </trkpt>
      <trkpt lat="47.88029" lon="7.12889">
        <ele>897</ele>
        <time>2023-05-18T14:12:18Z</time>
      </trkpt>
      <trkpt lat="47.88033" lon="7.12891">
        <ele>897</ele>
        <time>2023-05-18T14:12:21Z</time>
      </trkpt>
      <trkpt lat="47.8804" lon="7.12896">
        <ele>897.3</ele>
        <time>2023-05-18T14:12:30Z</time>
      </trkpt>
      <trkpt lat="47.88043" lon="7.12903">
        <ele>897.8</ele>
        <time>2023-05-18T14:12:37Z</time>
      </trkpt>
      <trkpt lat="47.88049" lon="7.12905">
        <ele>898.3</ele>
        <time>2023-05-18T14:12:44Z</time>
      </trkpt>
      <trkpt lat="47.88056" lon="7.12903">
        <ele>898.5</ele>
        <time>2023-05-18T14:12:51Z</time>
      </trkpt>
      <trkpt lat="47.88062" lon="7.12902">
        <ele>898.3</ele>
        <time>2023-05-18T14:12:55Z</time>
      </trkpt>
      <trkpt lat="47.88067" lon="7.12905">
        <ele>898.4</ele>
        <time>2023-05-18T14:12:58Z</time>
      </trkpt>
      <trkpt lat="47.88079" lon="7.12904">
        <ele>898.1</ele>
        <time>2023-05-18T14:13:08Z</time>
      </trkpt>
      <trkpt lat="47.88083" lon="7.12901">
        <ele>898</ele>
        <time>2023-05-18T14:13:12Z</time>
      </trkpt>
      <trkpt lat="47.88089" lon="7.12895">
        <ele>899.2</ele>
        <time>2023-05-18T14:13:19Z</time>
      </trkpt>
      <trkpt lat="47.88094" lon="7.12883">
        <ele>900.2</ele>
        <time>2023-05-18T14:13:28Z</time>
      </trkpt>
      <trkpt lat="47.88104" lon="7.12873">
        <ele>902</ele>
        <time>2023-05-18T14:13:40Z</time>
      </trkpt>
      <trkpt lat="47.88117" lon="7.12855">
        <ele>903.5</ele>
        <time>2023-05-18T14:14:03Z</time>
      </trkpt>
      <trkpt lat="47.88118" lon="7.12847">
        <ele>902.6</ele>
        <time>2023-05-18T14:14:07Z</time>
      </trkpt>
      <trkpt lat="47.88128" lon="7.1285">
        <ele>904.7</ele>
        <time>2023-05-18T14:14:15Z</time>
      </trkpt>
      <trkpt lat="47.88132" lon="7.12845">
        <ele>904.5</ele>
        <time>2023-05-18T14:14:21Z</time>
      </trkpt>
      <trkpt lat="47.88141" lon="7.12842">
        <ele>905</ele>
        <time>2023-05-18T14:14:29Z</time>
      </trkpt>
      <trkpt lat="47.88152" lon="7.12839">
        <ele>904.8</ele>
        <time>2023-05-18T14:14:44Z</time>
      </trkpt>
      <trkpt lat="47.88166" lon="7.12848">
        <ele>907.7</ele>
        <time>2023-05-18T14:14:55Z</time>
      </trkpt>
      <trkpt lat="47.88185" lon="7.12862">
        <ele>910.6</ele>
        <time>2023-05-18T14:15:17Z</time>
      </trkpt>
      <trkpt lat="47.88214" lon="7.12879">
        <ele>914.4</ele>
        <time>2023-05-18T14:15:50Z</time>
      </trkpt>
      <trkpt lat="47.88223" lon="7.12886">
        <ele>916.1</ele>
        <time>2023-05-18T14:15:57Z</time>
      </trkpt>
      <trkpt lat="47.88251" lon="7.12894">
        <ele>917.9</ele>
        <time>2023-05-18T14:16:23Z</time>
      </trkpt>
      <trkpt lat="47.88256" lon="7.129">
        <ele>920.2</ele>
        <time>2023-05-18T14:16:29Z</time>
      </trkpt>
      <trkpt lat="47.88262" lon="7.129">
        <ele>920.4</ele>
        <time>2023-05-18T14:16:37Z</time>
      </trkpt>
      <trkpt lat="47.88267" lon="7.12903">
        <ele>921.7</ele>
        <time>2023-05-18T14:16:41Z</time>
      </trkpt>
      <trkpt lat="47.88273" lon="7.12902">
        <ele>921.5</ele>
        <time>2023-05-18T14:16:49Z</time>
      </trkpt>
      <trkpt lat="47.88283" lon="7.12906">
        <ele>923.2</ele>
        <time>2023-05-18T14:17:00Z</time>
      </trkpt>
      <trkpt lat="47.88298" lon="7.12908">
        <ele>924.1</ele>
        <time>2023-05-18T14:17:13Z</time>
      </trkpt>
      <trkpt lat="47.88309" lon="7.12917">
        <ele>927</ele>
        <time>2023-05-18T14:17:24Z</time>
      </trkpt>
      <trkpt lat="47.88313" lon="7.12924">
        <ele>928.8</ele>
        <time>2023-05-18T14:17:32Z</time>
      </trkpt>
      <trkpt lat="47.88319" lon="7.12925">
        <ele>928.9</ele>
        <time>2023-05-18T14:17:38Z</time>
      </trkpt>
      <trkpt lat="47.88344" lon="7.12935">
        <ele>930.4</ele>
        <time>2023-05-18T14:18:02Z</time>
      </trkpt>
      <trkpt lat="47.8835" lon="7.12943">
        <ele>932.4</ele>
        <time>2023-05-18T14:18:12Z</time>
      </trkpt>
      <trkpt lat="47.88382" lon="7.12957">
        <ele>936.3</ele>
        <time>2023-05-18T14:18:39Z</time>
      </trkpt>
      <trkpt lat="47.88389" lon="7.12954">
        <ele>935.5</ele>
        <time>2023-05-18T14:18:49Z</time>
      </trkpt>
      <trkpt lat="47.88394" lon="7.12955">
        <ele>936.7</ele>
        <time>2023-05-18T14:18:55Z</time>
      </trkpt>
      <trkpt lat="47.88401" lon="7.1296">
        <ele>939.5</ele>
        <time>2023-05-18T14:19:05Z</time>
      </trkpt>
      <trkpt lat="47.88408" lon="7.12958">
        <ele>940</ele>
        <time>2023-05-18T14:19:09Z</time>
      </trkpt>
      <trkpt lat="47.88425" lon="7.12959">
        <ele>944</ele>
        <time>2023-05-18T14:19:25Z</time>
      </trkpt>
      <trkpt lat="47.88429" lon="7.12956">
        <ele>944.1</ele>
        <time>2023-05-18T14:19:29Z</time>
      </trkpt>
      <trkpt lat="47.88444" lon="7.12951">
        <ele>946.8</ele>
        <time>2023-05-18T14:19:44Z</time>
      </trkpt>
      <trkpt lat="47.8845" lon="7.12947">
        <ele>948.1</ele>
        <time>2023-05-18T14:19:50Z</time>
      </trkpt>
      <trkpt lat="47.88452" lon="7.1294">
        <ele>947.1</ele>
        <time>2023-05-18T14:19:56Z</time>
      </trkpt>
      <trkpt lat="47.88455" lon="7.12929">
        <ele>945.7</ele>
        <time>2023-05-18T14:20:04Z</time>
      </trkpt>
      <trkpt lat="47.88462" lon="7.12922">
        <ele>946.9</ele>
        <time>2023-05-18T14:20:14Z</time>
      </trkpt>
      <trkpt lat="47.88465" lon="7.12916">
        <ele>946.7</ele>
        <time>2023-05-18T14:20:19Z</time>
      </trkpt>
      <trkpt lat="47.88474" lon="7.12909">
        <ele>949.1</ele>
        <time>2023-05-18T14:20:28Z</time>
      </trkpt>
      <trkpt lat="47.88493" lon="7.12881">
        <ele>950.8</ele>
        <time>2023-05-18T14:20:56Z</time>
      </trkpt>
      <trkpt lat="47.88497" lon="7.12878">
        <ele>951.7</ele>
        <time>2023-05-18T14:21:00Z</time>
      </trkpt>
      <trkpt lat="47.88528" lon="7.12869">
        <ele>956.3</ele>
        <time>2023-05-18T14:21:31Z</time>
      </trkpt>
      <trkpt lat="47.88533" lon="7.1287">
        <ele>957.4</ele>
        <time>2023-05-18T14:21:34Z</time>
      </trkpt>
      <trkpt lat="47.88537" lon="7.12868">
        <ele>957.4</ele>
        <time>2023-05-18T14:21:38Z</time>
      </trkpt>
      <trkpt lat="47.88543" lon="7.12866">
        <ele>957.7</ele>
        <time>2023-05-18T14:21:44Z</time>
      </trkpt>
      <trkpt lat="47.88552" lon="7.12859">
        <ele>956.8</ele>
        <time>2023-05-18T14:21:52Z</time>
      </trkpt>
      <trkpt lat="47.88557" lon="7.12858">
        <ele>957</ele>
        <time>2023-05-18T14:21:57Z</time>
      </trkpt>
      <trkpt lat="47.88566" lon="7.12856">
        <ele>956.8</ele>
        <time>2023-05-18T14:22:07Z</time>
      </trkpt>
      <trkpt lat="47.8857" lon="7.12855">
        <ele>956.7</ele>
        <time>2023-05-18T14:22:12Z</time>
      </trkpt>
      <trkpt lat="47.88576" lon="7.12855">
        <ele>956.9</ele>
        <time>2023-05-18T14:22:16Z</time>
      </trkpt>
      <trkpt lat="47.88581" lon="7.12854">
        <ele>956.8</ele>
        <time>2023-05-18T14:22:20Z</time>
      </trkpt>
      <trkpt lat="47.88588" lon="7.12848">
        <ele>955.4</ele>
        <time>2023-05-18T14:22:29Z</time>
      </trkpt>
      <trkpt lat="47.88593" lon="7.12849">
        <ele>955.8</ele>
        <time>2023-05-18T14:22:32Z</time>
      </trkpt>
      <trkpt lat="47.88598" lon="7.1285">
        <ele>956.2</ele>
        <time>2023-05-18T14:22:36Z</time>
      </trkpt>
      <trkpt lat="47.88603" lon="7.12849">
        <ele>956.1</ele>
        <time>2023-05-18T14:22:41Z</time>
      </trkpt>
      <trkpt lat="47.88613" lon="7.1285">
        <ele>956.7</ele>
        <time>2023-05-18T14:22:49Z</time>
      </trkpt>
      <trkpt lat="47.88628" lon="7.12847">
        <ele>956.6</ele>
        <time>2023-05-18T14:23:01Z</time>
      </trkpt>
      <trkpt lat="47.88632" lon="7.12843">
        <ele>956.1</ele>
        <time>2023-05-18T14:23:06Z</time>
      </trkpt>
      <trkpt lat="47.8864" lon="7.12836">
        <ele>955.4</ele>
        <time>2023-05-18T14:23:14Z</time>
      </trkpt>
      <trkpt lat="47.88655" lon="7.12816">
        <ele>954.4</ele>
        <time>2023-05-18T14:23:31Z</time>
      </trkpt>
      <trkpt lat="47.8866" lon="7.12814">
        <ele>954.7</ele>
        <time>2023-05-18T14:23:36Z</time>
      </trkpt>
      <trkpt lat="47.88664" lon="7.12812">
        <ele>955</ele>
        <time>2023-05-18T14:23:41Z</time>
      </trkpt>
      <trkpt lat="47.88669" lon="7.12812">
        <ele>955.1</ele>
        <time>2023-05-18T14:23:46Z</time>
      </trkpt>
      <trkpt lat="47.88675" lon="7.1281">
        <ele>954.9</ele>
        <time>2023-05-18T14:23:54Z</time>
      </trkpt>
      <trkpt lat="47.88679" lon="7.12809">
        <ele>954.7</ele>
        <time>2023-05-18T14:23:59Z</time>
      </trkpt>
      <trkpt lat="47.88679" lon="7.12803">
        <ele>954.5</ele>
        <time>2023-05-18T14:25:18Z</time>
      </trkpt>
      <trkpt lat="47.88675" lon="7.12802">
        <ele>954.6</ele>
        <time>2023-05-18T14:25:48Z</time>
      </trkpt>
      <trkpt lat="47.88695" lon="7.12766">
        <ele>954.4</ele>
        <time>2023-05-18T14:39:28Z</time>
      </trkpt>
      <trkpt lat="47.88699" lon="7.12752">
        <ele>954.4</ele>
        <time>2023-05-18T14:39:37Z</time>
      </trkpt>
      <trkpt lat="47.88703" lon="7.12742">
        <ele>954.9</ele>
        <time>2023-05-18T14:39:44Z</time>
      </trkpt>
      <trkpt lat="47.88706" lon="7.12736">
        <ele>955.1</ele>
        <time>2023-05-18T14:39:48Z</time>
      </trkpt>
      <trkpt lat="47.88709" lon="7.12728">
        <ele>955.4</ele>
        <time>2023-05-18T14:39:55Z</time>
      </trkpt>
      <trkpt lat="47.88709" lon="7.12721">
        <ele>956.1</ele>
        <time>2023-05-18T14:39:59Z</time>
      </trkpt>
      <trkpt lat="47.8871" lon="7.12713">
        <ele>957.3</ele>
        <time>2023-05-18T14:40:03Z</time>
      </trkpt>
      <trkpt lat="47.88713" lon="7.12708">
        <ele>957.7</ele>
        <time>2023-05-18T14:40:14Z</time>
      </trkpt>
      <trkpt lat="47.88713" lon="7.12707">
        <ele>957.9</ele>
        <time>2023-05-18T14:41:15Z</time>
      </trkpt>
      <trkpt lat="47.88716" lon="7.12692">
        <ele>960.2</ele>
        <time>2023-05-18T14:41:29Z</time>
      </trkpt>
      <trkpt lat="47.88719" lon="7.12686">
        <ele>961.1</ele>
        <time>2023-05-18T14:41:35Z</time>
      </trkpt>
      <trkpt lat="47.88722" lon="7.1268">
        <ele>962.1</ele>
        <time>2023-05-18T14:41:39Z</time>
      </trkpt>
      <trkpt lat="47.88728" lon="7.12675">
        <ele>962.3</ele>
        <time>2023-05-18T14:41:43Z</time>
      </trkpt>
      <trkpt lat="47.88732" lon="7.12672">
        <ele>962.5</ele>
        <time>2023-05-18T14:41:46Z</time>
      </trkpt>
      <trkpt lat="47.88734" lon="7.12654">
        <ele>966.3</ele>
        <time>2023-05-18T14:41:55Z</time>
      </trkpt>
      <trkpt lat="47.88739" lon="7.1265">
        <ele>966.4</ele>
        <time>2023-05-18T14:41:58Z</time>
      </trkpt>
      <trkpt lat="47.88747" lon="7.12637">
        <ele>968</ele>
        <time>2023-05-18T14:42:06Z</time>
      </trkpt>
      <trkpt lat="47.88747" lon="7.12629">
        <ele>970.2</ele>
        <time>2023-05-18T14:42:10Z</time>
      </trkpt>
      <trkpt lat="47.8876" lon="7.12618">
        <ele>972.9</ele>
        <time>2023-05-18T14:42:23Z</time>
      </trkpt>
      <trkpt lat="47.88773" lon="7.12617">
        <ele>973.1</ele>
        <time>2023-05-18T14:42:32Z</time>
      </trkpt>
      <trkpt lat="47.88778" lon="7.12613">
        <ele>974.4</ele>
        <time>2023-05-18T14:42:36Z</time>
      </trkpt>
      <trkpt lat="47.88785" lon="7.12613">
        <ele>973.9</ele>
        <time>2023-05-18T14:42:40Z</time>
      </trkpt>
      <trkpt lat="47.88796" lon="7.12611">
        <ele>973.7</ele>
        <time>2023-05-18T14:42:52Z</time>
      </trkpt>
      <trkpt lat="47.88799" lon="7.12605">
        <ele>975.2</ele>
        <time>2023-05-18T14:42:55Z</time>
      </trkpt>
      <trkpt lat="47.88813" lon="7.12593">
        <ele>976.9</ele>
        <time>2023-05-18T14:43:09Z</time>
      </trkpt>
      <trkpt lat="47.8882" lon="7.12592">
        <ele>975.9</ele>
        <time>2023-05-18T14:43:14Z</time>
      </trkpt>
      <trkpt lat="47.88822" lon="7.12586">
        <ele>976.9</ele>
        <time>2023-05-18T14:43:18Z</time>
      </trkpt>
      <trkpt lat="47.88826" lon="7.1258">
        <ele>977.1</ele>
        <time>2023-05-18T14:43:22Z</time>
      </trkpt>
      <trkpt lat="47.88825" lon="7.12571">
        <ele>978.8</ele>
        <time>2023-05-18T14:43:27Z</time>
      </trkpt>
      <trkpt lat="47.88827" lon="7.12562">
        <ele>979.8</ele>
        <time>2023-05-18T14:43:32Z</time>
      </trkpt>
      <trkpt lat="47.88826" lon="7.12555">
        <ele>981.2</ele>
        <time>2023-05-18T14:43:36Z</time>
      </trkpt>
      <trkpt lat="47.88816" lon="7.12574">
        <ele>980.5</ele>
        <time>2023-05-18T14:43:54Z</time>
      </trkpt>
      <trkpt lat="47.8881" lon="7.12577">
        <ele>981.3</ele>
        <time>2023-05-18T14:43:59Z</time>
      </trkpt>
      <trkpt lat="47.888" lon="7.12578">
        <ele>982.6</ele>
        <time>2023-05-18T14:44:09Z</time>
      </trkpt>
      <trkpt lat="47.88796" lon="7.12575">
        <ele>983.5</ele>
        <time>2023-05-18T14:44:12Z</time>
      </trkpt>
      <trkpt lat="47.88792" lon="7.12574">
        <ele>984</ele>
        <time>2023-05-18T14:44:16Z</time>
      </trkpt>
      <trkpt lat="47.88789" lon="7.12569">
        <ele>985.3</ele>
        <time>2023-05-18T14:44:21Z</time>
      </trkpt>
      <trkpt lat="47.88772" lon="7.12549">
        <ele>990.2</ele>
        <time>2023-05-18T14:44:43Z</time>
      </trkpt>
      <trkpt lat="47.88769" lon="7.12543">
        <ele>991.3</ele>
        <time>2023-05-18T14:44:47Z</time>
      </trkpt>
      <trkpt lat="47.88763" lon="7.12532">
        <ele>993.1</ele>
        <time>2023-05-18T14:44:56Z</time>
      </trkpt>
      <trkpt lat="47.8876" lon="7.1252">
        <ele>995.3</ele>
        <time>2023-05-18T14:45:02Z</time>
      </trkpt>
      <trkpt lat="47.88755" lon="7.12511">
        <ele>996.9</ele>
        <time>2023-05-18T14:45:12Z</time>
      </trkpt>
      <trkpt lat="47.88753" lon="7.12501">
        <ele>998.9</ele>
        <time>2023-05-18T14:45:21Z</time>
      </trkpt>
      <trkpt lat="47.88748" lon="7.12494">
        <ele>999.9</ele>
        <time>2023-05-18T14:45:28Z</time>
      </trkpt>
      <trkpt lat="47.88751" lon="7.12486">
        <ele>1001.5</ele>
        <time>2023-05-18T14:45:33Z</time>
      </trkpt>
      <trkpt lat="47.88752" lon="7.12476">
        <ele>1003.3</ele>
        <time>2023-05-18T14:45:38Z</time>
      </trkpt>
      <trkpt lat="47.88757" lon="7.12467">
        <ele>1005.1</ele>
        <time>2023-05-18T14:45:46Z</time>
      </trkpt>
      <trkpt lat="47.88766" lon="7.1246">
        <ele>1006.4</ele>
        <time>2023-05-18T14:45:53Z</time>
      </trkpt>
      <trkpt lat="47.88771" lon="7.12457">
        <ele>1006.9</ele>
        <time>2023-05-18T14:45:58Z</time>
      </trkpt>
      <trkpt lat="47.88778" lon="7.12449">
        <ele>1008.1</ele>
        <time>2023-05-18T14:46:08Z</time>
      </trkpt>
      <trkpt lat="47.88782" lon="7.12433">
        <ele>1010.2</ele>
        <time>2023-05-18T14:46:17Z</time>
      </trkpt>
      <trkpt lat="47.88789" lon="7.12416">
        <ele>1011.7</ele>
        <time>2023-05-18T14:46:30Z</time>
      </trkpt>
      <trkpt lat="47.88793" lon="7.12412">
        <ele>1011.6</ele>
        <time>2023-05-18T14:46:34Z</time>
      </trkpt>
      <trkpt lat="47.88797" lon="7.12394">
        <ele>1013.9</ele>
        <time>2023-05-18T14:46:45Z</time>
      </trkpt>
      <trkpt lat="47.88797" lon="7.1238">
        <ele>1016.1</ele>
        <time>2023-05-18T14:46:52Z</time>
      </trkpt>
      <trkpt lat="47.88798" lon="7.12373">
        <ele>1016.9</ele>
        <time>2023-05-18T14:46:57Z</time>
      </trkpt>
      <trkpt lat="47.88802" lon="7.12367">
        <ele>1016.9</ele>
        <time>2023-05-18T14:47:02Z</time>
      </trkpt>
      <trkpt lat="47.88801" lon="7.1236">
        <ele>1018.2</ele>
        <time>2023-05-18T14:47:06Z</time>
      </trkpt>
      <trkpt lat="47.88807" lon="7.12349">
        <ele>1018.3</ele>
        <time>2023-05-18T14:47:16Z</time>
      </trkpt>
      <trkpt lat="47.88807" lon="7.12341">
        <ele>1019.5</ele>
        <time>2023-05-18T14:47:19Z</time>
      </trkpt>
      <trkpt lat="47.88815" lon="7.12314">
        <ele>1021.5</ele>
        <time>2023-05-18T14:47:37Z</time>
      </trkpt>
      <trkpt lat="47.88814" lon="7.12305">
        <ele>1023.4</ele>
        <time>2023-05-18T14:47:42Z</time>
      </trkpt>
      <trkpt lat="47.88818" lon="7.12283">
        <ele>1025.6</ele>
        <time>2023-05-18T14:47:56Z</time>
      </trkpt>
      <trkpt lat="47.88818" lon="7.12274">
        <ele>1027</ele>
        <time>2023-05-18T14:48:01Z</time>
      </trkpt>
      <trkpt lat="47.88822" lon="7.12259">
        <ele>1028.4</ele>
        <time>2023-05-18T14:48:07Z</time>
      </trkpt>
      <trkpt lat="47.88827" lon="7.12251">
        <ele>1028.4</ele>
        <time>2023-05-18T14:48:14Z</time>
      </trkpt>
      <trkpt lat="47.8884" lon="7.12207">
        <ele>1033.2</ele>
        <time>2023-05-18T14:48:45Z</time>
      </trkpt>
      <trkpt lat="47.88844" lon="7.12201">
        <ele>1033.3</ele>
        <time>2023-05-18T14:48:50Z</time>
      </trkpt>
      <trkpt lat="47.88853" lon="7.12181">
        <ele>1035.6</ele>
        <time>2023-05-18T14:49:05Z</time>
      </trkpt>
      <trkpt lat="47.88858" lon="7.12176">
        <ele>1035.9</ele>
        <time>2023-05-18T14:49:11Z</time>
      </trkpt>
      <trkpt lat="47.88862" lon="7.1217">
        <ele>1036.7</ele>
        <time>2023-05-18T14:49:15Z</time>
      </trkpt>
      <trkpt lat="47.88874" lon="7.12153">
        <ele>1037.7</ele>
        <time>2023-05-18T14:49:30Z</time>
      </trkpt>
      <trkpt lat="47.88877" lon="7.12142">
        <ele>1040.2</ele>
        <time>2023-05-18T14:49:41Z</time>
      </trkpt>
      <trkpt lat="47.88881" lon="7.12137">
        <ele>1040.9</ele>
        <time>2023-05-18T14:49:47Z</time>
      </trkpt>
      <trkpt lat="47.88889" lon="7.12123">
        <ele>1043</ele>
        <time>2023-05-18T14:49:57Z</time>
      </trkpt>
      <trkpt lat="47.88901" lon="7.12109">
        <ele>1044.3</ele>
        <time>2023-05-18T14:50:09Z</time>
      </trkpt>
      <trkpt lat="47.88905" lon="7.12106">
        <ele>1044.3</ele>
        <time>2023-05-18T14:50:12Z</time>
      </trkpt>
      <trkpt lat="47.88919" lon="7.1209">
        <ele>1046.7</ele>
        <time>2023-05-18T14:50:31Z</time>
      </trkpt>
      <trkpt lat="47.88929" lon="7.12084">
        <ele>1047</ele>
        <time>2023-05-18T14:50:39Z</time>
      </trkpt>
      <trkpt lat="47.88939" lon="7.12079">
        <ele>1047</ele>
        <time>2023-05-18T14:50:47Z</time>
      </trkpt>
      <trkpt lat="47.88943" lon="7.12074">
        <ele>1047.9</ele>
        <time>2023-05-18T14:50:52Z</time>
      </trkpt>
      <trkpt lat="47.88948" lon="7.1207">
        <ele>1048.6</ele>
        <time>2023-05-18T14:50:58Z</time>
      </trkpt>
      <trkpt lat="47.8897" lon="7.12041">
        <ele>1054.3</ele>
        <time>2023-05-18T14:51:37Z</time>
      </trkpt>
      <trkpt lat="47.88974" lon="7.12036">
        <ele>1055.1</ele>
        <time>2023-05-18T14:51:40Z</time>
      </trkpt>
      <trkpt lat="47.88984" lon="7.12028">
        <ele>1056.1</ele>
        <time>2023-05-18T14:51:52Z</time>
      </trkpt>
      <trkpt lat="47.88987" lon="7.12023">
        <ele>1057</ele>
        <time>2023-05-18T14:51:57Z</time>
      </trkpt>
      <trkpt lat="47.88991" lon="7.12012">
        <ele>1059.2</ele>
        <time>2023-05-18T14:52:07Z</time>
      </trkpt>
      <trkpt lat="47.88996" lon="7.12009">
        <ele>1059.4</ele>
        <time>2023-05-18T14:52:13Z</time>
      </trkpt>
      <trkpt lat="47.89" lon="7.12002">
        <ele>1060.6</ele>
        <time>2023-05-18T14:52:22Z</time>
      </trkpt>
      <trkpt lat="47.88999" lon="7.11993">
        <ele>1062.6</ele>
        <time>2023-05-18T14:52:34Z</time>
      </trkpt>
      <trkpt lat="47.89003" lon="7.11989">
        <ele>1063.2</ele>
        <time>2023-05-18T14:52:38Z</time>
      </trkpt>
      <trkpt lat="47.89013" lon="7.11973">
        <ele>1065.9</ele>
        <time>2023-05-18T14:52:53Z</time>
      </trkpt>
      <trkpt lat="47.89017" lon="7.1197">
        <ele>1066.3</ele>
        <time>2023-05-18T14:52:58Z</time>
      </trkpt>
      <trkpt lat="47.89026" lon="7.11968">
        <ele>1066</ele>
        <time>2023-05-18T14:53:06Z</time>
      </trkpt>
      <trkpt lat="47.89053" lon="7.11946">
        <ele>1069.7</ele>
        <time>2023-05-18T14:53:37Z</time>
      </trkpt>
      <trkpt lat="47.89057" lon="7.11946">
        <ele>1069.5</ele>
        <time>2023-05-18T14:53:41Z</time>
      </trkpt>
      <trkpt lat="47.89067" lon="7.11935">
        <ele>1070.6</ele>
        <time>2023-05-18T14:53:54Z</time>
      </trkpt>
      <trkpt lat="47.89073" lon="7.11924">
        <ele>1072.3</ele>
        <time>2023-05-18T14:54:05Z</time>
      </trkpt>
      <trkpt lat="47.89076" lon="7.1192">
        <ele>1072.8</ele>
        <time>2023-05-18T14:54:11Z</time>
      </trkpt>
      <trkpt lat="47.89078" lon="7.11913">
        <ele>1074.1</ele>
        <time>2023-05-18T14:54:16Z</time>
      </trkpt>
      <trkpt lat="47.89081" lon="7.11904">
        <ele>1075.5</ele>
        <time>2023-05-18T14:54:23Z</time>
      </trkpt>
      <trkpt lat="47.89089" lon="7.1189">
        <ele>1077.4</ele>
        <time>2023-05-18T14:54:38Z</time>
      </trkpt>
      <trkpt lat="47.89093" lon="7.11885">
        <ele>1078</ele>
        <time>2023-05-18T14:54:42Z</time>
      </trkpt>
      <trkpt lat="47.89103" lon="7.11871">
        <ele>1079.3</ele>
        <time>2023-05-18T14:54:55Z</time>
      </trkpt>
      <trkpt lat="47.89106" lon="7.11866">
        <ele>1079.8</ele>
        <time>2023-05-18T14:54:59Z</time>
      </trkpt>
      <trkpt lat="47.89109" lon="7.11861">
        <ele>1080.2</ele>
        <time>2023-05-18T14:55:03Z</time>
      </trkpt>
      <trkpt lat="47.8912" lon="7.11847">
        <ele>1081.1</ele>
        <time>2023-05-18T14:55:16Z</time>
      </trkpt>
      <trkpt lat="47.89124" lon="7.11841">
        <ele>1081.5</ele>
        <time>2023-05-18T14:55:21Z</time>
      </trkpt>
      <trkpt lat="47.89136" lon="7.11828">
        <ele>1082.1</ele>
        <time>2023-05-18T14:55:36Z</time>
      </trkpt>
      <trkpt lat="47.89139" lon="7.11822">
        <ele>1082.6</ele>
        <time>2023-05-18T14:55:40Z</time>
      </trkpt>
      <trkpt lat="47.89141" lon="7.11816">
        <ele>1083.4</ele>
        <time>2023-05-18T14:55:45Z</time>
      </trkpt>
      <trkpt lat="47.89142" lon="7.11809">
        <ele>1084.4</ele>
        <time>2023-05-18T14:55:49Z</time>
      </trkpt>
      <trkpt lat="47.89144" lon="7.11802">
        <ele>1085.1</ele>
        <time>2023-05-18T14:55:54Z</time>
      </trkpt>
      <trkpt lat="47.89144" lon="7.11795">
        <ele>1085.6</ele>
        <time>2023-05-18T14:55:58Z</time>
      </trkpt>
      <trkpt lat="47.89147" lon="7.11773">
        <ele>1087.6</ele>
        <time>2023-05-18T14:56:13Z</time>
      </trkpt>
      <trkpt lat="47.89162" lon="7.1173">
        <ele>1093.5</ele>
        <time>2023-05-18T14:56:46Z</time>
      </trkpt>
      <trkpt lat="47.89164" lon="7.11723">
        <ele>1094.8</ele>
        <time>2023-05-18T14:56:51Z</time>
      </trkpt>
      <trkpt lat="47.89178" lon="7.11702">
        <ele>1099.6</ele>
        <time>2023-05-18T14:57:16Z</time>
      </trkpt>
      <trkpt lat="47.89183" lon="7.11699">
        <ele>1100.8</ele>
        <time>2023-05-18T14:57:22Z</time>
      </trkpt>
      <trkpt lat="47.89188" lon="7.11685">
        <ele>1103.2</ele>
        <time>2023-05-18T14:57:36Z</time>
      </trkpt>
      <trkpt lat="47.8919" lon="7.11678">
        <ele>1104</ele>
        <time>2023-05-18T14:57:42Z</time>
      </trkpt>
      <trkpt lat="47.89192" lon="7.11668">
        <ele>1104.9</ele>
        <time>2023-05-18T14:57:49Z</time>
      </trkpt>
      <trkpt lat="47.89194" lon="7.11661">
        <ele>1106</ele>
        <time>2023-05-18T14:57:54Z</time>
      </trkpt>
      <trkpt lat="47.89199" lon="7.1165">
        <ele>1108.1</ele>
        <time>2023-05-18T14:58:05Z</time>
      </trkpt>
      <trkpt lat="47.89211" lon="7.11636">
        <ele>1110.3</ele>
        <time>2023-05-18T14:58:22Z</time>
      </trkpt>
      <trkpt lat="47.89214" lon="7.11632">
        <ele>1110.6</ele>
        <time>2023-05-18T14:58:26Z</time>
      </trkpt>
      <trkpt lat="47.89217" lon="7.11628">
        <ele>1110.9</ele>
        <time>2023-05-18T14:58:30Z</time>
      </trkpt>
      <trkpt lat="47.89222" lon="7.11624">
        <ele>1111.1</ele>
        <time>2023-05-18T14:58:43Z</time>
      </trkpt>
      <trkpt lat="47.89227" lon="7.11621">
        <ele>1111.2</ele>
        <time>2023-05-18T14:58:48Z</time>
      </trkpt>
      <trkpt lat="47.8923" lon="7.11618">
        <ele>1111.3</ele>
        <time>2023-05-18T14:58:52Z</time>
      </trkpt>
      <trkpt lat="47.89236" lon="7.11607">
        <ele>1112.1</ele>
        <time>2023-05-18T14:59:01Z</time>
      </trkpt>
      <trkpt lat="47.89259" lon="7.11576">
        <ele>1116.2</ele>
        <time>2023-05-18T15:03:43Z</time>
      </trkpt>
      <trkpt lat="47.89265" lon="7.11571">
        <ele>1117.2</ele>
        <time>2023-05-18T15:03:51Z</time>
      </trkpt>
      <trkpt lat="47.89275" lon="7.11563">
        <ele>1119.1</ele>
        <time>2023-05-18T15:04:06Z</time>
      </trkpt>
      <trkpt lat="47.89279" lon="7.11559">
        <ele>1120.1</ele>
        <time>2023-05-18T15:04:11Z</time>
      </trkpt>
      <trkpt lat="47.89284" lon="7.11553">
        <ele>1121.6</ele>
        <time>2023-05-18T15:04:18Z</time>
      </trkpt>
      <trkpt lat="47.89286" lon="7.11546">
        <ele>1123.1</ele>
        <time>2023-05-18T15:04:23Z</time>
      </trkpt>
      <trkpt lat="47.89292" lon="7.11539">
        <ele>1124.6</ele>
        <time>2023-05-18T15:04:32Z</time>
      </trkpt>
      <trkpt lat="47.89311" lon="7.11521">
        <ele>1129</ele>
        <time>2023-05-18T15:04:56Z</time>
      </trkpt>
      <trkpt lat="47.89318" lon="7.1151">
        <ele>1131.9</ele>
        <time>2023-05-18T15:05:09Z</time>
      </trkpt>
      <trkpt lat="47.89327" lon="7.11487">
        <ele>1137.4</ele>
        <time>2023-05-18T15:05:41Z</time>
      </trkpt>
      <trkpt lat="47.89331" lon="7.11478">
        <ele>1139.6</ele>
        <time>2023-05-18T15:05:53Z</time>
      </trkpt>
      <trkpt lat="47.89332" lon="7.11471">
        <ele>1141.1</ele>
        <time>2023-05-18T15:06:00Z</time>
      </trkpt>
      <trkpt lat="47.89336" lon="7.11459">
        <ele>1143.7</ele>
        <time>2023-05-18T15:06:12Z</time>
      </trkpt>
      <trkpt lat="47.89344" lon="7.11448">
        <ele>1146.6</ele>
        <time>2023-05-18T15:06:28Z</time>
      </trkpt>
      <trkpt lat="47.89345" lon="7.1144">
        <ele>1148</ele>
        <time>2023-05-18T15:06:34Z</time>
      </trkpt>
      <trkpt lat="47.89349" lon="7.11435">
        <ele>1149.2</ele>
        <time>2023-05-18T15:06:38Z</time>
      </trkpt>
      <trkpt lat="47.89362" lon="7.11423">
        <ele>1152.1</ele>
        <time>2023-05-18T15:06:55Z</time>
      </trkpt>
      <trkpt lat="47.89384" lon="7.11394">
        <ele>1156.3</ele>
        <time>2023-05-18T15:07:24Z</time>
      </trkpt>
      <trkpt lat="47.89386" lon="7.11388">
        <ele>1157.2</ele>
        <time>2023-05-18T15:07:29Z</time>
      </trkpt>
      <trkpt lat="47.8939" lon="7.11379">
        <ele>1158.7</ele>
        <time>2023-05-18T15:07:37Z</time>
      </trkpt>
      <trkpt lat="47.89409" lon="7.11368">
        <ele>1158.8</ele>
        <time>2023-05-18T15:07:55Z</time>
      </trkpt>
      <trkpt lat="47.89418" lon="7.11358">
        <ele>1159.3</ele>
        <time>2023-05-18T15:08:04Z</time>
      </trkpt>
      <trkpt lat="47.89422" lon="7.11353">
        <ele>1159.5</ele>
        <time>2023-05-18T15:08:08Z</time>
      </trkpt>
      <trkpt lat="47.89435" lon="7.11331">
        <ele>1161.4</ele>
        <time>2023-05-18T15:08:25Z</time>
      </trkpt>
      <trkpt lat="47.89438" lon="7.11327">
        <ele>1161.7</ele>
        <time>2023-05-18T15:08:30Z</time>
      </trkpt>
      <trkpt lat="47.89442" lon="7.11323">
        <ele>1161.8</ele>
        <time>2023-05-18T15:08:34Z</time>
      </trkpt>
      <trkpt lat="47.89444" lon="7.11317">
        <ele>1162.4</ele>
        <time>2023-05-18T15:08:38Z</time>
      </trkpt>
      <trkpt lat="47.89447" lon="7.1131">
        <ele>1162.9</ele>
        <time>2023-05-18T15:08:42Z</time>
      </trkpt>
      <trkpt lat="47.8945" lon="7.11306">
        <ele>1162.9</ele>
        <time>2023-05-18T15:08:46Z</time>
      </trkpt>
      <trkpt lat="47.89455" lon="7.11289">
        <ele>1165</ele>
        <time>2023-05-18T15:08:57Z</time>
      </trkpt>
      <trkpt lat="47.89458" lon="7.11284">
        <ele>1165.1</ele>
        <time>2023-05-18T15:09:01Z</time>
      </trkpt>
      <trkpt lat="47.8946" lon="7.11277">
        <ele>1165.7</ele>
        <time>2023-05-18T15:09:05Z</time>
      </trkpt>
      <trkpt lat="47.89464" lon="7.11265">
        <ele>1167</ele>
        <time>2023-05-18T15:09:13Z</time>
      </trkpt>
      <trkpt lat="47.89465" lon="7.11257">
        <ele>1168.4</ele>
        <time>2023-05-18T15:09:17Z</time>
      </trkpt>
      <trkpt lat="47.89467" lon="7.11252">
        <ele>1168.9</ele>
        <time>2023-05-18T15:09:21Z</time>
      </trkpt>
      <trkpt lat="47.8947" lon="7.11247">
        <ele>1169.1</ele>
        <time>2023-05-18T15:09:26Z</time>
      </trkpt>
      <trkpt lat="47.89474" lon="7.11226">
        <ele>1171.7</ele>
        <time>2023-05-18T15:09:40Z</time>
      </trkpt>
      <trkpt lat="47.89482" lon="7.11205">
        <ele>1172.9</ele>
        <time>2023-05-18T15:09:55Z</time>
      </trkpt>
      <trkpt lat="47.89484" lon="7.11199">
        <ele>1173.4</ele>
        <time>2023-05-18T15:09:58Z</time>
      </trkpt>
      <trkpt lat="47.89487" lon="7.11193">
        <ele>1173.5</ele>
        <time>2023-05-18T15:10:02Z</time>
      </trkpt>
      <trkpt lat="47.89489" lon="7.11185">
        <ele>1174.5</ele>
        <time>2023-05-18T15:10:08Z</time>
      </trkpt>
      <trkpt lat="47.8951" lon="7.1115">
        <ele>1176.7</ele>
        <time>2023-05-18T15:10:40Z</time>
      </trkpt>
      <trkpt lat="47.89513" lon="7.11146">
        <ele>1177</ele>
        <time>2023-05-18T15:10:44Z</time>
      </trkpt>
      <trkpt lat="47.89518" lon="7.11138">
        <ele>1178</ele>
        <time>2023-05-18T15:10:51Z</time>
      </trkpt>
      <trkpt lat="47.89529" lon="7.11122">
        <ele>1180</ele>
        <time>2023-05-18T15:11:06Z</time>
      </trkpt>
      <trkpt lat="47.89538" lon="7.11105">
        <ele>1182.1</ele>
        <time>2023-05-18T15:11:17Z</time>
      </trkpt>
      <trkpt lat="47.89542" lon="7.11101">
        <ele>1182.1</ele>
        <time>2023-05-18T15:11:22Z</time>
      </trkpt>
      <trkpt lat="47.89555" lon="7.11074">
        <ele>1184.8</ele>
        <time>2023-05-18T15:11:43Z</time>
      </trkpt>
      <trkpt lat="47.89556" lon="7.11066">
        <ele>1186</ele>
        <time>2023-05-18T15:11:47Z</time>
      </trkpt>
      <trkpt lat="47.89561" lon="7.11059">
        <ele>1186.4</ele>
        <time>2023-05-18T15:11:54Z</time>
      </trkpt>
      <trkpt lat="47.89564" lon="7.11043">
        <ele>1188.3</ele>
        <time>2023-05-18T15:12:03Z</time>
      </trkpt>
      <trkpt lat="47.89571" lon="7.1103">
        <ele>1188.9</ele>
        <time>2023-05-18T15:12:13Z</time>
      </trkpt>
      <trkpt lat="47.89572" lon="7.11023">
        <ele>1189.8</ele>
        <time>2023-05-18T15:12:17Z</time>
      </trkpt>
      <trkpt lat="47.89575" lon="7.11016">
        <ele>1190.5</ele>
        <time>2023-05-18T15:12:23Z</time>
      </trkpt>
      <trkpt lat="47.89579" lon="7.11012">
        <ele>1190.5</ele>
        <time>2023-05-18T15:12:27Z</time>
      </trkpt>
      <trkpt lat="47.89582" lon="7.11002">
        <ele>1191.8</ele>
        <time>2023-05-18T15:12:33Z</time>
      </trkpt>
      <trkpt lat="47.89589" lon="7.1099">
        <ele>1193.3</ele>
        <time>2023-05-18T15:12:44Z</time>
      </trkpt>
      <trkpt lat="47.89595" lon="7.10979">
        <ele>1194.8</ele>
        <time>2023-05-18T15:12:52Z</time>
      </trkpt>
      <trkpt lat="47.89599" lon="7.1098">
        <ele>1194.3</ele>
        <time>2023-05-18T15:12:58Z</time>
      </trkpt>
      <trkpt lat="47.89604" lon="7.10974">
        <ele>1195.1</ele>
        <time>2023-05-18T15:13:05Z</time>
      </trkpt>
      <trkpt lat="47.89608" lon="7.10971">
        <ele>1195.4</ele>
        <time>2023-05-18T15:13:10Z</time>
      </trkpt>
      <trkpt lat="47.89629" lon="7.10936">
        <ele>1199.1</ele>
        <time>2023-05-18T15:13:41Z</time>
      </trkpt>
      <trkpt lat="47.89636" lon="7.10927">
        <ele>1200.3</ele>
        <time>2023-05-18T15:13:49Z</time>
      </trkpt>
      <trkpt lat="47.89663" lon="7.10905">
        <ele>1203.1</ele>
        <time>2023-05-18T15:14:21Z</time>
      </trkpt>
      <trkpt lat="47.89666" lon="7.109">
        <ele>1204.2</ele>
        <time>2023-05-18T15:14:26Z</time>
      </trkpt>
      <trkpt lat="47.89674" lon="7.10895">
        <ele>1205.1</ele>
        <time>2023-05-18T15:14:37Z</time>
      </trkpt>
      <trkpt lat="47.89677" lon="7.10887">
        <ele>1207.1</ele>
        <time>2023-05-18T15:14:45Z</time>
      </trkpt>
      <trkpt lat="47.89679" lon="7.10873">
        <ele>1210.2</ele>
        <time>2023-05-18T15:14:55Z</time>
      </trkpt>
      <trkpt lat="47.89686" lon="7.10859">
        <ele>1213.4</ele>
        <time>2023-05-18T15:15:08Z</time>
      </trkpt>
      <trkpt lat="47.89692" lon="7.10854">
        <ele>1214.3</ele>
        <time>2023-05-18T15:15:17Z</time>
      </trkpt>
      <trkpt lat="47.89697" lon="7.10853">
        <ele>1214.3</ele>
        <time>2023-05-18T15:15:21Z</time>
      </trkpt>
      <trkpt lat="47.89704" lon="7.10842">
        <ele>1216</ele>
        <time>2023-05-18T15:15:35Z</time>
      </trkpt>
      <trkpt lat="47.89708" lon="7.10823">
        <ele>1219.6</ele>
        <time>2023-05-18T15:15:50Z</time>
      </trkpt>
      <trkpt lat="47.8973" lon="7.10791">
        <ele>1225.1</ele>
        <time>2023-05-18T15:16:27Z</time>
      </trkpt>
      <trkpt lat="47.89732" lon="7.10786">
        <ele>1226.2</ele>
        <time>2023-05-18T15:16:31Z</time>
      </trkpt>
      <trkpt lat="47.89734" lon="7.1078">
        <ele>1227.5</ele>
        <time>2023-05-18T15:16:36Z</time>
      </trkpt>
      <trkpt lat="47.89738" lon="7.10775">
        <ele>1228.6</ele>
        <time>2023-05-18T15:16:41Z</time>
      </trkpt>
      <trkpt lat="47.89742" lon="7.10762">
        <ele>1231.6</ele>
        <time>2023-05-18T15:16:50Z</time>
      </trkpt>
      <trkpt lat="47.89746" lon="7.10759">
        <ele>1232.2</ele>
        <time>2023-05-18T15:16:58Z</time>
      </trkpt>
      <trkpt lat="47.89754" lon="7.1076">
        <ele>1232</ele>
        <time>2023-05-18T15:17:08Z</time>
      </trkpt>
      <trkpt lat="47.89762" lon="7.10759">
        <ele>1232.5</ele>
        <time>2023-05-18T15:17:18Z</time>
      </trkpt>
      <trkpt lat="47.89769" lon="7.10753">
        <ele>1234</ele>
        <time>2023-05-18T15:17:28Z</time>
      </trkpt>
      <trkpt lat="47.89778" lon="7.10746">
        <ele>1235.6</ele>
        <time>2023-05-18T15:17:40Z</time>
      </trkpt>
      <trkpt lat="47.89799" lon="7.10716">
        <ele>1239.9</ele>
        <time>2023-05-18T15:18:14Z</time>
      </trkpt>
      <trkpt lat="47.89805" lon="7.107">
        <ele>1242.2</ele>
        <time>2023-05-18T15:18:26Z</time>
      </trkpt>
      <trkpt lat="47.89811" lon="7.10692">
        <ele>1243.4</ele>
        <time>2023-05-18T15:18:35Z</time>
      </trkpt>
      <trkpt lat="47.89824" lon="7.10668">
        <ele>1246.8</ele>
        <time>2023-05-18T15:18:57Z</time>
      </trkpt>
      <trkpt lat="47.8984" lon="7.10644">
        <ele>1250.8</ele>
        <time>2023-05-18T15:19:26Z</time>
      </trkpt>
      <trkpt lat="47.89842" lon="7.10637">
        <ele>1252</ele>
        <time>2023-05-18T15:19:31Z</time>
      </trkpt>
      <trkpt lat="47.89843" lon="7.10629">
        <ele>1253.4</ele>
        <time>2023-05-18T15:19:36Z</time>
      </trkpt>
      <trkpt lat="47.89845" lon="7.10623">
        <ele>1254.4</ele>
        <time>2023-05-18T15:19:40Z</time>
      </trkpt>
      <trkpt lat="47.89851" lon="7.1062">
        <ele>1254.8</ele>
        <time>2023-05-18T15:19:47Z</time>
      </trkpt>
      <trkpt lat="47.89855" lon="7.10612">
        <ele>1256.1</ele>
        <time>2023-05-18T15:19:55Z</time>
      </trkpt>
      <trkpt lat="47.89857" lon="7.10603">
        <ele>1257.1</ele>
        <time>2023-05-18T15:20:00Z</time>
      </trkpt>
      <trkpt lat="47.89856" lon="7.10582">
        <ele>1259.6</ele>
        <time>2023-05-18T15:20:16Z</time>
      </trkpt>
      <trkpt lat="47.8986" lon="7.10574">
        <ele>1260.4</ele>
        <time>2023-05-18T15:20:26Z</time>
      </trkpt>
      <trkpt lat="47.89859" lon="7.10554">
        <ele>1263.3</ele>
        <time>2023-05-18T15:20:45Z</time>
      </trkpt>
      <trkpt lat="47.89861" lon="7.10545">
        <ele>1264.5</ele>
        <time>2023-05-18T15:20:54Z</time>
      </trkpt>
      <trkpt lat="47.89863" lon="7.10539">
        <ele>1265.3</ele>
        <time>2023-05-18T15:20:59Z</time>
      </trkpt>
      <trkpt lat="47.89863" lon="7.10529">
        <ele>1266.8</ele>
        <time>2023-05-18T15:21:09Z</time>
      </trkpt>
      <trkpt lat="47.89868" lon="7.10515">
        <ele>1268.6</ele>
        <time>2023-05-18T15:21:21Z</time>
      </trkpt>
      <trkpt lat="47.8987" lon="7.10505">
        <ele>1270</ele>
        <time>2023-05-18T15:21:30Z</time>
      </trkpt>
      <trkpt lat="47.8987" lon="7.10498">
        <ele>1271</ele>
        <time>2023-05-18T15:21:36Z</time>
      </trkpt>
      <trkpt lat="47.89871" lon="7.10488">
        <ele>1272.4</ele>
        <time>2023-05-18T15:21:47Z</time>
      </trkpt>
      <trkpt lat="47.89864" lon="7.10471">
        <ele>1275</ele>
        <time>2023-05-18T15:22:05Z</time>
      </trkpt>
      <trkpt lat="47.89861" lon="7.10466">
        <ele>1275.7</ele>
        <time>2023-05-18T15:22:10Z</time>
      </trkpt>
      <trkpt lat="47.89853" lon="7.10459">
        <ele>1276.9</ele>
        <time>2023-05-18T15:22:19Z</time>
      </trkpt>
      <trkpt lat="47.89849" lon="7.10455">
        <ele>1277.5</ele>
        <time>2023-05-18T15:22:24Z</time>
      </trkpt>
      <trkpt lat="47.89845" lon="7.1045">
        <ele>1278.1</ele>
        <time>2023-05-18T15:22:29Z</time>
      </trkpt>
      <trkpt lat="47.89841" lon="7.10443">
        <ele>1278.9</ele>
        <time>2023-05-18T15:22:36Z</time>
      </trkpt>
      <trkpt lat="47.89815" lon="7.10413">
        <ele>1283.1</ele>
        <time>2023-05-18T15:23:10Z</time>
      </trkpt>
      <trkpt lat="47.89809" lon="7.10405">
        <ele>1284.2</ele>
        <time>2023-05-18T15:23:18Z</time>
      </trkpt>
      <trkpt lat="47.89806" lon="7.10395">
        <ele>1285.3</ele>
        <time>2023-05-18T15:23:27Z</time>
      </trkpt>
      <trkpt lat="47.89792" lon="7.10378">
        <ele>1286.8</ele>
        <time>2023-05-18T15:23:44Z</time>
      </trkpt>
      <trkpt lat="47.89788" lon="7.10375">
        <ele>1287</ele>
        <time>2023-05-18T15:23:47Z</time>
      </trkpt>
      <trkpt lat="47.89782" lon="7.10365">
        <ele>1287.7</ele>
        <time>2023-05-18T15:23:55Z</time>
      </trkpt>
      <trkpt lat="47.89776" lon="7.10354">
        <ele>1288.4</ele>
        <time>2023-05-18T15:24:05Z</time>
      </trkpt>
      <trkpt lat="47.89764" lon="7.10334">
        <ele>1289</ele>
        <time>2023-05-18T15:24:22Z</time>
      </trkpt>
      <trkpt lat="47.89759" lon="7.10326">
        <ele>1289.3</ele>
        <time>2023-05-18T15:24:28Z</time>
      </trkpt>
      <trkpt lat="47.89755" lon="7.10323">
        <ele>1289.2</ele>
        <time>2023-05-18T15:24:32Z</time>
      </trkpt>
      <trkpt lat="47.8975" lon="7.10317">
        <ele>1289.2</ele>
        <time>2023-05-18T15:24:39Z</time>
      </trkpt>
      <trkpt lat="47.89746" lon="7.10314">
        <ele>1288.9</ele>
        <time>2023-05-18T15:24:43Z</time>
      </trkpt>
      <trkpt lat="47.89742" lon="7.10309">
        <ele>1288.6</ele>
        <time>2023-05-18T15:24:47Z</time>
      </trkpt>
      <trkpt lat="47.89741" lon="7.10302">
        <ele>1288.7</ele>
        <time>2023-05-18T15:25:01Z</time>
      </trkpt>
      <trkpt lat="47.89745" lon="7.10288">
        <ele>1289.6</ele>
        <time>2023-05-18T15:25:11Z</time>
      </trkpt>
      <trkpt lat="47.89748" lon="7.10281">
        <ele>1290.4</ele>
        <time>2023-05-18T15:25:19Z</time>
      </trkpt>
      <trkpt lat="47.89751" lon="7.10275">
        <ele>1291.5</ele>
        <time>2023-05-18T15:25:24Z</time>
      </trkpt>
      <trkpt lat="47.89756" lon="7.10246">
        <ele>1295.9</ele>
        <time>2023-05-18T15:25:47Z</time>
      </trkpt>
      <trkpt lat="47.8976" lon="7.10215">
        <ele>1299</ele>
        <time>2023-05-18T15:26:12Z</time>
      </trkpt>
      <trkpt lat="47.89765" lon="7.10188">
        <ele>1301.9</ele>
        <time>2023-05-18T15:26:33Z</time>
      </trkpt>
      <trkpt lat="47.89767" lon="7.10181">
        <ele>1302.7</ele>
        <time>2023-05-18T15:26:38Z</time>
      </trkpt>
      <trkpt lat="47.89772" lon="7.10166">
        <ele>1304.7</ele>
        <time>2023-05-18T15:26:50Z</time>
      </trkpt>
      <trkpt lat="47.89776" lon="7.10172">
        <ele>1306.3</ele>
        <time>2023-05-18T15:26:57Z</time>
      </trkpt>
      <trkpt lat="47.89781" lon="7.10185">
        <ele>1308.1</ele>
        <time>2023-05-18T15:27:07Z</time>
      </trkpt>
      <trkpt lat="47.89783" lon="7.10193">
        <ele>1308.7</ele>
        <time>2023-05-18T15:27:14Z</time>
      </trkpt>
      <trkpt lat="47.89789" lon="7.10207">
        <ele>1309.7</ele>
        <time>2023-05-18T15:27:25Z</time>
      </trkpt>
      <trkpt lat="47.89809" lon="7.10218">
        <ele>1315.5</ele>
        <time>2023-05-18T15:27:58Z</time>
      </trkpt>
      <trkpt lat="47.89818" lon="7.10221">
        <ele>1318.6</ele>
        <time>2023-05-18T15:28:09Z</time>
      </trkpt>
      <trkpt lat="47.89821" lon="7.10227">
        <ele>1318.9</ele>
        <time>2023-05-18T15:28:14Z</time>
      </trkpt>
      <trkpt lat="47.89827" lon="7.10227">
        <ele>1321.1</ele>
        <time>2023-05-18T15:28:23Z</time>
      </trkpt>
      <trkpt lat="47.89831" lon="7.1023">
        <ele>1322.1</ele>
        <time>2023-05-18T15:28:30Z</time>
      </trkpt>
      <trkpt lat="47.89835" lon="7.10229">
        <ele>1323.4</ele>
        <time>2023-05-18T15:28:35Z</time>
      </trkpt>
      <trkpt lat="47.89844" lon="7.10204">
        <ele>1327.9</ele>
        <time>2023-05-18T15:29:02Z</time>
      </trkpt>
      <trkpt lat="47.89852" lon="7.102">
        <ele>1330.2</ele>
        <time>2023-05-18T15:29:14Z</time>
      </trkpt>
      <trkpt lat="47.89857" lon="7.10192">
        <ele>1332.4</ele>
        <time>2023-05-18T15:29:27Z</time>
      </trkpt>
      <trkpt lat="47.89859" lon="7.10174">
        <ele>1336</ele>
        <time>2023-05-18T15:29:45Z</time>
      </trkpt>
      <trkpt lat="47.89864" lon="7.10173">
        <ele>1337.6</ele>
        <time>2023-05-18T15:30:08Z</time>
      </trkpt>
      <trkpt lat="47.89869" lon="7.10178">
        <ele>1337.9</ele>
        <time>2023-05-18T15:30:13Z</time>
      </trkpt>
      <trkpt lat="47.89875" lon="7.10182">
        <ele>1338.7</ele>
        <time>2023-05-18T15:30:21Z</time>
      </trkpt>
      <trkpt lat="47.89888" lon="7.10183">
        <ele>1341.8</ele>
        <time>2023-05-18T15:30:39Z</time>
      </trkpt>
      <trkpt lat="47.89895" lon="7.10179">
        <ele>1343.9</ele>
        <time>2023-05-18T15:30:51Z</time>
      </trkpt>
      <trkpt lat="47.89902" lon="7.10189">
        <ele>1343.3</ele>
        <time>2023-05-18T15:31:00Z</time>
      </trkpt>
      <trkpt lat="47.89911" lon="7.10192">
        <ele>1344.4</ele>
        <time>2023-05-18T15:31:09Z</time>
      </trkpt>
      <trkpt lat="47.89917" lon="7.10195">
        <ele>1344.9</ele>
        <time>2023-05-18T15:31:17Z</time>
      </trkpt>
      <trkpt lat="47.89922" lon="7.10192">
        <ele>1345.6</ele>
        <time>2023-05-18T15:31:21Z</time>
      </trkpt>
      <trkpt lat="47.89927" lon="7.10188">
        <ele>1346.4</ele>
        <time>2023-05-18T15:31:26Z</time>
      </trkpt>
      <trkpt lat="47.89936" lon="7.10177">
        <ele>1348.4</ele>
        <time>2023-05-18T15:31:37Z</time>
      </trkpt>
      <trkpt lat="47.8994" lon="7.10176">
        <ele>1348.6</ele>
        <time>2023-05-18T15:31:42Z</time>
      </trkpt>
      <trkpt lat="47.89945" lon="7.10177">
        <ele>1348.5</ele>
        <time>2023-05-18T15:31:45Z</time>
      </trkpt>
      <trkpt lat="47.89949" lon="7.10175">
        <ele>1348.8</ele>
        <time>2023-05-18T15:31:49Z</time>
      </trkpt>
      <trkpt lat="47.89954" lon="7.10173">
        <ele>1349</ele>
        <time>2023-05-18T15:31:53Z</time>
      </trkpt>
      <trkpt lat="47.89959" lon="7.10169">
        <ele>1349.6</ele>
        <time>2023-05-18T15:31:57Z</time>
      </trkpt>
      <trkpt lat="47.89963" lon="7.10167">
        <ele>1349.9</ele>
        <time>2023-05-18T15:32:01Z</time>
      </trkpt>
      <trkpt lat="47.89967" lon="7.10164">
        <ele>1350.5</ele>
        <time>2023-05-18T15:32:05Z</time>
      </trkpt>
      <trkpt lat="47.89971" lon="7.10163">
        <ele>1350.7</ele>
        <time>2023-05-18T15:32:09Z</time>
      </trkpt>
      <trkpt lat="47.89985" lon="7.10164">
        <ele>1351.4</ele>
        <time>2023-05-18T15:32:22Z</time>
      </trkpt>
      <trkpt lat="47.89992" lon="7.10161">
        <ele>1352.6</ele>
        <time>2023-05-18T15:32:30Z</time>
      </trkpt>
      <trkpt lat="47.89996" lon="7.1016">
        <ele>1353.1</ele>
        <time>2023-05-18T15:32:33Z</time>
      </trkpt>
      <trkpt lat="47.90003" lon="7.10154">
        <ele>1354.8</ele>
        <time>2023-05-18T15:32:41Z</time>
      </trkpt>
      <trkpt lat="47.90012" lon="7.10142">
        <ele>1357.8</ele>
        <time>2023-05-18T15:32:55Z</time>
      </trkpt>
      <trkpt lat="47.90019" lon="7.10137">
        <ele>1359.1</ele>
        <time>2023-05-18T15:33:03Z</time>
      </trkpt>
      <trkpt lat="47.90024" lon="7.10133">
        <ele>1360.3</ele>
        <time>2023-05-18T15:33:10Z</time>
      </trkpt>
      <trkpt lat="47.90027" lon="7.10128">
        <ele>1361.7</ele>
        <time>2023-05-18T15:33:15Z</time>
      </trkpt>
      <trkpt lat="47.90031" lon="7.10124">
        <ele>1362.8</ele>
        <time>2023-05-18T15:33:20Z</time>
      </trkpt>
      <trkpt lat="47.90034" lon="7.10118">
        <ele>1364.4</ele>
        <time>2023-05-18T15:33:26Z</time>
      </trkpt>
      <trkpt lat="47.9004" lon="7.10118">
        <ele>1364.5</ele>
        <time>2023-05-18T15:33:33Z</time>
      </trkpt>
      <trkpt lat="47.90043" lon="7.10113">
        <ele>1366</ele>
        <time>2023-05-18T15:33:38Z</time>
      </trkpt>
      <trkpt lat="47.90064" lon="7.10103">
        <ele>1369.2</ele>
        <time>2023-05-18T15:34:01Z</time>
      </trkpt>
      <trkpt lat="47.90077" lon="7.10097">
        <ele>1371.3</ele>
        <time>2023-05-18T15:34:14Z</time>
      </trkpt>
      <trkpt lat="47.90083" lon="7.10094">
        <ele>1372.5</ele>
        <time>2023-05-18T15:34:22Z</time>
      </trkpt>
      <trkpt lat="47.90096" lon="7.10094">
        <ele>1373.5</ele>
        <time>2023-05-18T15:34:34Z</time>
      </trkpt>
      <trkpt lat="47.9011" lon="7.10093">
        <ele>1374.8</ele>
        <time>2023-05-18T15:34:47Z</time>
      </trkpt>
      <trkpt lat="47.90114" lon="7.10089">
        <ele>1375.9</ele>
        <time>2023-05-18T15:34:52Z</time>
      </trkpt>
      <trkpt lat="47.90118" lon="7.10087">
        <ele>1376.5</ele>
        <time>2023-05-18T15:34:56Z</time>
      </trkpt>
      <trkpt lat="47.90138" lon="7.10073">
        <ele>1380.6</ele>
        <time>2023-05-18T15:35:20Z</time>
      </trkpt>
      <trkpt lat="47.90158" lon="7.1007">
        <ele>1382.7</ele>
        <time>2023-05-18T15:35:40Z</time>
      </trkpt>
      <trkpt lat="47.90162" lon="7.10068">
        <ele>1383.5</ele>
        <time>2023-05-18T15:35:45Z</time>
      </trkpt>
      <trkpt lat="47.90189" lon="7.10065">
        <ele>1387</ele>
        <time>2023-05-18T15:36:09Z</time>
      </trkpt>
      <trkpt lat="47.90194" lon="7.10065">
        <ele>1387.6</ele>
        <time>2023-05-18T15:36:13Z</time>
      </trkpt>
      <trkpt lat="47.90201" lon="7.10065">
        <ele>1388.6</ele>
        <time>2023-05-18T15:36:21Z</time>
      </trkpt>
      <trkpt lat="47.90211" lon="7.10069">
        <ele>1389.3</ele>
        <time>2023-05-18T15:36:28Z</time>
      </trkpt>
      <trkpt lat="47.90215" lon="7.10066">
        <ele>1390.6</ele>
        <time>2023-05-18T15:36:33Z</time>
      </trkpt>
      <trkpt lat="47.90217" lon="7.1006">
        <ele>1392.3</ele>
        <time>2023-05-18T15:36:38Z</time>
      </trkpt>
      <trkpt lat="47.90201" lon="7.10044">
        <ele>1393.7</ele>
        <time>2023-05-18T15:36:57Z</time>
      </trkpt>
      <trkpt lat="47.90197" lon="7.1004">
        <ele>1394.2</ele>
        <time>2023-05-18T15:37:02Z</time>
      </trkpt>
      <trkpt lat="47.9019" lon="7.1003">
        <ele>1396</ele>
        <time>2023-05-18T15:37:12Z</time>
      </trkpt>
      <trkpt lat="47.90166" lon="7.10006">
        <ele>1399.4</ele>
        <time>2023-05-18T15:37:43Z</time>
      </trkpt>
      <trkpt lat="47.90146" lon="7.09992">
        <ele>1401.8</ele>
        <time>2023-05-18T15:38:04Z</time>
      </trkpt>
      <trkpt lat="47.90142" lon="7.09989">
        <ele>1402.4</ele>
        <time>2023-05-18T15:38:09Z</time>
      </trkpt>
      <trkpt lat="47.90137" lon="7.09986">
        <ele>1403</ele>
        <time>2023-05-18T15:38:14Z</time>
      </trkpt>
      <trkpt lat="47.90128" lon="7.0998">
        <ele>1404.4</ele>
        <time>2023-05-18T15:38:24Z</time>
      </trkpt>
      <trkpt lat="47.90122" lon="7.09976">
        <ele>1405.3</ele>
        <time>2023-05-18T15:38:29Z</time>
      </trkpt>
      <trkpt lat="47.90089" lon="7.09961">
        <ele>1408.8</ele>
        <time>2023-05-18T15:39:05Z</time>
      </trkpt>
      <trkpt lat="47.90063" lon="7.09941">
        <ele>1412</ele>
        <time>2023-05-18T15:39:36Z</time>
      </trkpt>
      <trkpt lat="47.90059" lon="7.09937">
        <ele>1412.1</ele>
        <time>2023-05-18T15:39:41Z</time>
      </trkpt>
      <trkpt lat="47.9005" lon="7.09931">
        <ele>1412.1</ele>
        <time>2023-05-18T15:39:49Z</time>
      </trkpt>
      <trkpt lat="47.90046" lon="7.09926">
        <ele>1412.3</ele>
        <time>2023-05-18T15:39:54Z</time>
      </trkpt>
      <trkpt lat="47.90043" lon="7.09922">
        <ele>1412.5</ele>
        <time>2023-05-18T15:39:58Z</time>
      </trkpt>
      <trkpt lat="47.90034" lon="7.09917">
        <ele>1412.4</ele>
        <time>2023-05-18T15:40:06Z</time>
      </trkpt>
      <trkpt lat="47.90031" lon="7.09912">
        <ele>1412.3</ele>
        <time>2023-05-18T15:40:11Z</time>
      </trkpt>
      <trkpt lat="47.90028" lon="7.09905">
        <ele>1412</ele>
        <time>2023-05-18T15:40:18Z</time>
      </trkpt>
      <trkpt lat="47.90024" lon="7.09902">
        <ele>1411.2</ele>
        <time>2023-05-18T15:40:23Z</time>
      </trkpt>
      <trkpt lat="47.9002" lon="7.09903">
        <ele>1410.5</ele>
        <time>2023-05-18T15:41:16Z</time>
      </trkpt>
      <trkpt lat="47.90049" lon="7.09893">
        <ele>1414.8</ele>
        <time>2023-05-18T15:42:25Z</time>
      </trkpt>
      <trkpt lat="47.9005" lon="7.09891">
        <ele>1415.1</ele>
        <time>2023-05-18T15:42:26Z</time>
      </trkpt>
      <trkpt lat="47.90057" lon="7.09883">
        <ele>1416.4</ele>
        <time>2023-05-18T15:42:35Z</time>
      </trkpt>
      <trkpt lat="47.90063" lon="7.09881">
        <ele>1417.4</ele>
        <time>2023-05-18T15:42:42Z</time>
      </trkpt>
      <trkpt lat="47.90067" lon="7.09876">
        <ele>1418.3</ele>
        <time>2023-05-18T15:42:47Z</time>
      </trkpt>
      <trkpt lat="47.9007" lon="7.09873">
        <ele>1418.9</ele>
        <time>2023-05-18T15:42:51Z</time>
      </trkpt>
      <trkpt lat="47.90077" lon="7.09871">
        <ele>1420.2</ele>
        <time>2023-05-18T15:42:58Z</time>
      </trkpt>
      <trkpt lat="47.90082" lon="7.09865">
        <ele>1421.5</ele>
        <time>2023-05-18T15:43:05Z</time>
      </trkpt>
      <trkpt lat="47.90088" lon="7.09853">
        <ele>1422</ele>
        <time>2023-05-18T15:43:14Z</time>
      </trkpt>
      <trkpt lat="47.90091" lon="7.09848">
        <ele>1422.1</ele>
        <time>2023-05-18T15:43:18Z</time>
      </trkpt>
      <trkpt lat="47.90096" lon="7.09842">
        <ele>1422.3</ele>
        <time>2023-05-18T15:43:26Z</time>
      </trkpt>
      <trkpt lat="47.901" lon="7.09841">
        <ele>1422.4</ele>
        <time>2023-05-18T15:43:31Z</time>
      </trkpt>
      <trkpt lat="47.90106" lon="7.09843">
        <ele>1422.5</ele>
        <time>2023-05-18T15:43:36Z</time>
      </trkpt>
      <trkpt lat="47.90115" lon="7.09843">
        <ele>1422</ele>
        <time>2023-05-18T15:43:45Z</time>
      </trkpt>
      <trkpt lat="47.90114" lon="7.09834">
        <ele>1422.4</ele>
        <time>2023-05-18T15:43:54Z</time>
      </trkpt>
      <trkpt lat="47.9011" lon="7.0983">
        <ele>1422.6</ele>
        <time>2023-05-18T15:44:02Z</time>
      </trkpt>
      <trkpt lat="47.90106" lon="7.09825">
        <ele>1421.9</ele>
        <time>2023-05-18T15:44:13Z</time>
      </trkpt>
      <trkpt lat="47.90103" lon="7.09819">
        <ele>1421.2</ele>
        <time>2023-05-18T15:44:31Z</time>
      </trkpt>
      <trkpt lat="47.90101" lon="7.09814">
        <ele>1420.5</ele>
        <time>2023-05-18T15:44:48Z</time>
      </trkpt>
      <trkpt lat="47.90097" lon="7.09815">
        <ele>1420.5</ele>
        <time>2023-05-18T15:46:06Z</time>
      </trkpt>
      <trkpt lat="47.90098" lon="7.09826">
        <ele>1421.7</ele>
        <time>2023-05-18T15:46:19Z</time>
      </trkpt>
      <trkpt lat="47.90104" lon="7.09825">
        <ele>1421.8</ele>
        <time>2023-05-18T15:46:28Z</time>
      </trkpt>
      <trkpt lat="47.9011" lon="7.09829">
        <ele>1422.5</ele>
        <time>2023-05-18T15:46:38Z</time>
      </trkpt>
      <trkpt lat="47.90114" lon="7.09833">
        <ele>1422.3</ele>
        <time>2023-05-18T15:46:47Z</time>
      </trkpt>
      <trkpt lat="47.90114" lon="7.09843">
        <ele>1422.1</ele>
        <time>2023-05-18T15:46:57Z</time>
      </trkpt>
      <trkpt lat="47.90109" lon="7.09841">
        <ele>1422.7</ele>
        <time>2023-05-18T15:47:01Z</time>
      </trkpt>
      <trkpt lat="47.90105" lon="7.0984">
        <ele>1422.6</ele>
        <time>2023-05-18T15:47:05Z</time>
      </trkpt>
      <trkpt lat="47.90101" lon="7.09841">
        <ele>1422.5</ele>
        <time>2023-05-18T15:47:09Z</time>
      </trkpt>
      <trkpt lat="47.90097" lon="7.09845">
        <ele>1422.3</ele>
        <time>2023-05-18T15:47:13Z</time>
      </trkpt>
      <trkpt lat="47.90093" lon="7.09849">
        <ele>1422.2</ele>
        <time>2023-05-18T15:47:17Z</time>
      </trkpt>
      <trkpt lat="47.9009" lon="7.09854">
        <ele>1422.1</ele>
        <time>2023-05-18T15:47:21Z</time>
      </trkpt>
      <trkpt lat="47.90087" lon="7.09861">
        <ele>1422</ele>
        <time>2023-05-18T15:47:26Z</time>
      </trkpt>
      <trkpt lat="47.90084" lon="7.09865">
        <ele>1421.7</ele>
        <time>2023-05-18T15:47:30Z</time>
      </trkpt>
      <trkpt lat="47.90081" lon="7.0987">
        <ele>1421</ele>
        <time>2023-05-18T15:47:34Z</time>
      </trkpt>
      <trkpt lat="47.90076" lon="7.09873">
        <ele>1419.9</ele>
        <time>2023-05-18T15:47:38Z</time>
      </trkpt>
      <trkpt lat="47.90071" lon="7.09876">
        <ele>1418.9</ele>
        <time>2023-05-18T15:47:42Z</time>
      </trkpt>
      <trkpt lat="47.90051" lon="7.09891">
        <ele>1415.2</ele>
        <time>2023-05-18T15:48:07Z</time>
      </trkpt>
      <trkpt lat="47.90047" lon="7.09896">
        <ele>1414.4</ele>
        <time>2023-05-18T15:48:11Z</time>
      </trkpt>
      <trkpt lat="47.90045" lon="7.09901">
        <ele>1413.9</ele>
        <time>2023-05-18T15:48:15Z</time>
      </trkpt>
      <trkpt lat="47.9004" lon="7.09914">
        <ele>1413</ele>
        <time>2023-05-18T15:48:23Z</time>
      </trkpt>
      <trkpt lat="47.90036" lon="7.09918">
        <ele>1412.4</ele>
        <time>2023-05-18T15:48:27Z</time>
      </trkpt>
      <trkpt lat="47.90033" lon="7.0992">
        <ele>1412</ele>
        <time>2023-05-18T15:48:31Z</time>
      </trkpt>
      <trkpt lat="47.90028" lon="7.09922">
        <ele>1411.4</ele>
        <time>2023-05-18T15:48:35Z</time>
      </trkpt>
      <trkpt lat="47.90024" lon="7.09924">
        <ele>1410.7</ele>
        <time>2023-05-18T15:48:39Z</time>
      </trkpt>
      <trkpt lat="47.90019" lon="7.09926">
        <ele>1409.9</ele>
        <time>2023-05-18T15:48:44Z</time>
      </trkpt>
      <trkpt lat="47.90015" lon="7.09932">
        <ele>1409</ele>
        <time>2023-05-18T15:48:53Z</time>
      </trkpt>
      <trkpt lat="47.90016" lon="7.09946">
        <ele>1407.8</ele>
        <time>2023-05-18T15:49:01Z</time>
      </trkpt>
      <trkpt lat="47.90018" lon="7.09952">
        <ele>1406.8</ele>
        <time>2023-05-18T15:49:04Z</time>
      </trkpt>
      <trkpt lat="47.90022" lon="7.0996">
        <ele>1405.3</ele>
        <time>2023-05-18T15:49:10Z</time>
      </trkpt>
      <trkpt lat="47.90023" lon="7.09971">
        <ele>1403.1</ele>
        <time>2023-05-18T15:49:19Z</time>
      </trkpt>
      <trkpt lat="47.9002" lon="7.09979">
        <ele>1400.9</ele>
        <time>2023-05-18T15:49:26Z</time>
      </trkpt>
      <trkpt lat="47.90015" lon="7.09981">
        <ele>1400.3</ele>
        <time>2023-05-18T15:49:30Z</time>
      </trkpt>
      <trkpt lat="47.9001" lon="7.09982">
        <ele>1400</ele>
        <time>2023-05-18T15:49:34Z</time>
      </trkpt>
      <trkpt lat="47.90006" lon="7.09985">
        <ele>1399.3</ele>
        <time>2023-05-18T15:49:38Z</time>
      </trkpt>
      <trkpt lat="47.90003" lon="7.09989">
        <ele>1398.4</ele>
        <time>2023-05-18T15:49:42Z</time>
      </trkpt>
      <trkpt lat="47.89999" lon="7.09992">
        <ele>1397.6</ele>
        <time>2023-05-18T15:49:46Z</time>
      </trkpt>
      <trkpt lat="47.89995" lon="7.09995">
        <ele>1396.4</ele>
        <time>2023-05-18T15:49:51Z</time>
      </trkpt>
      <trkpt lat="47.8999" lon="7.09995">
        <ele>1395.6</ele>
        <time>2023-05-18T15:49:55Z</time>
      </trkpt>
      <trkpt lat="47.89986" lon="7.09994">
        <ele>1395.3</ele>
        <time>2023-05-18T15:49:59Z</time>
      </trkpt>
      <trkpt lat="47.8998" lon="7.09995">
        <ele>1394.2</ele>
        <time>2023-05-18T15:50:06Z</time>
      </trkpt>
      <trkpt lat="47.89975" lon="7.09995">
        <ele>1393.5</ele>
        <time>2023-05-18T15:50:14Z</time>
      </trkpt>
      <trkpt lat="47.89967" lon="7.09994">
        <ele>1391.7</ele>
        <time>2023-05-18T15:50:24Z</time>
      </trkpt>
      <trkpt lat="47.89963" lon="7.09992">
        <ele>1390.8</ele>
        <time>2023-05-18T15:50:28Z</time>
      </trkpt>
      <trkpt lat="47.8995" lon="7.09984">
        <ele>1387.7</ele>
        <time>2023-05-18T15:50:45Z</time>
      </trkpt>
      <trkpt lat="47.89947" lon="7.09978">
        <ele>1387.3</ele>
        <time>2023-05-18T15:50:50Z</time>
      </trkpt>
      <trkpt lat="47.89942" lon="7.09975">
        <ele>1386</ele>
        <time>2023-05-18T15:50:55Z</time>
      </trkpt>
      <trkpt lat="47.89922" lon="7.09945">
        <ele>1383.5</ele>
        <time>2023-05-18T15:51:23Z</time>
      </trkpt>
      <trkpt lat="47.89908" lon="7.09932">
        <ele>1378.9</ele>
        <time>2023-05-18T15:51:39Z</time>
      </trkpt>
      <trkpt lat="47.89899" lon="7.0992">
        <ele>1375.6</ele>
        <time>2023-05-18T15:51:53Z</time>
      </trkpt>
      <trkpt lat="47.89899" lon="7.09913">
        <ele>1374.9</ele>
        <time>2023-05-18T15:51:58Z</time>
      </trkpt>
      <trkpt lat="47.89901" lon="7.09898">
        <ele>1372.6</ele>
        <time>2023-05-18T15:52:07Z</time>
      </trkpt>
      <trkpt lat="47.8991" lon="7.09882">
        <ele>1372.9</ele>
        <time>2023-05-18T15:52:22Z</time>
      </trkpt>
      <trkpt lat="47.89912" lon="7.09876">
        <ele>1372.4</ele>
        <time>2023-05-18T15:52:26Z</time>
      </trkpt>
      <trkpt lat="47.89914" lon="7.09871">
        <ele>1372.1</ele>
        <time>2023-05-18T15:52:30Z</time>
      </trkpt>
      <trkpt lat="47.89918" lon="7.09856">
        <ele>1370.2</ele>
        <time>2023-05-18T15:52:43Z</time>
      </trkpt>
      <trkpt lat="47.8992" lon="7.0985">
        <ele>1369.4</ele>
        <time>2023-05-18T15:52:48Z</time>
      </trkpt>
      <trkpt lat="47.89922" lon="7.09843">
        <ele>1368.4</ele>
        <time>2023-05-18T15:52:54Z</time>
      </trkpt>
      <trkpt lat="47.89926" lon="7.09834">
        <ele>1367.8</ele>
        <time>2023-05-18T15:53:05Z</time>
      </trkpt>
      <trkpt lat="47.89927" lon="7.09827">
        <ele>1366.6</ele>
        <time>2023-05-18T15:53:10Z</time>
      </trkpt>
      <trkpt lat="47.89937" lon="7.09799">
        <ele>1362.9</ele>
        <time>2023-05-18T15:53:30Z</time>
      </trkpt>
      <trkpt lat="47.89938" lon="7.09789">
        <ele>1360.7</ele>
        <time>2023-05-18T15:53:37Z</time>
      </trkpt>
      <trkpt lat="47.8994" lon="7.09783">
        <ele>1359.9</ele>
        <time>2023-05-18T15:53:41Z</time>
      </trkpt>
      <trkpt lat="47.89943" lon="7.09777">
        <ele>1359.3</ele>
        <time>2023-05-18T15:53:45Z</time>
      </trkpt>
      <trkpt lat="47.89946" lon="7.09772">
        <ele>1358.8</ele>
        <time>2023-05-18T15:53:50Z</time>
      </trkpt>
      <trkpt lat="47.89949" lon="7.09761">
        <ele>1356.5</ele>
        <time>2023-05-18T15:54:00Z</time>
      </trkpt>
      <trkpt lat="47.8996" lon="7.09745">
        <ele>1355.1</ele>
        <time>2023-05-18T15:54:14Z</time>
      </trkpt>
      <trkpt lat="47.89962" lon="7.09739">
        <ele>1354</ele>
        <time>2023-05-18T15:54:18Z</time>
      </trkpt>
      <trkpt lat="47.89974" lon="7.09716">
        <ele>1351.5</ele>
        <time>2023-05-18T15:54:36Z</time>
      </trkpt>
      <trkpt lat="47.89978" lon="7.0971">
        <ele>1350.8</ele>
        <time>2023-05-18T15:54:43Z</time>
      </trkpt>
      <trkpt lat="47.8998" lon="7.09703">
        <ele>1349.2</ele>
        <time>2023-05-18T15:54:48Z</time>
      </trkpt>
      <trkpt lat="47.89983" lon="7.09697">
        <ele>1348.3</ele>
        <time>2023-05-18T15:54:53Z</time>
      </trkpt>
      <trkpt lat="47.89987" lon="7.09691">
        <ele>1347.7</ele>
        <time>2023-05-18T15:54:58Z</time>
      </trkpt>
      <trkpt lat="47.8999" lon="7.09685">
        <ele>1346.9</ele>
        <time>2023-05-18T15:55:02Z</time>
      </trkpt>
      <trkpt lat="47.89992" lon="7.09678">
        <ele>1345.5</ele>
        <time>2023-05-18T15:55:06Z</time>
      </trkpt>
      <trkpt lat="47.89995" lon="7.09673">
        <ele>1345.1</ele>
        <time>2023-05-18T15:55:11Z</time>
      </trkpt>
      <trkpt lat="47.89997" lon="7.09665">
        <ele>1343.3</ele>
        <time>2023-05-18T15:55:18Z</time>
      </trkpt>
      <trkpt lat="47.89998" lon="7.09657">
        <ele>1340.8</ele>
        <time>2023-05-18T15:55:22Z</time>
      </trkpt>
      <trkpt lat="47.9" lon="7.09652">
        <ele>1339.7</ele>
        <time>2023-05-18T15:55:26Z</time>
      </trkpt>
      <trkpt lat="47.90004" lon="7.09648">
        <ele>1339.9</ele>
        <time>2023-05-18T15:55:31Z</time>
      </trkpt>
      <trkpt lat="47.90014" lon="7.09633">
        <ele>1339</ele>
        <time>2023-05-18T15:55:43Z</time>
      </trkpt>
      <trkpt lat="47.90016" lon="7.09625">
        <ele>1337.1</ele>
        <time>2023-05-18T15:55:48Z</time>
      </trkpt>
      <trkpt lat="47.90019" lon="7.0962">
        <ele>1336.6</ele>
        <time>2023-05-18T15:55:51Z</time>
      </trkpt>
      <trkpt lat="47.90029" lon="7.09604">
        <ele>1334.8</ele>
        <time>2023-05-18T15:56:08Z</time>
      </trkpt>
      <trkpt lat="47.90033" lon="7.09601">
        <ele>1334.9</ele>
        <time>2023-05-18T15:56:13Z</time>
      </trkpt>
      <trkpt lat="47.90038" lon="7.09583">
        <ele>1329.4</ele>
        <time>2023-05-18T15:56:29Z</time>
      </trkpt>
      <trkpt lat="47.90047" lon="7.09573">
        <ele>1326.9</ele>
        <time>2023-05-18T15:56:41Z</time>
      </trkpt>
      <trkpt lat="47.90051" lon="7.09572">
        <ele>1327.3</ele>
        <time>2023-05-18T15:56:45Z</time>
      </trkpt>
      <trkpt lat="47.90061" lon="7.09568">
        <ele>1327.1</ele>
        <time>2023-05-18T15:56:54Z</time>
      </trkpt>
      <trkpt lat="47.90065" lon="7.09563">
        <ele>1325.1</ele>
        <time>2023-05-18T15:56:58Z</time>
      </trkpt>
      <trkpt lat="47.9007" lon="7.09561">
        <ele>1324.8</ele>
        <time>2023-05-18T15:57:02Z</time>
      </trkpt>
      <trkpt lat="47.90074" lon="7.09558">
        <ele>1323.9</ele>
        <time>2023-05-18T15:57:05Z</time>
      </trkpt>
      <trkpt lat="47.90081" lon="7.09553">
        <ele>1322.3</ele>
        <time>2023-05-18T15:57:14Z</time>
      </trkpt>
      <trkpt lat="47.90091" lon="7.0955">
        <ele>1322.4</ele>
        <time>2023-05-18T15:57:26Z</time>
      </trkpt>
      <trkpt lat="47.90104" lon="7.09535">
        <ele>1317.2</ele>
        <time>2023-05-18T15:57:49Z</time>
      </trkpt>
      <trkpt lat="47.90133" lon="7.0951">
        <ele>1312.5</ele>
        <time>2023-05-18T15:58:21Z</time>
      </trkpt>
      <trkpt lat="47.90137" lon="7.09508">
        <ele>1312.5</ele>
        <time>2023-05-18T15:58:27Z</time>
      </trkpt>
      <trkpt lat="47.90141" lon="7.09504">
        <ele>1311.3</ele>
        <time>2023-05-18T15:58:31Z</time>
      </trkpt>
      <trkpt lat="47.90146" lon="7.09499">
        <ele>1309.5</ele>
        <time>2023-05-18T15:58:41Z</time>
      </trkpt>
      <trkpt lat="47.9015" lon="7.09494">
        <ele>1307.4</ele>
        <time>2023-05-18T15:58:45Z</time>
      </trkpt>
      <trkpt lat="47.90159" lon="7.09491">
        <ele>1307.3</ele>
        <time>2023-05-18T15:58:52Z</time>
      </trkpt>
      <trkpt lat="47.90165" lon="7.09487">
        <ele>1306.2</ele>
        <time>2023-05-18T15:59:04Z</time>
      </trkpt>
      <trkpt lat="47.90169" lon="7.09481">
        <ele>1304.2</ele>
        <time>2023-05-18T15:59:08Z</time>
      </trkpt>
      <trkpt lat="47.90173" lon="7.09478">
        <ele>1304.1</ele>
        <time>2023-05-18T15:59:12Z</time>
      </trkpt>
      <trkpt lat="47.90176" lon="7.09473">
        <ele>1303</ele>
        <time>2023-05-18T15:59:20Z</time>
      </trkpt>
      <trkpt lat="47.90178" lon="7.09465">
        <ele>1301.3</ele>
        <time>2023-05-18T15:59:23Z</time>
      </trkpt>
      <trkpt lat="47.90182" lon="7.09461">
        <ele>1302</ele>
        <time>2023-05-18T15:59:26Z</time>
      </trkpt>
      <trkpt lat="47.90186" lon="7.09457">
        <ele>1302.9</ele>
        <time>2023-05-18T15:59:33Z</time>
      </trkpt>
      <trkpt lat="47.90188" lon="7.09446">
        <ele>1301.4</ele>
        <time>2023-05-18T15:59:40Z</time>
      </trkpt>
      <trkpt lat="47.90188" lon="7.09439">
        <ele>1301.4</ele>
        <time>2023-05-18T15:59:44Z</time>
      </trkpt>
      <trkpt lat="47.90187" lon="7.09432">
        <ele>1301.1</ele>
        <time>2023-05-18T15:59:48Z</time>
      </trkpt>
      <trkpt lat="47.90184" lon="7.09419">
        <ele>1299.3</ele>
        <time>2023-05-18T15:59:56Z</time>
      </trkpt>
      <trkpt lat="47.90183" lon="7.0941">
        <ele>1297.9</ele>
        <time>2023-05-18T16:00:03Z</time>
      </trkpt>
      <trkpt lat="47.90186" lon="7.09399">
        <ele>1299</ele>
        <time>2023-05-18T16:00:12Z</time>
      </trkpt>
      <trkpt lat="47.90186" lon="7.09393">
        <ele>1298.4</ele>
        <time>2023-05-18T16:00:16Z</time>
      </trkpt>
      <trkpt lat="47.90188" lon="7.09387">
        <ele>1299</ele>
        <time>2023-05-18T16:00:20Z</time>
      </trkpt>
      <trkpt lat="47.90194" lon="7.0936">
        <ele>1297.5</ele>
        <time>2023-05-18T16:00:37Z</time>
      </trkpt>
      <trkpt lat="47.90196" lon="7.0935">
        <ele>1295.9</ele>
        <time>2023-05-18T16:00:46Z</time>
      </trkpt>
      <trkpt lat="47.90202" lon="7.09342">
        <ele>1295</ele>
        <time>2023-05-18T16:00:54Z</time>
      </trkpt>
      <trkpt lat="47.90208" lon="7.09328">
        <ele>1292.4</ele>
        <time>2023-05-18T16:01:04Z</time>
      </trkpt>
      <trkpt lat="47.90213" lon="7.09322">
        <ele>1291.4</ele>
        <time>2023-05-18T16:01:11Z</time>
      </trkpt>
      <trkpt lat="47.90216" lon="7.09317">
        <ele>1290.4</ele>
        <time>2023-05-18T16:01:15Z</time>
      </trkpt>
      <trkpt lat="47.9023" lon="7.09301">
        <ele>1287.4</ele>
        <time>2023-05-18T16:01:29Z</time>
      </trkpt>
      <trkpt lat="47.90238" lon="7.0929">
        <ele>1284.7</ele>
        <time>2023-05-18T16:01:38Z</time>
      </trkpt>
      <trkpt lat="47.90248" lon="7.09285">
        <ele>1284.1</ele>
        <time>2023-05-18T16:01:47Z</time>
      </trkpt>
      <trkpt lat="47.90261" lon="7.09282">
        <ele>1282.5</ele>
        <time>2023-05-18T16:01:58Z</time>
      </trkpt>
      <trkpt lat="47.90266" lon="7.09284">
        <ele>1282.6</ele>
        <time>2023-05-18T16:02:02Z</time>
      </trkpt>
      <trkpt lat="47.9027" lon="7.09284">
        <ele>1282.3</ele>
        <time>2023-05-18T16:02:06Z</time>
      </trkpt>
      <trkpt lat="47.90276" lon="7.09281">
        <ele>1281</ele>
        <time>2023-05-18T16:02:11Z</time>
      </trkpt>
      <trkpt lat="47.90281" lon="7.09281">
        <ele>1280.3</ele>
        <time>2023-05-18T16:02:14Z</time>
      </trkpt>
      <trkpt lat="47.90285" lon="7.09279">
        <ele>1279.3</ele>
        <time>2023-05-18T16:02:17Z</time>
      </trkpt>
      <trkpt lat="47.90295" lon="7.0928">
        <ele>1278.1</ele>
        <time>2023-05-18T16:02:24Z</time>
      </trkpt>
      <trkpt lat="47.90304" lon="7.09283">
        <ele>1277.5</ele>
        <time>2023-05-18T16:02:30Z</time>
      </trkpt>
      <trkpt lat="47.90318" lon="7.09281">
        <ele>1274.5</ele>
        <time>2023-05-18T16:02:43Z</time>
      </trkpt>
      <trkpt lat="47.90322" lon="7.09284">
        <ele>1274.5</ele>
        <time>2023-05-18T16:02:47Z</time>
      </trkpt>
      <trkpt lat="47.90327" lon="7.09286">
        <ele>1274</ele>
        <time>2023-05-18T16:02:51Z</time>
      </trkpt>
      <trkpt lat="47.90336" lon="7.09286">
        <ele>1272.2</ele>
        <time>2023-05-18T16:02:59Z</time>
      </trkpt>
      <trkpt lat="47.90341" lon="7.09286">
        <ele>1271.1</ele>
        <time>2023-05-18T16:03:03Z</time>
      </trkpt>
      <trkpt lat="47.90344" lon="7.09289">
        <ele>1271.1</ele>
        <time>2023-05-18T16:03:06Z</time>
      </trkpt>
      <trkpt lat="47.90349" lon="7.09291">
        <ele>1270.5</ele>
        <time>2023-05-18T16:03:10Z</time>
      </trkpt>
      <trkpt lat="47.90354" lon="7.09292">
        <ele>1269.6</ele>
        <time>2023-05-18T16:03:15Z</time>
      </trkpt>
      <trkpt lat="47.90359" lon="7.09294">
        <ele>1269</ele>
        <time>2023-05-18T16:03:19Z</time>
      </trkpt>
      <trkpt lat="47.90364" lon="7.09294">
        <ele>1268</ele>
        <time>2023-05-18T16:03:24Z</time>
      </trkpt>
      <trkpt lat="47.90371" lon="7.09296">
        <ele>1267</ele>
        <time>2023-05-18T16:03:30Z</time>
      </trkpt>
      <trkpt lat="47.90379" lon="7.09295">
        <ele>1265.3</ele>
        <time>2023-05-18T16:03:49Z</time>
      </trkpt>
      <trkpt lat="47.90384" lon="7.09296">
        <ele>1264.6</ele>
        <time>2023-05-18T16:03:53Z</time>
      </trkpt>
      <trkpt lat="47.90388" lon="7.09297">
        <ele>1263.9</ele>
        <time>2023-05-18T16:03:57Z</time>
      </trkpt>
      <trkpt lat="47.90393" lon="7.09297">
        <ele>1263.3</ele>
        <time>2023-05-18T16:04:01Z</time>
      </trkpt>
      <trkpt lat="47.90398" lon="7.09295">
        <ele>1262.5</ele>
        <time>2023-05-18T16:04:06Z</time>
      </trkpt>
      <trkpt lat="47.90401" lon="7.09289">
        <ele>1261.3</ele>
        <time>2023-05-18T16:04:11Z</time>
      </trkpt>
      <trkpt lat="47.90409" lon="7.09269">
        <ele>1257.8</ele>
        <time>2023-05-18T16:04:26Z</time>
      </trkpt>
      <trkpt lat="47.90423" lon="7.09225">
        <ele>1250.7</ele>
        <time>2023-05-18T16:04:58Z</time>
      </trkpt>
      <trkpt lat="47.90428" lon="7.09204">
        <ele>1247.4</ele>
        <time>2023-05-18T16:05:12Z</time>
      </trkpt>
      <trkpt lat="47.90429" lon="7.09197">
        <ele>1246.4</ele>
        <time>2023-05-18T16:05:17Z</time>
      </trkpt>
      <trkpt lat="47.90435" lon="7.09178">
        <ele>1244.3</ele>
        <time>2023-05-18T16:05:31Z</time>
      </trkpt>
      <trkpt lat="47.90444" lon="7.09154">
        <ele>1242.1</ele>
        <time>2023-05-18T16:05:48Z</time>
      </trkpt>
      <trkpt lat="47.90458" lon="7.09102">
        <ele>1236.9</ele>
        <time>2023-05-18T16:06:20Z</time>
      </trkpt>
      <trkpt lat="47.90466" lon="7.09086">
        <ele>1235.4</ele>
        <time>2023-05-18T16:06:32Z</time>
      </trkpt>
      <trkpt lat="47.90493" lon="7.09046">
        <ele>1232.5</ele>
        <time>2023-05-18T16:07:05Z</time>
      </trkpt>
      <trkpt lat="47.90496" lon="7.09041">
        <ele>1232</ele>
        <time>2023-05-18T16:07:09Z</time>
      </trkpt>
      <trkpt lat="47.90498" lon="7.09035">
        <ele>1231.5</ele>
        <time>2023-05-18T16:07:13Z</time>
      </trkpt>
      <trkpt lat="47.90503" lon="7.0903">
        <ele>1231.1</ele>
        <time>2023-05-18T16:07:21Z</time>
      </trkpt>
      <trkpt lat="47.90504" lon="7.09023">
        <ele>1230.9</ele>
        <time>2023-05-18T16:07:25Z</time>
      </trkpt>
      <trkpt lat="47.90505" lon="7.09007">
        <ele>1230.4</ele>
        <time>2023-05-18T16:08:05Z</time>
      </trkpt>
      <trkpt lat="47.90504" lon="7.08999">
        <ele>1230.2</ele>
        <time>2023-05-18T16:08:12Z</time>
      </trkpt>
      <trkpt lat="47.90501" lon="7.08994">
        <ele>1230.1</ele>
        <time>2023-05-18T16:08:16Z</time>
      </trkpt>
      <trkpt lat="47.90497" lon="7.08988">
        <ele>1229.8</ele>
        <time>2023-05-18T16:08:20Z</time>
      </trkpt>
      <trkpt lat="47.90494" lon="7.0898">
        <ele>1229.6</ele>
        <time>2023-05-18T16:08:26Z</time>
      </trkpt>
      <trkpt lat="47.90491" lon="7.08974">
        <ele>1229.4</ele>
        <time>2023-05-18T16:08:30Z</time>
      </trkpt>
      <trkpt lat="47.90491" lon="7.08967">
        <ele>1229.7</ele>
        <time>2023-05-18T16:08:35Z</time>
      </trkpt>
      <trkpt lat="47.90509" lon="7.08978">
        <ele>1230.8</ele>
        <time>2023-05-18T16:47:07Z</time>
      </trkpt>
      <trkpt lat="47.90512" lon="7.08976">
        <ele>1231.2</ele>
        <time>2023-05-18T16:47:12Z</time>
      </trkpt>
      <trkpt lat="47.90515" lon="7.08974">
        <ele>1231.6</ele>
        <time>2023-05-18T16:47:16Z</time>
      </trkpt>
      <trkpt lat="47.90518" lon="7.08968">
        <ele>1232.4</ele>
        <time>2023-05-18T16:47:21Z</time>
      </trkpt>
      <trkpt lat="47.90519" lon="7.08961">
        <ele>1233.4</ele>
        <time>2023-05-18T16:47:26Z</time>
      </trkpt>
      <trkpt lat="47.90517" lon="7.08955">
        <ele>1233.8</ele>
        <time>2023-05-18T16:47:30Z</time>
      </trkpt>
      <trkpt lat="47.90513" lon="7.08951">
        <ele>1233.6</ele>
        <time>2023-05-18T16:47:34Z</time>
      </trkpt>
      <trkpt lat="47.90504" lon="7.08943">
        <ele>1232.9</ele>
        <time>2023-05-18T16:47:41Z</time>
      </trkpt>
      <trkpt lat="47.90503" lon="7.08937">
        <ele>1233.6</ele>
        <time>2023-05-18T16:47:45Z</time>
      </trkpt>
      <trkpt lat="47.90496" lon="7.08931">
        <ele>1233.2</ele>
        <time>2023-05-18T16:48:04Z</time>
      </trkpt>
      <trkpt lat="47.9049" lon="7.08919">
        <ele>1233.3</ele>
        <time>2023-05-18T16:48:17Z</time>
      </trkpt>
      <trkpt lat="47.90488" lon="7.08909">
        <ele>1233.4</ele>
        <time>2023-05-18T16:48:24Z</time>
      </trkpt>
      <trkpt lat="47.90486" lon="7.08902">
        <ele>1233.3</ele>
        <time>2023-05-18T16:48:29Z</time>
      </trkpt>
      <trkpt lat="47.90486" lon="7.08891">
        <ele>1233.9</ele>
        <time>2023-05-18T16:48:36Z</time>
      </trkpt>
      <trkpt lat="47.90484" lon="7.08882">
        <ele>1233.7</ele>
        <time>2023-05-18T16:48:41Z</time>
      </trkpt>
      <trkpt lat="47.90482" lon="7.08874">
        <ele>1233.5</ele>
        <time>2023-05-18T16:48:46Z</time>
      </trkpt>
      <trkpt lat="47.90478" lon="7.08869">
        <ele>1232.5</ele>
        <time>2023-05-18T16:48:49Z</time>
      </trkpt>
      <trkpt lat="47.90475" lon="7.08863">
        <ele>1231.8</ele>
        <time>2023-05-18T16:48:53Z</time>
      </trkpt>
      <trkpt lat="47.90471" lon="7.0886">
        <ele>1230.6</ele>
        <time>2023-05-18T16:48:58Z</time>
      </trkpt>
      <trkpt lat="47.90471" lon="7.08852">
        <ele>1231.2</ele>
        <time>2023-05-18T16:49:03Z</time>
      </trkpt>
      <trkpt lat="47.90474" lon="7.08839">
        <ele>1233.2</ele>
        <time>2023-05-18T16:49:12Z</time>
      </trkpt>
      <trkpt lat="47.90475" lon="7.08819">
        <ele>1234.9</ele>
        <time>2023-05-18T16:49:26Z</time>
      </trkpt>
      <trkpt lat="47.90474" lon="7.08812">
        <ele>1235.1</ele>
        <time>2023-05-18T16:49:30Z</time>
      </trkpt>
      <trkpt lat="47.90473" lon="7.08805">
        <ele>1235.3</ele>
        <time>2023-05-18T16:49:34Z</time>
      </trkpt>
      <trkpt lat="47.90472" lon="7.08797">
        <ele>1235.5</ele>
        <time>2023-05-18T16:49:38Z</time>
      </trkpt>
      <trkpt lat="47.90468" lon="7.08779">
        <ele>1234.9</ele>
        <time>2023-05-18T16:49:52Z</time>
      </trkpt>
      <trkpt lat="47.90464" lon="7.0877">
        <ele>1233.9</ele>
        <time>2023-05-18T16:50:01Z</time>
      </trkpt>
      <trkpt lat="47.90451" lon="7.08733">
        <ele>1233.5</ele>
        <time>2023-05-18T16:50:23Z</time>
      </trkpt>
      <trkpt lat="47.90448" lon="7.08727">
        <ele>1233.4</ele>
        <time>2023-05-18T16:50:27Z</time>
      </trkpt>
      <trkpt lat="47.90444" lon="7.08716">
        <ele>1233.9</ele>
        <time>2023-05-18T16:50:34Z</time>
      </trkpt>
      <trkpt lat="47.90442" lon="7.08709">
        <ele>1234.4</ele>
        <time>2023-05-18T16:50:38Z</time>
      </trkpt>
      <trkpt lat="47.90441" lon="7.08703">
        <ele>1235.1</ele>
        <time>2023-05-18T16:50:42Z</time>
      </trkpt>
      <trkpt lat="47.90438" lon="7.08696">
        <ele>1235.2</ele>
        <time>2023-05-18T16:50:46Z</time>
      </trkpt>
      <trkpt lat="47.90436" lon="7.08691">
        <ele>1235.4</ele>
        <time>2023-05-18T16:50:50Z</time>
      </trkpt>
      <trkpt lat="47.90433" lon="7.08685">
        <ele>1235.5</ele>
        <time>2023-05-18T16:50:54Z</time>
      </trkpt>
      <trkpt lat="47.90427" lon="7.0867">
        <ele>1236.4</ele>
        <time>2023-05-18T16:51:05Z</time>
      </trkpt>
      <trkpt lat="47.90426" lon="7.08664">
        <ele>1237.2</ele>
        <time>2023-05-18T16:51:09Z</time>
      </trkpt>
      <trkpt lat="47.90419" lon="7.08641">
        <ele>1239.4</ele>
        <time>2023-05-18T16:51:27Z</time>
      </trkpt>
      <trkpt lat="47.90416" lon="7.08627">
        <ele>1241.8</ele>
        <time>2023-05-18T16:51:36Z</time>
      </trkpt>
      <trkpt lat="47.90406" lon="7.08607">
        <ele>1244</ele>
        <time>2023-05-18T16:51:55Z</time>
      </trkpt>
      <trkpt lat="47.90404" lon="7.08598">
        <ele>1245.7</ele>
        <time>2023-05-18T16:52:02Z</time>
      </trkpt>
      <trkpt lat="47.90401" lon="7.08592">
        <ele>1246.3</ele>
        <time>2023-05-18T16:52:06Z</time>
      </trkpt>
      <trkpt lat="47.90395" lon="7.08583">
        <ele>1246.9</ele>
        <time>2023-05-18T16:52:14Z</time>
      </trkpt>
      <trkpt lat="47.90399" lon="7.08579">
        <ele>1249</ele>
        <time>2023-05-18T16:52:25Z</time>
      </trkpt>
      <trkpt lat="47.90404" lon="7.08581">
        <ele>1249.9</ele>
        <time>2023-05-18T16:52:30Z</time>
      </trkpt>
      <trkpt lat="47.90404" lon="7.08577">
        <ele>1250.9</ele>
        <time>2023-05-18T16:53:44Z</time>
      </trkpt>
      <trkpt lat="47.90402" lon="7.0857">
        <ele>1252.2</ele>
        <time>2023-05-18T16:54:01Z</time>
      </trkpt>
      <trkpt lat="47.90397" lon="7.08591">
        <ele>1245.4</ele>
        <time>2023-05-18T16:55:02Z</time>
      </trkpt>
      <trkpt lat="47.90404" lon="7.08594">
        <ele>1246.7</ele>
        <time>2023-05-18T16:55:13Z</time>
      </trkpt>
      <trkpt lat="47.90407" lon="7.08592">
        <ele>1248</ele>
        <time>2023-05-18T16:55:18Z</time>
      </trkpt>
      <trkpt lat="47.9041" lon="7.08587">
        <ele>1250.2</ele>
        <time>2023-05-18T16:55:24Z</time>
      </trkpt>
      <trkpt lat="47.90406" lon="7.08581">
        <ele>1250.5</ele>
        <time>2023-05-18T16:56:29Z</time>
      </trkpt>
      <trkpt lat="47.90398" lon="7.0858">
        <ele>1248.5</ele>
        <time>2023-05-18T16:57:01Z</time>
      </trkpt>
      <trkpt lat="47.90395" lon="7.08576">
        <ele>1248.8</ele>
        <time>2023-05-18T16:57:06Z</time>
      </trkpt>
      <trkpt lat="47.90374" lon="7.08545">
        <ele>1251</ele>
        <time>2023-05-18T16:57:36Z</time>
      </trkpt>
      <trkpt lat="47.90371" lon="7.08537">
        <ele>1252.3</ele>
        <time>2023-05-18T16:57:46Z</time>
      </trkpt>
      <trkpt lat="47.90361" lon="7.08515">
        <ele>1255.2</ele>
        <time>2023-05-18T16:58:05Z</time>
      </trkpt>
      <trkpt lat="47.90359" lon="7.08508">
        <ele>1256.3</ele>
        <time>2023-05-18T16:58:13Z</time>
      </trkpt>
      <trkpt lat="47.9036" lon="7.08501">
        <ele>1258.4</ele>
        <time>2023-05-18T16:58:19Z</time>
      </trkpt>
      <trkpt lat="47.90369" lon="7.08486">
        <ele>1264.4</ele>
        <time>2023-05-18T16:58:32Z</time>
      </trkpt>
      <trkpt lat="47.9037" lon="7.08475">
        <ele>1267</ele>
        <time>2023-05-18T16:58:40Z</time>
      </trkpt>
      <trkpt lat="47.90367" lon="7.08456">
        <ele>1270.2</ele>
        <time>2023-05-18T16:59:00Z</time>
      </trkpt>
      <trkpt lat="47.90362" lon="7.08448">
        <ele>1270.5</ele>
        <time>2023-05-18T16:59:12Z</time>
      </trkpt>
      <trkpt lat="47.90357" lon="7.08442">
        <ele>1270</ele>
        <time>2023-05-18T16:59:19Z</time>
      </trkpt>
      <trkpt lat="47.90356" lon="7.08436">
        <ele>1270.6</ele>
        <time>2023-05-18T16:59:27Z</time>
      </trkpt>
      <trkpt lat="47.90352" lon="7.08431">
        <ele>1270</ele>
        <time>2023-05-18T16:59:33Z</time>
      </trkpt>
      <trkpt lat="47.90355" lon="7.08426">
        <ele>1271.7</ele>
        <time>2023-05-18T16:59:51Z</time>
      </trkpt>
      <trkpt lat="47.9036" lon="7.08426">
        <ele>1273.3</ele>
        <time>2023-05-18T17:00:01Z</time>
      </trkpt>
      <trkpt lat="47.90364" lon="7.08428">
        <ele>1274.4</ele>
        <time>2023-05-18T17:00:22Z</time>
      </trkpt>
      <trkpt lat="47.90368" lon="7.08429">
        <ele>1275.6</ele>
        <time>2023-05-18T17:00:41Z</time>
      </trkpt>
      <trkpt lat="47.90368" lon="7.08422">
        <ele>1276.8</ele>
        <time>2023-05-18T17:00:45Z</time>
      </trkpt>
      <trkpt lat="47.90361" lon="7.08389">
        <ele>1279.9</ele>
        <time>2023-05-18T17:01:10Z</time>
      </trkpt>
      <trkpt lat="47.90358" lon="7.08385">
        <ele>1279.7</ele>
        <time>2023-05-18T17:01:15Z</time>
      </trkpt>
      <trkpt lat="47.9036" lon="7.08375">
        <ele>1282.6</ele>
        <time>2023-05-18T17:01:27Z</time>
      </trkpt>
      <trkpt lat="47.90352" lon="7.08355">
        <ele>1284.3</ele>
        <time>2023-05-18T17:01:47Z</time>
      </trkpt>
      <trkpt lat="47.90354" lon="7.08345">
        <ele>1287.8</ele>
        <time>2023-05-18T17:01:57Z</time>
      </trkpt>
      <trkpt lat="47.90352" lon="7.08337">
        <ele>1289.1</ele>
        <time>2023-05-18T17:02:08Z</time>
      </trkpt>
      <trkpt lat="47.90348" lon="7.08322">
        <ele>1291.6</ele>
        <time>2023-05-18T17:02:28Z</time>
      </trkpt>
      <trkpt lat="47.90349" lon="7.08314">
        <ele>1294.3</ele>
        <time>2023-05-18T17:02:32Z</time>
      </trkpt>
      <trkpt lat="47.90344" lon="7.08296">
        <ele>1297.1</ele>
        <time>2023-05-18T17:02:52Z</time>
      </trkpt>
      <trkpt lat="47.90341" lon="7.08264">
        <ele>1304.3</ele>
        <time>2023-05-18T17:03:27Z</time>
      </trkpt>
      <trkpt lat="47.90345" lon="7.08262">
        <ele>1306.9</ele>
        <time>2023-05-18T17:03:35Z</time>
      </trkpt>
      <trkpt lat="47.90346" lon="7.08253">
        <ele>1310</ele>
        <time>2023-05-18T17:03:47Z</time>
      </trkpt>
      <trkpt lat="47.90345" lon="7.08246">
        <ele>1311.4</ele>
        <time>2023-05-18T17:03:53Z</time>
      </trkpt>
      <trkpt lat="47.9034" lon="7.08209">
        <ele>1317.9</ele>
        <time>2023-05-18T17:04:27Z</time>
      </trkpt>
      <trkpt lat="47.90341" lon="7.08203">
        <ele>1319.9</ele>
        <time>2023-05-18T17:04:32Z</time>
      </trkpt>
      <trkpt lat="47.90338" lon="7.08166">
        <ele>1329.3</ele>
        <time>2023-05-18T17:05:09Z</time>
      </trkpt>
      <trkpt lat="47.9033" lon="7.08143">
        <ele>1334.6</ele>
        <time>2023-05-18T17:05:39Z</time>
      </trkpt>
      <trkpt lat="47.90328" lon="7.08135">
        <ele>1336.1</ele>
        <time>2023-05-18T17:05:48Z</time>
      </trkpt>
      <trkpt lat="47.90326" lon="7.08118">
        <ele>1337.9</ele>
        <time>2023-05-18T17:06:10Z</time>
      </trkpt>
      <trkpt lat="47.90331" lon="7.08112">
        <ele>1338.8</ele>
        <time>2023-05-18T17:06:23Z</time>
      </trkpt>
      <trkpt lat="47.90338" lon="7.08109">
        <ele>1338.9</ele>
        <time>2023-05-18T17:06:41Z</time>
      </trkpt>
      <trkpt lat="47.90342" lon="7.08101">
        <ele>1339.1</ele>
        <time>2023-05-18T17:06:49Z</time>
      </trkpt>
      <trkpt lat="47.90345" lon="7.08097">
        <ele>1339.1</ele>
        <time>2023-05-18T17:06:54Z</time>
      </trkpt>
      <trkpt lat="47.90349" lon="7.08094">
        <ele>1339.1</ele>
        <time>2023-05-18T17:06:59Z</time>
      </trkpt>
      <trkpt lat="47.90353" lon="7.081">
        <ele>1338.7</ele>
        <time>2023-05-18T17:07:19Z</time>
      </trkpt>
      <trkpt lat="47.90358" lon="7.08101">
        <ele>1338.5</ele>
        <time>2023-05-18T17:07:23Z</time>
      </trkpt>
      <trkpt lat="47.90362" lon="7.08102">
        <ele>1338.3</ele>
        <time>2023-05-18T17:07:27Z</time>
      </trkpt>
      <trkpt lat="47.90368" lon="7.08104">
        <ele>1338.4</ele>
        <time>2023-05-18T17:07:36Z</time>
      </trkpt>
      <trkpt lat="47.90373" lon="7.08111">
        <ele>1338.4</ele>
        <time>2023-05-18T17:07:56Z</time>
      </trkpt>
      <trkpt lat="47.90385" lon="7.08124">
        <ele>1338.8</ele>
        <time>2023-05-18T17:08:10Z</time>
      </trkpt>
      <trkpt lat="47.90392" lon="7.0813">
        <ele>1339.3</ele>
        <time>2023-05-18T17:08:26Z</time>
      </trkpt>
      <trkpt lat="47.90391" lon="7.08138">
        <ele>1339.3</ele>
        <time>2023-05-18T17:08:42Z</time>
      </trkpt>
      <trkpt lat="47.90385" lon="7.08133">
        <ele>1338.7</ele>
        <time>2023-05-18T17:08:53Z</time>
      </trkpt>
      <trkpt lat="47.90383" lon="7.0814">
        <ele>1338.6</ele>
        <time>2023-05-18T17:09:05Z</time>
      </trkpt>
      <trkpt lat="47.90383" lon="7.08139">
        <ele>1338.6</ele>
        <time>2023-05-18T17:09:35Z</time>
      </trkpt>
    </trkseg>
  </trk>
</gpx>